<?xml version="1.0" encoding="UTF-8" standalone="no" ?>
<gpx xmlns="http://www.topografix.com/GPX/1/1" xmlns:xsi="http://www.w3.org/2001/XMLSchema-instance" xsi:schemaLocation="http://www.topografix.com/GPX/1/1 http://www.topografix.com/GPX/1/1/gpx.xsd" version="1.1" creator="VisuGPX - https://www.visugpx.com">
  <metadata>
    <name>Thoraise 2022 V2</name>
  </metadata>
  <trk>
    <name><![CDATA[Sortie VTT en soirée]]></name>
    <extensions>
      <line xmlns="http://www.topografix.com/GPX/gpx_style/0/2">
        <color>0000FF</color>
        <width>4</width>
      </line>
    </extensions>
    <trkseg>
      <trkpt lat="47.17845" lon="5.90297">
        <ele>227.8</ele>
        <time>2022-07-24T17:00:38Z</time>
        <extensions>
          <visugpx:TrkExtension xmlns:visugpx="https://www.visugpx.com/editgpx/">
            <visugpx:node>3</visugpx:node>
            </visugpx:TrkExtension>
        </extensions>
      </trkpt>
      <trkpt lat="47.17844" lon="5.90296">
        <ele>236.8</ele>
        <time>2022-07-24T17:00:48Z</time>
      </trkpt>
      <trkpt lat="47.17847" lon="5.90291">
        <ele>236.6</ele>
        <time>2022-07-24T17:00:51Z</time>
      </trkpt>
      <trkpt lat="47.17856" lon="5.90271">
        <ele>237</ele>
        <time>2022-07-24T17:00:58Z</time>
      </trkpt>
      <trkpt lat="47.17861" lon="5.90262">
        <ele>237</ele>
        <time>2022-07-24T17:01:01Z</time>
      </trkpt>
      <trkpt lat="47.17866" lon="5.9025">
        <ele>237.2</ele>
        <time>2022-07-24T17:01:05Z</time>
      </trkpt>
      <trkpt lat="47.17867" lon="5.90247">
        <ele>237.2</ele>
        <time>2022-07-24T17:01:06Z</time>
      </trkpt>
      <trkpt lat="47.17871" lon="5.90239">
        <ele>237.2</ele>
        <time>2022-07-24T17:01:09Z</time>
      </trkpt>
      <trkpt lat="47.17873" lon="5.90236">
        <ele>237.4</ele>
        <time>2022-07-24T17:01:10Z</time>
      </trkpt>
      <trkpt lat="47.17875" lon="5.90231">
        <ele>237.6</ele>
        <time>2022-07-24T17:01:12Z</time>
      </trkpt>
      <trkpt lat="47.17877" lon="5.90229">
        <ele>237.6</ele>
        <time>2022-07-24T17:01:13Z</time>
      </trkpt>
      <trkpt lat="47.1788" lon="5.90226">
        <ele>237.6</ele>
        <time>2022-07-24T17:01:14Z</time>
      </trkpt>
      <trkpt lat="47.17888" lon="5.90223">
        <ele>237.6</ele>
        <time>2022-07-24T17:01:17Z</time>
      </trkpt>
      <trkpt lat="47.1789" lon="5.90223">
        <ele>237.8</ele>
        <time>2022-07-24T17:01:18Z</time>
      </trkpt>
      <trkpt lat="47.17895" lon="5.90223">
        <ele>237.8</ele>
        <time>2022-07-24T17:01:19Z</time>
      </trkpt>
      <trkpt lat="47.17899" lon="5.90222">
        <ele>237.8</ele>
        <time>2022-07-24T17:01:20Z</time>
      </trkpt>
      <trkpt lat="47.17908" lon="5.90215">
        <ele>237.8</ele>
        <time>2022-07-24T17:01:22Z</time>
      </trkpt>
      <trkpt lat="47.17911" lon="5.9021">
        <ele>237.8</ele>
        <time>2022-07-24T17:01:23Z</time>
      </trkpt>
      <trkpt lat="47.17913" lon="5.90205">
        <ele>237.6</ele>
        <time>2022-07-24T17:01:24Z</time>
      </trkpt>
      <trkpt lat="47.17915" lon="5.902">
        <ele>237.6</ele>
        <time>2022-07-24T17:01:25Z</time>
      </trkpt>
      <trkpt lat="47.17917" lon="5.90196">
        <ele>237.4</ele>
        <time>2022-07-24T17:01:26Z</time>
      </trkpt>
      <trkpt lat="47.17918" lon="5.90193">
        <ele>237.2</ele>
        <time>2022-07-24T17:01:27Z</time>
      </trkpt>
      <trkpt lat="47.17919" lon="5.9019">
        <ele>237.2</ele>
        <time>2022-07-24T17:01:28Z</time>
      </trkpt>
      <trkpt lat="47.17921" lon="5.90188">
        <ele>237.2</ele>
        <time>2022-07-24T17:01:29Z</time>
      </trkpt>
      <trkpt lat="47.17922" lon="5.90185">
        <ele>237.2</ele>
        <time>2022-07-24T17:01:30Z</time>
      </trkpt>
      <trkpt lat="47.17923" lon="5.90182">
        <ele>237.2</ele>
        <time>2022-07-24T17:01:31Z</time>
      </trkpt>
      <trkpt lat="47.17925" lon="5.90179">
        <ele>237.2</ele>
        <time>2022-07-24T17:01:32Z</time>
      </trkpt>
      <trkpt lat="47.1793" lon="5.90162">
        <ele>237.2</ele>
        <time>2022-07-24T17:01:37Z</time>
      </trkpt>
      <trkpt lat="47.17931" lon="5.90161">
        <ele>237.2</ele>
        <time>2022-07-24T17:01:38Z</time>
      </trkpt>
      <trkpt lat="47.17932" lon="5.9016">
        <ele>236.8</ele>
        <time>2022-07-24T17:02:06Z</time>
      </trkpt>
      <trkpt lat="47.17933" lon="5.90153">
        <ele>236.8</ele>
        <time>2022-07-24T17:02:08Z</time>
      </trkpt>
      <trkpt lat="47.17941" lon="5.90132">
        <ele>236.8</ele>
        <time>2022-07-24T17:02:13Z</time>
      </trkpt>
      <trkpt lat="47.17944" lon="5.90128">
        <ele>236.6</ele>
        <time>2022-07-24T17:02:14Z</time>
      </trkpt>
      <trkpt lat="47.17952" lon="5.90115">
        <ele>236.8</ele>
        <time>2022-07-24T17:02:18Z</time>
      </trkpt>
      <trkpt lat="47.17954" lon="5.90113">
        <ele>236.8</ele>
        <time>2022-07-24T17:02:19Z</time>
      </trkpt>
      <trkpt lat="47.17956" lon="5.90111">
        <ele>237</ele>
        <time>2022-07-24T17:02:20Z</time>
      </trkpt>
      <trkpt lat="47.17957" lon="5.90109">
        <ele>237</ele>
        <time>2022-07-24T17:02:21Z</time>
      </trkpt>
      <trkpt lat="47.17959" lon="5.90106">
        <ele>237</ele>
        <time>2022-07-24T17:02:22Z</time>
      </trkpt>
      <trkpt lat="47.1796" lon="5.90104">
        <ele>237</ele>
        <time>2022-07-24T17:02:23Z</time>
      </trkpt>
      <trkpt lat="47.17962" lon="5.90102">
        <ele>237.2</ele>
        <time>2022-07-24T17:02:24Z</time>
      </trkpt>
      <trkpt lat="47.17963" lon="5.901">
        <ele>237.2</ele>
        <time>2022-07-24T17:02:25Z</time>
      </trkpt>
      <trkpt lat="47.17965" lon="5.90098">
        <ele>237.2</ele>
        <time>2022-07-24T17:02:26Z</time>
      </trkpt>
      <trkpt lat="47.17966" lon="5.90096">
        <ele>237.4</ele>
        <time>2022-07-24T17:02:27Z</time>
      </trkpt>
      <trkpt lat="47.17968" lon="5.90095">
        <ele>237.4</ele>
        <time>2022-07-24T17:02:28Z</time>
      </trkpt>
      <trkpt lat="47.17969" lon="5.90093">
        <ele>237.6</ele>
        <time>2022-07-24T17:02:29Z</time>
      </trkpt>
      <trkpt lat="47.1797" lon="5.90091">
        <ele>237.6</ele>
        <time>2022-07-24T17:02:30Z</time>
      </trkpt>
      <trkpt lat="47.17972" lon="5.90089">
        <ele>237.8</ele>
        <time>2022-07-24T17:02:31Z</time>
      </trkpt>
      <trkpt lat="47.17973" lon="5.90087">
        <ele>237.8</ele>
        <time>2022-07-24T17:02:32Z</time>
      </trkpt>
      <trkpt lat="47.17979" lon="5.90078">
        <ele>238</ele>
        <time>2022-07-24T17:02:35Z</time>
      </trkpt>
      <trkpt lat="47.1799" lon="5.9006">
        <ele>238</ele>
        <time>2022-07-24T17:02:40Z</time>
      </trkpt>
      <trkpt lat="47.17994" lon="5.90053">
        <ele>238</ele>
        <time>2022-07-24T17:02:42Z</time>
      </trkpt>
      <trkpt lat="47.17999" lon="5.90039">
        <ele>237.8</ele>
        <time>2022-07-24T17:02:46Z</time>
      </trkpt>
      <trkpt lat="47.18" lon="5.90036">
        <ele>237.8</ele>
        <time>2022-07-24T17:02:47Z</time>
      </trkpt>
      <trkpt lat="47.18002" lon="5.90032">
        <ele>237.8</ele>
        <time>2022-07-24T17:02:48Z</time>
      </trkpt>
      <trkpt lat="47.1801" lon="5.90013">
        <ele>237.8</ele>
        <time>2022-07-24T17:02:53Z</time>
      </trkpt>
      <trkpt lat="47.18011" lon="5.90009">
        <ele>237.8</ele>
        <time>2022-07-24T17:02:54Z</time>
      </trkpt>
      <trkpt lat="47.18013" lon="5.90004">
        <ele>237.8</ele>
        <time>2022-07-24T17:02:55Z</time>
      </trkpt>
      <trkpt lat="47.18023" lon="5.89991">
        <ele>237.8</ele>
        <time>2022-07-24T17:03:00Z</time>
      </trkpt>
      <trkpt lat="47.18024" lon="5.8999">
        <ele>237.8</ele>
        <time>2022-07-24T17:03:01Z</time>
      </trkpt>
      <trkpt lat="47.18027" lon="5.89989">
        <ele>237.6</ele>
        <time>2022-07-24T17:03:02Z</time>
      </trkpt>
      <trkpt lat="47.18029" lon="5.89987">
        <ele>237.6</ele>
        <time>2022-07-24T17:03:03Z</time>
      </trkpt>
      <trkpt lat="47.18031" lon="5.89986">
        <ele>237.6</ele>
        <time>2022-07-24T17:03:04Z</time>
      </trkpt>
      <trkpt lat="47.18034" lon="5.89984">
        <ele>237.6</ele>
        <time>2022-07-24T17:03:05Z</time>
      </trkpt>
      <trkpt lat="47.18036" lon="5.89981">
        <ele>237.6</ele>
        <time>2022-07-24T17:03:06Z</time>
      </trkpt>
      <trkpt lat="47.18039" lon="5.89978">
        <ele>237.6</ele>
        <time>2022-07-24T17:03:07Z</time>
      </trkpt>
      <trkpt lat="47.18042" lon="5.89975">
        <ele>237.6</ele>
        <time>2022-07-24T17:03:08Z</time>
      </trkpt>
      <trkpt lat="47.1805" lon="5.89963">
        <ele>237.6</ele>
        <time>2022-07-24T17:03:11Z</time>
      </trkpt>
      <trkpt lat="47.18055" lon="5.89955">
        <ele>237.6</ele>
        <time>2022-07-24T17:03:13Z</time>
      </trkpt>
      <trkpt lat="47.18057" lon="5.89951">
        <ele>237.6</ele>
        <time>2022-07-24T17:03:14Z</time>
      </trkpt>
      <trkpt lat="47.18067" lon="5.89938">
        <ele>237.2</ele>
        <time>2022-07-24T17:03:18Z</time>
      </trkpt>
      <trkpt lat="47.18079" lon="5.89914">
        <ele>237</ele>
        <time>2022-07-24T17:03:24Z</time>
      </trkpt>
      <trkpt lat="47.18088" lon="5.89899">
        <ele>236.8</ele>
        <time>2022-07-24T17:03:28Z</time>
      </trkpt>
      <trkpt lat="47.18095" lon="5.89885">
        <ele>236.8</ele>
        <time>2022-07-24T17:03:32Z</time>
      </trkpt>
      <trkpt lat="47.18097" lon="5.89882">
        <ele>236.8</ele>
        <time>2022-07-24T17:03:33Z</time>
      </trkpt>
      <trkpt lat="47.18098" lon="5.89878">
        <ele>236.8</ele>
        <time>2022-07-24T17:03:34Z</time>
      </trkpt>
      <trkpt lat="47.181" lon="5.89874">
        <ele>237</ele>
        <time>2022-07-24T17:03:35Z</time>
      </trkpt>
      <trkpt lat="47.18108" lon="5.8986">
        <ele>237.2</ele>
        <time>2022-07-24T17:03:39Z</time>
      </trkpt>
      <trkpt lat="47.18114" lon="5.89849">
        <ele>237.2</ele>
        <time>2022-07-24T17:03:42Z</time>
      </trkpt>
      <trkpt lat="47.18127" lon="5.89818">
        <ele>237</ele>
        <time>2022-07-24T17:03:50Z</time>
      </trkpt>
      <trkpt lat="47.18129" lon="5.89807">
        <ele>236.8</ele>
        <time>2022-07-24T17:03:53Z</time>
      </trkpt>
      <trkpt lat="47.18129" lon="5.89803">
        <ele>236.8</ele>
        <time>2022-07-24T17:03:54Z</time>
      </trkpt>
      <trkpt lat="47.18129" lon="5.89799">
        <ele>237</ele>
        <time>2022-07-24T17:03:55Z</time>
      </trkpt>
      <trkpt lat="47.18129" lon="5.89794">
        <ele>236.8</ele>
        <time>2022-07-24T17:03:56Z</time>
      </trkpt>
      <trkpt lat="47.1813" lon="5.89789">
        <ele>236.8</ele>
        <time>2022-07-24T17:03:57Z</time>
      </trkpt>
      <trkpt lat="47.18133" lon="5.89782">
        <ele>236.6</ele>
        <time>2022-07-24T17:03:59Z</time>
      </trkpt>
      <trkpt lat="47.18134" lon="5.89779">
        <ele>236.6</ele>
        <time>2022-07-24T17:04:00Z</time>
      </trkpt>
      <trkpt lat="47.18137" lon="5.89777">
        <ele>236.4</ele>
        <time>2022-07-24T17:04:01Z</time>
      </trkpt>
      <trkpt lat="47.18139" lon="5.89776">
        <ele>236.4</ele>
        <time>2022-07-24T17:04:02Z</time>
      </trkpt>
      <trkpt lat="47.18143" lon="5.89775">
        <ele>236.4</ele>
        <time>2022-07-24T17:04:03Z</time>
      </trkpt>
      <trkpt lat="47.18146" lon="5.89775">
        <ele>236.4</ele>
        <time>2022-07-24T17:04:04Z</time>
      </trkpt>
      <trkpt lat="47.18152" lon="5.89776">
        <ele>236</ele>
        <time>2022-07-24T17:04:06Z</time>
      </trkpt>
      <trkpt lat="47.18154" lon="5.89776">
        <ele>236.2</ele>
        <time>2022-07-24T17:04:07Z</time>
      </trkpt>
      <trkpt lat="47.18156" lon="5.89776">
        <ele>236.2</ele>
        <time>2022-07-24T17:04:08Z</time>
      </trkpt>
      <trkpt lat="47.18158" lon="5.89775">
        <ele>236.2</ele>
        <time>2022-07-24T17:04:09Z</time>
      </trkpt>
      <trkpt lat="47.18159" lon="5.89773">
        <ele>236.4</ele>
        <time>2022-07-24T17:04:10Z</time>
      </trkpt>
      <trkpt lat="47.1816" lon="5.89771">
        <ele>236.4</ele>
        <time>2022-07-24T17:04:11Z</time>
      </trkpt>
      <trkpt lat="47.18162" lon="5.89769">
        <ele>236.4</ele>
        <time>2022-07-24T17:04:12Z</time>
      </trkpt>
      <trkpt lat="47.18164" lon="5.89765">
        <ele>236.6</ele>
        <time>2022-07-24T17:04:13Z</time>
      </trkpt>
      <trkpt lat="47.18167" lon="5.8976">
        <ele>236.6</ele>
        <time>2022-07-24T17:04:15Z</time>
      </trkpt>
      <trkpt lat="47.18169" lon="5.89758">
        <ele>236.8</ele>
        <time>2022-07-24T17:04:16Z</time>
      </trkpt>
      <trkpt lat="47.18171" lon="5.89755">
        <ele>236.8</ele>
        <time>2022-07-24T17:04:17Z</time>
      </trkpt>
      <trkpt lat="47.18172" lon="5.89752">
        <ele>236.8</ele>
        <time>2022-07-24T17:04:18Z</time>
      </trkpt>
      <trkpt lat="47.18174" lon="5.8975">
        <ele>236.8</ele>
        <time>2022-07-24T17:04:19Z</time>
      </trkpt>
      <trkpt lat="47.18176" lon="5.89747">
        <ele>236.8</ele>
        <time>2022-07-24T17:04:20Z</time>
      </trkpt>
      <trkpt lat="47.18177" lon="5.89746">
        <ele>237</ele>
        <time>2022-07-24T17:04:21Z</time>
      </trkpt>
      <trkpt lat="47.18178" lon="5.89745">
        <ele>237</ele>
        <time>2022-07-24T17:04:22Z</time>
      </trkpt>
      <trkpt lat="47.18179" lon="5.89741">
        <ele>237</ele>
        <time>2022-07-24T17:04:23Z</time>
      </trkpt>
      <trkpt lat="47.18179" lon="5.89738">
        <ele>237</ele>
        <time>2022-07-24T17:04:24Z</time>
      </trkpt>
      <trkpt lat="47.1818" lon="5.89734">
        <ele>237</ele>
        <time>2022-07-24T17:04:25Z</time>
      </trkpt>
      <trkpt lat="47.18182" lon="5.89731">
        <ele>237</ele>
        <time>2022-07-24T17:04:26Z</time>
      </trkpt>
      <trkpt lat="47.18184" lon="5.89728">
        <ele>237</ele>
        <time>2022-07-24T17:04:27Z</time>
      </trkpt>
      <trkpt lat="47.18186" lon="5.89725">
        <ele>237.2</ele>
        <time>2022-07-24T17:04:28Z</time>
      </trkpt>
      <trkpt lat="47.18189" lon="5.89723">
        <ele>237.2</ele>
        <time>2022-07-24T17:04:29Z</time>
      </trkpt>
      <trkpt lat="47.18191" lon="5.89721">
        <ele>237.6</ele>
        <time>2022-07-24T17:04:30Z</time>
      </trkpt>
      <trkpt lat="47.18197" lon="5.89709">
        <ele>238.2</ele>
        <time>2022-07-24T17:04:34Z</time>
      </trkpt>
      <trkpt lat="47.18198" lon="5.89705">
        <ele>238.2</ele>
        <time>2022-07-24T17:04:35Z</time>
      </trkpt>
      <trkpt lat="47.182" lon="5.89702">
        <ele>238.2</ele>
        <time>2022-07-24T17:04:36Z</time>
      </trkpt>
      <trkpt lat="47.18209" lon="5.89692">
        <ele>238.2</ele>
        <time>2022-07-24T17:04:40Z</time>
      </trkpt>
      <trkpt lat="47.18224" lon="5.89678">
        <ele>237.6</ele>
        <time>2022-07-24T17:04:46Z</time>
      </trkpt>
      <trkpt lat="47.18225" lon="5.89674">
        <ele>237.6</ele>
        <time>2022-07-24T17:04:47Z</time>
      </trkpt>
      <trkpt lat="47.1824" lon="5.89652">
        <ele>237.6</ele>
        <time>2022-07-24T17:04:54Z</time>
      </trkpt>
      <trkpt lat="47.18261" lon="5.89626">
        <ele>237.8</ele>
        <time>2022-07-24T17:05:02Z</time>
      </trkpt>
      <trkpt lat="47.18275" lon="5.896">
        <ele>237.4</ele>
        <time>2022-07-24T17:05:09Z</time>
      </trkpt>
      <trkpt lat="47.18276" lon="5.89596">
        <ele>237.4</ele>
        <time>2022-07-24T17:05:10Z</time>
      </trkpt>
      <trkpt lat="47.18278" lon="5.89592">
        <ele>237.2</ele>
        <time>2022-07-24T17:05:11Z</time>
      </trkpt>
      <trkpt lat="47.18279" lon="5.89588">
        <ele>237.2</ele>
        <time>2022-07-24T17:05:12Z</time>
      </trkpt>
      <trkpt lat="47.18284" lon="5.89574">
        <ele>237.2</ele>
        <time>2022-07-24T17:05:15Z</time>
      </trkpt>
      <trkpt lat="47.1829" lon="5.89568">
        <ele>237.2</ele>
        <time>2022-07-24T17:05:17Z</time>
      </trkpt>
      <trkpt lat="47.18292" lon="5.89565">
        <ele>237.2</ele>
        <time>2022-07-24T17:05:18Z</time>
      </trkpt>
      <trkpt lat="47.18301" lon="5.89556">
        <ele>237</ele>
        <time>2022-07-24T17:05:21Z</time>
      </trkpt>
      <trkpt lat="47.18303" lon="5.89553">
        <ele>237</ele>
        <time>2022-07-24T17:05:22Z</time>
      </trkpt>
      <trkpt lat="47.18305" lon="5.8955">
        <ele>237</ele>
        <time>2022-07-24T17:05:23Z</time>
      </trkpt>
      <trkpt lat="47.18307" lon="5.89547">
        <ele>236.8</ele>
        <time>2022-07-24T17:05:24Z</time>
      </trkpt>
      <trkpt lat="47.1831" lon="5.89544">
        <ele>236.8</ele>
        <time>2022-07-24T17:05:25Z</time>
      </trkpt>
      <trkpt lat="47.18312" lon="5.89541">
        <ele>236.8</ele>
        <time>2022-07-24T17:05:26Z</time>
      </trkpt>
      <trkpt lat="47.18315" lon="5.89538">
        <ele>236.8</ele>
        <time>2022-07-24T17:05:27Z</time>
      </trkpt>
      <trkpt lat="47.18346" lon="5.89497">
        <ele>237.4</ele>
        <time>2022-07-24T17:05:39Z</time>
      </trkpt>
      <trkpt lat="47.18375" lon="5.89463">
        <ele>237.6</ele>
        <time>2022-07-24T17:05:48Z</time>
      </trkpt>
      <trkpt lat="47.18386" lon="5.89451">
        <ele>237.4</ele>
        <time>2022-07-24T17:05:51Z</time>
      </trkpt>
      <trkpt lat="47.18388" lon="5.89448">
        <ele>237.4</ele>
        <time>2022-07-24T17:05:52Z</time>
      </trkpt>
      <trkpt lat="47.18391" lon="5.89444">
        <ele>237.2</ele>
        <time>2022-07-24T17:05:53Z</time>
      </trkpt>
      <trkpt lat="47.18394" lon="5.89441">
        <ele>237.2</ele>
        <time>2022-07-24T17:05:54Z</time>
      </trkpt>
      <trkpt lat="47.18399" lon="5.89434">
        <ele>237</ele>
        <time>2022-07-24T17:05:56Z</time>
      </trkpt>
      <trkpt lat="47.18401" lon="5.89431">
        <ele>237</ele>
        <time>2022-07-24T17:05:57Z</time>
      </trkpt>
      <trkpt lat="47.18404" lon="5.89428">
        <ele>236.8</ele>
        <time>2022-07-24T17:05:58Z</time>
      </trkpt>
      <trkpt lat="47.18406" lon="5.89424">
        <ele>236.8</ele>
        <time>2022-07-24T17:05:59Z</time>
      </trkpt>
      <trkpt lat="47.18408" lon="5.89421">
        <ele>236.8</ele>
        <time>2022-07-24T17:06:00Z</time>
      </trkpt>
      <trkpt lat="47.1841" lon="5.89417">
        <ele>236.8</ele>
        <time>2022-07-24T17:06:01Z</time>
      </trkpt>
      <trkpt lat="47.18412" lon="5.89413">
        <ele>237</ele>
        <time>2022-07-24T17:06:02Z</time>
      </trkpt>
      <trkpt lat="47.18414" lon="5.89409">
        <ele>237</ele>
        <time>2022-07-24T17:06:03Z</time>
      </trkpt>
      <trkpt lat="47.18416" lon="5.89405">
        <ele>236.8</ele>
        <time>2022-07-24T17:06:04Z</time>
      </trkpt>
      <trkpt lat="47.18418" lon="5.89402">
        <ele>236.8</ele>
        <time>2022-07-24T17:06:05Z</time>
      </trkpt>
      <trkpt lat="47.18422" lon="5.89392">
        <ele>236.8</ele>
        <time>2022-07-24T17:06:07Z</time>
      </trkpt>
      <trkpt lat="47.18426" lon="5.89379">
        <ele>236.8</ele>
        <time>2022-07-24T17:06:10Z</time>
      </trkpt>
      <trkpt lat="47.18429" lon="5.8937">
        <ele>236.8</ele>
        <time>2022-07-24T17:06:13Z</time>
      </trkpt>
      <trkpt lat="47.1843" lon="5.89367">
        <ele>236.8</ele>
        <time>2022-07-24T17:06:14Z</time>
      </trkpt>
      <trkpt lat="47.1843" lon="5.89363">
        <ele>236.8</ele>
        <time>2022-07-24T17:06:15Z</time>
      </trkpt>
      <trkpt lat="47.1843" lon="5.8936">
        <ele>236.8</ele>
        <time>2022-07-24T17:06:16Z</time>
      </trkpt>
      <trkpt lat="47.18431" lon="5.89354">
        <ele>236.8</ele>
        <time>2022-07-24T17:06:18Z</time>
      </trkpt>
      <trkpt lat="47.18432" lon="5.89349">
        <ele>236.8</ele>
        <time>2022-07-24T17:06:19Z</time>
      </trkpt>
      <trkpt lat="47.18434" lon="5.89346">
        <ele>236.8</ele>
        <time>2022-07-24T17:06:20Z</time>
      </trkpt>
      <trkpt lat="47.18436" lon="5.89339">
        <ele>236.8</ele>
        <time>2022-07-24T17:06:22Z</time>
      </trkpt>
      <trkpt lat="47.18437" lon="5.89335">
        <ele>236.8</ele>
        <time>2022-07-24T17:06:23Z</time>
      </trkpt>
      <trkpt lat="47.18439" lon="5.8933">
        <ele>237</ele>
        <time>2022-07-24T17:06:24Z</time>
      </trkpt>
      <trkpt lat="47.1844" lon="5.89327">
        <ele>237.2</ele>
        <time>2022-07-24T17:06:25Z</time>
      </trkpt>
      <trkpt lat="47.18442" lon="5.89301">
        <ele>237.2</ele>
        <time>2022-07-24T17:06:29Z</time>
      </trkpt>
      <trkpt lat="47.18442" lon="5.89289">
        <ele>237.2</ele>
        <time>2022-07-24T17:06:31Z</time>
      </trkpt>
      <trkpt lat="47.18441" lon="5.89284">
        <ele>237.2</ele>
        <time>2022-07-24T17:06:32Z</time>
      </trkpt>
      <trkpt lat="47.18441" lon="5.89279">
        <ele>237.2</ele>
        <time>2022-07-24T17:06:33Z</time>
      </trkpt>
      <trkpt lat="47.1844" lon="5.89273">
        <ele>237.2</ele>
        <time>2022-07-24T17:06:34Z</time>
      </trkpt>
      <trkpt lat="47.18434" lon="5.89246">
        <ele>237.4</ele>
        <time>2022-07-24T17:06:39Z</time>
      </trkpt>
      <trkpt lat="47.18433" lon="5.8924">
        <ele>237.4</ele>
        <time>2022-07-24T17:06:40Z</time>
      </trkpt>
      <trkpt lat="47.18426" lon="5.89213">
        <ele>237.6</ele>
        <time>2022-07-24T17:06:44Z</time>
      </trkpt>
      <trkpt lat="47.18425" lon="5.89205">
        <ele>237.4</ele>
        <time>2022-07-24T17:06:45Z</time>
      </trkpt>
      <trkpt lat="47.18419" lon="5.89185">
        <ele>237.2</ele>
        <time>2022-07-24T17:06:48Z</time>
      </trkpt>
      <trkpt lat="47.18414" lon="5.89177">
        <ele>237</ele>
        <time>2022-07-24T17:06:50Z</time>
      </trkpt>
      <trkpt lat="47.18411" lon="5.89173">
        <ele>236.8</ele>
        <time>2022-07-24T17:06:51Z</time>
      </trkpt>
      <trkpt lat="47.18409" lon="5.89171">
        <ele>236.8</ele>
        <time>2022-07-24T17:06:52Z</time>
      </trkpt>
      <trkpt lat="47.18407" lon="5.89168">
        <ele>236.6</ele>
        <time>2022-07-24T17:06:53Z</time>
      </trkpt>
      <trkpt lat="47.18404" lon="5.89165">
        <ele>236.6</ele>
        <time>2022-07-24T17:06:54Z</time>
      </trkpt>
      <trkpt lat="47.18401" lon="5.89163">
        <ele>236.4</ele>
        <time>2022-07-24T17:06:55Z</time>
      </trkpt>
      <trkpt lat="47.18396" lon="5.89157">
        <ele>236.4</ele>
        <time>2022-07-24T17:06:57Z</time>
      </trkpt>
      <trkpt lat="47.18394" lon="5.89154">
        <ele>236.4</ele>
        <time>2022-07-24T17:06:58Z</time>
      </trkpt>
      <trkpt lat="47.18391" lon="5.89152">
        <ele>236.4</ele>
        <time>2022-07-24T17:06:59Z</time>
      </trkpt>
      <trkpt lat="47.18387" lon="5.8915">
        <ele>236.4</ele>
        <time>2022-07-24T17:07:00Z</time>
      </trkpt>
      <trkpt lat="47.18382" lon="5.89144">
        <ele>236.4</ele>
        <time>2022-07-24T17:07:02Z</time>
      </trkpt>
      <trkpt lat="47.18366" lon="5.89129">
        <ele>236.6</ele>
        <time>2022-07-24T17:07:07Z</time>
      </trkpt>
      <trkpt lat="47.18363" lon="5.89122">
        <ele>236.4</ele>
        <time>2022-07-24T17:07:09Z</time>
      </trkpt>
      <trkpt lat="47.18361" lon="5.8912">
        <ele>236.4</ele>
        <time>2022-07-24T17:07:10Z</time>
      </trkpt>
      <trkpt lat="47.1836" lon="5.89118">
        <ele>236.4</ele>
        <time>2022-07-24T17:07:11Z</time>
      </trkpt>
      <trkpt lat="47.18358" lon="5.89117">
        <ele>236.4</ele>
        <time>2022-07-24T17:07:12Z</time>
      </trkpt>
      <trkpt lat="47.18356" lon="5.89115">
        <ele>236.4</ele>
        <time>2022-07-24T17:07:13Z</time>
      </trkpt>
      <trkpt lat="47.18354" lon="5.89113">
        <ele>236.4</ele>
        <time>2022-07-24T17:07:14Z</time>
      </trkpt>
      <trkpt lat="47.18345" lon="5.89109">
        <ele>236.4</ele>
        <time>2022-07-24T17:07:17Z</time>
      </trkpt>
      <trkpt lat="47.18327" lon="5.891">
        <ele>236.2</ele>
        <time>2022-07-24T17:07:23Z</time>
      </trkpt>
      <trkpt lat="47.1831" lon="5.89093">
        <ele>236</ele>
        <time>2022-07-24T17:07:29Z</time>
      </trkpt>
      <trkpt lat="47.18307" lon="5.89092">
        <ele>236</ele>
        <time>2022-07-24T17:07:30Z</time>
      </trkpt>
      <trkpt lat="47.18304" lon="5.89092">
        <ele>236</ele>
        <time>2022-07-24T17:07:31Z</time>
      </trkpt>
      <trkpt lat="47.18301" lon="5.89092">
        <ele>235.8</ele>
        <time>2022-07-24T17:07:32Z</time>
      </trkpt>
      <trkpt lat="47.18292" lon="5.8909">
        <ele>235.6</ele>
        <time>2022-07-24T17:07:35Z</time>
      </trkpt>
      <trkpt lat="47.18289" lon="5.89089">
        <ele>235.6</ele>
        <time>2022-07-24T17:07:36Z</time>
      </trkpt>
      <trkpt lat="47.18286" lon="5.89089">
        <ele>235.6</ele>
        <time>2022-07-24T17:07:37Z</time>
      </trkpt>
      <trkpt lat="47.18281" lon="5.89091">
        <ele>235.8</ele>
        <time>2022-07-24T17:07:39Z</time>
      </trkpt>
      <trkpt lat="47.18279" lon="5.89091">
        <ele>235.8</ele>
        <time>2022-07-24T17:07:40Z</time>
      </trkpt>
      <trkpt lat="47.18276" lon="5.89091">
        <ele>235.8</ele>
        <time>2022-07-24T17:07:41Z</time>
      </trkpt>
      <trkpt lat="47.18273" lon="5.8909">
        <ele>235.8</ele>
        <time>2022-07-24T17:07:42Z</time>
      </trkpt>
      <trkpt lat="47.1827" lon="5.89089">
        <ele>235.8</ele>
        <time>2022-07-24T17:07:43Z</time>
      </trkpt>
      <trkpt lat="47.18267" lon="5.89088">
        <ele>236</ele>
        <time>2022-07-24T17:07:44Z</time>
      </trkpt>
      <trkpt lat="47.18251" lon="5.89082">
        <ele>236.2</ele>
        <time>2022-07-24T17:07:50Z</time>
      </trkpt>
      <trkpt lat="47.18231" lon="5.89078">
        <ele>236.2</ele>
        <time>2022-07-24T17:07:57Z</time>
      </trkpt>
      <trkpt lat="47.18228" lon="5.89079">
        <ele>236.2</ele>
        <time>2022-07-24T17:07:58Z</time>
      </trkpt>
      <trkpt lat="47.18226" lon="5.89081">
        <ele>236.2</ele>
        <time>2022-07-24T17:07:59Z</time>
      </trkpt>
      <trkpt lat="47.18223" lon="5.89081">
        <ele>236.4</ele>
        <time>2022-07-24T17:08:00Z</time>
      </trkpt>
      <trkpt lat="47.18221" lon="5.89081">
        <ele>236.4</ele>
        <time>2022-07-24T17:08:01Z</time>
      </trkpt>
      <trkpt lat="47.18218" lon="5.89081">
        <ele>236.4</ele>
        <time>2022-07-24T17:08:02Z</time>
      </trkpt>
      <trkpt lat="47.18216" lon="5.89081">
        <ele>236.4</ele>
        <time>2022-07-24T17:08:03Z</time>
      </trkpt>
      <trkpt lat="47.18214" lon="5.89081">
        <ele>236.4</ele>
        <time>2022-07-24T17:08:04Z</time>
      </trkpt>
      <trkpt lat="47.18214" lon="5.8908">
        <ele>236.4</ele>
        <time>2022-07-24T17:08:05Z</time>
      </trkpt>
      <trkpt lat="47.18212" lon="5.89079">
        <ele>237</ele>
        <time>2022-07-24T17:08:12Z</time>
      </trkpt>
      <trkpt lat="47.18207" lon="5.89074">
        <ele>237.2</ele>
        <time>2022-07-24T17:08:24Z</time>
      </trkpt>
      <trkpt lat="47.18204" lon="5.89067">
        <ele>237.2</ele>
        <time>2022-07-24T17:08:27Z</time>
      </trkpt>
      <trkpt lat="47.18201" lon="5.89065">
        <ele>237.2</ele>
        <time>2022-07-24T17:08:28Z</time>
      </trkpt>
      <trkpt lat="47.18195" lon="5.89063">
        <ele>237</ele>
        <time>2022-07-24T17:08:30Z</time>
      </trkpt>
      <trkpt lat="47.18192" lon="5.89062">
        <ele>236.8</ele>
        <time>2022-07-24T17:08:31Z</time>
      </trkpt>
      <trkpt lat="47.18185" lon="5.8906">
        <ele>236.4</ele>
        <time>2022-07-24T17:08:33Z</time>
      </trkpt>
      <trkpt lat="47.18182" lon="5.8906">
        <ele>236.2</ele>
        <time>2022-07-24T17:08:34Z</time>
      </trkpt>
      <trkpt lat="47.1818" lon="5.8906">
        <ele>236</ele>
        <time>2022-07-24T17:08:35Z</time>
      </trkpt>
      <trkpt lat="47.18177" lon="5.89061">
        <ele>235.8</ele>
        <time>2022-07-24T17:08:36Z</time>
      </trkpt>
      <trkpt lat="47.18173" lon="5.8906">
        <ele>235.6</ele>
        <time>2022-07-24T17:08:38Z</time>
      </trkpt>
      <trkpt lat="47.18171" lon="5.89059">
        <ele>235.4</ele>
        <time>2022-07-24T17:08:39Z</time>
      </trkpt>
      <trkpt lat="47.18168" lon="5.89057">
        <ele>235.4</ele>
        <time>2022-07-24T17:08:40Z</time>
      </trkpt>
      <trkpt lat="47.18166" lon="5.89056">
        <ele>235.4</ele>
        <time>2022-07-24T17:08:41Z</time>
      </trkpt>
      <trkpt lat="47.18164" lon="5.89055">
        <ele>235.4</ele>
        <time>2022-07-24T17:08:42Z</time>
      </trkpt>
      <trkpt lat="47.18161" lon="5.89055">
        <ele>235.4</ele>
        <time>2022-07-24T17:08:43Z</time>
      </trkpt>
      <trkpt lat="47.18159" lon="5.89055">
        <ele>235.4</ele>
        <time>2022-07-24T17:08:44Z</time>
      </trkpt>
      <trkpt lat="47.18156" lon="5.89056">
        <ele>235.4</ele>
        <time>2022-07-24T17:08:45Z</time>
      </trkpt>
      <trkpt lat="47.18154" lon="5.89056">
        <ele>235.4</ele>
        <time>2022-07-24T17:08:46Z</time>
      </trkpt>
      <trkpt lat="47.18152" lon="5.89056">
        <ele>235.4</ele>
        <time>2022-07-24T17:08:47Z</time>
      </trkpt>
      <trkpt lat="47.1815" lon="5.89056">
        <ele>235.4</ele>
        <time>2022-07-24T17:08:48Z</time>
      </trkpt>
      <trkpt lat="47.18147" lon="5.89056">
        <ele>235.2</ele>
        <time>2022-07-24T17:08:49Z</time>
      </trkpt>
      <trkpt lat="47.18145" lon="5.89057">
        <ele>235.2</ele>
        <time>2022-07-24T17:08:50Z</time>
      </trkpt>
      <trkpt lat="47.18143" lon="5.89057">
        <ele>235.2</ele>
        <time>2022-07-24T17:08:51Z</time>
      </trkpt>
      <trkpt lat="47.1814" lon="5.89056">
        <ele>235.4</ele>
        <time>2022-07-24T17:08:52Z</time>
      </trkpt>
      <trkpt lat="47.18137" lon="5.89054">
        <ele>235.6</ele>
        <time>2022-07-24T17:08:53Z</time>
      </trkpt>
      <trkpt lat="47.18133" lon="5.89052">
        <ele>235.6</ele>
        <time>2022-07-24T17:08:54Z</time>
      </trkpt>
      <trkpt lat="47.18121" lon="5.8905">
        <ele>235.8</ele>
        <time>2022-07-24T17:08:57Z</time>
      </trkpt>
      <trkpt lat="47.18108" lon="5.8905">
        <ele>235.6</ele>
        <time>2022-07-24T17:09:00Z</time>
      </trkpt>
      <trkpt lat="47.18105" lon="5.8905">
        <ele>235.6</ele>
        <time>2022-07-24T17:09:01Z</time>
      </trkpt>
      <trkpt lat="47.18104" lon="5.8905">
        <ele>235.6</ele>
        <time>2022-07-24T17:09:02Z</time>
      </trkpt>
      <trkpt lat="47.18102" lon="5.8905">
        <ele>235.6</ele>
        <time>2022-07-24T17:09:03Z</time>
      </trkpt>
      <trkpt lat="47.18101" lon="5.89048">
        <ele>235.6</ele>
        <time>2022-07-24T17:09:04Z</time>
      </trkpt>
      <trkpt lat="47.18098" lon="5.89047">
        <ele>235.4</ele>
        <time>2022-07-24T17:09:05Z</time>
      </trkpt>
      <trkpt lat="47.18093" lon="5.89048">
        <ele>235.4</ele>
        <time>2022-07-24T17:09:06Z</time>
      </trkpt>
      <trkpt lat="47.18086" lon="5.89048">
        <ele>235.4</ele>
        <time>2022-07-24T17:09:08Z</time>
      </trkpt>
      <trkpt lat="47.18078" lon="5.89046">
        <ele>235.6</ele>
        <time>2022-07-24T17:09:10Z</time>
      </trkpt>
      <trkpt lat="47.18075" lon="5.89046">
        <ele>235.6</ele>
        <time>2022-07-24T17:09:11Z</time>
      </trkpt>
      <trkpt lat="47.18071" lon="5.89045">
        <ele>235.6</ele>
        <time>2022-07-24T17:09:12Z</time>
      </trkpt>
      <trkpt lat="47.18068" lon="5.89044">
        <ele>235.6</ele>
        <time>2022-07-24T17:09:13Z</time>
      </trkpt>
      <trkpt lat="47.18047" lon="5.89042">
        <ele>235.6</ele>
        <time>2022-07-24T17:09:18Z</time>
      </trkpt>
      <trkpt lat="47.18045" lon="5.89042">
        <ele>235.6</ele>
        <time>2022-07-24T17:09:19Z</time>
      </trkpt>
      <trkpt lat="47.18043" lon="5.89041">
        <ele>235.4</ele>
        <time>2022-07-24T17:09:20Z</time>
      </trkpt>
      <trkpt lat="47.18041" lon="5.8904">
        <ele>235.4</ele>
        <time>2022-07-24T17:09:21Z</time>
      </trkpt>
      <trkpt lat="47.18039" lon="5.8904">
        <ele>235.4</ele>
        <time>2022-07-24T17:09:22Z</time>
      </trkpt>
      <trkpt lat="47.18038" lon="5.89041">
        <ele>235.4</ele>
        <time>2022-07-24T17:09:23Z</time>
      </trkpt>
      <trkpt lat="47.18036" lon="5.89041">
        <ele>235.4</ele>
        <time>2022-07-24T17:09:24Z</time>
      </trkpt>
      <trkpt lat="47.18035" lon="5.89041">
        <ele>235.4</ele>
        <time>2022-07-24T17:09:25Z</time>
      </trkpt>
      <trkpt lat="47.18034" lon="5.89041">
        <ele>235.6</ele>
        <time>2022-07-24T17:09:26Z</time>
      </trkpt>
      <trkpt lat="47.18033" lon="5.89041">
        <ele>235.6</ele>
        <time>2022-07-24T17:09:27Z</time>
      </trkpt>
      <trkpt lat="47.1803" lon="5.89041">
        <ele>235.6</ele>
        <time>2022-07-24T17:09:29Z</time>
      </trkpt>
      <trkpt lat="47.18029" lon="5.89041">
        <ele>235.6</ele>
        <time>2022-07-24T17:09:30Z</time>
      </trkpt>
      <trkpt lat="47.18028" lon="5.8904">
        <ele>235.6</ele>
        <time>2022-07-24T17:09:31Z</time>
      </trkpt>
      <trkpt lat="47.18026" lon="5.89039">
        <ele>235.8</ele>
        <time>2022-07-24T17:09:32Z</time>
      </trkpt>
      <trkpt lat="47.18022" lon="5.89038">
        <ele>235.8</ele>
        <time>2022-07-24T17:09:34Z</time>
      </trkpt>
      <trkpt lat="47.18019" lon="5.89039">
        <ele>235.8</ele>
        <time>2022-07-24T17:09:35Z</time>
      </trkpt>
      <trkpt lat="47.18014" lon="5.89042">
        <ele>235.8</ele>
        <time>2022-07-24T17:09:37Z</time>
      </trkpt>
      <trkpt lat="47.18012" lon="5.89043">
        <ele>235.8</ele>
        <time>2022-07-24T17:09:38Z</time>
      </trkpt>
      <trkpt lat="47.1801" lon="5.89043">
        <ele>236</ele>
        <time>2022-07-24T17:09:39Z</time>
      </trkpt>
      <trkpt lat="47.18007" lon="5.89044">
        <ele>236</ele>
        <time>2022-07-24T17:09:40Z</time>
      </trkpt>
      <trkpt lat="47.18004" lon="5.89045">
        <ele>236</ele>
        <time>2022-07-24T17:09:41Z</time>
      </trkpt>
      <trkpt lat="47.17978" lon="5.89046">
        <ele>236.4</ele>
        <time>2022-07-24T17:09:50Z</time>
      </trkpt>
      <trkpt lat="47.17968" lon="5.89048">
        <ele>236.2</ele>
        <time>2022-07-24T17:09:53Z</time>
      </trkpt>
      <trkpt lat="47.17965" lon="5.89047">
        <ele>236.2</ele>
        <time>2022-07-24T17:09:54Z</time>
      </trkpt>
      <trkpt lat="47.17962" lon="5.89047">
        <ele>236.2</ele>
        <time>2022-07-24T17:09:55Z</time>
      </trkpt>
      <trkpt lat="47.17952" lon="5.89046">
        <ele>236.4</ele>
        <time>2022-07-24T17:09:58Z</time>
      </trkpt>
      <trkpt lat="47.17931" lon="5.89045">
        <ele>236.6</ele>
        <time>2022-07-24T17:10:03Z</time>
      </trkpt>
      <trkpt lat="47.17898" lon="5.89047">
        <ele>236.8</ele>
        <time>2022-07-24T17:10:11Z</time>
      </trkpt>
      <trkpt lat="47.17855" lon="5.89048">
        <ele>236.4</ele>
        <time>2022-07-24T17:10:21Z</time>
      </trkpt>
      <trkpt lat="47.17843" lon="5.89048">
        <ele>236.4</ele>
        <time>2022-07-24T17:10:24Z</time>
      </trkpt>
      <trkpt lat="47.17817" lon="5.89048">
        <ele>236</ele>
        <time>2022-07-24T17:10:30Z</time>
      </trkpt>
      <trkpt lat="47.17813" lon="5.89048">
        <ele>236</ele>
        <time>2022-07-24T17:10:31Z</time>
      </trkpt>
      <trkpt lat="47.17804" lon="5.89048">
        <ele>236</ele>
        <time>2022-07-24T17:10:33Z</time>
      </trkpt>
      <trkpt lat="47.17752" lon="5.8905">
        <ele>235.8</ele>
        <time>2022-07-24T17:10:44Z</time>
      </trkpt>
      <trkpt lat="47.17735" lon="5.8905">
        <ele>235.8</ele>
        <time>2022-07-24T17:10:48Z</time>
      </trkpt>
      <trkpt lat="47.17731" lon="5.89051">
        <ele>235.8</ele>
        <time>2022-07-24T17:10:49Z</time>
      </trkpt>
      <trkpt lat="47.17727" lon="5.89051">
        <ele>235.8</ele>
        <time>2022-07-24T17:10:50Z</time>
      </trkpt>
      <trkpt lat="47.17722" lon="5.89053">
        <ele>236</ele>
        <time>2022-07-24T17:10:51Z</time>
      </trkpt>
      <trkpt lat="47.17718" lon="5.89054">
        <ele>236</ele>
        <time>2022-07-24T17:10:52Z</time>
      </trkpt>
      <trkpt lat="47.17714" lon="5.89055">
        <ele>236</ele>
        <time>2022-07-24T17:10:53Z</time>
      </trkpt>
      <trkpt lat="47.1771" lon="5.89056">
        <ele>236</ele>
        <time>2022-07-24T17:10:54Z</time>
      </trkpt>
      <trkpt lat="47.17706" lon="5.89057">
        <ele>236.2</ele>
        <time>2022-07-24T17:10:55Z</time>
      </trkpt>
      <trkpt lat="47.17701" lon="5.89058">
        <ele>236.2</ele>
        <time>2022-07-24T17:10:56Z</time>
      </trkpt>
      <trkpt lat="47.17684" lon="5.89062">
        <ele>236.6</ele>
        <time>2022-07-24T17:11:00Z</time>
      </trkpt>
      <trkpt lat="47.17672" lon="5.89064">
        <ele>236.6</ele>
        <time>2022-07-24T17:11:03Z</time>
      </trkpt>
      <trkpt lat="47.1766" lon="5.89066">
        <ele>236.6</ele>
        <time>2022-07-24T17:11:06Z</time>
      </trkpt>
      <trkpt lat="47.17656" lon="5.89067">
        <ele>236.6</ele>
        <time>2022-07-24T17:11:07Z</time>
      </trkpt>
      <trkpt lat="47.17652" lon="5.89068">
        <ele>236.6</ele>
        <time>2022-07-24T17:11:08Z</time>
      </trkpt>
      <trkpt lat="47.17648" lon="5.89069">
        <ele>236.6</ele>
        <time>2022-07-24T17:11:09Z</time>
      </trkpt>
      <trkpt lat="47.17644" lon="5.8907">
        <ele>236.4</ele>
        <time>2022-07-24T17:11:10Z</time>
      </trkpt>
      <trkpt lat="47.17616" lon="5.89077">
        <ele>236.2</ele>
        <time>2022-07-24T17:11:17Z</time>
      </trkpt>
      <trkpt lat="47.17596" lon="5.89083">
        <ele>236</ele>
        <time>2022-07-24T17:11:22Z</time>
      </trkpt>
      <trkpt lat="47.17592" lon="5.89084">
        <ele>236</ele>
        <time>2022-07-24T17:11:23Z</time>
      </trkpt>
      <trkpt lat="47.17577" lon="5.89087">
        <ele>236</ele>
        <time>2022-07-24T17:11:27Z</time>
      </trkpt>
      <trkpt lat="47.17573" lon="5.89089">
        <ele>236</ele>
        <time>2022-07-24T17:11:28Z</time>
      </trkpt>
      <trkpt lat="47.17569" lon="5.89089">
        <ele>236</ele>
        <time>2022-07-24T17:11:29Z</time>
      </trkpt>
      <trkpt lat="47.17565" lon="5.8909">
        <ele>236</ele>
        <time>2022-07-24T17:11:30Z</time>
      </trkpt>
      <trkpt lat="47.17548" lon="5.89098">
        <ele>235.6</ele>
        <time>2022-07-24T17:11:34Z</time>
      </trkpt>
      <trkpt lat="47.17544" lon="5.89099">
        <ele>235.6</ele>
        <time>2022-07-24T17:11:35Z</time>
      </trkpt>
      <trkpt lat="47.17513" lon="5.89112">
        <ele>235.6</ele>
        <time>2022-07-24T17:11:43Z</time>
      </trkpt>
      <trkpt lat="47.17509" lon="5.89114">
        <ele>235.8</ele>
        <time>2022-07-24T17:11:44Z</time>
      </trkpt>
      <trkpt lat="47.17506" lon="5.89116">
        <ele>236</ele>
        <time>2022-07-24T17:11:45Z</time>
      </trkpt>
      <trkpt lat="47.17499" lon="5.89119">
        <ele>236</ele>
        <time>2022-07-24T17:11:47Z</time>
      </trkpt>
      <trkpt lat="47.17488" lon="5.89122">
        <ele>236.2</ele>
        <time>2022-07-24T17:11:50Z</time>
      </trkpt>
      <trkpt lat="47.17485" lon="5.89122">
        <ele>236.2</ele>
        <time>2022-07-24T17:11:51Z</time>
      </trkpt>
      <trkpt lat="47.17482" lon="5.89123">
        <ele>236.2</ele>
        <time>2022-07-24T17:11:52Z</time>
      </trkpt>
      <trkpt lat="47.17478" lon="5.89123">
        <ele>236.2</ele>
        <time>2022-07-24T17:11:53Z</time>
      </trkpt>
      <trkpt lat="47.17474" lon="5.89124">
        <ele>236.2</ele>
        <time>2022-07-24T17:11:54Z</time>
      </trkpt>
      <trkpt lat="47.1747" lon="5.89124">
        <ele>236.2</ele>
        <time>2022-07-24T17:11:55Z</time>
      </trkpt>
      <trkpt lat="47.17466" lon="5.89125">
        <ele>236.2</ele>
        <time>2022-07-24T17:11:56Z</time>
      </trkpt>
      <trkpt lat="47.17463" lon="5.89126">
        <ele>236.2</ele>
        <time>2022-07-24T17:11:57Z</time>
      </trkpt>
      <trkpt lat="47.17459" lon="5.89126">
        <ele>236</ele>
        <time>2022-07-24T17:11:58Z</time>
      </trkpt>
      <trkpt lat="47.17445" lon="5.89128">
        <ele>235.4</ele>
        <time>2022-07-24T17:12:02Z</time>
      </trkpt>
      <trkpt lat="47.17443" lon="5.89129">
        <ele>235.2</ele>
        <time>2022-07-24T17:12:03Z</time>
      </trkpt>
      <trkpt lat="47.17441" lon="5.89132">
        <ele>235.2</ele>
        <time>2022-07-24T17:12:04Z</time>
      </trkpt>
      <trkpt lat="47.17439" lon="5.89135">
        <ele>235</ele>
        <time>2022-07-24T17:12:05Z</time>
      </trkpt>
      <trkpt lat="47.17438" lon="5.89139">
        <ele>235</ele>
        <time>2022-07-24T17:12:06Z</time>
      </trkpt>
      <trkpt lat="47.17437" lon="5.89142">
        <ele>235</ele>
        <time>2022-07-24T17:12:07Z</time>
      </trkpt>
      <trkpt lat="47.17435" lon="5.89145">
        <ele>235</ele>
        <time>2022-07-24T17:12:08Z</time>
      </trkpt>
      <trkpt lat="47.17434" lon="5.89148">
        <ele>235</ele>
        <time>2022-07-24T17:12:09Z</time>
      </trkpt>
      <trkpt lat="47.17432" lon="5.8915">
        <ele>235</ele>
        <time>2022-07-24T17:12:10Z</time>
      </trkpt>
      <trkpt lat="47.1743" lon="5.8915">
        <ele>235</ele>
        <time>2022-07-24T17:12:11Z</time>
      </trkpt>
      <trkpt lat="47.17425" lon="5.89151">
        <ele>235.2</ele>
        <time>2022-07-24T17:12:13Z</time>
      </trkpt>
      <trkpt lat="47.17424" lon="5.89152">
        <ele>235.4</ele>
        <time>2022-07-24T17:12:14Z</time>
      </trkpt>
      <trkpt lat="47.17423" lon="5.89154">
        <ele>235.4</ele>
        <time>2022-07-24T17:12:15Z</time>
      </trkpt>
      <trkpt lat="47.17421" lon="5.89155">
        <ele>235.4</ele>
        <time>2022-07-24T17:12:16Z</time>
      </trkpt>
      <trkpt lat="47.17419" lon="5.89156">
        <ele>235.6</ele>
        <time>2022-07-24T17:12:17Z</time>
      </trkpt>
      <trkpt lat="47.17416" lon="5.89157">
        <ele>235.6</ele>
        <time>2022-07-24T17:12:18Z</time>
      </trkpt>
      <trkpt lat="47.17413" lon="5.89158">
        <ele>235.6</ele>
        <time>2022-07-24T17:12:19Z</time>
      </trkpt>
      <trkpt lat="47.17411" lon="5.89159">
        <ele>235.6</ele>
        <time>2022-07-24T17:12:20Z</time>
      </trkpt>
      <trkpt lat="47.17408" lon="5.89161">
        <ele>235.8</ele>
        <time>2022-07-24T17:12:21Z</time>
      </trkpt>
      <trkpt lat="47.17402" lon="5.89163">
        <ele>235.8</ele>
        <time>2022-07-24T17:12:23Z</time>
      </trkpt>
      <trkpt lat="47.17396" lon="5.89171">
        <ele>235.8</ele>
        <time>2022-07-24T17:12:26Z</time>
      </trkpt>
      <trkpt lat="47.17396" lon="5.89175">
        <ele>235.8</ele>
        <time>2022-07-24T17:12:27Z</time>
      </trkpt>
      <trkpt lat="47.17399" lon="5.89188">
        <ele>235.8</ele>
        <time>2022-07-24T17:12:30Z</time>
      </trkpt>
      <trkpt lat="47.17398" lon="5.892">
        <ele>235.8</ele>
        <time>2022-07-24T17:12:32Z</time>
      </trkpt>
      <trkpt lat="47.17397" lon="5.89206">
        <ele>235.8</ele>
        <time>2022-07-24T17:12:33Z</time>
      </trkpt>
      <trkpt lat="47.17396" lon="5.8921">
        <ele>235.6</ele>
        <time>2022-07-24T17:12:34Z</time>
      </trkpt>
      <trkpt lat="47.17396" lon="5.89215">
        <ele>235.8</ele>
        <time>2022-07-24T17:12:35Z</time>
      </trkpt>
      <trkpt lat="47.17395" lon="5.89219">
        <ele>235.6</ele>
        <time>2022-07-24T17:12:36Z</time>
      </trkpt>
      <trkpt lat="47.17395" lon="5.89223">
        <ele>235.6</ele>
        <time>2022-07-24T17:12:37Z</time>
      </trkpt>
      <trkpt lat="47.17394" lon="5.89226">
        <ele>235.6</ele>
        <time>2022-07-24T17:12:38Z</time>
      </trkpt>
      <trkpt lat="47.17393" lon="5.89229">
        <ele>235.6</ele>
        <time>2022-07-24T17:12:39Z</time>
      </trkpt>
      <trkpt lat="47.17391" lon="5.89232">
        <ele>235.6</ele>
        <time>2022-07-24T17:12:40Z</time>
      </trkpt>
      <trkpt lat="47.17389" lon="5.89236">
        <ele>235.6</ele>
        <time>2022-07-24T17:12:41Z</time>
      </trkpt>
      <trkpt lat="47.17379" lon="5.8926">
        <ele>235.6</ele>
        <time>2022-07-24T17:12:47Z</time>
      </trkpt>
      <trkpt lat="47.17378" lon="5.89266">
        <ele>235.4</ele>
        <time>2022-07-24T17:12:48Z</time>
      </trkpt>
      <trkpt lat="47.17377" lon="5.89271">
        <ele>235.4</ele>
        <time>2022-07-24T17:12:49Z</time>
      </trkpt>
      <trkpt lat="47.17377" lon="5.8928">
        <ele>235.2</ele>
        <time>2022-07-24T17:12:51Z</time>
      </trkpt>
      <trkpt lat="47.17377" lon="5.89285">
        <ele>235.2</ele>
        <time>2022-07-24T17:12:52Z</time>
      </trkpt>
      <trkpt lat="47.17377" lon="5.8929">
        <ele>235.2</ele>
        <time>2022-07-24T17:12:53Z</time>
      </trkpt>
      <trkpt lat="47.17373" lon="5.89308">
        <ele>235.6</ele>
        <time>2022-07-24T17:12:57Z</time>
      </trkpt>
      <trkpt lat="47.1737" lon="5.89312">
        <ele>235.6</ele>
        <time>2022-07-24T17:12:58Z</time>
      </trkpt>
      <trkpt lat="47.17367" lon="5.89316">
        <ele>235.6</ele>
        <time>2022-07-24T17:12:59Z</time>
      </trkpt>
      <trkpt lat="47.17365" lon="5.89321">
        <ele>235.6</ele>
        <time>2022-07-24T17:13:00Z</time>
      </trkpt>
      <trkpt lat="47.17356" lon="5.89331">
        <ele>236</ele>
        <time>2022-07-24T17:13:03Z</time>
      </trkpt>
      <trkpt lat="47.17327" lon="5.89358">
        <ele>236.2</ele>
        <time>2022-07-24T17:13:11Z</time>
      </trkpt>
      <trkpt lat="47.17314" lon="5.89372">
        <ele>236</ele>
        <time>2022-07-24T17:13:15Z</time>
      </trkpt>
      <trkpt lat="47.17304" lon="5.89382">
        <ele>236</ele>
        <time>2022-07-24T17:13:18Z</time>
      </trkpt>
      <trkpt lat="47.17302" lon="5.89385">
        <ele>236</ele>
        <time>2022-07-24T17:13:19Z</time>
      </trkpt>
      <trkpt lat="47.17297" lon="5.89392">
        <ele>235.8</ele>
        <time>2022-07-24T17:13:21Z</time>
      </trkpt>
      <trkpt lat="47.17294" lon="5.89395">
        <ele>235.8</ele>
        <time>2022-07-24T17:13:22Z</time>
      </trkpt>
      <trkpt lat="47.17291" lon="5.89399">
        <ele>235.8</ele>
        <time>2022-07-24T17:13:23Z</time>
      </trkpt>
      <trkpt lat="47.17288" lon="5.89404">
        <ele>235.6</ele>
        <time>2022-07-24T17:13:24Z</time>
      </trkpt>
      <trkpt lat="47.17285" lon="5.89408">
        <ele>235.6</ele>
        <time>2022-07-24T17:13:25Z</time>
      </trkpt>
      <trkpt lat="47.17281" lon="5.89413">
        <ele>235.6</ele>
        <time>2022-07-24T17:13:26Z</time>
      </trkpt>
      <trkpt lat="47.17257" lon="5.89451">
        <ele>235.8</ele>
        <time>2022-07-24T17:13:35Z</time>
      </trkpt>
      <trkpt lat="47.17254" lon="5.89455">
        <ele>235.8</ele>
        <time>2022-07-24T17:13:36Z</time>
      </trkpt>
      <trkpt lat="47.17251" lon="5.89459">
        <ele>235.8</ele>
        <time>2022-07-24T17:13:37Z</time>
      </trkpt>
      <trkpt lat="47.17248" lon="5.89464">
        <ele>235.8</ele>
        <time>2022-07-24T17:13:38Z</time>
      </trkpt>
      <trkpt lat="47.1723" lon="5.89491">
        <ele>236</ele>
        <time>2022-07-24T17:13:44Z</time>
      </trkpt>
      <trkpt lat="47.17227" lon="5.89495">
        <ele>236</ele>
        <time>2022-07-24T17:13:45Z</time>
      </trkpt>
      <trkpt lat="47.17211" lon="5.89517">
        <ele>236</ele>
        <time>2022-07-24T17:13:50Z</time>
      </trkpt>
      <trkpt lat="47.17208" lon="5.89521">
        <ele>235.8</ele>
        <time>2022-07-24T17:13:51Z</time>
      </trkpt>
      <trkpt lat="47.17206" lon="5.89524">
        <ele>235.8</ele>
        <time>2022-07-24T17:13:52Z</time>
      </trkpt>
      <trkpt lat="47.17203" lon="5.89527">
        <ele>235.8</ele>
        <time>2022-07-24T17:13:53Z</time>
      </trkpt>
      <trkpt lat="47.17201" lon="5.89531">
        <ele>235.8</ele>
        <time>2022-07-24T17:13:54Z</time>
      </trkpt>
      <trkpt lat="47.17198" lon="5.89534">
        <ele>235.8</ele>
        <time>2022-07-24T17:13:55Z</time>
      </trkpt>
      <trkpt lat="47.17196" lon="5.89537">
        <ele>235.8</ele>
        <time>2022-07-24T17:13:56Z</time>
      </trkpt>
      <trkpt lat="47.17193" lon="5.8954">
        <ele>235.8</ele>
        <time>2022-07-24T17:13:57Z</time>
      </trkpt>
      <trkpt lat="47.1719" lon="5.89541">
        <ele>235.6</ele>
        <time>2022-07-24T17:13:58Z</time>
      </trkpt>
      <trkpt lat="47.17188" lon="5.89542">
        <ele>235.6</ele>
        <time>2022-07-24T17:13:59Z</time>
      </trkpt>
      <trkpt lat="47.17186" lon="5.89544">
        <ele>235.6</ele>
        <time>2022-07-24T17:14:00Z</time>
      </trkpt>
      <trkpt lat="47.17183" lon="5.89547">
        <ele>235.6</ele>
        <time>2022-07-24T17:14:01Z</time>
      </trkpt>
      <trkpt lat="47.17175" lon="5.89558">
        <ele>235.8</ele>
        <time>2022-07-24T17:14:03Z</time>
      </trkpt>
      <trkpt lat="47.17172" lon="5.89563">
        <ele>235.8</ele>
        <time>2022-07-24T17:14:04Z</time>
      </trkpt>
      <trkpt lat="47.17168" lon="5.89568">
        <ele>235.8</ele>
        <time>2022-07-24T17:14:06Z</time>
      </trkpt>
      <trkpt lat="47.17166" lon="5.89572">
        <ele>235.6</ele>
        <time>2022-07-24T17:14:07Z</time>
      </trkpt>
      <trkpt lat="47.17163" lon="5.89575">
        <ele>235.6</ele>
        <time>2022-07-24T17:14:08Z</time>
      </trkpt>
      <trkpt lat="47.1716" lon="5.89579">
        <ele>235.6</ele>
        <time>2022-07-24T17:14:09Z</time>
      </trkpt>
      <trkpt lat="47.17144" lon="5.89605">
        <ele>235.6</ele>
        <time>2022-07-24T17:14:15Z</time>
      </trkpt>
      <trkpt lat="47.17141" lon="5.89613">
        <ele>235.6</ele>
        <time>2022-07-24T17:14:17Z</time>
      </trkpt>
      <trkpt lat="47.17138" lon="5.89616">
        <ele>235.6</ele>
        <time>2022-07-24T17:14:18Z</time>
      </trkpt>
      <trkpt lat="47.17133" lon="5.8962">
        <ele>235.6</ele>
        <time>2022-07-24T17:14:19Z</time>
      </trkpt>
      <trkpt lat="47.17129" lon="5.89625">
        <ele>235.6</ele>
        <time>2022-07-24T17:14:20Z</time>
      </trkpt>
      <trkpt lat="47.17125" lon="5.8963">
        <ele>235.6</ele>
        <time>2022-07-24T17:14:21Z</time>
      </trkpt>
      <trkpt lat="47.17119" lon="5.89638">
        <ele>235.6</ele>
        <time>2022-07-24T17:14:22Z</time>
      </trkpt>
      <trkpt lat="47.17104" lon="5.89667">
        <ele>235.6</ele>
        <time>2022-07-24T17:14:27Z</time>
      </trkpt>
      <trkpt lat="47.171" lon="5.89674">
        <ele>235.6</ele>
        <time>2022-07-24T17:14:28Z</time>
      </trkpt>
      <trkpt lat="47.17083" lon="5.897">
        <ele>235.6</ele>
        <time>2022-07-24T17:14:32Z</time>
      </trkpt>
      <trkpt lat="47.17082" lon="5.89706">
        <ele>235.8</ele>
        <time>2022-07-24T17:14:33Z</time>
      </trkpt>
      <trkpt lat="47.17081" lon="5.89711">
        <ele>235.6</ele>
        <time>2022-07-24T17:14:34Z</time>
      </trkpt>
      <trkpt lat="47.17081" lon="5.89716">
        <ele>235.6</ele>
        <time>2022-07-24T17:14:35Z</time>
      </trkpt>
      <trkpt lat="47.17079" lon="5.89721">
        <ele>235.8</ele>
        <time>2022-07-24T17:14:36Z</time>
      </trkpt>
      <trkpt lat="47.17078" lon="5.89725">
        <ele>235.8</ele>
        <time>2022-07-24T17:14:37Z</time>
      </trkpt>
      <trkpt lat="47.17077" lon="5.89728">
        <ele>235.8</ele>
        <time>2022-07-24T17:14:38Z</time>
      </trkpt>
      <trkpt lat="47.17076" lon="5.89732">
        <ele>235.8</ele>
        <time>2022-07-24T17:14:39Z</time>
      </trkpt>
      <trkpt lat="47.17073" lon="5.89739">
        <ele>236</ele>
        <time>2022-07-24T17:14:41Z</time>
      </trkpt>
      <trkpt lat="47.17073" lon="5.89744">
        <ele>236</ele>
        <time>2022-07-24T17:14:42Z</time>
      </trkpt>
      <trkpt lat="47.17073" lon="5.89748">
        <ele>235.8</ele>
        <time>2022-07-24T17:14:43Z</time>
      </trkpt>
      <trkpt lat="47.17074" lon="5.89754">
        <ele>235.8</ele>
        <time>2022-07-24T17:14:44Z</time>
      </trkpt>
      <trkpt lat="47.17075" lon="5.89759">
        <ele>235.8</ele>
        <time>2022-07-24T17:14:45Z</time>
      </trkpt>
      <trkpt lat="47.17077" lon="5.89764">
        <ele>235.8</ele>
        <time>2022-07-24T17:14:46Z</time>
      </trkpt>
      <trkpt lat="47.17081" lon="5.89773">
        <ele>235.8</ele>
        <time>2022-07-24T17:14:48Z</time>
      </trkpt>
      <trkpt lat="47.17083" lon="5.89777">
        <ele>235.8</ele>
        <time>2022-07-24T17:14:49Z</time>
      </trkpt>
      <trkpt lat="47.17092" lon="5.89795">
        <ele>235.4</ele>
        <time>2022-07-24T17:14:53Z</time>
      </trkpt>
      <trkpt lat="47.17097" lon="5.89803">
        <ele>235.4</ele>
        <time>2022-07-24T17:14:55Z</time>
      </trkpt>
      <trkpt lat="47.17107" lon="5.89815">
        <ele>235.4</ele>
        <time>2022-07-24T17:14:59Z</time>
      </trkpt>
      <trkpt lat="47.1711" lon="5.89817">
        <ele>235.4</ele>
        <time>2022-07-24T17:15:00Z</time>
      </trkpt>
      <trkpt lat="47.17114" lon="5.89819">
        <ele>235.4</ele>
        <time>2022-07-24T17:15:01Z</time>
      </trkpt>
      <trkpt lat="47.17117" lon="5.89821">
        <ele>235.6</ele>
        <time>2022-07-24T17:15:02Z</time>
      </trkpt>
      <trkpt lat="47.1712" lon="5.89823">
        <ele>235.6</ele>
        <time>2022-07-24T17:15:03Z</time>
      </trkpt>
      <trkpt lat="47.17123" lon="5.89825">
        <ele>235.6</ele>
        <time>2022-07-24T17:15:04Z</time>
      </trkpt>
      <trkpt lat="47.17126" lon="5.89828">
        <ele>235.6</ele>
        <time>2022-07-24T17:15:05Z</time>
      </trkpt>
      <trkpt lat="47.17139" lon="5.89839">
        <ele>235.6</ele>
        <time>2022-07-24T17:15:09Z</time>
      </trkpt>
      <trkpt lat="47.17159" lon="5.89852">
        <ele>235.6</ele>
        <time>2022-07-24T17:15:15Z</time>
      </trkpt>
      <trkpt lat="47.17188" lon="5.89866">
        <ele>235.8</ele>
        <time>2022-07-24T17:15:22Z</time>
      </trkpt>
      <trkpt lat="47.17202" lon="5.89875">
        <ele>235.8</ele>
        <time>2022-07-24T17:15:26Z</time>
      </trkpt>
      <trkpt lat="47.17205" lon="5.89877">
        <ele>235.8</ele>
        <time>2022-07-24T17:15:27Z</time>
      </trkpt>
      <trkpt lat="47.17208" lon="5.89879">
        <ele>235.8</ele>
        <time>2022-07-24T17:15:28Z</time>
      </trkpt>
      <trkpt lat="47.17231" lon="5.89889">
        <ele>235.6</ele>
        <time>2022-07-24T17:15:34Z</time>
      </trkpt>
      <trkpt lat="47.17235" lon="5.8989">
        <ele>235.6</ele>
        <time>2022-07-24T17:15:35Z</time>
      </trkpt>
      <trkpt lat="47.1724" lon="5.8989">
        <ele>235.6</ele>
        <time>2022-07-24T17:15:36Z</time>
      </trkpt>
      <trkpt lat="47.17243" lon="5.8989">
        <ele>235.6</ele>
        <time>2022-07-24T17:15:37Z</time>
      </trkpt>
      <trkpt lat="47.17251" lon="5.8989">
        <ele>235.6</ele>
        <time>2022-07-24T17:15:39Z</time>
      </trkpt>
      <trkpt lat="47.17268" lon="5.89891">
        <ele>236.2</ele>
        <time>2022-07-24T17:15:43Z</time>
      </trkpt>
      <trkpt lat="47.17272" lon="5.89891">
        <ele>236.2</ele>
        <time>2022-07-24T17:15:44Z</time>
      </trkpt>
      <trkpt lat="47.17281" lon="5.89892">
        <ele>236.4</ele>
        <time>2022-07-24T17:15:46Z</time>
      </trkpt>
      <trkpt lat="47.17284" lon="5.89892">
        <ele>236.4</ele>
        <time>2022-07-24T17:15:47Z</time>
      </trkpt>
      <trkpt lat="47.17287" lon="5.89892">
        <ele>236.4</ele>
        <time>2022-07-24T17:15:48Z</time>
      </trkpt>
      <trkpt lat="47.17291" lon="5.8989">
        <ele>236.6</ele>
        <time>2022-07-24T17:15:49Z</time>
      </trkpt>
      <trkpt lat="47.17295" lon="5.89889">
        <ele>236.6</ele>
        <time>2022-07-24T17:15:50Z</time>
      </trkpt>
      <trkpt lat="47.17299" lon="5.89887">
        <ele>236.6</ele>
        <time>2022-07-24T17:15:51Z</time>
      </trkpt>
      <trkpt lat="47.17309" lon="5.89883">
        <ele>236.6</ele>
        <time>2022-07-24T17:15:53Z</time>
      </trkpt>
      <trkpt lat="47.17329" lon="5.89875">
        <ele>236.6</ele>
        <time>2022-07-24T17:15:59Z</time>
      </trkpt>
      <trkpt lat="47.17332" lon="5.89874">
        <ele>236.8</ele>
        <time>2022-07-24T17:16:00Z</time>
      </trkpt>
      <trkpt lat="47.17335" lon="5.89872">
        <ele>237</ele>
        <time>2022-07-24T17:16:01Z</time>
      </trkpt>
      <trkpt lat="47.17337" lon="5.89872">
        <ele>237</ele>
        <time>2022-07-24T17:16:02Z</time>
      </trkpt>
      <trkpt lat="47.1734" lon="5.89871">
        <ele>237.2</ele>
        <time>2022-07-24T17:16:03Z</time>
      </trkpt>
      <trkpt lat="47.17342" lon="5.8987">
        <ele>237.4</ele>
        <time>2022-07-24T17:16:04Z</time>
      </trkpt>
      <trkpt lat="47.17344" lon="5.89869">
        <ele>237.6</ele>
        <time>2022-07-24T17:16:05Z</time>
      </trkpt>
      <trkpt lat="47.17347" lon="5.89868">
        <ele>237.6</ele>
        <time>2022-07-24T17:16:06Z</time>
      </trkpt>
      <trkpt lat="47.17349" lon="5.89867">
        <ele>237.8</ele>
        <time>2022-07-24T17:16:07Z</time>
      </trkpt>
      <trkpt lat="47.17352" lon="5.89865">
        <ele>238</ele>
        <time>2022-07-24T17:16:08Z</time>
      </trkpt>
      <trkpt lat="47.17355" lon="5.89864">
        <ele>238.2</ele>
        <time>2022-07-24T17:16:09Z</time>
      </trkpt>
      <trkpt lat="47.17358" lon="5.89862">
        <ele>238.4</ele>
        <time>2022-07-24T17:16:10Z</time>
      </trkpt>
      <trkpt lat="47.1736" lon="5.8986">
        <ele>238.4</ele>
        <time>2022-07-24T17:16:11Z</time>
      </trkpt>
      <trkpt lat="47.17363" lon="5.89859">
        <ele>238.6</ele>
        <time>2022-07-24T17:16:12Z</time>
      </trkpt>
      <trkpt lat="47.17365" lon="5.89857">
        <ele>238.6</ele>
        <time>2022-07-24T17:16:13Z</time>
      </trkpt>
      <trkpt lat="47.17371" lon="5.89854">
        <ele>239</ele>
        <time>2022-07-24T17:16:15Z</time>
      </trkpt>
      <trkpt lat="47.17381" lon="5.89847">
        <ele>239.2</ele>
        <time>2022-07-24T17:16:19Z</time>
      </trkpt>
      <trkpt lat="47.17383" lon="5.89846">
        <ele>239.4</ele>
        <time>2022-07-24T17:16:20Z</time>
      </trkpt>
      <trkpt lat="47.17386" lon="5.89844">
        <ele>239.4</ele>
        <time>2022-07-24T17:16:21Z</time>
      </trkpt>
      <trkpt lat="47.17389" lon="5.89843">
        <ele>239.4</ele>
        <time>2022-07-24T17:16:22Z</time>
      </trkpt>
      <trkpt lat="47.17391" lon="5.89841">
        <ele>239.4</ele>
        <time>2022-07-24T17:16:23Z</time>
      </trkpt>
      <trkpt lat="47.17394" lon="5.89839">
        <ele>239.6</ele>
        <time>2022-07-24T17:16:24Z</time>
      </trkpt>
      <trkpt lat="47.17396" lon="5.89838">
        <ele>239.6</ele>
        <time>2022-07-24T17:16:25Z</time>
      </trkpt>
      <trkpt lat="47.17399" lon="5.89836">
        <ele>239.6</ele>
        <time>2022-07-24T17:16:26Z</time>
      </trkpt>
      <trkpt lat="47.17401" lon="5.89835">
        <ele>239.8</ele>
        <time>2022-07-24T17:16:27Z</time>
      </trkpt>
      <trkpt lat="47.17414" lon="5.8983">
        <ele>240.2</ele>
        <time>2022-07-24T17:16:32Z</time>
      </trkpt>
      <trkpt lat="47.17419" lon="5.89829">
        <ele>240.4</ele>
        <time>2022-07-24T17:16:34Z</time>
      </trkpt>
      <trkpt lat="47.17421" lon="5.89829">
        <ele>240.4</ele>
        <time>2022-07-24T17:16:35Z</time>
      </trkpt>
      <trkpt lat="47.17423" lon="5.89829">
        <ele>240.4</ele>
        <time>2022-07-24T17:16:36Z</time>
      </trkpt>
      <trkpt lat="47.17425" lon="5.8983">
        <ele>240.6</ele>
        <time>2022-07-24T17:16:37Z</time>
      </trkpt>
      <trkpt lat="47.17427" lon="5.8983">
        <ele>241</ele>
        <time>2022-07-24T17:16:38Z</time>
      </trkpt>
      <trkpt lat="47.17429" lon="5.8983">
        <ele>241.4</ele>
        <time>2022-07-24T17:16:39Z</time>
      </trkpt>
      <trkpt lat="47.17431" lon="5.8983">
        <ele>241.6</ele>
        <time>2022-07-24T17:16:40Z</time>
      </trkpt>
      <trkpt lat="47.17432" lon="5.8983">
        <ele>241.8</ele>
        <time>2022-07-24T17:16:41Z</time>
      </trkpt>
      <trkpt lat="47.17434" lon="5.89831">
        <ele>242</ele>
        <time>2022-07-24T17:16:42Z</time>
      </trkpt>
      <trkpt lat="47.17436" lon="5.89832">
        <ele>242.4</ele>
        <time>2022-07-24T17:16:43Z</time>
      </trkpt>
      <trkpt lat="47.17438" lon="5.89833">
        <ele>242.8</ele>
        <time>2022-07-24T17:16:44Z</time>
      </trkpt>
      <trkpt lat="47.1744" lon="5.89834">
        <ele>243</ele>
        <time>2022-07-24T17:16:45Z</time>
      </trkpt>
      <trkpt lat="47.17442" lon="5.89837">
        <ele>243</ele>
        <time>2022-07-24T17:16:46Z</time>
      </trkpt>
      <trkpt lat="47.17442" lon="5.8984">
        <ele>243.2</ele>
        <time>2022-07-24T17:16:47Z</time>
      </trkpt>
      <trkpt lat="47.17443" lon="5.89844">
        <ele>243.4</ele>
        <time>2022-07-24T17:16:48Z</time>
      </trkpt>
      <trkpt lat="47.17443" lon="5.89847">
        <ele>243.4</ele>
        <time>2022-07-24T17:16:49Z</time>
      </trkpt>
      <trkpt lat="47.17443" lon="5.89851">
        <ele>243.4</ele>
        <time>2022-07-24T17:16:50Z</time>
      </trkpt>
      <trkpt lat="47.17442" lon="5.89855">
        <ele>243.6</ele>
        <time>2022-07-24T17:16:51Z</time>
      </trkpt>
      <trkpt lat="47.17442" lon="5.89858">
        <ele>243.6</ele>
        <time>2022-07-24T17:16:52Z</time>
      </trkpt>
      <trkpt lat="47.17442" lon="5.89862">
        <ele>243.8</ele>
        <time>2022-07-24T17:16:53Z</time>
      </trkpt>
      <trkpt lat="47.17441" lon="5.89866">
        <ele>243.8</ele>
        <time>2022-07-24T17:16:54Z</time>
      </trkpt>
      <trkpt lat="47.17441" lon="5.89869">
        <ele>243.8</ele>
        <time>2022-07-24T17:16:55Z</time>
      </trkpt>
      <trkpt lat="47.1744" lon="5.89873">
        <ele>244</ele>
        <time>2022-07-24T17:16:56Z</time>
      </trkpt>
      <trkpt lat="47.1744" lon="5.89876">
        <ele>244</ele>
        <time>2022-07-24T17:16:57Z</time>
      </trkpt>
      <trkpt lat="47.1744" lon="5.8988">
        <ele>244</ele>
        <time>2022-07-24T17:16:58Z</time>
      </trkpt>
      <trkpt lat="47.17439" lon="5.89883">
        <ele>244</ele>
        <time>2022-07-24T17:16:59Z</time>
      </trkpt>
      <trkpt lat="47.17439" lon="5.89887">
        <ele>244.2</ele>
        <time>2022-07-24T17:17:00Z</time>
      </trkpt>
      <trkpt lat="47.17439" lon="5.89891">
        <ele>244.2</ele>
        <time>2022-07-24T17:17:01Z</time>
      </trkpt>
      <trkpt lat="47.17438" lon="5.89895">
        <ele>244.4</ele>
        <time>2022-07-24T17:17:02Z</time>
      </trkpt>
      <trkpt lat="47.17438" lon="5.89899">
        <ele>244.4</ele>
        <time>2022-07-24T17:17:03Z</time>
      </trkpt>
      <trkpt lat="47.17438" lon="5.89903">
        <ele>244.6</ele>
        <time>2022-07-24T17:17:04Z</time>
      </trkpt>
      <trkpt lat="47.17438" lon="5.89907">
        <ele>244.6</ele>
        <time>2022-07-24T17:17:05Z</time>
      </trkpt>
      <trkpt lat="47.17437" lon="5.8991">
        <ele>244.6</ele>
        <time>2022-07-24T17:17:06Z</time>
      </trkpt>
      <trkpt lat="47.17437" lon="5.89914">
        <ele>244.6</ele>
        <time>2022-07-24T17:17:07Z</time>
      </trkpt>
      <trkpt lat="47.17437" lon="5.89918">
        <ele>244.8</ele>
        <time>2022-07-24T17:17:08Z</time>
      </trkpt>
      <trkpt lat="47.17437" lon="5.89923">
        <ele>244.8</ele>
        <time>2022-07-24T17:17:09Z</time>
      </trkpt>
      <trkpt lat="47.17436" lon="5.89926">
        <ele>244.8</ele>
        <time>2022-07-24T17:17:10Z</time>
      </trkpt>
      <trkpt lat="47.17436" lon="5.8993">
        <ele>244.8</ele>
        <time>2022-07-24T17:17:11Z</time>
      </trkpt>
      <trkpt lat="47.17435" lon="5.89945">
        <ele>245.2</ele>
        <time>2022-07-24T17:17:15Z</time>
      </trkpt>
      <trkpt lat="47.17434" lon="5.89949">
        <ele>245.2</ele>
        <time>2022-07-24T17:17:16Z</time>
      </trkpt>
      <trkpt lat="47.17434" lon="5.89952">
        <ele>245.2</ele>
        <time>2022-07-24T17:17:17Z</time>
      </trkpt>
      <trkpt lat="47.17432" lon="5.8997">
        <ele>245.8</ele>
        <time>2022-07-24T17:17:22Z</time>
      </trkpt>
      <trkpt lat="47.17431" lon="5.89974">
        <ele>245.8</ele>
        <time>2022-07-24T17:17:23Z</time>
      </trkpt>
      <trkpt lat="47.17431" lon="5.89977">
        <ele>246</ele>
        <time>2022-07-24T17:17:24Z</time>
      </trkpt>
      <trkpt lat="47.1743" lon="5.89984">
        <ele>246.2</ele>
        <time>2022-07-24T17:17:26Z</time>
      </trkpt>
      <trkpt lat="47.17429" lon="5.89998">
        <ele>246.8</ele>
        <time>2022-07-24T17:17:30Z</time>
      </trkpt>
      <trkpt lat="47.17427" lon="5.90017">
        <ele>247.6</ele>
        <time>2022-07-24T17:17:35Z</time>
      </trkpt>
      <trkpt lat="47.17426" lon="5.9002">
        <ele>247.8</ele>
        <time>2022-07-24T17:17:36Z</time>
      </trkpt>
      <trkpt lat="47.17426" lon="5.90024">
        <ele>247.8</ele>
        <time>2022-07-24T17:17:37Z</time>
      </trkpt>
      <trkpt lat="47.17425" lon="5.90028">
        <ele>248</ele>
        <time>2022-07-24T17:17:38Z</time>
      </trkpt>
      <trkpt lat="47.17425" lon="5.90031">
        <ele>248.2</ele>
        <time>2022-07-24T17:17:39Z</time>
      </trkpt>
      <trkpt lat="47.17424" lon="5.90035">
        <ele>248.4</ele>
        <time>2022-07-24T17:17:40Z</time>
      </trkpt>
      <trkpt lat="47.17424" lon="5.90039">
        <ele>248.6</ele>
        <time>2022-07-24T17:17:41Z</time>
      </trkpt>
      <trkpt lat="47.17423" lon="5.90043">
        <ele>248.6</ele>
        <time>2022-07-24T17:17:42Z</time>
      </trkpt>
      <trkpt lat="47.17422" lon="5.90046">
        <ele>249</ele>
        <time>2022-07-24T17:17:43Z</time>
      </trkpt>
      <trkpt lat="47.17422" lon="5.9005">
        <ele>249</ele>
        <time>2022-07-24T17:17:44Z</time>
      </trkpt>
      <trkpt lat="47.17422" lon="5.90053">
        <ele>249</ele>
        <time>2022-07-24T17:17:45Z</time>
      </trkpt>
      <trkpt lat="47.17422" lon="5.90057">
        <ele>249.6</ele>
        <time>2022-07-24T17:17:46Z</time>
      </trkpt>
      <trkpt lat="47.17422" lon="5.90061">
        <ele>249.6</ele>
        <time>2022-07-24T17:17:47Z</time>
      </trkpt>
      <trkpt lat="47.17421" lon="5.90065">
        <ele>249.8</ele>
        <time>2022-07-24T17:17:48Z</time>
      </trkpt>
      <trkpt lat="47.17421" lon="5.90069">
        <ele>249.8</ele>
        <time>2022-07-24T17:17:49Z</time>
      </trkpt>
      <trkpt lat="47.17421" lon="5.90073">
        <ele>250</ele>
        <time>2022-07-24T17:17:50Z</time>
      </trkpt>
      <trkpt lat="47.17421" lon="5.90078">
        <ele>250.2</ele>
        <time>2022-07-24T17:17:51Z</time>
      </trkpt>
      <trkpt lat="47.17421" lon="5.90082">
        <ele>250.2</ele>
        <time>2022-07-24T17:17:52Z</time>
      </trkpt>
      <trkpt lat="47.17421" lon="5.90086">
        <ele>250.2</ele>
        <time>2022-07-24T17:17:53Z</time>
      </trkpt>
      <trkpt lat="47.1742" lon="5.9009">
        <ele>250.2</ele>
        <time>2022-07-24T17:17:54Z</time>
      </trkpt>
      <trkpt lat="47.1742" lon="5.90094">
        <ele>250.4</ele>
        <time>2022-07-24T17:17:55Z</time>
      </trkpt>
      <trkpt lat="47.1742" lon="5.90098">
        <ele>250.6</ele>
        <time>2022-07-24T17:17:56Z</time>
      </trkpt>
      <trkpt lat="47.1742" lon="5.90102">
        <ele>250.6</ele>
        <time>2022-07-24T17:17:57Z</time>
      </trkpt>
      <trkpt lat="47.1742" lon="5.90106">
        <ele>250.8</ele>
        <time>2022-07-24T17:17:58Z</time>
      </trkpt>
      <trkpt lat="47.1742" lon="5.9011">
        <ele>250.8</ele>
        <time>2022-07-24T17:17:59Z</time>
      </trkpt>
      <trkpt lat="47.1742" lon="5.90115">
        <ele>251</ele>
        <time>2022-07-24T17:18:00Z</time>
      </trkpt>
      <trkpt lat="47.1742" lon="5.90119">
        <ele>251</ele>
        <time>2022-07-24T17:18:01Z</time>
      </trkpt>
      <trkpt lat="47.1742" lon="5.90123">
        <ele>251</ele>
        <time>2022-07-24T17:18:02Z</time>
      </trkpt>
      <trkpt lat="47.1742" lon="5.90127">
        <ele>251.2</ele>
        <time>2022-07-24T17:18:03Z</time>
      </trkpt>
      <trkpt lat="47.1742" lon="5.90131">
        <ele>251.2</ele>
        <time>2022-07-24T17:18:04Z</time>
      </trkpt>
      <trkpt lat="47.1742" lon="5.90136">
        <ele>251.4</ele>
        <time>2022-07-24T17:18:05Z</time>
      </trkpt>
      <trkpt lat="47.1742" lon="5.9014">
        <ele>251.4</ele>
        <time>2022-07-24T17:18:06Z</time>
      </trkpt>
      <trkpt lat="47.1742" lon="5.90145">
        <ele>251.6</ele>
        <time>2022-07-24T17:18:07Z</time>
      </trkpt>
      <trkpt lat="47.1742" lon="5.90149">
        <ele>251.8</ele>
        <time>2022-07-24T17:18:08Z</time>
      </trkpt>
      <trkpt lat="47.1742" lon="5.90153">
        <ele>252</ele>
        <time>2022-07-24T17:18:09Z</time>
      </trkpt>
      <trkpt lat="47.1742" lon="5.90158">
        <ele>252.2</ele>
        <time>2022-07-24T17:18:10Z</time>
      </trkpt>
      <trkpt lat="47.17419" lon="5.90163">
        <ele>252.2</ele>
        <time>2022-07-24T17:18:11Z</time>
      </trkpt>
      <trkpt lat="47.17419" lon="5.90168">
        <ele>252.4</ele>
        <time>2022-07-24T17:18:12Z</time>
      </trkpt>
      <trkpt lat="47.17419" lon="5.90173">
        <ele>252.4</ele>
        <time>2022-07-24T17:18:13Z</time>
      </trkpt>
      <trkpt lat="47.17419" lon="5.90178">
        <ele>252.6</ele>
        <time>2022-07-24T17:18:14Z</time>
      </trkpt>
      <trkpt lat="47.17419" lon="5.90182">
        <ele>252.6</ele>
        <time>2022-07-24T17:18:15Z</time>
      </trkpt>
      <trkpt lat="47.17419" lon="5.90187">
        <ele>252.6</ele>
        <time>2022-07-24T17:18:16Z</time>
      </trkpt>
      <trkpt lat="47.1742" lon="5.9019">
        <ele>252.8</ele>
        <time>2022-07-24T17:18:17Z</time>
      </trkpt>
      <trkpt lat="47.17422" lon="5.90194">
        <ele>252.8</ele>
        <time>2022-07-24T17:18:18Z</time>
      </trkpt>
      <trkpt lat="47.17424" lon="5.90197">
        <ele>253</ele>
        <time>2022-07-24T17:18:19Z</time>
      </trkpt>
      <trkpt lat="47.17425" lon="5.902">
        <ele>253</ele>
        <time>2022-07-24T17:18:20Z</time>
      </trkpt>
      <trkpt lat="47.17427" lon="5.90202">
        <ele>253.2</ele>
        <time>2022-07-24T17:18:21Z</time>
      </trkpt>
      <trkpt lat="47.17428" lon="5.90204">
        <ele>253.2</ele>
        <time>2022-07-24T17:18:22Z</time>
      </trkpt>
      <trkpt lat="47.1743" lon="5.90206">
        <ele>253.4</ele>
        <time>2022-07-24T17:18:23Z</time>
      </trkpt>
      <trkpt lat="47.17431" lon="5.90208">
        <ele>253.4</ele>
        <time>2022-07-24T17:18:24Z</time>
      </trkpt>
      <trkpt lat="47.17432" lon="5.9021">
        <ele>253.4</ele>
        <time>2022-07-24T17:18:25Z</time>
      </trkpt>
      <trkpt lat="47.17434" lon="5.90212">
        <ele>253.4</ele>
        <time>2022-07-24T17:18:26Z</time>
      </trkpt>
      <trkpt lat="47.17435" lon="5.90214">
        <ele>253.4</ele>
        <time>2022-07-24T17:18:27Z</time>
      </trkpt>
      <trkpt lat="47.17437" lon="5.90216">
        <ele>253.4</ele>
        <time>2022-07-24T17:18:28Z</time>
      </trkpt>
      <trkpt lat="47.17439" lon="5.90218">
        <ele>253.6</ele>
        <time>2022-07-24T17:18:29Z</time>
      </trkpt>
      <trkpt lat="47.17452" lon="5.90227">
        <ele>253.4</ele>
        <time>2022-07-24T17:18:35Z</time>
      </trkpt>
      <trkpt lat="47.17453" lon="5.90228">
        <ele>253.4</ele>
        <time>2022-07-24T17:18:36Z</time>
      </trkpt>
      <trkpt lat="47.17458" lon="5.90227">
        <ele>253.4</ele>
        <time>2022-07-24T17:18:38Z</time>
      </trkpt>
      <trkpt lat="47.1746" lon="5.90225">
        <ele>253.2</ele>
        <time>2022-07-24T17:18:39Z</time>
      </trkpt>
      <trkpt lat="47.17463" lon="5.90223">
        <ele>253.2</ele>
        <time>2022-07-24T17:18:40Z</time>
      </trkpt>
      <trkpt lat="47.17465" lon="5.90222">
        <ele>253.2</ele>
        <time>2022-07-24T17:18:41Z</time>
      </trkpt>
      <trkpt lat="47.17467" lon="5.90223">
        <ele>253</ele>
        <time>2022-07-24T17:18:42Z</time>
      </trkpt>
      <trkpt lat="47.17469" lon="5.90225">
        <ele>252.8</ele>
        <time>2022-07-24T17:18:43Z</time>
      </trkpt>
      <trkpt lat="47.17469" lon="5.90228">
        <ele>252.4</ele>
        <time>2022-07-24T17:18:44Z</time>
      </trkpt>
      <trkpt lat="47.1747" lon="5.90231">
        <ele>252.2</ele>
        <time>2022-07-24T17:18:45Z</time>
      </trkpt>
      <trkpt lat="47.17471" lon="5.90234">
        <ele>251.8</ele>
        <time>2022-07-24T17:18:46Z</time>
      </trkpt>
      <trkpt lat="47.17472" lon="5.90237">
        <ele>251.8</ele>
        <time>2022-07-24T17:18:47Z</time>
      </trkpt>
      <trkpt lat="47.17473" lon="5.9024">
        <ele>251.4</ele>
        <time>2022-07-24T17:18:48Z</time>
      </trkpt>
      <trkpt lat="47.17474" lon="5.90245">
        <ele>251.2</ele>
        <time>2022-07-24T17:18:49Z</time>
      </trkpt>
      <trkpt lat="47.17474" lon="5.9025">
        <ele>251.2</ele>
        <time>2022-07-24T17:18:50Z</time>
      </trkpt>
      <trkpt lat="47.17477" lon="5.9027">
        <ele>249.8</ele>
        <time>2022-07-24T17:18:53Z</time>
      </trkpt>
      <trkpt lat="47.17478" lon="5.90283">
        <ele>248.8</ele>
        <time>2022-07-24T17:18:55Z</time>
      </trkpt>
      <trkpt lat="47.17479" lon="5.90291">
        <ele>247.8</ele>
        <time>2022-07-24T17:18:56Z</time>
      </trkpt>
      <trkpt lat="47.1748" lon="5.903">
        <ele>247.6</ele>
        <time>2022-07-24T17:18:57Z</time>
      </trkpt>
      <trkpt lat="47.17482" lon="5.90309">
        <ele>246.8</ele>
        <time>2022-07-24T17:18:58Z</time>
      </trkpt>
      <trkpt lat="47.17483" lon="5.90317">
        <ele>246.4</ele>
        <time>2022-07-24T17:18:59Z</time>
      </trkpt>
      <trkpt lat="47.17485" lon="5.90324">
        <ele>245.2</ele>
        <time>2022-07-24T17:19:00Z</time>
      </trkpt>
      <trkpt lat="47.17488" lon="5.90331">
        <ele>244.4</ele>
        <time>2022-07-24T17:19:01Z</time>
      </trkpt>
      <trkpt lat="47.17492" lon="5.90335">
        <ele>244</ele>
        <time>2022-07-24T17:19:02Z</time>
      </trkpt>
      <trkpt lat="47.17495" lon="5.90339">
        <ele>243.2</ele>
        <time>2022-07-24T17:19:03Z</time>
      </trkpt>
      <trkpt lat="47.17497" lon="5.90341">
        <ele>242.8</ele>
        <time>2022-07-24T17:19:04Z</time>
      </trkpt>
      <trkpt lat="47.17499" lon="5.90344">
        <ele>242.2</ele>
        <time>2022-07-24T17:19:05Z</time>
      </trkpt>
      <trkpt lat="47.17502" lon="5.90346">
        <ele>242</ele>
        <time>2022-07-24T17:19:06Z</time>
      </trkpt>
      <trkpt lat="47.17503" lon="5.90349">
        <ele>241.8</ele>
        <time>2022-07-24T17:19:07Z</time>
      </trkpt>
      <trkpt lat="47.17504" lon="5.90353">
        <ele>241.8</ele>
        <time>2022-07-24T17:19:08Z</time>
      </trkpt>
      <trkpt lat="47.17506" lon="5.90356">
        <ele>241.8</ele>
        <time>2022-07-24T17:19:09Z</time>
      </trkpt>
      <trkpt lat="47.17507" lon="5.9036">
        <ele>241.8</ele>
        <time>2022-07-24T17:19:10Z</time>
      </trkpt>
      <trkpt lat="47.17512" lon="5.90377">
        <ele>241.8</ele>
        <time>2022-07-24T17:19:14Z</time>
      </trkpt>
      <trkpt lat="47.17525" lon="5.9042">
        <ele>242.2</ele>
        <time>2022-07-24T17:19:23Z</time>
      </trkpt>
      <trkpt lat="47.17538" lon="5.90472">
        <ele>242</ele>
        <time>2022-07-24T17:19:32Z</time>
      </trkpt>
      <trkpt lat="47.17553" lon="5.90531">
        <ele>242.2</ele>
        <time>2022-07-24T17:19:42Z</time>
      </trkpt>
      <trkpt lat="47.17574" lon="5.90611">
        <ele>242.2</ele>
        <time>2022-07-24T17:19:54Z</time>
      </trkpt>
      <trkpt lat="47.17587" lon="5.90654">
        <ele>241.8</ele>
        <time>2022-07-24T17:20:00Z</time>
      </trkpt>
      <trkpt lat="47.17594" lon="5.90675">
        <ele>241.4</ele>
        <time>2022-07-24T17:20:03Z</time>
      </trkpt>
      <trkpt lat="47.17606" lon="5.90703">
        <ele>241.2</ele>
        <time>2022-07-24T17:20:07Z</time>
      </trkpt>
      <trkpt lat="47.17613" lon="5.90717">
        <ele>241</ele>
        <time>2022-07-24T17:20:09Z</time>
      </trkpt>
      <trkpt lat="47.17626" lon="5.90743">
        <ele>240.4</ele>
        <time>2022-07-24T17:20:13Z</time>
      </trkpt>
      <trkpt lat="47.17639" lon="5.9077">
        <ele>240</ele>
        <time>2022-07-24T17:20:17Z</time>
      </trkpt>
      <trkpt lat="47.17642" lon="5.90777">
        <ele>239.8</ele>
        <time>2022-07-24T17:20:18Z</time>
      </trkpt>
      <trkpt lat="47.17649" lon="5.9079">
        <ele>239.6</ele>
        <time>2022-07-24T17:20:20Z</time>
      </trkpt>
      <trkpt lat="47.17684" lon="5.90857">
        <ele>239.2</ele>
        <time>2022-07-24T17:20:30Z</time>
      </trkpt>
      <trkpt lat="47.17691" lon="5.9087">
        <ele>239</ele>
        <time>2022-07-24T17:20:32Z</time>
      </trkpt>
      <trkpt lat="47.17698" lon="5.90883">
        <ele>239</ele>
        <time>2022-07-24T17:20:34Z</time>
      </trkpt>
      <trkpt lat="47.17726" lon="5.90924">
        <ele>239</ele>
        <time>2022-07-24T17:20:41Z</time>
      </trkpt>
      <trkpt lat="47.17751" lon="5.90941">
        <ele>239</ele>
        <time>2022-07-24T17:20:46Z</time>
      </trkpt>
      <trkpt lat="47.17756" lon="5.90944">
        <ele>238.8</ele>
        <time>2022-07-24T17:20:47Z</time>
      </trkpt>
      <trkpt lat="47.17761" lon="5.90947">
        <ele>238.8</ele>
        <time>2022-07-24T17:20:48Z</time>
      </trkpt>
      <trkpt lat="47.17766" lon="5.90949">
        <ele>238.8</ele>
        <time>2022-07-24T17:20:49Z</time>
      </trkpt>
      <trkpt lat="47.17771" lon="5.90951">
        <ele>238.8</ele>
        <time>2022-07-24T17:20:50Z</time>
      </trkpt>
      <trkpt lat="47.17775" lon="5.90952">
        <ele>238.8</ele>
        <time>2022-07-24T17:20:51Z</time>
      </trkpt>
      <trkpt lat="47.17779" lon="5.90954">
        <ele>238.8</ele>
        <time>2022-07-24T17:20:52Z</time>
      </trkpt>
      <trkpt lat="47.17783" lon="5.90957">
        <ele>238.8</ele>
        <time>2022-07-24T17:20:53Z</time>
      </trkpt>
      <trkpt lat="47.17785" lon="5.90961">
        <ele>238.8</ele>
        <time>2022-07-24T17:20:54Z</time>
      </trkpt>
      <trkpt lat="47.17786" lon="5.90966">
        <ele>238.8</ele>
        <time>2022-07-24T17:20:55Z</time>
      </trkpt>
      <trkpt lat="47.17786" lon="5.90972">
        <ele>239</ele>
        <time>2022-07-24T17:20:56Z</time>
      </trkpt>
      <trkpt lat="47.17787" lon="5.90985">
        <ele>239</ele>
        <time>2022-07-24T17:20:58Z</time>
      </trkpt>
      <trkpt lat="47.17787" lon="5.90992">
        <ele>239.2</ele>
        <time>2022-07-24T17:20:59Z</time>
      </trkpt>
      <trkpt lat="47.17789" lon="5.91019">
        <ele>239.2</ele>
        <time>2022-07-24T17:21:03Z</time>
      </trkpt>
      <trkpt lat="47.17789" lon="5.91031">
        <ele>239.2</ele>
        <time>2022-07-24T17:21:05Z</time>
      </trkpt>
      <trkpt lat="47.17786" lon="5.91059">
        <ele>239.4</ele>
        <time>2022-07-24T17:21:10Z</time>
      </trkpt>
      <trkpt lat="47.17786" lon="5.91064">
        <ele>239.4</ele>
        <time>2022-07-24T17:21:11Z</time>
      </trkpt>
      <trkpt lat="47.17786" lon="5.91068">
        <ele>239.6</ele>
        <time>2022-07-24T17:21:12Z</time>
      </trkpt>
      <trkpt lat="47.17786" lon="5.91073">
        <ele>239.6</ele>
        <time>2022-07-24T17:21:13Z</time>
      </trkpt>
      <trkpt lat="47.17786" lon="5.91077">
        <ele>239.8</ele>
        <time>2022-07-24T17:21:14Z</time>
      </trkpt>
      <trkpt lat="47.17787" lon="5.91081">
        <ele>239.8</ele>
        <time>2022-07-24T17:21:15Z</time>
      </trkpt>
      <trkpt lat="47.17788" lon="5.91084">
        <ele>240</ele>
        <time>2022-07-24T17:21:16Z</time>
      </trkpt>
      <trkpt lat="47.17789" lon="5.91088">
        <ele>240</ele>
        <time>2022-07-24T17:21:17Z</time>
      </trkpt>
      <trkpt lat="47.17789" lon="5.91091">
        <ele>240.2</ele>
        <time>2022-07-24T17:21:18Z</time>
      </trkpt>
      <trkpt lat="47.17789" lon="5.91094">
        <ele>240.2</ele>
        <time>2022-07-24T17:21:19Z</time>
      </trkpt>
      <trkpt lat="47.1779" lon="5.91096">
        <ele>240.2</ele>
        <time>2022-07-24T17:21:20Z</time>
      </trkpt>
      <trkpt lat="47.1779" lon="5.91097">
        <ele>240.2</ele>
        <time>2022-07-24T17:21:21Z</time>
      </trkpt>
      <trkpt lat="47.17792" lon="5.91105">
        <ele>240.6</ele>
        <time>2022-07-24T17:22:10Z</time>
      </trkpt>
      <trkpt lat="47.17797" lon="5.9112">
        <ele>240.8</ele>
        <time>2022-07-24T17:22:15Z</time>
      </trkpt>
      <trkpt lat="47.17801" lon="5.91125">
        <ele>240.8</ele>
        <time>2022-07-24T17:22:17Z</time>
      </trkpt>
      <trkpt lat="47.17811" lon="5.91137">
        <ele>241</ele>
        <time>2022-07-24T17:22:22Z</time>
      </trkpt>
      <trkpt lat="47.17813" lon="5.9114">
        <ele>241</ele>
        <time>2022-07-24T17:22:23Z</time>
      </trkpt>
      <trkpt lat="47.1782" lon="5.91148">
        <ele>241</ele>
        <time>2022-07-24T17:22:26Z</time>
      </trkpt>
      <trkpt lat="47.17835" lon="5.91168">
        <ele>241.4</ele>
        <time>2022-07-24T17:22:32Z</time>
      </trkpt>
      <trkpt lat="47.17841" lon="5.91175">
        <ele>241.6</ele>
        <time>2022-07-24T17:22:34Z</time>
      </trkpt>
      <trkpt lat="47.17863" lon="5.91198">
        <ele>241.8</ele>
        <time>2022-07-24T17:22:41Z</time>
      </trkpt>
      <trkpt lat="47.17882" lon="5.91213">
        <ele>241.8</ele>
        <time>2022-07-24T17:22:47Z</time>
      </trkpt>
      <trkpt lat="47.17906" lon="5.9124">
        <ele>242.2</ele>
        <time>2022-07-24T17:22:55Z</time>
      </trkpt>
      <trkpt lat="47.17925" lon="5.91256">
        <ele>242.4</ele>
        <time>2022-07-24T17:23:01Z</time>
      </trkpt>
      <trkpt lat="47.17929" lon="5.91257">
        <ele>242.4</ele>
        <time>2022-07-24T17:23:02Z</time>
      </trkpt>
      <trkpt lat="47.17947" lon="5.91264">
        <ele>242.6</ele>
        <time>2022-07-24T17:23:07Z</time>
      </trkpt>
      <trkpt lat="47.17972" lon="5.9129">
        <ele>243</ele>
        <time>2022-07-24T17:23:15Z</time>
      </trkpt>
      <trkpt lat="47.17991" lon="5.91308">
        <ele>243</ele>
        <time>2022-07-24T17:23:21Z</time>
      </trkpt>
      <trkpt lat="47.18008" lon="5.9132">
        <ele>243</ele>
        <time>2022-07-24T17:23:26Z</time>
      </trkpt>
      <trkpt lat="47.18019" lon="5.91333">
        <ele>242.8</ele>
        <time>2022-07-24T17:23:30Z</time>
      </trkpt>
      <trkpt lat="47.18021" lon="5.91335">
        <ele>242.8</ele>
        <time>2022-07-24T17:23:31Z</time>
      </trkpt>
      <trkpt lat="47.18024" lon="5.91337">
        <ele>242.8</ele>
        <time>2022-07-24T17:23:32Z</time>
      </trkpt>
      <trkpt lat="47.18041" lon="5.91354">
        <ele>243</ele>
        <time>2022-07-24T17:23:38Z</time>
      </trkpt>
      <trkpt lat="47.18045" lon="5.91363">
        <ele>243</ele>
        <time>2022-07-24T17:23:40Z</time>
      </trkpt>
      <trkpt lat="47.18047" lon="5.91367">
        <ele>243</ele>
        <time>2022-07-24T17:23:41Z</time>
      </trkpt>
      <trkpt lat="47.18052" lon="5.91377">
        <ele>243</ele>
        <time>2022-07-24T17:23:44Z</time>
      </trkpt>
      <trkpt lat="47.18054" lon="5.91378">
        <ele>243</ele>
        <time>2022-07-24T17:23:45Z</time>
      </trkpt>
      <trkpt lat="47.18059" lon="5.91386">
        <ele>243</ele>
        <time>2022-07-24T17:23:47Z</time>
      </trkpt>
      <trkpt lat="47.18061" lon="5.91391">
        <ele>243</ele>
        <time>2022-07-24T17:23:48Z</time>
      </trkpt>
      <trkpt lat="47.18063" lon="5.91395">
        <ele>243</ele>
        <time>2022-07-24T17:23:49Z</time>
      </trkpt>
      <trkpt lat="47.18064" lon="5.914">
        <ele>243</ele>
        <time>2022-07-24T17:23:50Z</time>
      </trkpt>
      <trkpt lat="47.18066" lon="5.91403">
        <ele>243</ele>
        <time>2022-07-24T17:23:51Z</time>
      </trkpt>
      <trkpt lat="47.18068" lon="5.91407">
        <ele>243</ele>
        <time>2022-07-24T17:23:52Z</time>
      </trkpt>
      <trkpt lat="47.1807" lon="5.9141">
        <ele>243</ele>
        <time>2022-07-24T17:23:53Z</time>
      </trkpt>
      <trkpt lat="47.18073" lon="5.91414">
        <ele>242.8</ele>
        <time>2022-07-24T17:23:54Z</time>
      </trkpt>
      <trkpt lat="47.18077" lon="5.91416">
        <ele>242.8</ele>
        <time>2022-07-24T17:23:55Z</time>
      </trkpt>
      <trkpt lat="47.1808" lon="5.91419">
        <ele>242.8</ele>
        <time>2022-07-24T17:23:56Z</time>
      </trkpt>
      <trkpt lat="47.18088" lon="5.91426">
        <ele>242.8</ele>
        <time>2022-07-24T17:23:58Z</time>
      </trkpt>
      <trkpt lat="47.18091" lon="5.9143">
        <ele>242.8</ele>
        <time>2022-07-24T17:23:59Z</time>
      </trkpt>
      <trkpt lat="47.18093" lon="5.91434">
        <ele>242.8</ele>
        <time>2022-07-24T17:24:00Z</time>
      </trkpt>
      <trkpt lat="47.18095" lon="5.91437">
        <ele>242.8</ele>
        <time>2022-07-24T17:24:01Z</time>
      </trkpt>
      <trkpt lat="47.18097" lon="5.9144">
        <ele>242.8</ele>
        <time>2022-07-24T17:24:02Z</time>
      </trkpt>
      <trkpt lat="47.18099" lon="5.91444">
        <ele>242.8</ele>
        <time>2022-07-24T17:24:03Z</time>
      </trkpt>
      <trkpt lat="47.18102" lon="5.91447">
        <ele>243</ele>
        <time>2022-07-24T17:24:04Z</time>
      </trkpt>
      <trkpt lat="47.18104" lon="5.91451">
        <ele>243</ele>
        <time>2022-07-24T17:24:05Z</time>
      </trkpt>
      <trkpt lat="47.18106" lon="5.91455">
        <ele>243</ele>
        <time>2022-07-24T17:24:06Z</time>
      </trkpt>
      <trkpt lat="47.18109" lon="5.9146">
        <ele>243</ele>
        <time>2022-07-24T17:24:07Z</time>
      </trkpt>
      <trkpt lat="47.18117" lon="5.91475">
        <ele>243.2</ele>
        <time>2022-07-24T17:24:10Z</time>
      </trkpt>
      <trkpt lat="47.18126" lon="5.91499">
        <ele>243.2</ele>
        <time>2022-07-24T17:24:14Z</time>
      </trkpt>
      <trkpt lat="47.18128" lon="5.91504">
        <ele>243</ele>
        <time>2022-07-24T17:24:15Z</time>
      </trkpt>
      <trkpt lat="47.18133" lon="5.91516">
        <ele>243</ele>
        <time>2022-07-24T17:24:18Z</time>
      </trkpt>
      <trkpt lat="47.18135" lon="5.9152">
        <ele>243</ele>
        <time>2022-07-24T17:24:19Z</time>
      </trkpt>
      <trkpt lat="47.18137" lon="5.91526">
        <ele>243</ele>
        <time>2022-07-24T17:24:20Z</time>
      </trkpt>
      <trkpt lat="47.18139" lon="5.91531">
        <ele>243</ele>
        <time>2022-07-24T17:24:21Z</time>
      </trkpt>
      <trkpt lat="47.18146" lon="5.91558">
        <ele>243.2</ele>
        <time>2022-07-24T17:24:26Z</time>
      </trkpt>
      <trkpt lat="47.18146" lon="5.9156">
        <ele>243.4</ele>
        <time>2022-07-24T17:24:27Z</time>
      </trkpt>
      <trkpt lat="47.18148" lon="5.91566">
        <ele>243.6</ele>
        <time>2022-07-24T17:24:28Z</time>
      </trkpt>
      <trkpt lat="47.18149" lon="5.9157">
        <ele>243.6</ele>
        <time>2022-07-24T17:24:29Z</time>
      </trkpt>
      <trkpt lat="47.1815" lon="5.91573">
        <ele>243.8</ele>
        <time>2022-07-24T17:24:30Z</time>
      </trkpt>
      <trkpt lat="47.18151" lon="5.91576">
        <ele>244</ele>
        <time>2022-07-24T17:24:31Z</time>
      </trkpt>
      <trkpt lat="47.18152" lon="5.91581">
        <ele>244.4</ele>
        <time>2022-07-24T17:24:32Z</time>
      </trkpt>
      <trkpt lat="47.18154" lon="5.91584">
        <ele>244.6</ele>
        <time>2022-07-24T17:24:33Z</time>
      </trkpt>
      <trkpt lat="47.18156" lon="5.91586">
        <ele>244.8</ele>
        <time>2022-07-24T17:24:34Z</time>
      </trkpt>
      <trkpt lat="47.18158" lon="5.91591">
        <ele>244.8</ele>
        <time>2022-07-24T17:24:35Z</time>
      </trkpt>
      <trkpt lat="47.1816" lon="5.91597">
        <ele>244.8</ele>
        <time>2022-07-24T17:24:36Z</time>
      </trkpt>
      <trkpt lat="47.18165" lon="5.91615">
        <ele>244.8</ele>
        <time>2022-07-24T17:24:39Z</time>
      </trkpt>
      <trkpt lat="47.18166" lon="5.91619">
        <ele>244.6</ele>
        <time>2022-07-24T17:24:40Z</time>
      </trkpt>
      <trkpt lat="47.18167" lon="5.91624">
        <ele>244.6</ele>
        <time>2022-07-24T17:24:41Z</time>
      </trkpt>
      <trkpt lat="47.18168" lon="5.91628">
        <ele>244.4</ele>
        <time>2022-07-24T17:24:42Z</time>
      </trkpt>
      <trkpt lat="47.18168" lon="5.91633">
        <ele>244.4</ele>
        <time>2022-07-24T17:24:43Z</time>
      </trkpt>
      <trkpt lat="47.18168" lon="5.91638">
        <ele>244.4</ele>
        <time>2022-07-24T17:24:44Z</time>
      </trkpt>
      <trkpt lat="47.18167" lon="5.91641">
        <ele>244.4</ele>
        <time>2022-07-24T17:24:45Z</time>
      </trkpt>
      <trkpt lat="47.18166" lon="5.91645">
        <ele>244.4</ele>
        <time>2022-07-24T17:24:46Z</time>
      </trkpt>
      <trkpt lat="47.18165" lon="5.91648">
        <ele>244.4</ele>
        <time>2022-07-24T17:24:47Z</time>
      </trkpt>
      <trkpt lat="47.18165" lon="5.91653">
        <ele>244.4</ele>
        <time>2022-07-24T17:24:48Z</time>
      </trkpt>
      <trkpt lat="47.18165" lon="5.91659">
        <ele>244.4</ele>
        <time>2022-07-24T17:24:49Z</time>
      </trkpt>
      <trkpt lat="47.18167" lon="5.91666">
        <ele>244.4</ele>
        <time>2022-07-24T17:24:50Z</time>
      </trkpt>
      <trkpt lat="47.18169" lon="5.91672">
        <ele>244.4</ele>
        <time>2022-07-24T17:24:51Z</time>
      </trkpt>
      <trkpt lat="47.1817" lon="5.91678">
        <ele>244.4</ele>
        <time>2022-07-24T17:24:52Z</time>
      </trkpt>
      <trkpt lat="47.18171" lon="5.91682">
        <ele>244.4</ele>
        <time>2022-07-24T17:24:53Z</time>
      </trkpt>
      <trkpt lat="47.18171" lon="5.91688">
        <ele>244.4</ele>
        <time>2022-07-24T17:24:55Z</time>
      </trkpt>
      <trkpt lat="47.1817" lon="5.91691">
        <ele>244.4</ele>
        <time>2022-07-24T17:24:56Z</time>
      </trkpt>
      <trkpt lat="47.18169" lon="5.91693">
        <ele>244.4</ele>
        <time>2022-07-24T17:24:57Z</time>
      </trkpt>
      <trkpt lat="47.18167" lon="5.91695">
        <ele>244.4</ele>
        <time>2022-07-24T17:24:58Z</time>
      </trkpt>
      <trkpt lat="47.18167" lon="5.91699">
        <ele>244.4</ele>
        <time>2022-07-24T17:24:59Z</time>
      </trkpt>
      <trkpt lat="47.18167" lon="5.91707">
        <ele>244.4</ele>
        <time>2022-07-24T17:25:00Z</time>
      </trkpt>
      <trkpt lat="47.18167" lon="5.91711">
        <ele>244.4</ele>
        <time>2022-07-24T17:25:01Z</time>
      </trkpt>
      <trkpt lat="47.18166" lon="5.91715">
        <ele>244.4</ele>
        <time>2022-07-24T17:25:02Z</time>
      </trkpt>
      <trkpt lat="47.18167" lon="5.9172">
        <ele>244.4</ele>
        <time>2022-07-24T17:25:03Z</time>
      </trkpt>
      <trkpt lat="47.18168" lon="5.91725">
        <ele>244.4</ele>
        <time>2022-07-24T17:25:04Z</time>
      </trkpt>
      <trkpt lat="47.1817" lon="5.91732">
        <ele>244.4</ele>
        <time>2022-07-24T17:25:05Z</time>
      </trkpt>
      <trkpt lat="47.18172" lon="5.91739">
        <ele>244.2</ele>
        <time>2022-07-24T17:25:06Z</time>
      </trkpt>
      <trkpt lat="47.18173" lon="5.91742">
        <ele>244.2</ele>
        <time>2022-07-24T17:25:07Z</time>
      </trkpt>
      <trkpt lat="47.18173" lon="5.91745">
        <ele>244.2</ele>
        <time>2022-07-24T17:25:08Z</time>
      </trkpt>
      <trkpt lat="47.18175" lon="5.91756">
        <ele>244</ele>
        <time>2022-07-24T17:25:12Z</time>
      </trkpt>
      <trkpt lat="47.18175" lon="5.91761">
        <ele>244</ele>
        <time>2022-07-24T17:25:13Z</time>
      </trkpt>
      <trkpt lat="47.18176" lon="5.91764">
        <ele>244</ele>
        <time>2022-07-24T17:25:14Z</time>
      </trkpt>
      <trkpt lat="47.18176" lon="5.91766">
        <ele>244</ele>
        <time>2022-07-24T17:25:15Z</time>
      </trkpt>
      <trkpt lat="47.18177" lon="5.91769">
        <ele>244</ele>
        <time>2022-07-24T17:25:16Z</time>
      </trkpt>
      <trkpt lat="47.18178" lon="5.91771">
        <ele>244.2</ele>
        <time>2022-07-24T17:25:17Z</time>
      </trkpt>
      <trkpt lat="47.18178" lon="5.91774">
        <ele>244.4</ele>
        <time>2022-07-24T17:25:18Z</time>
      </trkpt>
      <trkpt lat="47.18179" lon="5.91778">
        <ele>244.4</ele>
        <time>2022-07-24T17:25:19Z</time>
      </trkpt>
      <trkpt lat="47.18177" lon="5.9178">
        <ele>244.8</ele>
        <time>2022-07-24T17:25:20Z</time>
      </trkpt>
      <trkpt lat="47.18177" lon="5.91783">
        <ele>244.8</ele>
        <time>2022-07-24T17:25:21Z</time>
      </trkpt>
      <trkpt lat="47.18177" lon="5.9179">
        <ele>245</ele>
        <time>2022-07-24T17:25:22Z</time>
      </trkpt>
      <trkpt lat="47.18178" lon="5.91795">
        <ele>245.2</ele>
        <time>2022-07-24T17:25:23Z</time>
      </trkpt>
      <trkpt lat="47.18179" lon="5.91804">
        <ele>245.8</ele>
        <time>2022-07-24T17:25:26Z</time>
      </trkpt>
      <trkpt lat="47.1818" lon="5.91807">
        <ele>246</ele>
        <time>2022-07-24T17:25:27Z</time>
      </trkpt>
      <trkpt lat="47.18179" lon="5.9181">
        <ele>246</ele>
        <time>2022-07-24T17:25:28Z</time>
      </trkpt>
      <trkpt lat="47.18179" lon="5.91814">
        <ele>246.2</ele>
        <time>2022-07-24T17:25:29Z</time>
      </trkpt>
      <trkpt lat="47.1818" lon="5.91822">
        <ele>246.4</ele>
        <time>2022-07-24T17:25:30Z</time>
      </trkpt>
      <trkpt lat="47.18182" lon="5.91828">
        <ele>246.4</ele>
        <time>2022-07-24T17:25:31Z</time>
      </trkpt>
      <trkpt lat="47.18183" lon="5.91833">
        <ele>246.6</ele>
        <time>2022-07-24T17:25:32Z</time>
      </trkpt>
      <trkpt lat="47.18185" lon="5.91838">
        <ele>246.6</ele>
        <time>2022-07-24T17:25:33Z</time>
      </trkpt>
      <trkpt lat="47.18184" lon="5.91842">
        <ele>246.6</ele>
        <time>2022-07-24T17:25:34Z</time>
      </trkpt>
      <trkpt lat="47.18184" lon="5.91846">
        <ele>246.8</ele>
        <time>2022-07-24T17:25:35Z</time>
      </trkpt>
      <trkpt lat="47.18185" lon="5.91849">
        <ele>246.8</ele>
        <time>2022-07-24T17:25:36Z</time>
      </trkpt>
      <trkpt lat="47.18184" lon="5.91852">
        <ele>246.8</ele>
        <time>2022-07-24T17:25:37Z</time>
      </trkpt>
      <trkpt lat="47.18184" lon="5.91854">
        <ele>246.8</ele>
        <time>2022-07-24T17:25:38Z</time>
      </trkpt>
      <trkpt lat="47.18184" lon="5.91859">
        <ele>246.8</ele>
        <time>2022-07-24T17:25:39Z</time>
      </trkpt>
      <trkpt lat="47.18183" lon="5.91864">
        <ele>246.8</ele>
        <time>2022-07-24T17:25:40Z</time>
      </trkpt>
      <trkpt lat="47.18183" lon="5.91871">
        <ele>247</ele>
        <time>2022-07-24T17:25:41Z</time>
      </trkpt>
      <trkpt lat="47.18184" lon="5.91875">
        <ele>247</ele>
        <time>2022-07-24T17:25:42Z</time>
      </trkpt>
      <trkpt lat="47.18184" lon="5.91884">
        <ele>247</ele>
        <time>2022-07-24T17:25:43Z</time>
      </trkpt>
      <trkpt lat="47.18183" lon="5.91889">
        <ele>247</ele>
        <time>2022-07-24T17:25:44Z</time>
      </trkpt>
      <trkpt lat="47.18183" lon="5.91891">
        <ele>247</ele>
        <time>2022-07-24T17:25:45Z</time>
      </trkpt>
      <trkpt lat="47.18183" lon="5.91893">
        <ele>247</ele>
        <time>2022-07-24T17:25:46Z</time>
      </trkpt>
      <trkpt lat="47.18185" lon="5.91897">
        <ele>247.2</ele>
        <time>2022-07-24T17:25:48Z</time>
      </trkpt>
      <trkpt lat="47.18185" lon="5.91901">
        <ele>247.4</ele>
        <time>2022-07-24T17:25:49Z</time>
      </trkpt>
      <trkpt lat="47.18185" lon="5.91906">
        <ele>247.4</ele>
        <time>2022-07-24T17:25:50Z</time>
      </trkpt>
      <trkpt lat="47.18182" lon="5.91913">
        <ele>247.4</ele>
        <time>2022-07-24T17:25:51Z</time>
      </trkpt>
      <trkpt lat="47.18179" lon="5.91916">
        <ele>247.6</ele>
        <time>2022-07-24T17:25:52Z</time>
      </trkpt>
      <trkpt lat="47.18176" lon="5.9192">
        <ele>247.8</ele>
        <time>2022-07-24T17:25:53Z</time>
      </trkpt>
      <trkpt lat="47.18175" lon="5.91921">
        <ele>247.8</ele>
        <time>2022-07-24T17:25:54Z</time>
      </trkpt>
      <trkpt lat="47.18175" lon="5.91931">
        <ele>248</ele>
        <time>2022-07-24T17:25:58Z</time>
      </trkpt>
      <trkpt lat="47.18174" lon="5.91935">
        <ele>248</ele>
        <time>2022-07-24T17:25:59Z</time>
      </trkpt>
      <trkpt lat="47.18175" lon="5.91945">
        <ele>248.2</ele>
        <time>2022-07-24T17:26:02Z</time>
      </trkpt>
      <trkpt lat="47.18174" lon="5.91963">
        <ele>248.2</ele>
        <time>2022-07-24T17:26:06Z</time>
      </trkpt>
      <trkpt lat="47.18172" lon="5.91971">
        <ele>248.4</ele>
        <time>2022-07-24T17:26:08Z</time>
      </trkpt>
      <trkpt lat="47.1817" lon="5.91974">
        <ele>248.4</ele>
        <time>2022-07-24T17:26:09Z</time>
      </trkpt>
      <trkpt lat="47.1817" lon="5.91976">
        <ele>248.6</ele>
        <time>2022-07-24T17:26:10Z</time>
      </trkpt>
      <trkpt lat="47.18169" lon="5.91977">
        <ele>248.6</ele>
        <time>2022-07-24T17:26:11Z</time>
      </trkpt>
      <trkpt lat="47.18169" lon="5.91978">
        <ele>249.2</ele>
        <time>2022-07-24T17:26:15Z</time>
      </trkpt>
      <trkpt lat="47.18167" lon="5.91981">
        <ele>249.4</ele>
        <time>2022-07-24T17:26:17Z</time>
      </trkpt>
      <trkpt lat="47.18165" lon="5.91984">
        <ele>249.8</ele>
        <time>2022-07-24T17:26:19Z</time>
      </trkpt>
      <trkpt lat="47.18161" lon="5.91989">
        <ele>250.2</ele>
        <time>2022-07-24T17:26:20Z</time>
      </trkpt>
      <trkpt lat="47.18158" lon="5.91992">
        <ele>250.4</ele>
        <time>2022-07-24T17:26:21Z</time>
      </trkpt>
      <trkpt lat="47.18154" lon="5.91998">
        <ele>250.6</ele>
        <time>2022-07-24T17:26:23Z</time>
      </trkpt>
      <trkpt lat="47.18151" lon="5.92003">
        <ele>250.8</ele>
        <time>2022-07-24T17:26:24Z</time>
      </trkpt>
      <trkpt lat="47.1815" lon="5.92009">
        <ele>251.2</ele>
        <time>2022-07-24T17:26:25Z</time>
      </trkpt>
      <trkpt lat="47.18149" lon="5.92016">
        <ele>251.4</ele>
        <time>2022-07-24T17:26:26Z</time>
      </trkpt>
      <trkpt lat="47.18149" lon="5.92019">
        <ele>251.6</ele>
        <time>2022-07-24T17:26:27Z</time>
      </trkpt>
      <trkpt lat="47.18149" lon="5.92022">
        <ele>251.6</ele>
        <time>2022-07-24T17:26:28Z</time>
      </trkpt>
      <trkpt lat="47.1815" lon="5.92025">
        <ele>251.8</ele>
        <time>2022-07-24T17:26:29Z</time>
      </trkpt>
      <trkpt lat="47.18151" lon="5.92028">
        <ele>251.8</ele>
        <time>2022-07-24T17:26:30Z</time>
      </trkpt>
      <trkpt lat="47.18154" lon="5.92029">
        <ele>252</ele>
        <time>2022-07-24T17:26:31Z</time>
      </trkpt>
      <trkpt lat="47.18156" lon="5.9203">
        <ele>252</ele>
        <time>2022-07-24T17:26:32Z</time>
      </trkpt>
      <trkpt lat="47.18157" lon="5.92031">
        <ele>252.2</ele>
        <time>2022-07-24T17:26:33Z</time>
      </trkpt>
      <trkpt lat="47.18157" lon="5.92033">
        <ele>252.2</ele>
        <time>2022-07-24T17:26:34Z</time>
      </trkpt>
      <trkpt lat="47.18159" lon="5.92036">
        <ele>252.2</ele>
        <time>2022-07-24T17:26:35Z</time>
      </trkpt>
      <trkpt lat="47.18162" lon="5.92039">
        <ele>252.2</ele>
        <time>2022-07-24T17:26:36Z</time>
      </trkpt>
      <trkpt lat="47.18164" lon="5.92043">
        <ele>252.2</ele>
        <time>2022-07-24T17:26:37Z</time>
      </trkpt>
      <trkpt lat="47.18166" lon="5.92045">
        <ele>252.2</ele>
        <time>2022-07-24T17:26:38Z</time>
      </trkpt>
      <trkpt lat="47.18168" lon="5.92047">
        <ele>252.4</ele>
        <time>2022-07-24T17:26:39Z</time>
      </trkpt>
      <trkpt lat="47.18169" lon="5.92049">
        <ele>252.4</ele>
        <time>2022-07-24T17:26:40Z</time>
      </trkpt>
      <trkpt lat="47.18171" lon="5.92052">
        <ele>252.4</ele>
        <time>2022-07-24T17:26:41Z</time>
      </trkpt>
      <trkpt lat="47.18173" lon="5.92055">
        <ele>252.4</ele>
        <time>2022-07-24T17:26:42Z</time>
      </trkpt>
      <trkpt lat="47.18174" lon="5.92057">
        <ele>252.4</ele>
        <time>2022-07-24T17:26:43Z</time>
      </trkpt>
      <trkpt lat="47.18176" lon="5.9206">
        <ele>252.4</ele>
        <time>2022-07-24T17:26:44Z</time>
      </trkpt>
      <trkpt lat="47.18177" lon="5.92063">
        <ele>252.4</ele>
        <time>2022-07-24T17:26:45Z</time>
      </trkpt>
      <trkpt lat="47.18179" lon="5.92065">
        <ele>252.6</ele>
        <time>2022-07-24T17:26:46Z</time>
      </trkpt>
      <trkpt lat="47.1818" lon="5.92068">
        <ele>252.6</ele>
        <time>2022-07-24T17:26:47Z</time>
      </trkpt>
      <trkpt lat="47.18181" lon="5.9207">
        <ele>252.6</ele>
        <time>2022-07-24T17:26:48Z</time>
      </trkpt>
      <trkpt lat="47.18183" lon="5.92073">
        <ele>252.6</ele>
        <time>2022-07-24T17:26:49Z</time>
      </trkpt>
      <trkpt lat="47.18184" lon="5.92076">
        <ele>252.6</ele>
        <time>2022-07-24T17:26:50Z</time>
      </trkpt>
      <trkpt lat="47.18187" lon="5.92082">
        <ele>252.8</ele>
        <time>2022-07-24T17:26:52Z</time>
      </trkpt>
      <trkpt lat="47.18192" lon="5.92086">
        <ele>252.8</ele>
        <time>2022-07-24T17:26:54Z</time>
      </trkpt>
      <trkpt lat="47.18194" lon="5.92089">
        <ele>252.8</ele>
        <time>2022-07-24T17:26:55Z</time>
      </trkpt>
      <trkpt lat="47.18209" lon="5.92101">
        <ele>252.8</ele>
        <time>2022-07-24T17:26:59Z</time>
      </trkpt>
      <trkpt lat="47.18218" lon="5.92108">
        <ele>252.4</ele>
        <time>2022-07-24T17:27:01Z</time>
      </trkpt>
      <trkpt lat="47.18237" lon="5.92127">
        <ele>251.8</ele>
        <time>2022-07-24T17:27:05Z</time>
      </trkpt>
      <trkpt lat="47.18241" lon="5.92132">
        <ele>251.6</ele>
        <time>2022-07-24T17:27:06Z</time>
      </trkpt>
      <trkpt lat="47.18245" lon="5.92137">
        <ele>251.2</ele>
        <time>2022-07-24T17:27:07Z</time>
      </trkpt>
      <trkpt lat="47.18253" lon="5.92149">
        <ele>250.6</ele>
        <time>2022-07-24T17:27:09Z</time>
      </trkpt>
      <trkpt lat="47.18257" lon="5.92159">
        <ele>250.2</ele>
        <time>2022-07-24T17:27:11Z</time>
      </trkpt>
      <trkpt lat="47.18258" lon="5.92164">
        <ele>250</ele>
        <time>2022-07-24T17:27:12Z</time>
      </trkpt>
      <trkpt lat="47.18259" lon="5.92169">
        <ele>249.8</ele>
        <time>2022-07-24T17:27:13Z</time>
      </trkpt>
      <trkpt lat="47.18261" lon="5.92175">
        <ele>249.8</ele>
        <time>2022-07-24T17:27:14Z</time>
      </trkpt>
      <trkpt lat="47.18262" lon="5.92179">
        <ele>249.8</ele>
        <time>2022-07-24T17:27:15Z</time>
      </trkpt>
      <trkpt lat="47.18263" lon="5.92184">
        <ele>249.8</ele>
        <time>2022-07-24T17:27:16Z</time>
      </trkpt>
      <trkpt lat="47.18264" lon="5.92187">
        <ele>249.6</ele>
        <time>2022-07-24T17:27:17Z</time>
      </trkpt>
      <trkpt lat="47.18266" lon="5.9219">
        <ele>249.6</ele>
        <time>2022-07-24T17:27:18Z</time>
      </trkpt>
      <trkpt lat="47.18267" lon="5.92194">
        <ele>249.6</ele>
        <time>2022-07-24T17:27:19Z</time>
      </trkpt>
      <trkpt lat="47.18275" lon="5.9221">
        <ele>249.8</ele>
        <time>2022-07-24T17:27:24Z</time>
      </trkpt>
      <trkpt lat="47.18277" lon="5.92214">
        <ele>250</ele>
        <time>2022-07-24T17:27:25Z</time>
      </trkpt>
      <trkpt lat="47.18286" lon="5.92237">
        <ele>250.2</ele>
        <time>2022-07-24T17:27:31Z</time>
      </trkpt>
      <trkpt lat="47.18288" lon="5.9224">
        <ele>250.2</ele>
        <time>2022-07-24T17:27:32Z</time>
      </trkpt>
      <trkpt lat="47.18295" lon="5.92256">
        <ele>250.2</ele>
        <time>2022-07-24T17:27:36Z</time>
      </trkpt>
      <trkpt lat="47.18298" lon="5.92258">
        <ele>250.4</ele>
        <time>2022-07-24T17:27:37Z</time>
      </trkpt>
      <trkpt lat="47.18302" lon="5.92263">
        <ele>250.4</ele>
        <time>2022-07-24T17:27:40Z</time>
      </trkpt>
      <trkpt lat="47.18303" lon="5.92265">
        <ele>250.4</ele>
        <time>2022-07-24T17:27:41Z</time>
      </trkpt>
      <trkpt lat="47.18305" lon="5.92268">
        <ele>250.4</ele>
        <time>2022-07-24T17:27:42Z</time>
      </trkpt>
      <trkpt lat="47.18307" lon="5.92271">
        <ele>250.2</ele>
        <time>2022-07-24T17:27:43Z</time>
      </trkpt>
      <trkpt lat="47.18312" lon="5.92275">
        <ele>250.2</ele>
        <time>2022-07-24T17:27:45Z</time>
      </trkpt>
      <trkpt lat="47.18315" lon="5.92276">
        <ele>250.2</ele>
        <time>2022-07-24T17:27:46Z</time>
      </trkpt>
      <trkpt lat="47.18318" lon="5.92278">
        <ele>250.2</ele>
        <time>2022-07-24T17:27:47Z</time>
      </trkpt>
      <trkpt lat="47.18322" lon="5.92281">
        <ele>250.2</ele>
        <time>2022-07-24T17:27:48Z</time>
      </trkpt>
      <trkpt lat="47.18326" lon="5.92284">
        <ele>250</ele>
        <time>2022-07-24T17:27:49Z</time>
      </trkpt>
      <trkpt lat="47.18333" lon="5.92292">
        <ele>249.2</ele>
        <time>2022-07-24T17:27:51Z</time>
      </trkpt>
      <trkpt lat="47.18337" lon="5.92295">
        <ele>248.8</ele>
        <time>2022-07-24T17:27:52Z</time>
      </trkpt>
      <trkpt lat="47.18341" lon="5.92298">
        <ele>248.6</ele>
        <time>2022-07-24T17:27:53Z</time>
      </trkpt>
      <trkpt lat="47.18345" lon="5.92301">
        <ele>248.6</ele>
        <time>2022-07-24T17:27:54Z</time>
      </trkpt>
      <trkpt lat="47.18352" lon="5.92308">
        <ele>248.2</ele>
        <time>2022-07-24T17:27:56Z</time>
      </trkpt>
      <trkpt lat="47.18355" lon="5.9231">
        <ele>248.2</ele>
        <time>2022-07-24T17:27:57Z</time>
      </trkpt>
      <trkpt lat="47.18359" lon="5.92314">
        <ele>248</ele>
        <time>2022-07-24T17:27:58Z</time>
      </trkpt>
      <trkpt lat="47.18364" lon="5.92323">
        <ele>248</ele>
        <time>2022-07-24T17:28:00Z</time>
      </trkpt>
      <trkpt lat="47.18366" lon="5.92326">
        <ele>247.8</ele>
        <time>2022-07-24T17:28:01Z</time>
      </trkpt>
      <trkpt lat="47.18368" lon="5.9233">
        <ele>247.6</ele>
        <time>2022-07-24T17:28:02Z</time>
      </trkpt>
      <trkpt lat="47.1837" lon="5.92335">
        <ele>247.6</ele>
        <time>2022-07-24T17:28:03Z</time>
      </trkpt>
      <trkpt lat="47.18375" lon="5.92345">
        <ele>248</ele>
        <time>2022-07-24T17:28:06Z</time>
      </trkpt>
      <trkpt lat="47.18376" lon="5.92348">
        <ele>248.2</ele>
        <time>2022-07-24T17:28:07Z</time>
      </trkpt>
      <trkpt lat="47.18379" lon="5.92352">
        <ele>248.2</ele>
        <time>2022-07-24T17:28:08Z</time>
      </trkpt>
      <trkpt lat="47.18387" lon="5.92359">
        <ele>248.2</ele>
        <time>2022-07-24T17:28:11Z</time>
      </trkpt>
      <trkpt lat="47.18389" lon="5.92359">
        <ele>248.2</ele>
        <time>2022-07-24T17:28:12Z</time>
      </trkpt>
      <trkpt lat="47.18391" lon="5.9236">
        <ele>248.2</ele>
        <time>2022-07-24T17:28:13Z</time>
      </trkpt>
      <trkpt lat="47.18395" lon="5.92363">
        <ele>248.2</ele>
        <time>2022-07-24T17:28:14Z</time>
      </trkpt>
      <trkpt lat="47.18404" lon="5.92371">
        <ele>248</ele>
        <time>2022-07-24T17:28:18Z</time>
      </trkpt>
      <trkpt lat="47.18408" lon="5.92372">
        <ele>248</ele>
        <time>2022-07-24T17:28:20Z</time>
      </trkpt>
      <trkpt lat="47.1841" lon="5.9237">
        <ele>248</ele>
        <time>2022-07-24T17:28:21Z</time>
      </trkpt>
      <trkpt lat="47.18412" lon="5.92367">
        <ele>248</ele>
        <time>2022-07-24T17:28:22Z</time>
      </trkpt>
      <trkpt lat="47.18416" lon="5.92361">
        <ele>247.8</ele>
        <time>2022-07-24T17:28:24Z</time>
      </trkpt>
      <trkpt lat="47.18424" lon="5.92362">
        <ele>247.8</ele>
        <time>2022-07-24T17:28:27Z</time>
      </trkpt>
      <trkpt lat="47.18429" lon="5.92358">
        <ele>247.8</ele>
        <time>2022-07-24T17:28:29Z</time>
      </trkpt>
      <trkpt lat="47.18431" lon="5.92354">
        <ele>247.8</ele>
        <time>2022-07-24T17:28:30Z</time>
      </trkpt>
      <trkpt lat="47.18434" lon="5.92349">
        <ele>247.8</ele>
        <time>2022-07-24T17:28:33Z</time>
      </trkpt>
      <trkpt lat="47.18437" lon="5.92348">
        <ele>247.8</ele>
        <time>2022-07-24T17:28:34Z</time>
      </trkpt>
      <trkpt lat="47.1844" lon="5.92345">
        <ele>247.8</ele>
        <time>2022-07-24T17:28:35Z</time>
      </trkpt>
      <trkpt lat="47.18442" lon="5.92344">
        <ele>247.8</ele>
        <time>2022-07-24T17:28:36Z</time>
      </trkpt>
      <trkpt lat="47.18443" lon="5.92343">
        <ele>247.8</ele>
        <time>2022-07-24T17:28:37Z</time>
      </trkpt>
      <trkpt lat="47.18444" lon="5.92342">
        <ele>247.8</ele>
        <time>2022-07-24T17:28:38Z</time>
      </trkpt>
      <trkpt lat="47.18445" lon="5.92341">
        <ele>248</ele>
        <time>2022-07-24T17:28:39Z</time>
      </trkpt>
      <trkpt lat="47.18446" lon="5.92341">
        <ele>248.2</ele>
        <time>2022-07-24T17:28:40Z</time>
      </trkpt>
      <trkpt lat="47.18447" lon="5.92341">
        <ele>248.2</ele>
        <time>2022-07-24T17:28:41Z</time>
      </trkpt>
      <trkpt lat="47.18449" lon="5.92341">
        <ele>248.4</ele>
        <time>2022-07-24T17:28:42Z</time>
      </trkpt>
      <trkpt lat="47.18451" lon="5.9234">
        <ele>248.4</ele>
        <time>2022-07-24T17:28:43Z</time>
      </trkpt>
      <trkpt lat="47.18452" lon="5.9234">
        <ele>248.4</ele>
        <time>2022-07-24T17:28:44Z</time>
      </trkpt>
      <trkpt lat="47.18453" lon="5.9234">
        <ele>248.8</ele>
        <time>2022-07-24T17:28:45Z</time>
      </trkpt>
      <trkpt lat="47.18454" lon="5.92341">
        <ele>248.8</ele>
        <time>2022-07-24T17:28:46Z</time>
      </trkpt>
      <trkpt lat="47.18459" lon="5.92344">
        <ele>249</ele>
        <time>2022-07-24T17:28:49Z</time>
      </trkpt>
      <trkpt lat="47.1846" lon="5.92345">
        <ele>249</ele>
        <time>2022-07-24T17:28:50Z</time>
      </trkpt>
      <trkpt lat="47.18465" lon="5.92349">
        <ele>249</ele>
        <time>2022-07-24T17:28:53Z</time>
      </trkpt>
      <trkpt lat="47.1847" lon="5.92351">
        <ele>249</ele>
        <time>2022-07-24T17:28:57Z</time>
      </trkpt>
      <trkpt lat="47.18472" lon="5.92351">
        <ele>249</ele>
        <time>2022-07-24T17:28:58Z</time>
      </trkpt>
      <trkpt lat="47.18474" lon="5.92351">
        <ele>249.2</ele>
        <time>2022-07-24T17:28:59Z</time>
      </trkpt>
      <trkpt lat="47.18476" lon="5.92353">
        <ele>249.2</ele>
        <time>2022-07-24T17:29:00Z</time>
      </trkpt>
      <trkpt lat="47.18479" lon="5.92355">
        <ele>249.2</ele>
        <time>2022-07-24T17:29:01Z</time>
      </trkpt>
      <trkpt lat="47.18481" lon="5.92356">
        <ele>249.2</ele>
        <time>2022-07-24T17:29:02Z</time>
      </trkpt>
      <trkpt lat="47.18483" lon="5.92358">
        <ele>249.2</ele>
        <time>2022-07-24T17:29:03Z</time>
      </trkpt>
      <trkpt lat="47.18485" lon="5.92361">
        <ele>249.4</ele>
        <time>2022-07-24T17:29:04Z</time>
      </trkpt>
      <trkpt lat="47.18486" lon="5.92362">
        <ele>249.6</ele>
        <time>2022-07-24T17:29:05Z</time>
      </trkpt>
      <trkpt lat="47.1849" lon="5.92364">
        <ele>250.4</ele>
        <time>2022-07-24T17:29:08Z</time>
      </trkpt>
      <trkpt lat="47.18497" lon="5.92367">
        <ele>251.4</ele>
        <time>2022-07-24T17:29:31Z</time>
      </trkpt>
      <trkpt lat="47.18499" lon="5.92368">
        <ele>251.4</ele>
        <time>2022-07-24T17:29:33Z</time>
      </trkpt>
      <trkpt lat="47.18504" lon="5.92371">
        <ele>251.8</ele>
        <time>2022-07-24T17:29:37Z</time>
      </trkpt>
      <trkpt lat="47.18505" lon="5.92371">
        <ele>251.8</ele>
        <time>2022-07-24T17:29:38Z</time>
      </trkpt>
      <trkpt lat="47.18506" lon="5.92372">
        <ele>252</ele>
        <time>2022-07-24T17:29:39Z</time>
      </trkpt>
      <trkpt lat="47.18507" lon="5.92373">
        <ele>252</ele>
        <time>2022-07-24T17:29:40Z</time>
      </trkpt>
      <trkpt lat="47.18509" lon="5.92374">
        <ele>252</ele>
        <time>2022-07-24T17:29:41Z</time>
      </trkpt>
      <trkpt lat="47.18511" lon="5.92375">
        <ele>252</ele>
        <time>2022-07-24T17:29:42Z</time>
      </trkpt>
      <trkpt lat="47.18513" lon="5.92377">
        <ele>252</ele>
        <time>2022-07-24T17:29:43Z</time>
      </trkpt>
      <trkpt lat="47.18518" lon="5.92382">
        <ele>252</ele>
        <time>2022-07-24T17:29:45Z</time>
      </trkpt>
      <trkpt lat="47.1852" lon="5.92384">
        <ele>252</ele>
        <time>2022-07-24T17:29:46Z</time>
      </trkpt>
      <trkpt lat="47.18523" lon="5.92387">
        <ele>252.2</ele>
        <time>2022-07-24T17:29:47Z</time>
      </trkpt>
      <trkpt lat="47.18534" lon="5.92395">
        <ele>252.4</ele>
        <time>2022-07-24T17:29:52Z</time>
      </trkpt>
      <trkpt lat="47.18538" lon="5.92398">
        <ele>252.6</ele>
        <time>2022-07-24T17:29:54Z</time>
      </trkpt>
      <trkpt lat="47.1854" lon="5.924">
        <ele>252.6</ele>
        <time>2022-07-24T17:29:55Z</time>
      </trkpt>
      <trkpt lat="47.18543" lon="5.92402">
        <ele>252.8</ele>
        <time>2022-07-24T17:29:56Z</time>
      </trkpt>
      <trkpt lat="47.18548" lon="5.92409">
        <ele>253</ele>
        <time>2022-07-24T17:29:58Z</time>
      </trkpt>
      <trkpt lat="47.1855" lon="5.92413">
        <ele>253</ele>
        <time>2022-07-24T17:29:59Z</time>
      </trkpt>
      <trkpt lat="47.18553" lon="5.92416">
        <ele>253</ele>
        <time>2022-07-24T17:30:01Z</time>
      </trkpt>
      <trkpt lat="47.18556" lon="5.92414">
        <ele>253.2</ele>
        <time>2022-07-24T17:30:03Z</time>
      </trkpt>
      <trkpt lat="47.18559" lon="5.92413">
        <ele>253.2</ele>
        <time>2022-07-24T17:30:04Z</time>
      </trkpt>
      <trkpt lat="47.18562" lon="5.92411">
        <ele>253.2</ele>
        <time>2022-07-24T17:30:05Z</time>
      </trkpt>
      <trkpt lat="47.18565" lon="5.92409">
        <ele>253.6</ele>
        <time>2022-07-24T17:30:06Z</time>
      </trkpt>
      <trkpt lat="47.18569" lon="5.92405">
        <ele>254.2</ele>
        <time>2022-07-24T17:30:08Z</time>
      </trkpt>
      <trkpt lat="47.18571" lon="5.92405">
        <ele>254.2</ele>
        <time>2022-07-24T17:30:09Z</time>
      </trkpt>
      <trkpt lat="47.18573" lon="5.92405">
        <ele>254.6</ele>
        <time>2022-07-24T17:30:10Z</time>
      </trkpt>
      <trkpt lat="47.18576" lon="5.92405">
        <ele>254.6</ele>
        <time>2022-07-24T17:30:11Z</time>
      </trkpt>
      <trkpt lat="47.18579" lon="5.92406">
        <ele>254.8</ele>
        <time>2022-07-24T17:30:12Z</time>
      </trkpt>
      <trkpt lat="47.18581" lon="5.92406">
        <ele>255.2</ele>
        <time>2022-07-24T17:30:13Z</time>
      </trkpt>
      <trkpt lat="47.18583" lon="5.92406">
        <ele>255.2</ele>
        <time>2022-07-24T17:30:14Z</time>
      </trkpt>
      <trkpt lat="47.18584" lon="5.92407">
        <ele>255.6</ele>
        <time>2022-07-24T17:30:15Z</time>
      </trkpt>
      <trkpt lat="47.18585" lon="5.92406">
        <ele>255.8</ele>
        <time>2022-07-24T17:30:16Z</time>
      </trkpt>
      <trkpt lat="47.18586" lon="5.92407">
        <ele>255.8</ele>
        <time>2022-07-24T17:30:17Z</time>
      </trkpt>
      <trkpt lat="47.18587" lon="5.92407">
        <ele>256.2</ele>
        <time>2022-07-24T17:30:18Z</time>
      </trkpt>
      <trkpt lat="47.1859" lon="5.92407">
        <ele>256.2</ele>
        <time>2022-07-24T17:30:19Z</time>
      </trkpt>
      <trkpt lat="47.18593" lon="5.92407">
        <ele>256.4</ele>
        <time>2022-07-24T17:30:20Z</time>
      </trkpt>
      <trkpt lat="47.18596" lon="5.92406">
        <ele>256.4</ele>
        <time>2022-07-24T17:30:21Z</time>
      </trkpt>
      <trkpt lat="47.18599" lon="5.92405">
        <ele>256.6</ele>
        <time>2022-07-24T17:30:22Z</time>
      </trkpt>
      <trkpt lat="47.186" lon="5.92404">
        <ele>256.6</ele>
        <time>2022-07-24T17:30:23Z</time>
      </trkpt>
      <trkpt lat="47.18602" lon="5.92404">
        <ele>256.6</ele>
        <time>2022-07-24T17:30:24Z</time>
      </trkpt>
      <trkpt lat="47.18604" lon="5.92404">
        <ele>256.8</ele>
        <time>2022-07-24T17:30:25Z</time>
      </trkpt>
      <trkpt lat="47.18605" lon="5.92404">
        <ele>256.8</ele>
        <time>2022-07-24T17:30:26Z</time>
      </trkpt>
      <trkpt lat="47.18608" lon="5.92404">
        <ele>256.8</ele>
        <time>2022-07-24T17:30:27Z</time>
      </trkpt>
      <trkpt lat="47.18612" lon="5.92405">
        <ele>257</ele>
        <time>2022-07-24T17:30:28Z</time>
      </trkpt>
      <trkpt lat="47.18613" lon="5.92405">
        <ele>257</ele>
        <time>2022-07-24T17:30:29Z</time>
      </trkpt>
      <trkpt lat="47.18616" lon="5.92409">
        <ele>257.2</ele>
        <time>2022-07-24T17:30:32Z</time>
      </trkpt>
      <trkpt lat="47.18617" lon="5.9241">
        <ele>257.4</ele>
        <time>2022-07-24T17:30:33Z</time>
      </trkpt>
      <trkpt lat="47.18618" lon="5.92411">
        <ele>257.4</ele>
        <time>2022-07-24T17:30:34Z</time>
      </trkpt>
      <trkpt lat="47.18619" lon="5.92412">
        <ele>257.4</ele>
        <time>2022-07-24T17:30:35Z</time>
      </trkpt>
      <trkpt lat="47.18621" lon="5.92414">
        <ele>257.6</ele>
        <time>2022-07-24T17:30:36Z</time>
      </trkpt>
      <trkpt lat="47.18623" lon="5.92416">
        <ele>257.6</ele>
        <time>2022-07-24T17:30:37Z</time>
      </trkpt>
      <trkpt lat="47.18624" lon="5.92418">
        <ele>257.6</ele>
        <time>2022-07-24T17:30:38Z</time>
      </trkpt>
      <trkpt lat="47.18626" lon="5.9242">
        <ele>257.8</ele>
        <time>2022-07-24T17:30:39Z</time>
      </trkpt>
      <trkpt lat="47.18627" lon="5.9242">
        <ele>258</ele>
        <time>2022-07-24T17:30:41Z</time>
      </trkpt>
      <trkpt lat="47.18629" lon="5.9242">
        <ele>258</ele>
        <time>2022-07-24T17:30:42Z</time>
      </trkpt>
      <trkpt lat="47.1863" lon="5.92421">
        <ele>258.2</ele>
        <time>2022-07-24T17:30:43Z</time>
      </trkpt>
      <trkpt lat="47.18632" lon="5.92421">
        <ele>258.2</ele>
        <time>2022-07-24T17:30:44Z</time>
      </trkpt>
      <trkpt lat="47.18633" lon="5.92422">
        <ele>258.4</ele>
        <time>2022-07-24T17:30:45Z</time>
      </trkpt>
      <trkpt lat="47.18636" lon="5.92424">
        <ele>258.4</ele>
        <time>2022-07-24T17:30:46Z</time>
      </trkpt>
      <trkpt lat="47.18638" lon="5.92427">
        <ele>258.4</ele>
        <time>2022-07-24T17:30:47Z</time>
      </trkpt>
      <trkpt lat="47.1864" lon="5.92427">
        <ele>258.4</ele>
        <time>2022-07-24T17:30:48Z</time>
      </trkpt>
      <trkpt lat="47.18642" lon="5.92426">
        <ele>258.4</ele>
        <time>2022-07-24T17:30:49Z</time>
      </trkpt>
      <trkpt lat="47.18646" lon="5.92428">
        <ele>258.6</ele>
        <time>2022-07-24T17:30:52Z</time>
      </trkpt>
      <trkpt lat="47.18648" lon="5.92428">
        <ele>258.8</ele>
        <time>2022-07-24T17:31:21Z</time>
      </trkpt>
      <trkpt lat="47.18657" lon="5.92433">
        <ele>259</ele>
        <time>2022-07-24T17:31:26Z</time>
      </trkpt>
      <trkpt lat="47.1866" lon="5.92434">
        <ele>259.2</ele>
        <time>2022-07-24T17:31:28Z</time>
      </trkpt>
      <trkpt lat="47.1867" lon="5.92442">
        <ele>259.8</ele>
        <time>2022-07-24T17:31:34Z</time>
      </trkpt>
      <trkpt lat="47.18672" lon="5.92444">
        <ele>259.8</ele>
        <time>2022-07-24T17:31:35Z</time>
      </trkpt>
      <trkpt lat="47.18673" lon="5.92446">
        <ele>259.8</ele>
        <time>2022-07-24T17:31:36Z</time>
      </trkpt>
      <trkpt lat="47.18675" lon="5.92447">
        <ele>259.8</ele>
        <time>2022-07-24T17:31:37Z</time>
      </trkpt>
      <trkpt lat="47.18676" lon="5.92448">
        <ele>260</ele>
        <time>2022-07-24T17:31:38Z</time>
      </trkpt>
      <trkpt lat="47.18678" lon="5.92449">
        <ele>260</ele>
        <time>2022-07-24T17:31:39Z</time>
      </trkpt>
      <trkpt lat="47.18679" lon="5.9245">
        <ele>260</ele>
        <time>2022-07-24T17:31:40Z</time>
      </trkpt>
      <trkpt lat="47.1868" lon="5.92451">
        <ele>260.2</ele>
        <time>2022-07-24T17:31:41Z</time>
      </trkpt>
      <trkpt lat="47.18688" lon="5.92458">
        <ele>260.6</ele>
        <time>2022-07-24T17:31:46Z</time>
      </trkpt>
      <trkpt lat="47.18697" lon="5.92461">
        <ele>260.8</ele>
        <time>2022-07-24T17:31:49Z</time>
      </trkpt>
      <trkpt lat="47.18699" lon="5.92463">
        <ele>261.2</ele>
        <time>2022-07-24T17:31:50Z</time>
      </trkpt>
      <trkpt lat="47.18701" lon="5.92464">
        <ele>261.2</ele>
        <time>2022-07-24T17:31:51Z</time>
      </trkpt>
      <trkpt lat="47.18708" lon="5.92468">
        <ele>261.6</ele>
        <time>2022-07-24T17:31:54Z</time>
      </trkpt>
      <trkpt lat="47.18723" lon="5.92473">
        <ele>262.4</ele>
        <time>2022-07-24T17:32:00Z</time>
      </trkpt>
      <trkpt lat="47.1873" lon="5.92477">
        <ele>262.8</ele>
        <time>2022-07-24T17:32:04Z</time>
      </trkpt>
      <trkpt lat="47.18732" lon="5.92478">
        <ele>263</ele>
        <time>2022-07-24T17:32:05Z</time>
      </trkpt>
      <trkpt lat="47.18734" lon="5.92479">
        <ele>263.4</ele>
        <time>2022-07-24T17:32:06Z</time>
      </trkpt>
      <trkpt lat="47.18736" lon="5.9248">
        <ele>263.6</ele>
        <time>2022-07-24T17:32:07Z</time>
      </trkpt>
      <trkpt lat="47.18738" lon="5.92482">
        <ele>263.8</ele>
        <time>2022-07-24T17:32:08Z</time>
      </trkpt>
      <trkpt lat="47.18741" lon="5.92484">
        <ele>264.2</ele>
        <time>2022-07-24T17:32:09Z</time>
      </trkpt>
      <trkpt lat="47.18744" lon="5.92487">
        <ele>264.2</ele>
        <time>2022-07-24T17:32:10Z</time>
      </trkpt>
      <trkpt lat="47.18747" lon="5.9249">
        <ele>264.4</ele>
        <time>2022-07-24T17:32:11Z</time>
      </trkpt>
      <trkpt lat="47.1875" lon="5.9249">
        <ele>264.4</ele>
        <time>2022-07-24T17:32:12Z</time>
      </trkpt>
      <trkpt lat="47.18752" lon="5.92491">
        <ele>264.4</ele>
        <time>2022-07-24T17:32:13Z</time>
      </trkpt>
      <trkpt lat="47.18754" lon="5.92493">
        <ele>264.4</ele>
        <time>2022-07-24T17:32:14Z</time>
      </trkpt>
      <trkpt lat="47.18755" lon="5.92494">
        <ele>264.4</ele>
        <time>2022-07-24T17:32:15Z</time>
      </trkpt>
      <trkpt lat="47.18757" lon="5.92495">
        <ele>264.4</ele>
        <time>2022-07-24T17:32:16Z</time>
      </trkpt>
      <trkpt lat="47.18759" lon="5.92496">
        <ele>264.4</ele>
        <time>2022-07-24T17:32:17Z</time>
      </trkpt>
      <trkpt lat="47.18761" lon="5.92497">
        <ele>264.4</ele>
        <time>2022-07-24T17:32:18Z</time>
      </trkpt>
      <trkpt lat="47.18763" lon="5.92499">
        <ele>264.6</ele>
        <time>2022-07-24T17:32:19Z</time>
      </trkpt>
      <trkpt lat="47.18765" lon="5.925">
        <ele>264.6</ele>
        <time>2022-07-24T17:32:20Z</time>
      </trkpt>
      <trkpt lat="47.18766" lon="5.92501">
        <ele>264.6</ele>
        <time>2022-07-24T17:32:21Z</time>
      </trkpt>
      <trkpt lat="47.18768" lon="5.92501">
        <ele>264.6</ele>
        <time>2022-07-24T17:32:22Z</time>
      </trkpt>
      <trkpt lat="47.18769" lon="5.92502">
        <ele>264.6</ele>
        <time>2022-07-24T17:32:23Z</time>
      </trkpt>
      <trkpt lat="47.1877" lon="5.92504">
        <ele>264.6</ele>
        <time>2022-07-24T17:32:24Z</time>
      </trkpt>
      <trkpt lat="47.18772" lon="5.92505">
        <ele>264.6</ele>
        <time>2022-07-24T17:32:25Z</time>
      </trkpt>
      <trkpt lat="47.18774" lon="5.92507">
        <ele>264.8</ele>
        <time>2022-07-24T17:32:26Z</time>
      </trkpt>
      <trkpt lat="47.18776" lon="5.92506">
        <ele>264.8</ele>
        <time>2022-07-24T17:32:27Z</time>
      </trkpt>
      <trkpt lat="47.18778" lon="5.92508">
        <ele>265</ele>
        <time>2022-07-24T17:32:28Z</time>
      </trkpt>
      <trkpt lat="47.18793" lon="5.92513">
        <ele>265.2</ele>
        <time>2022-07-24T17:32:34Z</time>
      </trkpt>
      <trkpt lat="47.18796" lon="5.92513">
        <ele>265.4</ele>
        <time>2022-07-24T17:32:36Z</time>
      </trkpt>
      <trkpt lat="47.18798" lon="5.92511">
        <ele>265.4</ele>
        <time>2022-07-24T17:32:37Z</time>
      </trkpt>
      <trkpt lat="47.188" lon="5.92512">
        <ele>265.4</ele>
        <time>2022-07-24T17:32:38Z</time>
      </trkpt>
      <trkpt lat="47.18801" lon="5.92512">
        <ele>265.6</ele>
        <time>2022-07-24T17:32:39Z</time>
      </trkpt>
      <trkpt lat="47.18805" lon="5.92513">
        <ele>265.6</ele>
        <time>2022-07-24T17:32:41Z</time>
      </trkpt>
      <trkpt lat="47.18807" lon="5.92513">
        <ele>265.8</ele>
        <time>2022-07-24T17:32:42Z</time>
      </trkpt>
      <trkpt lat="47.18808" lon="5.92514">
        <ele>265.8</ele>
        <time>2022-07-24T17:32:43Z</time>
      </trkpt>
      <trkpt lat="47.18811" lon="5.92514">
        <ele>266</ele>
        <time>2022-07-24T17:32:44Z</time>
      </trkpt>
      <trkpt lat="47.18812" lon="5.92514">
        <ele>266</ele>
        <time>2022-07-24T17:32:45Z</time>
      </trkpt>
      <trkpt lat="47.18815" lon="5.92515">
        <ele>266</ele>
        <time>2022-07-24T17:32:46Z</time>
      </trkpt>
      <trkpt lat="47.18816" lon="5.92517">
        <ele>266.4</ele>
        <time>2022-07-24T17:32:47Z</time>
      </trkpt>
      <trkpt lat="47.18818" lon="5.92519">
        <ele>266.4</ele>
        <time>2022-07-24T17:32:48Z</time>
      </trkpt>
      <trkpt lat="47.18823" lon="5.92521">
        <ele>267</ele>
        <time>2022-07-24T17:32:51Z</time>
      </trkpt>
      <trkpt lat="47.18824" lon="5.92522">
        <ele>267</ele>
        <time>2022-07-24T17:32:52Z</time>
      </trkpt>
      <trkpt lat="47.18825" lon="5.92523">
        <ele>267</ele>
        <time>2022-07-24T17:32:53Z</time>
      </trkpt>
      <trkpt lat="47.18827" lon="5.92524">
        <ele>267.2</ele>
        <time>2022-07-24T17:32:54Z</time>
      </trkpt>
      <trkpt lat="47.1883" lon="5.92529">
        <ele>267.2</ele>
        <time>2022-07-24T17:32:56Z</time>
      </trkpt>
      <trkpt lat="47.18832" lon="5.9253">
        <ele>267.4</ele>
        <time>2022-07-24T17:32:57Z</time>
      </trkpt>
      <trkpt lat="47.18835" lon="5.92531">
        <ele>267.4</ele>
        <time>2022-07-24T17:32:58Z</time>
      </trkpt>
      <trkpt lat="47.18836" lon="5.92532">
        <ele>267.4</ele>
        <time>2022-07-24T17:32:59Z</time>
      </trkpt>
      <trkpt lat="47.18838" lon="5.92534">
        <ele>267.4</ele>
        <time>2022-07-24T17:33:00Z</time>
      </trkpt>
      <trkpt lat="47.18839" lon="5.92536">
        <ele>267.4</ele>
        <time>2022-07-24T17:33:01Z</time>
      </trkpt>
      <trkpt lat="47.18843" lon="5.92541">
        <ele>267.6</ele>
        <time>2022-07-24T17:33:03Z</time>
      </trkpt>
      <trkpt lat="47.18845" lon="5.92543">
        <ele>267.6</ele>
        <time>2022-07-24T17:33:04Z</time>
      </trkpt>
      <trkpt lat="47.18852" lon="5.9255">
        <ele>267.6</ele>
        <time>2022-07-24T17:33:08Z</time>
      </trkpt>
      <trkpt lat="47.18856" lon="5.92552">
        <ele>267.4</ele>
        <time>2022-07-24T17:33:10Z</time>
      </trkpt>
      <trkpt lat="47.18862" lon="5.92557">
        <ele>267.4</ele>
        <time>2022-07-24T17:33:13Z</time>
      </trkpt>
      <trkpt lat="47.18865" lon="5.92558">
        <ele>267.4</ele>
        <time>2022-07-24T17:33:14Z</time>
      </trkpt>
      <trkpt lat="47.1887" lon="5.92561">
        <ele>267.6</ele>
        <time>2022-07-24T17:33:16Z</time>
      </trkpt>
      <trkpt lat="47.18874" lon="5.92565">
        <ele>267.6</ele>
        <time>2022-07-24T17:33:18Z</time>
      </trkpt>
      <trkpt lat="47.18876" lon="5.92567">
        <ele>267.6</ele>
        <time>2022-07-24T17:33:19Z</time>
      </trkpt>
      <trkpt lat="47.18878" lon="5.92568">
        <ele>267.6</ele>
        <time>2022-07-24T17:33:20Z</time>
      </trkpt>
      <trkpt lat="47.18891" lon="5.92585">
        <ele>267.8</ele>
        <time>2022-07-24T17:33:27Z</time>
      </trkpt>
      <trkpt lat="47.18893" lon="5.92586">
        <ele>267.8</ele>
        <time>2022-07-24T17:33:28Z</time>
      </trkpt>
      <trkpt lat="47.18893" lon="5.92587">
        <ele>268</ele>
        <time>2022-07-24T17:33:30Z</time>
      </trkpt>
      <trkpt lat="47.18893" lon="5.92589">
        <ele>268</ele>
        <time>2022-07-24T17:33:31Z</time>
      </trkpt>
      <trkpt lat="47.18892" lon="5.92591">
        <ele>267.8</ele>
        <time>2022-07-24T17:33:32Z</time>
      </trkpt>
      <trkpt lat="47.18892" lon="5.92594">
        <ele>267.8</ele>
        <time>2022-07-24T17:33:33Z</time>
      </trkpt>
      <trkpt lat="47.18892" lon="5.92597">
        <ele>267.8</ele>
        <time>2022-07-24T17:33:34Z</time>
      </trkpt>
      <trkpt lat="47.18891" lon="5.92603">
        <ele>266.8</ele>
        <time>2022-07-24T17:33:37Z</time>
      </trkpt>
      <trkpt lat="47.18888" lon="5.9261">
        <ele>266.2</ele>
        <time>2022-07-24T17:33:39Z</time>
      </trkpt>
      <trkpt lat="47.18887" lon="5.92613">
        <ele>264.8</ele>
        <time>2022-07-24T17:33:44Z</time>
      </trkpt>
      <trkpt lat="47.18886" lon="5.92621">
        <ele>264.4</ele>
        <time>2022-07-24T17:33:46Z</time>
      </trkpt>
      <trkpt lat="47.18886" lon="5.92626">
        <ele>264.2</ele>
        <time>2022-07-24T17:33:47Z</time>
      </trkpt>
      <trkpt lat="47.18886" lon="5.92629">
        <ele>264</ele>
        <time>2022-07-24T17:33:48Z</time>
      </trkpt>
      <trkpt lat="47.18886" lon="5.9263">
        <ele>263.8</ele>
        <time>2022-07-24T17:33:50Z</time>
      </trkpt>
      <trkpt lat="47.18885" lon="5.92633">
        <ele>263.6</ele>
        <time>2022-07-24T17:33:51Z</time>
      </trkpt>
      <trkpt lat="47.18883" lon="5.92637">
        <ele>263.6</ele>
        <time>2022-07-24T17:33:52Z</time>
      </trkpt>
      <trkpt lat="47.1888" lon="5.92642">
        <ele>263.4</ele>
        <time>2022-07-24T17:33:53Z</time>
      </trkpt>
      <trkpt lat="47.18879" lon="5.92646">
        <ele>263.4</ele>
        <time>2022-07-24T17:33:54Z</time>
      </trkpt>
      <trkpt lat="47.18878" lon="5.9266">
        <ele>263.4</ele>
        <time>2022-07-24T17:33:57Z</time>
      </trkpt>
      <trkpt lat="47.18877" lon="5.92664">
        <ele>263.4</ele>
        <time>2022-07-24T17:33:58Z</time>
      </trkpt>
      <trkpt lat="47.18875" lon="5.92667">
        <ele>263.4</ele>
        <time>2022-07-24T17:33:59Z</time>
      </trkpt>
      <trkpt lat="47.18873" lon="5.92672">
        <ele>263.4</ele>
        <time>2022-07-24T17:34:00Z</time>
      </trkpt>
      <trkpt lat="47.18872" lon="5.92676">
        <ele>263.6</ele>
        <time>2022-07-24T17:34:01Z</time>
      </trkpt>
      <trkpt lat="47.18874" lon="5.92689">
        <ele>263.6</ele>
        <time>2022-07-24T17:34:05Z</time>
      </trkpt>
      <trkpt lat="47.18874" lon="5.92692">
        <ele>263.6</ele>
        <time>2022-07-24T17:34:06Z</time>
      </trkpt>
      <trkpt lat="47.18874" lon="5.92695">
        <ele>263.6</ele>
        <time>2022-07-24T17:34:07Z</time>
      </trkpt>
      <trkpt lat="47.18873" lon="5.92696">
        <ele>264</ele>
        <time>2022-07-24T17:34:08Z</time>
      </trkpt>
      <trkpt lat="47.18872" lon="5.92697">
        <ele>264</ele>
        <time>2022-07-24T17:34:09Z</time>
      </trkpt>
      <trkpt lat="47.18871" lon="5.92698">
        <ele>264.2</ele>
        <time>2022-07-24T17:34:10Z</time>
      </trkpt>
      <trkpt lat="47.18871" lon="5.92699">
        <ele>264.2</ele>
        <time>2022-07-24T17:34:11Z</time>
      </trkpt>
      <trkpt lat="47.18871" lon="5.927">
        <ele>264.2</ele>
        <time>2022-07-24T17:34:12Z</time>
      </trkpt>
      <trkpt lat="47.18872" lon="5.92703">
        <ele>264.2</ele>
        <time>2022-07-24T17:34:13Z</time>
      </trkpt>
      <trkpt lat="47.18872" lon="5.9271">
        <ele>264.4</ele>
        <time>2022-07-24T17:34:15Z</time>
      </trkpt>
      <trkpt lat="47.18869" lon="5.92716">
        <ele>264.4</ele>
        <time>2022-07-24T17:34:16Z</time>
      </trkpt>
      <trkpt lat="47.18868" lon="5.92724">
        <ele>264.4</ele>
        <time>2022-07-24T17:34:18Z</time>
      </trkpt>
      <trkpt lat="47.18867" lon="5.92726">
        <ele>264.6</ele>
        <time>2022-07-24T17:34:19Z</time>
      </trkpt>
      <trkpt lat="47.18867" lon="5.9273">
        <ele>264.6</ele>
        <time>2022-07-24T17:34:20Z</time>
      </trkpt>
      <trkpt lat="47.18867" lon="5.92733">
        <ele>264.6</ele>
        <time>2022-07-24T17:34:21Z</time>
      </trkpt>
      <trkpt lat="47.18868" lon="5.92737">
        <ele>264.6</ele>
        <time>2022-07-24T17:34:22Z</time>
      </trkpt>
      <trkpt lat="47.18868" lon="5.92741">
        <ele>264.6</ele>
        <time>2022-07-24T17:34:23Z</time>
      </trkpt>
      <trkpt lat="47.18869" lon="5.92745">
        <ele>264.6</ele>
        <time>2022-07-24T17:34:24Z</time>
      </trkpt>
      <trkpt lat="47.1887" lon="5.92749">
        <ele>264.6</ele>
        <time>2022-07-24T17:34:25Z</time>
      </trkpt>
      <trkpt lat="47.18871" lon="5.92754">
        <ele>264.6</ele>
        <time>2022-07-24T17:34:26Z</time>
      </trkpt>
      <trkpt lat="47.18874" lon="5.92759">
        <ele>264.4</ele>
        <time>2022-07-24T17:34:28Z</time>
      </trkpt>
      <trkpt lat="47.18875" lon="5.92761">
        <ele>264.4</ele>
        <time>2022-07-24T17:34:29Z</time>
      </trkpt>
      <trkpt lat="47.18877" lon="5.92762">
        <ele>264.4</ele>
        <time>2022-07-24T17:34:30Z</time>
      </trkpt>
      <trkpt lat="47.18878" lon="5.92764">
        <ele>264.4</ele>
        <time>2022-07-24T17:34:31Z</time>
      </trkpt>
      <trkpt lat="47.1888" lon="5.92766">
        <ele>264.2</ele>
        <time>2022-07-24T17:34:32Z</time>
      </trkpt>
      <trkpt lat="47.18885" lon="5.92773">
        <ele>264</ele>
        <time>2022-07-24T17:34:35Z</time>
      </trkpt>
      <trkpt lat="47.18886" lon="5.92781">
        <ele>263.8</ele>
        <time>2022-07-24T17:34:37Z</time>
      </trkpt>
      <trkpt lat="47.18886" lon="5.92785">
        <ele>263.8</ele>
        <time>2022-07-24T17:34:38Z</time>
      </trkpt>
      <trkpt lat="47.18884" lon="5.92792">
        <ele>263.8</ele>
        <time>2022-07-24T17:34:40Z</time>
      </trkpt>
      <trkpt lat="47.18884" lon="5.92795">
        <ele>263.6</ele>
        <time>2022-07-24T17:34:41Z</time>
      </trkpt>
      <trkpt lat="47.18883" lon="5.92798">
        <ele>263.8</ele>
        <time>2022-07-24T17:34:42Z</time>
      </trkpt>
      <trkpt lat="47.18882" lon="5.92808">
        <ele>263</ele>
        <time>2022-07-24T17:34:45Z</time>
      </trkpt>
      <trkpt lat="47.18881" lon="5.92811">
        <ele>263</ele>
        <time>2022-07-24T17:34:46Z</time>
      </trkpt>
      <trkpt lat="47.18879" lon="5.92818">
        <ele>262.6</ele>
        <time>2022-07-24T17:34:48Z</time>
      </trkpt>
      <trkpt lat="47.18878" lon="5.92821">
        <ele>262.6</ele>
        <time>2022-07-24T17:34:49Z</time>
      </trkpt>
      <trkpt lat="47.18877" lon="5.92823">
        <ele>262.4</ele>
        <time>2022-07-24T17:34:50Z</time>
      </trkpt>
      <trkpt lat="47.18877" lon="5.92826">
        <ele>262.6</ele>
        <time>2022-07-24T17:34:51Z</time>
      </trkpt>
      <trkpt lat="47.18875" lon="5.9283">
        <ele>262.4</ele>
        <time>2022-07-24T17:34:52Z</time>
      </trkpt>
      <trkpt lat="47.18874" lon="5.92835">
        <ele>262.4</ele>
        <time>2022-07-24T17:34:53Z</time>
      </trkpt>
      <trkpt lat="47.1887" lon="5.92846">
        <ele>262.2</ele>
        <time>2022-07-24T17:34:55Z</time>
      </trkpt>
      <trkpt lat="47.18868" lon="5.92849">
        <ele>262.2</ele>
        <time>2022-07-24T17:34:56Z</time>
      </trkpt>
      <trkpt lat="47.18866" lon="5.92853">
        <ele>262</ele>
        <time>2022-07-24T17:34:57Z</time>
      </trkpt>
      <trkpt lat="47.18864" lon="5.92857">
        <ele>262</ele>
        <time>2022-07-24T17:34:58Z</time>
      </trkpt>
      <trkpt lat="47.18862" lon="5.9286">
        <ele>262</ele>
        <time>2022-07-24T17:34:59Z</time>
      </trkpt>
      <trkpt lat="47.1886" lon="5.92866">
        <ele>261.8</ele>
        <time>2022-07-24T17:35:00Z</time>
      </trkpt>
      <trkpt lat="47.18857" lon="5.9287">
        <ele>261.6</ele>
        <time>2022-07-24T17:35:01Z</time>
      </trkpt>
      <trkpt lat="47.18855" lon="5.92873">
        <ele>261.4</ele>
        <time>2022-07-24T17:35:02Z</time>
      </trkpt>
      <trkpt lat="47.18852" lon="5.92877">
        <ele>261.4</ele>
        <time>2022-07-24T17:35:03Z</time>
      </trkpt>
      <trkpt lat="47.1885" lon="5.92883">
        <ele>261</ele>
        <time>2022-07-24T17:35:04Z</time>
      </trkpt>
      <trkpt lat="47.18846" lon="5.92893">
        <ele>260.6</ele>
        <time>2022-07-24T17:35:05Z</time>
      </trkpt>
      <trkpt lat="47.18842" lon="5.92905">
        <ele>260.2</ele>
        <time>2022-07-24T17:35:06Z</time>
      </trkpt>
      <trkpt lat="47.18835" lon="5.92916">
        <ele>259.8</ele>
        <time>2022-07-24T17:35:07Z</time>
      </trkpt>
      <trkpt lat="47.18822" lon="5.92935">
        <ele>258.8</ele>
        <time>2022-07-24T17:35:09Z</time>
      </trkpt>
      <trkpt lat="47.18816" lon="5.92943">
        <ele>258.2</ele>
        <time>2022-07-24T17:35:10Z</time>
      </trkpt>
      <trkpt lat="47.18812" lon="5.9295">
        <ele>257.6</ele>
        <time>2022-07-24T17:35:11Z</time>
      </trkpt>
      <trkpt lat="47.18808" lon="5.92959">
        <ele>257</ele>
        <time>2022-07-24T17:35:12Z</time>
      </trkpt>
      <trkpt lat="47.18805" lon="5.92967">
        <ele>256.6</ele>
        <time>2022-07-24T17:35:13Z</time>
      </trkpt>
      <trkpt lat="47.18802" lon="5.92973">
        <ele>256</ele>
        <time>2022-07-24T17:35:14Z</time>
      </trkpt>
      <trkpt lat="47.18799" lon="5.92977">
        <ele>255.8</ele>
        <time>2022-07-24T17:35:15Z</time>
      </trkpt>
      <trkpt lat="47.18796" lon="5.92982">
        <ele>255.4</ele>
        <time>2022-07-24T17:35:16Z</time>
      </trkpt>
      <trkpt lat="47.18792" lon="5.92986">
        <ele>255.4</ele>
        <time>2022-07-24T17:35:17Z</time>
      </trkpt>
      <trkpt lat="47.18788" lon="5.92991">
        <ele>255.2</ele>
        <time>2022-07-24T17:35:18Z</time>
      </trkpt>
      <trkpt lat="47.18781" lon="5.93002">
        <ele>255</ele>
        <time>2022-07-24T17:35:20Z</time>
      </trkpt>
      <trkpt lat="47.18779" lon="5.93004">
        <ele>254.8</ele>
        <time>2022-07-24T17:35:21Z</time>
      </trkpt>
      <trkpt lat="47.18777" lon="5.93007">
        <ele>254.8</ele>
        <time>2022-07-24T17:35:22Z</time>
      </trkpt>
      <trkpt lat="47.18777" lon="5.93008">
        <ele>254.8</ele>
        <time>2022-07-24T17:35:23Z</time>
      </trkpt>
      <trkpt lat="47.18776" lon="5.9301">
        <ele>254.8</ele>
        <time>2022-07-24T17:35:24Z</time>
      </trkpt>
      <trkpt lat="47.18775" lon="5.93011">
        <ele>254.8</ele>
        <time>2022-07-24T17:35:25Z</time>
      </trkpt>
      <trkpt lat="47.18775" lon="5.93012">
        <ele>254.6</ele>
        <time>2022-07-24T17:35:48Z</time>
      </trkpt>
      <trkpt lat="47.18773" lon="5.93018">
        <ele>254.8</ele>
        <time>2022-07-24T17:35:50Z</time>
      </trkpt>
      <trkpt lat="47.1877" lon="5.93032">
        <ele>255</ele>
        <time>2022-07-24T17:35:54Z</time>
      </trkpt>
      <trkpt lat="47.1877" lon="5.93035">
        <ele>255</ele>
        <time>2022-07-24T17:35:55Z</time>
      </trkpt>
      <trkpt lat="47.18769" lon="5.93038">
        <ele>255.2</ele>
        <time>2022-07-24T17:35:56Z</time>
      </trkpt>
      <trkpt lat="47.18768" lon="5.9304">
        <ele>255.4</ele>
        <time>2022-07-24T17:35:57Z</time>
      </trkpt>
      <trkpt lat="47.18768" lon="5.93042">
        <ele>255.4</ele>
        <time>2022-07-24T17:35:58Z</time>
      </trkpt>
      <trkpt lat="47.18767" lon="5.93045">
        <ele>255.4</ele>
        <time>2022-07-24T17:35:59Z</time>
      </trkpt>
      <trkpt lat="47.18766" lon="5.93047">
        <ele>255.4</ele>
        <time>2022-07-24T17:36:00Z</time>
      </trkpt>
      <trkpt lat="47.18765" lon="5.9305">
        <ele>255.6</ele>
        <time>2022-07-24T17:36:01Z</time>
      </trkpt>
      <trkpt lat="47.18763" lon="5.93052">
        <ele>255.8</ele>
        <time>2022-07-24T17:36:02Z</time>
      </trkpt>
      <trkpt lat="47.18762" lon="5.93055">
        <ele>256</ele>
        <time>2022-07-24T17:36:03Z</time>
      </trkpt>
      <trkpt lat="47.18761" lon="5.93057">
        <ele>256.2</ele>
        <time>2022-07-24T17:36:04Z</time>
      </trkpt>
      <trkpt lat="47.1876" lon="5.93059">
        <ele>256.4</ele>
        <time>2022-07-24T17:36:05Z</time>
      </trkpt>
      <trkpt lat="47.18759" lon="5.93061">
        <ele>256.6</ele>
        <time>2022-07-24T17:36:06Z</time>
      </trkpt>
      <trkpt lat="47.18758" lon="5.93063">
        <ele>256.6</ele>
        <time>2022-07-24T17:36:07Z</time>
      </trkpt>
      <trkpt lat="47.18757" lon="5.93065">
        <ele>256.8</ele>
        <time>2022-07-24T17:36:08Z</time>
      </trkpt>
      <trkpt lat="47.18756" lon="5.93068">
        <ele>257</ele>
        <time>2022-07-24T17:36:09Z</time>
      </trkpt>
      <trkpt lat="47.18748" lon="5.93094">
        <ele>257.4</ele>
        <time>2022-07-24T17:36:15Z</time>
      </trkpt>
      <trkpt lat="47.18745" lon="5.93106">
        <ele>257.6</ele>
        <time>2022-07-24T17:36:19Z</time>
      </trkpt>
      <trkpt lat="47.18744" lon="5.93109">
        <ele>257.8</ele>
        <time>2022-07-24T17:36:20Z</time>
      </trkpt>
      <trkpt lat="47.18744" lon="5.93112">
        <ele>257.8</ele>
        <time>2022-07-24T17:36:21Z</time>
      </trkpt>
      <trkpt lat="47.18742" lon="5.93115">
        <ele>258</ele>
        <time>2022-07-24T17:36:22Z</time>
      </trkpt>
      <trkpt lat="47.18741" lon="5.93117">
        <ele>258</ele>
        <time>2022-07-24T17:36:23Z</time>
      </trkpt>
      <trkpt lat="47.18738" lon="5.93125">
        <ele>258.2</ele>
        <time>2022-07-24T17:36:26Z</time>
      </trkpt>
      <trkpt lat="47.18736" lon="5.93128">
        <ele>258.2</ele>
        <time>2022-07-24T17:36:27Z</time>
      </trkpt>
      <trkpt lat="47.18734" lon="5.93132">
        <ele>258.2</ele>
        <time>2022-07-24T17:36:28Z</time>
      </trkpt>
      <trkpt lat="47.18733" lon="5.93135">
        <ele>258.2</ele>
        <time>2022-07-24T17:36:29Z</time>
      </trkpt>
      <trkpt lat="47.1873" lon="5.93142">
        <ele>258.4</ele>
        <time>2022-07-24T17:36:31Z</time>
      </trkpt>
      <trkpt lat="47.18729" lon="5.93148">
        <ele>258.4</ele>
        <time>2022-07-24T17:36:33Z</time>
      </trkpt>
      <trkpt lat="47.18728" lon="5.9315">
        <ele>258.6</ele>
        <time>2022-07-24T17:36:34Z</time>
      </trkpt>
      <trkpt lat="47.18727" lon="5.93153">
        <ele>258.6</ele>
        <time>2022-07-24T17:36:35Z</time>
      </trkpt>
      <trkpt lat="47.18724" lon="5.93157">
        <ele>258.6</ele>
        <time>2022-07-24T17:36:37Z</time>
      </trkpt>
      <trkpt lat="47.18721" lon="5.93164">
        <ele>258.6</ele>
        <time>2022-07-24T17:36:39Z</time>
      </trkpt>
      <trkpt lat="47.18717" lon="5.93175">
        <ele>258.4</ele>
        <time>2022-07-24T17:36:42Z</time>
      </trkpt>
      <trkpt lat="47.18716" lon="5.93177">
        <ele>258.4</ele>
        <time>2022-07-24T17:36:43Z</time>
      </trkpt>
      <trkpt lat="47.18717" lon="5.9318">
        <ele>258.4</ele>
        <time>2022-07-24T17:36:44Z</time>
      </trkpt>
      <trkpt lat="47.18717" lon="5.93183">
        <ele>258.4</ele>
        <time>2022-07-24T17:36:45Z</time>
      </trkpt>
      <trkpt lat="47.18718" lon="5.93185">
        <ele>258.2</ele>
        <time>2022-07-24T17:36:46Z</time>
      </trkpt>
      <trkpt lat="47.18719" lon="5.93187">
        <ele>258.2</ele>
        <time>2022-07-24T17:36:47Z</time>
      </trkpt>
      <trkpt lat="47.18721" lon="5.93188">
        <ele>258.2</ele>
        <time>2022-07-24T17:36:48Z</time>
      </trkpt>
      <trkpt lat="47.18723" lon="5.9319">
        <ele>258.2</ele>
        <time>2022-07-24T17:36:49Z</time>
      </trkpt>
      <trkpt lat="47.18725" lon="5.93193">
        <ele>258.2</ele>
        <time>2022-07-24T17:36:50Z</time>
      </trkpt>
      <trkpt lat="47.18728" lon="5.93196">
        <ele>258.4</ele>
        <time>2022-07-24T17:36:51Z</time>
      </trkpt>
      <trkpt lat="47.18729" lon="5.93197">
        <ele>258.4</ele>
        <time>2022-07-24T17:36:52Z</time>
      </trkpt>
      <trkpt lat="47.18735" lon="5.93197">
        <ele>258.4</ele>
        <time>2022-07-24T17:36:54Z</time>
      </trkpt>
      <trkpt lat="47.18737" lon="5.93198">
        <ele>258.6</ele>
        <time>2022-07-24T17:36:55Z</time>
      </trkpt>
      <trkpt lat="47.18738" lon="5.93199">
        <ele>258.8</ele>
        <time>2022-07-24T17:36:56Z</time>
      </trkpt>
      <trkpt lat="47.18742" lon="5.93204">
        <ele>259</ele>
        <time>2022-07-24T17:36:58Z</time>
      </trkpt>
      <trkpt lat="47.18746" lon="5.93208">
        <ele>259.4</ele>
        <time>2022-07-24T17:37:00Z</time>
      </trkpt>
      <trkpt lat="47.18748" lon="5.93209">
        <ele>259.6</ele>
        <time>2022-07-24T17:37:01Z</time>
      </trkpt>
      <trkpt lat="47.1875" lon="5.93209">
        <ele>259.6</ele>
        <time>2022-07-24T17:37:02Z</time>
      </trkpt>
      <trkpt lat="47.18752" lon="5.9321">
        <ele>259.8</ele>
        <time>2022-07-24T17:37:03Z</time>
      </trkpt>
      <trkpt lat="47.18754" lon="5.93211">
        <ele>259.8</ele>
        <time>2022-07-24T17:37:04Z</time>
      </trkpt>
      <trkpt lat="47.18757" lon="5.93213">
        <ele>259.8</ele>
        <time>2022-07-24T17:37:05Z</time>
      </trkpt>
      <trkpt lat="47.18764" lon="5.93218">
        <ele>260</ele>
        <time>2022-07-24T17:37:08Z</time>
      </trkpt>
      <trkpt lat="47.18786" lon="5.93226">
        <ele>260.8</ele>
        <time>2022-07-24T17:37:15Z</time>
      </trkpt>
      <trkpt lat="47.18789" lon="5.93224">
        <ele>260.8</ele>
        <time>2022-07-24T17:37:16Z</time>
      </trkpt>
      <trkpt lat="47.18791" lon="5.93223">
        <ele>260.8</ele>
        <time>2022-07-24T17:37:17Z</time>
      </trkpt>
      <trkpt lat="47.18795" lon="5.93222">
        <ele>261</ele>
        <time>2022-07-24T17:37:18Z</time>
      </trkpt>
      <trkpt lat="47.18797" lon="5.93221">
        <ele>261</ele>
        <time>2022-07-24T17:37:19Z</time>
      </trkpt>
      <trkpt lat="47.18802" lon="5.93221">
        <ele>261.2</ele>
        <time>2022-07-24T17:37:21Z</time>
      </trkpt>
      <trkpt lat="47.18805" lon="5.9322">
        <ele>261.4</ele>
        <time>2022-07-24T17:37:22Z</time>
      </trkpt>
      <trkpt lat="47.18814" lon="5.93221">
        <ele>261.8</ele>
        <time>2022-07-24T17:37:25Z</time>
      </trkpt>
      <trkpt lat="47.18817" lon="5.9322">
        <ele>261.8</ele>
        <time>2022-07-24T17:37:26Z</time>
      </trkpt>
      <trkpt lat="47.18828" lon="5.93215">
        <ele>262</ele>
        <time>2022-07-24T17:37:30Z</time>
      </trkpt>
      <trkpt lat="47.1885" lon="5.93207">
        <ele>262.6</ele>
        <time>2022-07-24T17:37:37Z</time>
      </trkpt>
      <trkpt lat="47.18856" lon="5.93206">
        <ele>262.8</ele>
        <time>2022-07-24T17:37:39Z</time>
      </trkpt>
      <trkpt lat="47.18861" lon="5.93207">
        <ele>263</ele>
        <time>2022-07-24T17:37:41Z</time>
      </trkpt>
      <trkpt lat="47.18864" lon="5.93209">
        <ele>263</ele>
        <time>2022-07-24T17:37:42Z</time>
      </trkpt>
      <trkpt lat="47.18867" lon="5.93209">
        <ele>263.2</ele>
        <time>2022-07-24T17:37:43Z</time>
      </trkpt>
      <trkpt lat="47.18869" lon="5.93209">
        <ele>263.2</ele>
        <time>2022-07-24T17:37:44Z</time>
      </trkpt>
      <trkpt lat="47.18871" lon="5.9321">
        <ele>263.2</ele>
        <time>2022-07-24T17:37:45Z</time>
      </trkpt>
      <trkpt lat="47.18872" lon="5.9321">
        <ele>263.2</ele>
        <time>2022-07-24T17:37:46Z</time>
      </trkpt>
      <trkpt lat="47.18873" lon="5.93211">
        <ele>263.2</ele>
        <time>2022-07-24T17:37:47Z</time>
      </trkpt>
      <trkpt lat="47.18877" lon="5.93211">
        <ele>263.4</ele>
        <time>2022-07-24T17:37:48Z</time>
      </trkpt>
      <trkpt lat="47.1888" lon="5.93211">
        <ele>263.4</ele>
        <time>2022-07-24T17:37:49Z</time>
      </trkpt>
      <trkpt lat="47.18883" lon="5.93211">
        <ele>263.4</ele>
        <time>2022-07-24T17:37:50Z</time>
      </trkpt>
      <trkpt lat="47.18886" lon="5.93212">
        <ele>263.4</ele>
        <time>2022-07-24T17:37:51Z</time>
      </trkpt>
      <trkpt lat="47.18888" lon="5.9321">
        <ele>263.4</ele>
        <time>2022-07-24T17:37:52Z</time>
      </trkpt>
      <trkpt lat="47.18891" lon="5.9321">
        <ele>263.4</ele>
        <time>2022-07-24T17:37:53Z</time>
      </trkpt>
      <trkpt lat="47.18894" lon="5.9321">
        <ele>263.6</ele>
        <time>2022-07-24T17:37:54Z</time>
      </trkpt>
      <trkpt lat="47.18898" lon="5.93211">
        <ele>263.6</ele>
        <time>2022-07-24T17:37:55Z</time>
      </trkpt>
      <trkpt lat="47.18904" lon="5.93212">
        <ele>263.6</ele>
        <time>2022-07-24T17:37:57Z</time>
      </trkpt>
      <trkpt lat="47.18908" lon="5.93211">
        <ele>263.6</ele>
        <time>2022-07-24T17:37:58Z</time>
      </trkpt>
      <trkpt lat="47.18912" lon="5.93211">
        <ele>263.6</ele>
        <time>2022-07-24T17:37:59Z</time>
      </trkpt>
      <trkpt lat="47.18918" lon="5.9321">
        <ele>263.8</ele>
        <time>2022-07-24T17:38:01Z</time>
      </trkpt>
      <trkpt lat="47.18921" lon="5.93211">
        <ele>264</ele>
        <time>2022-07-24T17:38:02Z</time>
      </trkpt>
      <trkpt lat="47.18924" lon="5.93213">
        <ele>264</ele>
        <time>2022-07-24T17:38:03Z</time>
      </trkpt>
      <trkpt lat="47.18926" lon="5.93215">
        <ele>264</ele>
        <time>2022-07-24T17:38:04Z</time>
      </trkpt>
      <trkpt lat="47.1893" lon="5.93215">
        <ele>264</ele>
        <time>2022-07-24T17:38:05Z</time>
      </trkpt>
      <trkpt lat="47.18934" lon="5.93214">
        <ele>264</ele>
        <time>2022-07-24T17:38:06Z</time>
      </trkpt>
      <trkpt lat="47.18936" lon="5.93213">
        <ele>264</ele>
        <time>2022-07-24T17:38:07Z</time>
      </trkpt>
      <trkpt lat="47.18938" lon="5.93212">
        <ele>264</ele>
        <time>2022-07-24T17:38:08Z</time>
      </trkpt>
      <trkpt lat="47.1894" lon="5.9321">
        <ele>263.8</ele>
        <time>2022-07-24T17:38:09Z</time>
      </trkpt>
      <trkpt lat="47.18943" lon="5.93211">
        <ele>263.8</ele>
        <time>2022-07-24T17:38:10Z</time>
      </trkpt>
      <trkpt lat="47.18952" lon="5.93211">
        <ele>263.8</ele>
        <time>2022-07-24T17:38:12Z</time>
      </trkpt>
      <trkpt lat="47.18956" lon="5.93209">
        <ele>263.6</ele>
        <time>2022-07-24T17:38:13Z</time>
      </trkpt>
      <trkpt lat="47.18968" lon="5.93208">
        <ele>264</ele>
        <time>2022-07-24T17:38:18Z</time>
      </trkpt>
      <trkpt lat="47.18971" lon="5.93209">
        <ele>264</ele>
        <time>2022-07-24T17:38:19Z</time>
      </trkpt>
      <trkpt lat="47.18976" lon="5.93213">
        <ele>264.2</ele>
        <time>2022-07-24T17:38:22Z</time>
      </trkpt>
      <trkpt lat="47.18978" lon="5.93214">
        <ele>264.2</ele>
        <time>2022-07-24T17:38:23Z</time>
      </trkpt>
      <trkpt lat="47.1898" lon="5.93215">
        <ele>264.2</ele>
        <time>2022-07-24T17:38:24Z</time>
      </trkpt>
      <trkpt lat="47.18982" lon="5.93216">
        <ele>264.2</ele>
        <time>2022-07-24T17:38:25Z</time>
      </trkpt>
      <trkpt lat="47.18985" lon="5.93217">
        <ele>264.2</ele>
        <time>2022-07-24T17:38:26Z</time>
      </trkpt>
      <trkpt lat="47.1899" lon="5.93219">
        <ele>264.2</ele>
        <time>2022-07-24T17:38:27Z</time>
      </trkpt>
      <trkpt lat="47.18992" lon="5.9322">
        <ele>264.2</ele>
        <time>2022-07-24T17:38:28Z</time>
      </trkpt>
      <trkpt lat="47.18995" lon="5.93222">
        <ele>264.2</ele>
        <time>2022-07-24T17:38:29Z</time>
      </trkpt>
      <trkpt lat="47.18998" lon="5.93225">
        <ele>264</ele>
        <time>2022-07-24T17:38:30Z</time>
      </trkpt>
      <trkpt lat="47.19003" lon="5.93229">
        <ele>264</ele>
        <time>2022-07-24T17:38:31Z</time>
      </trkpt>
      <trkpt lat="47.19008" lon="5.93233">
        <ele>264</ele>
        <time>2022-07-24T17:38:33Z</time>
      </trkpt>
      <trkpt lat="47.1901" lon="5.93235">
        <ele>264</ele>
        <time>2022-07-24T17:38:34Z</time>
      </trkpt>
      <trkpt lat="47.19012" lon="5.93236">
        <ele>263.8</ele>
        <time>2022-07-24T17:38:35Z</time>
      </trkpt>
      <trkpt lat="47.19015" lon="5.93238">
        <ele>263.8</ele>
        <time>2022-07-24T17:38:36Z</time>
      </trkpt>
      <trkpt lat="47.19019" lon="5.93239">
        <ele>264</ele>
        <time>2022-07-24T17:38:37Z</time>
      </trkpt>
      <trkpt lat="47.19022" lon="5.9324">
        <ele>264</ele>
        <time>2022-07-24T17:38:38Z</time>
      </trkpt>
      <trkpt lat="47.19028" lon="5.93238">
        <ele>264</ele>
        <time>2022-07-24T17:38:39Z</time>
      </trkpt>
      <trkpt lat="47.19033" lon="5.93236">
        <ele>264</ele>
        <time>2022-07-24T17:38:40Z</time>
      </trkpt>
      <trkpt lat="47.19035" lon="5.93235">
        <ele>264</ele>
        <time>2022-07-24T17:38:41Z</time>
      </trkpt>
      <trkpt lat="47.19038" lon="5.93233">
        <ele>264</ele>
        <time>2022-07-24T17:38:42Z</time>
      </trkpt>
      <trkpt lat="47.19042" lon="5.93231">
        <ele>264.2</ele>
        <time>2022-07-24T17:38:43Z</time>
      </trkpt>
      <trkpt lat="47.19046" lon="5.93229">
        <ele>264.4</ele>
        <time>2022-07-24T17:38:44Z</time>
      </trkpt>
      <trkpt lat="47.19048" lon="5.93226">
        <ele>264.4</ele>
        <time>2022-07-24T17:38:45Z</time>
      </trkpt>
      <trkpt lat="47.19051" lon="5.93224">
        <ele>264.4</ele>
        <time>2022-07-24T17:38:46Z</time>
      </trkpt>
      <trkpt lat="47.19058" lon="5.9322">
        <ele>264.8</ele>
        <time>2022-07-24T17:38:48Z</time>
      </trkpt>
      <trkpt lat="47.1907" lon="5.9322">
        <ele>265.2</ele>
        <time>2022-07-24T17:38:52Z</time>
      </trkpt>
      <trkpt lat="47.19075" lon="5.93219">
        <ele>265.2</ele>
        <time>2022-07-24T17:38:53Z</time>
      </trkpt>
      <trkpt lat="47.1908" lon="5.93218">
        <ele>265.4</ele>
        <time>2022-07-24T17:38:54Z</time>
      </trkpt>
      <trkpt lat="47.191" lon="5.93216">
        <ele>265.6</ele>
        <time>2022-07-24T17:39:01Z</time>
      </trkpt>
      <trkpt lat="47.19107" lon="5.93213">
        <ele>265.8</ele>
        <time>2022-07-24T17:39:03Z</time>
      </trkpt>
      <trkpt lat="47.19111" lon="5.93213">
        <ele>265.8</ele>
        <time>2022-07-24T17:39:04Z</time>
      </trkpt>
      <trkpt lat="47.19122" lon="5.93213">
        <ele>265.8</ele>
        <time>2022-07-24T17:39:07Z</time>
      </trkpt>
      <trkpt lat="47.19124" lon="5.93211">
        <ele>265.8</ele>
        <time>2022-07-24T17:39:08Z</time>
      </trkpt>
      <trkpt lat="47.19134" lon="5.932">
        <ele>265.8</ele>
        <time>2022-07-24T17:39:11Z</time>
      </trkpt>
      <trkpt lat="47.19144" lon="5.93184">
        <ele>266.2</ele>
        <time>2022-07-24T17:39:15Z</time>
      </trkpt>
      <trkpt lat="47.19146" lon="5.9318">
        <ele>266.4</ele>
        <time>2022-07-24T17:39:16Z</time>
      </trkpt>
      <trkpt lat="47.19148" lon="5.93176">
        <ele>266.4</ele>
        <time>2022-07-24T17:39:17Z</time>
      </trkpt>
      <trkpt lat="47.19158" lon="5.93157">
        <ele>266.8</ele>
        <time>2022-07-24T17:39:22Z</time>
      </trkpt>
      <trkpt lat="47.19161" lon="5.93154">
        <ele>266.6</ele>
        <time>2022-07-24T17:39:23Z</time>
      </trkpt>
      <trkpt lat="47.19163" lon="5.93153">
        <ele>266.8</ele>
        <time>2022-07-24T17:39:24Z</time>
      </trkpt>
      <trkpt lat="47.19165" lon="5.9315">
        <ele>266.8</ele>
        <time>2022-07-24T17:39:25Z</time>
      </trkpt>
      <trkpt lat="47.19167" lon="5.93148">
        <ele>266.8</ele>
        <time>2022-07-24T17:39:26Z</time>
      </trkpt>
      <trkpt lat="47.19169" lon="5.93147">
        <ele>266.8</ele>
        <time>2022-07-24T17:39:27Z</time>
      </trkpt>
      <trkpt lat="47.19171" lon="5.93146">
        <ele>267</ele>
        <time>2022-07-24T17:39:28Z</time>
      </trkpt>
      <trkpt lat="47.19174" lon="5.93145">
        <ele>267.2</ele>
        <time>2022-07-24T17:39:29Z</time>
      </trkpt>
      <trkpt lat="47.19177" lon="5.93144">
        <ele>267.4</ele>
        <time>2022-07-24T17:39:30Z</time>
      </trkpt>
      <trkpt lat="47.19179" lon="5.93144">
        <ele>267.4</ele>
        <time>2022-07-24T17:39:31Z</time>
      </trkpt>
      <trkpt lat="47.19181" lon="5.93144">
        <ele>267.6</ele>
        <time>2022-07-24T17:39:32Z</time>
      </trkpt>
      <trkpt lat="47.19183" lon="5.93143">
        <ele>267.6</ele>
        <time>2022-07-24T17:39:33Z</time>
      </trkpt>
      <trkpt lat="47.19185" lon="5.93142">
        <ele>267.6</ele>
        <time>2022-07-24T17:39:34Z</time>
      </trkpt>
      <trkpt lat="47.19187" lon="5.9314">
        <ele>267.6</ele>
        <time>2022-07-24T17:39:35Z</time>
      </trkpt>
      <trkpt lat="47.19187" lon="5.93137">
        <ele>267.6</ele>
        <time>2022-07-24T17:39:36Z</time>
      </trkpt>
      <trkpt lat="47.19189" lon="5.93134">
        <ele>267.6</ele>
        <time>2022-07-24T17:39:37Z</time>
      </trkpt>
      <trkpt lat="47.1919" lon="5.93131">
        <ele>267.6</ele>
        <time>2022-07-24T17:39:38Z</time>
      </trkpt>
      <trkpt lat="47.19193" lon="5.93125">
        <ele>267.6</ele>
        <time>2022-07-24T17:39:40Z</time>
      </trkpt>
      <trkpt lat="47.19194" lon="5.93122">
        <ele>267.8</ele>
        <time>2022-07-24T17:39:41Z</time>
      </trkpt>
      <trkpt lat="47.19196" lon="5.93119">
        <ele>268</ele>
        <time>2022-07-24T17:39:42Z</time>
      </trkpt>
      <trkpt lat="47.192" lon="5.93114">
        <ele>268</ele>
        <time>2022-07-24T17:39:44Z</time>
      </trkpt>
      <trkpt lat="47.19203" lon="5.93112">
        <ele>268</ele>
        <time>2022-07-24T17:39:45Z</time>
      </trkpt>
      <trkpt lat="47.19205" lon="5.9311">
        <ele>268</ele>
        <time>2022-07-24T17:39:46Z</time>
      </trkpt>
      <trkpt lat="47.19216" lon="5.931">
        <ele>268.4</ele>
        <time>2022-07-24T17:39:50Z</time>
      </trkpt>
      <trkpt lat="47.19223" lon="5.93092">
        <ele>268.6</ele>
        <time>2022-07-24T17:39:53Z</time>
      </trkpt>
      <trkpt lat="47.19225" lon="5.93088">
        <ele>268.8</ele>
        <time>2022-07-24T17:39:54Z</time>
      </trkpt>
      <trkpt lat="47.19229" lon="5.93084">
        <ele>268.8</ele>
        <time>2022-07-24T17:39:55Z</time>
      </trkpt>
      <trkpt lat="47.19242" lon="5.9307">
        <ele>269</ele>
        <time>2022-07-24T17:39:59Z</time>
      </trkpt>
      <trkpt lat="47.19255" lon="5.93053">
        <ele>269.2</ele>
        <time>2022-07-24T17:40:04Z</time>
      </trkpt>
      <trkpt lat="47.19259" lon="5.93049">
        <ele>269.2</ele>
        <time>2022-07-24T17:40:05Z</time>
      </trkpt>
      <trkpt lat="47.19262" lon="5.93047">
        <ele>269.2</ele>
        <time>2022-07-24T17:40:06Z</time>
      </trkpt>
      <trkpt lat="47.19277" lon="5.93032">
        <ele>269</ele>
        <time>2022-07-24T17:40:11Z</time>
      </trkpt>
      <trkpt lat="47.19279" lon="5.93029">
        <ele>269.2</ele>
        <time>2022-07-24T17:40:12Z</time>
      </trkpt>
      <trkpt lat="47.19282" lon="5.93025">
        <ele>269.2</ele>
        <time>2022-07-24T17:40:13Z</time>
      </trkpt>
      <trkpt lat="47.19284" lon="5.93023">
        <ele>269.2</ele>
        <time>2022-07-24T17:40:14Z</time>
      </trkpt>
      <trkpt lat="47.19288" lon="5.93022">
        <ele>269.2</ele>
        <time>2022-07-24T17:40:15Z</time>
      </trkpt>
      <trkpt lat="47.19292" lon="5.9302">
        <ele>269.2</ele>
        <time>2022-07-24T17:40:16Z</time>
      </trkpt>
      <trkpt lat="47.19294" lon="5.9302">
        <ele>269.2</ele>
        <time>2022-07-24T17:40:17Z</time>
      </trkpt>
      <trkpt lat="47.19299" lon="5.93016">
        <ele>269.4</ele>
        <time>2022-07-24T17:40:19Z</time>
      </trkpt>
      <trkpt lat="47.193" lon="5.93012">
        <ele>269.4</ele>
        <time>2022-07-24T17:40:20Z</time>
      </trkpt>
      <trkpt lat="47.19302" lon="5.93009">
        <ele>269.6</ele>
        <time>2022-07-24T17:40:21Z</time>
      </trkpt>
      <trkpt lat="47.19304" lon="5.93005">
        <ele>269.4</ele>
        <time>2022-07-24T17:40:22Z</time>
      </trkpt>
      <trkpt lat="47.19313" lon="5.92996">
        <ele>269.6</ele>
        <time>2022-07-24T17:40:25Z</time>
      </trkpt>
      <trkpt lat="47.19316" lon="5.92992">
        <ele>269.6</ele>
        <time>2022-07-24T17:40:26Z</time>
      </trkpt>
      <trkpt lat="47.1933" lon="5.92987">
        <ele>269.6</ele>
        <time>2022-07-24T17:40:30Z</time>
      </trkpt>
      <trkpt lat="47.19333" lon="5.92985">
        <ele>269.6</ele>
        <time>2022-07-24T17:40:31Z</time>
      </trkpt>
      <trkpt lat="47.19337" lon="5.92985">
        <ele>269.6</ele>
        <time>2022-07-24T17:40:32Z</time>
      </trkpt>
      <trkpt lat="47.19343" lon="5.92987">
        <ele>269.6</ele>
        <time>2022-07-24T17:40:34Z</time>
      </trkpt>
      <trkpt lat="47.19347" lon="5.92991">
        <ele>269.6</ele>
        <time>2022-07-24T17:40:36Z</time>
      </trkpt>
      <trkpt lat="47.19349" lon="5.92993">
        <ele>269.6</ele>
        <time>2022-07-24T17:40:37Z</time>
      </trkpt>
      <trkpt lat="47.19353" lon="5.92995">
        <ele>269.6</ele>
        <time>2022-07-24T17:40:38Z</time>
      </trkpt>
      <trkpt lat="47.19359" lon="5.92996">
        <ele>269.6</ele>
        <time>2022-07-24T17:40:40Z</time>
      </trkpt>
      <trkpt lat="47.19362" lon="5.92999">
        <ele>269.6</ele>
        <time>2022-07-24T17:40:41Z</time>
      </trkpt>
      <trkpt lat="47.19368" lon="5.93">
        <ele>269.6</ele>
        <time>2022-07-24T17:40:43Z</time>
      </trkpt>
      <trkpt lat="47.19374" lon="5.93">
        <ele>269.6</ele>
        <time>2022-07-24T17:40:44Z</time>
      </trkpt>
      <trkpt lat="47.19379" lon="5.93001">
        <ele>269.6</ele>
        <time>2022-07-24T17:40:46Z</time>
      </trkpt>
      <trkpt lat="47.19384" lon="5.93008">
        <ele>269.6</ele>
        <time>2022-07-24T17:40:48Z</time>
      </trkpt>
      <trkpt lat="47.19385" lon="5.9301">
        <ele>269.6</ele>
        <time>2022-07-24T17:40:49Z</time>
      </trkpt>
      <trkpt lat="47.19388" lon="5.93012">
        <ele>269.6</ele>
        <time>2022-07-24T17:40:50Z</time>
      </trkpt>
      <trkpt lat="47.19391" lon="5.93013">
        <ele>269.8</ele>
        <time>2022-07-24T17:40:51Z</time>
      </trkpt>
      <trkpt lat="47.19398" lon="5.93016">
        <ele>269.6</ele>
        <time>2022-07-24T17:40:53Z</time>
      </trkpt>
      <trkpt lat="47.19408" lon="5.9302">
        <ele>269.4</ele>
        <time>2022-07-24T17:40:56Z</time>
      </trkpt>
      <trkpt lat="47.19421" lon="5.93028">
        <ele>269.4</ele>
        <time>2022-07-24T17:40:59Z</time>
      </trkpt>
      <trkpt lat="47.19431" lon="5.93035">
        <ele>269.6</ele>
        <time>2022-07-24T17:41:01Z</time>
      </trkpt>
      <trkpt lat="47.19441" lon="5.93039">
        <ele>269.6</ele>
        <time>2022-07-24T17:41:03Z</time>
      </trkpt>
      <trkpt lat="47.1945" lon="5.93046">
        <ele>269.4</ele>
        <time>2022-07-24T17:41:06Z</time>
      </trkpt>
      <trkpt lat="47.19459" lon="5.93053">
        <ele>269.2</ele>
        <time>2022-07-24T17:41:09Z</time>
      </trkpt>
      <trkpt lat="47.19461" lon="5.93056">
        <ele>269.2</ele>
        <time>2022-07-24T17:41:10Z</time>
      </trkpt>
      <trkpt lat="47.19463" lon="5.93059">
        <ele>269.2</ele>
        <time>2022-07-24T17:41:11Z</time>
      </trkpt>
      <trkpt lat="47.19465" lon="5.9306">
        <ele>269.2</ele>
        <time>2022-07-24T17:41:12Z</time>
      </trkpt>
      <trkpt lat="47.19472" lon="5.93072">
        <ele>268.8</ele>
        <time>2022-07-24T17:41:16Z</time>
      </trkpt>
      <trkpt lat="47.19474" lon="5.93075">
        <ele>268.8</ele>
        <time>2022-07-24T17:41:17Z</time>
      </trkpt>
      <trkpt lat="47.19477" lon="5.9308">
        <ele>268.8</ele>
        <time>2022-07-24T17:41:18Z</time>
      </trkpt>
      <trkpt lat="47.19482" lon="5.93085">
        <ele>268.8</ele>
        <time>2022-07-24T17:41:19Z</time>
      </trkpt>
      <trkpt lat="47.19492" lon="5.93091">
        <ele>268.8</ele>
        <time>2022-07-24T17:41:21Z</time>
      </trkpt>
      <trkpt lat="47.19496" lon="5.93093">
        <ele>268.8</ele>
        <time>2022-07-24T17:41:22Z</time>
      </trkpt>
      <trkpt lat="47.19507" lon="5.931">
        <ele>268.8</ele>
        <time>2022-07-24T17:41:25Z</time>
      </trkpt>
      <trkpt lat="47.19511" lon="5.93101">
        <ele>268.6</ele>
        <time>2022-07-24T17:41:26Z</time>
      </trkpt>
      <trkpt lat="47.19515" lon="5.93103">
        <ele>268.6</ele>
        <time>2022-07-24T17:41:27Z</time>
      </trkpt>
      <trkpt lat="47.19519" lon="5.93105">
        <ele>268.4</ele>
        <time>2022-07-24T17:41:28Z</time>
      </trkpt>
      <trkpt lat="47.19523" lon="5.93107">
        <ele>268</ele>
        <time>2022-07-24T17:41:29Z</time>
      </trkpt>
      <trkpt lat="47.19528" lon="5.93108">
        <ele>267.8</ele>
        <time>2022-07-24T17:41:30Z</time>
      </trkpt>
      <trkpt lat="47.19535" lon="5.93106">
        <ele>267.6</ele>
        <time>2022-07-24T17:41:31Z</time>
      </trkpt>
      <trkpt lat="47.19541" lon="5.93102">
        <ele>267.4</ele>
        <time>2022-07-24T17:41:32Z</time>
      </trkpt>
      <trkpt lat="47.19546" lon="5.931">
        <ele>267.2</ele>
        <time>2022-07-24T17:41:33Z</time>
      </trkpt>
      <trkpt lat="47.1955" lon="5.93101">
        <ele>267.2</ele>
        <time>2022-07-24T17:41:34Z</time>
      </trkpt>
      <trkpt lat="47.19554" lon="5.93104">
        <ele>267.2</ele>
        <time>2022-07-24T17:41:35Z</time>
      </trkpt>
      <trkpt lat="47.19557" lon="5.93109">
        <ele>267</ele>
        <time>2022-07-24T17:41:36Z</time>
      </trkpt>
      <trkpt lat="47.1956" lon="5.93116">
        <ele>267</ele>
        <time>2022-07-24T17:41:37Z</time>
      </trkpt>
      <trkpt lat="47.19568" lon="5.93137">
        <ele>266.6</ele>
        <time>2022-07-24T17:41:40Z</time>
      </trkpt>
      <trkpt lat="47.19577" lon="5.93148">
        <ele>266.2</ele>
        <time>2022-07-24T17:41:42Z</time>
      </trkpt>
      <trkpt lat="47.19582" lon="5.93154">
        <ele>265.8</ele>
        <time>2022-07-24T17:41:43Z</time>
      </trkpt>
      <trkpt lat="47.19589" lon="5.9316">
        <ele>265.8</ele>
        <time>2022-07-24T17:41:44Z</time>
      </trkpt>
      <trkpt lat="47.19597" lon="5.93164">
        <ele>265.4</ele>
        <time>2022-07-24T17:41:45Z</time>
      </trkpt>
      <trkpt lat="47.19617" lon="5.93175">
        <ele>264.4</ele>
        <time>2022-07-24T17:41:48Z</time>
      </trkpt>
      <trkpt lat="47.19623" lon="5.93179">
        <ele>264</ele>
        <time>2022-07-24T17:41:49Z</time>
      </trkpt>
      <trkpt lat="47.19631" lon="5.93183">
        <ele>263.8</ele>
        <time>2022-07-24T17:41:50Z</time>
      </trkpt>
      <trkpt lat="47.19638" lon="5.93187">
        <ele>263</ele>
        <time>2022-07-24T17:41:51Z</time>
      </trkpt>
      <trkpt lat="47.19658" lon="5.93198">
        <ele>262</ele>
        <time>2022-07-24T17:41:54Z</time>
      </trkpt>
      <trkpt lat="47.19664" lon="5.932">
        <ele>261.6</ele>
        <time>2022-07-24T17:41:55Z</time>
      </trkpt>
      <trkpt lat="47.19669" lon="5.93203">
        <ele>261.6</ele>
        <time>2022-07-24T17:41:56Z</time>
      </trkpt>
      <trkpt lat="47.19673" lon="5.93205">
        <ele>261.6</ele>
        <time>2022-07-24T17:41:57Z</time>
      </trkpt>
      <trkpt lat="47.19676" lon="5.93207">
        <ele>261.6</ele>
        <time>2022-07-24T17:41:58Z</time>
      </trkpt>
      <trkpt lat="47.19679" lon="5.93209">
        <ele>261.6</ele>
        <time>2022-07-24T17:41:59Z</time>
      </trkpt>
      <trkpt lat="47.19681" lon="5.9321">
        <ele>261.4</ele>
        <time>2022-07-24T17:42:00Z</time>
      </trkpt>
      <trkpt lat="47.19684" lon="5.93211">
        <ele>261.4</ele>
        <time>2022-07-24T17:42:01Z</time>
      </trkpt>
      <trkpt lat="47.19686" lon="5.93213">
        <ele>261.6</ele>
        <time>2022-07-24T17:42:02Z</time>
      </trkpt>
      <trkpt lat="47.19689" lon="5.93214">
        <ele>261.6</ele>
        <time>2022-07-24T17:42:03Z</time>
      </trkpt>
      <trkpt lat="47.19702" lon="5.93221">
        <ele>262.6</ele>
        <time>2022-07-24T17:42:08Z</time>
      </trkpt>
      <trkpt lat="47.19705" lon="5.93222">
        <ele>263</ele>
        <time>2022-07-24T17:42:09Z</time>
      </trkpt>
      <trkpt lat="47.19707" lon="5.93223">
        <ele>263</ele>
        <time>2022-07-24T17:42:10Z</time>
      </trkpt>
      <trkpt lat="47.1971" lon="5.93225">
        <ele>263.2</ele>
        <time>2022-07-24T17:42:11Z</time>
      </trkpt>
      <trkpt lat="47.19712" lon="5.93226">
        <ele>263.2</ele>
        <time>2022-07-24T17:42:12Z</time>
      </trkpt>
      <trkpt lat="47.19725" lon="5.93233">
        <ele>264</ele>
        <time>2022-07-24T17:42:17Z</time>
      </trkpt>
      <trkpt lat="47.19727" lon="5.93234">
        <ele>264</ele>
        <time>2022-07-24T17:42:18Z</time>
      </trkpt>
      <trkpt lat="47.19739" lon="5.93242">
        <ele>264.6</ele>
        <time>2022-07-24T17:42:23Z</time>
      </trkpt>
      <trkpt lat="47.19754" lon="5.9325">
        <ele>265.2</ele>
        <time>2022-07-24T17:42:28Z</time>
      </trkpt>
      <trkpt lat="47.19769" lon="5.93258">
        <ele>265.6</ele>
        <time>2022-07-24T17:42:33Z</time>
      </trkpt>
      <trkpt lat="47.19777" lon="5.93263">
        <ele>265.8</ele>
        <time>2022-07-24T17:42:36Z</time>
      </trkpt>
      <trkpt lat="47.1978" lon="5.93264">
        <ele>265.8</ele>
        <time>2022-07-24T17:42:37Z</time>
      </trkpt>
      <trkpt lat="47.19789" lon="5.93269">
        <ele>266.2</ele>
        <time>2022-07-24T17:42:40Z</time>
      </trkpt>
      <trkpt lat="47.19825" lon="5.9329">
        <ele>267</ele>
        <time>2022-07-24T17:42:52Z</time>
      </trkpt>
      <trkpt lat="47.19835" lon="5.93296">
        <ele>267.2</ele>
        <time>2022-07-24T17:42:55Z</time>
      </trkpt>
      <trkpt lat="47.19851" lon="5.93306">
        <ele>267.6</ele>
        <time>2022-07-24T17:43:00Z</time>
      </trkpt>
      <trkpt lat="47.19881" lon="5.93322">
        <ele>268</ele>
        <time>2022-07-24T17:43:09Z</time>
      </trkpt>
      <trkpt lat="47.19898" lon="5.93331">
        <ele>268.4</ele>
        <time>2022-07-24T17:43:14Z</time>
      </trkpt>
      <trkpt lat="47.19918" lon="5.93343">
        <ele>268.4</ele>
        <time>2022-07-24T17:43:20Z</time>
      </trkpt>
      <trkpt lat="47.19942" lon="5.93358">
        <ele>268.4</ele>
        <time>2022-07-24T17:43:27Z</time>
      </trkpt>
      <trkpt lat="47.19946" lon="5.9336">
        <ele>268.6</ele>
        <time>2022-07-24T17:43:28Z</time>
      </trkpt>
      <trkpt lat="47.19949" lon="5.93362">
        <ele>268.6</ele>
        <time>2022-07-24T17:43:29Z</time>
      </trkpt>
      <trkpt lat="47.19952" lon="5.93363">
        <ele>268.8</ele>
        <time>2022-07-24T17:43:30Z</time>
      </trkpt>
      <trkpt lat="47.19955" lon="5.93365">
        <ele>268.8</ele>
        <time>2022-07-24T17:43:31Z</time>
      </trkpt>
      <trkpt lat="47.19958" lon="5.93367">
        <ele>269</ele>
        <time>2022-07-24T17:43:32Z</time>
      </trkpt>
      <trkpt lat="47.19961" lon="5.93368">
        <ele>269.2</ele>
        <time>2022-07-24T17:43:33Z</time>
      </trkpt>
      <trkpt lat="47.19964" lon="5.9337">
        <ele>269.2</ele>
        <time>2022-07-24T17:43:34Z</time>
      </trkpt>
      <trkpt lat="47.19968" lon="5.93372">
        <ele>269.4</ele>
        <time>2022-07-24T17:43:35Z</time>
      </trkpt>
      <trkpt lat="47.19971" lon="5.93374">
        <ele>269.4</ele>
        <time>2022-07-24T17:43:36Z</time>
      </trkpt>
      <trkpt lat="47.19973" lon="5.93376">
        <ele>269.4</ele>
        <time>2022-07-24T17:43:37Z</time>
      </trkpt>
      <trkpt lat="47.19976" lon="5.93378">
        <ele>269.4</ele>
        <time>2022-07-24T17:43:38Z</time>
      </trkpt>
      <trkpt lat="47.19979" lon="5.93379">
        <ele>269.4</ele>
        <time>2022-07-24T17:43:39Z</time>
      </trkpt>
      <trkpt lat="47.19984" lon="5.93381">
        <ele>269.6</ele>
        <time>2022-07-24T17:43:41Z</time>
      </trkpt>
      <trkpt lat="47.1999" lon="5.93384">
        <ele>269.6</ele>
        <time>2022-07-24T17:43:43Z</time>
      </trkpt>
      <trkpt lat="47.20017" lon="5.93402">
        <ele>270.6</ele>
        <time>2022-07-24T17:43:51Z</time>
      </trkpt>
      <trkpt lat="47.20027" lon="5.93408">
        <ele>270.8</ele>
        <time>2022-07-24T17:43:54Z</time>
      </trkpt>
      <trkpt lat="47.20053" lon="5.93423">
        <ele>271.2</ele>
        <time>2022-07-24T17:44:02Z</time>
      </trkpt>
      <trkpt lat="47.20056" lon="5.93425">
        <ele>271.2</ele>
        <time>2022-07-24T17:44:03Z</time>
      </trkpt>
      <trkpt lat="47.20066" lon="5.93431">
        <ele>271.4</ele>
        <time>2022-07-24T17:44:06Z</time>
      </trkpt>
      <trkpt lat="47.2008" lon="5.93439">
        <ele>271.6</ele>
        <time>2022-07-24T17:44:10Z</time>
      </trkpt>
      <trkpt lat="47.20101" lon="5.9345">
        <ele>272</ele>
        <time>2022-07-24T17:44:16Z</time>
      </trkpt>
      <trkpt lat="47.20123" lon="5.93463">
        <ele>272</ele>
        <time>2022-07-24T17:44:22Z</time>
      </trkpt>
      <trkpt lat="47.20129" lon="5.93467">
        <ele>272.2</ele>
        <time>2022-07-24T17:44:24Z</time>
      </trkpt>
      <trkpt lat="47.20132" lon="5.93468">
        <ele>272.2</ele>
        <time>2022-07-24T17:44:25Z</time>
      </trkpt>
      <trkpt lat="47.20135" lon="5.93469">
        <ele>272.2</ele>
        <time>2022-07-24T17:44:26Z</time>
      </trkpt>
      <trkpt lat="47.20137" lon="5.93471">
        <ele>272.2</ele>
        <time>2022-07-24T17:44:27Z</time>
      </trkpt>
      <trkpt lat="47.2014" lon="5.93473">
        <ele>272.4</ele>
        <time>2022-07-24T17:44:28Z</time>
      </trkpt>
      <trkpt lat="47.20142" lon="5.93474">
        <ele>272.8</ele>
        <time>2022-07-24T17:44:29Z</time>
      </trkpt>
      <trkpt lat="47.20144" lon="5.93475">
        <ele>272.8</ele>
        <time>2022-07-24T17:44:30Z</time>
      </trkpt>
      <trkpt lat="47.20149" lon="5.93478">
        <ele>273.2</ele>
        <time>2022-07-24T17:44:32Z</time>
      </trkpt>
      <trkpt lat="47.20151" lon="5.9348">
        <ele>273.2</ele>
        <time>2022-07-24T17:44:33Z</time>
      </trkpt>
      <trkpt lat="47.20153" lon="5.93481">
        <ele>273.2</ele>
        <time>2022-07-24T17:44:34Z</time>
      </trkpt>
      <trkpt lat="47.20167" lon="5.93488">
        <ele>273.6</ele>
        <time>2022-07-24T17:44:39Z</time>
      </trkpt>
      <trkpt lat="47.2017" lon="5.93489">
        <ele>273.6</ele>
        <time>2022-07-24T17:44:40Z</time>
      </trkpt>
      <trkpt lat="47.20173" lon="5.93491">
        <ele>273.8</ele>
        <time>2022-07-24T17:44:41Z</time>
      </trkpt>
      <trkpt lat="47.2018" lon="5.93497">
        <ele>273.8</ele>
        <time>2022-07-24T17:44:43Z</time>
      </trkpt>
      <trkpt lat="47.20186" lon="5.93502">
        <ele>274</ele>
        <time>2022-07-24T17:44:45Z</time>
      </trkpt>
      <trkpt lat="47.20201" lon="5.93512">
        <ele>274.4</ele>
        <time>2022-07-24T17:44:50Z</time>
      </trkpt>
      <trkpt lat="47.20205" lon="5.93515">
        <ele>274.6</ele>
        <time>2022-07-24T17:44:51Z</time>
      </trkpt>
      <trkpt lat="47.20216" lon="5.93522">
        <ele>274.6</ele>
        <time>2022-07-24T17:44:54Z</time>
      </trkpt>
      <trkpt lat="47.20224" lon="5.93522">
        <ele>274.8</ele>
        <time>2022-07-24T17:44:56Z</time>
      </trkpt>
      <trkpt lat="47.20227" lon="5.93524">
        <ele>274.8</ele>
        <time>2022-07-24T17:44:57Z</time>
      </trkpt>
      <trkpt lat="47.20234" lon="5.93528">
        <ele>274.8</ele>
        <time>2022-07-24T17:44:59Z</time>
      </trkpt>
      <trkpt lat="47.20237" lon="5.9353">
        <ele>274.6</ele>
        <time>2022-07-24T17:45:00Z</time>
      </trkpt>
      <trkpt lat="47.20241" lon="5.93533">
        <ele>274.6</ele>
        <time>2022-07-24T17:45:01Z</time>
      </trkpt>
      <trkpt lat="47.20267" lon="5.93547">
        <ele>274.6</ele>
        <time>2022-07-24T17:45:08Z</time>
      </trkpt>
      <trkpt lat="47.20282" lon="5.93557">
        <ele>274.2</ele>
        <time>2022-07-24T17:45:13Z</time>
      </trkpt>
      <trkpt lat="47.20285" lon="5.93559">
        <ele>274.4</ele>
        <time>2022-07-24T17:45:14Z</time>
      </trkpt>
      <trkpt lat="47.20292" lon="5.93562">
        <ele>274.6</ele>
        <time>2022-07-24T17:45:16Z</time>
      </trkpt>
      <trkpt lat="47.20305" lon="5.93575">
        <ele>274.6</ele>
        <time>2022-07-24T17:45:20Z</time>
      </trkpt>
      <trkpt lat="47.20308" lon="5.93577">
        <ele>274.8</ele>
        <time>2022-07-24T17:45:21Z</time>
      </trkpt>
      <trkpt lat="47.20311" lon="5.93579">
        <ele>275</ele>
        <time>2022-07-24T17:45:22Z</time>
      </trkpt>
      <trkpt lat="47.20316" lon="5.93582">
        <ele>275.2</ele>
        <time>2022-07-24T17:45:24Z</time>
      </trkpt>
      <trkpt lat="47.20319" lon="5.93584">
        <ele>275.2</ele>
        <time>2022-07-24T17:45:25Z</time>
      </trkpt>
      <trkpt lat="47.20322" lon="5.93586">
        <ele>275.6</ele>
        <time>2022-07-24T17:45:26Z</time>
      </trkpt>
      <trkpt lat="47.20325" lon="5.93587">
        <ele>275.8</ele>
        <time>2022-07-24T17:45:27Z</time>
      </trkpt>
      <trkpt lat="47.20327" lon="5.93588">
        <ele>276</ele>
        <time>2022-07-24T17:45:28Z</time>
      </trkpt>
      <trkpt lat="47.2033" lon="5.93589">
        <ele>276.2</ele>
        <time>2022-07-24T17:45:29Z</time>
      </trkpt>
      <trkpt lat="47.20332" lon="5.9359">
        <ele>276.2</ele>
        <time>2022-07-24T17:45:30Z</time>
      </trkpt>
      <trkpt lat="47.20335" lon="5.93591">
        <ele>276.2</ele>
        <time>2022-07-24T17:45:31Z</time>
      </trkpt>
      <trkpt lat="47.20337" lon="5.93593">
        <ele>276.4</ele>
        <time>2022-07-24T17:45:32Z</time>
      </trkpt>
      <trkpt lat="47.20348" lon="5.93598">
        <ele>277</ele>
        <time>2022-07-24T17:45:36Z</time>
      </trkpt>
      <trkpt lat="47.20354" lon="5.93599">
        <ele>277.2</ele>
        <time>2022-07-24T17:45:38Z</time>
      </trkpt>
      <trkpt lat="47.20356" lon="5.93601">
        <ele>277.2</ele>
        <time>2022-07-24T17:45:39Z</time>
      </trkpt>
      <trkpt lat="47.20359" lon="5.93602">
        <ele>277.4</ele>
        <time>2022-07-24T17:45:40Z</time>
      </trkpt>
      <trkpt lat="47.20364" lon="5.93605">
        <ele>277.4</ele>
        <time>2022-07-24T17:45:42Z</time>
      </trkpt>
      <trkpt lat="47.20367" lon="5.93606">
        <ele>277.6</ele>
        <time>2022-07-24T17:45:43Z</time>
      </trkpt>
      <trkpt lat="47.20369" lon="5.93606">
        <ele>277.6</ele>
        <time>2022-07-24T17:45:44Z</time>
      </trkpt>
      <trkpt lat="47.20372" lon="5.93608">
        <ele>277.8</ele>
        <time>2022-07-24T17:45:45Z</time>
      </trkpt>
      <trkpt lat="47.20374" lon="5.93608">
        <ele>277.8</ele>
        <time>2022-07-24T17:45:46Z</time>
      </trkpt>
      <trkpt lat="47.20376" lon="5.93609">
        <ele>278</ele>
        <time>2022-07-24T17:45:47Z</time>
      </trkpt>
      <trkpt lat="47.20379" lon="5.93611">
        <ele>278.2</ele>
        <time>2022-07-24T17:45:48Z</time>
      </trkpt>
      <trkpt lat="47.20381" lon="5.93612">
        <ele>278.2</ele>
        <time>2022-07-24T17:45:49Z</time>
      </trkpt>
      <trkpt lat="47.20383" lon="5.93613">
        <ele>278.2</ele>
        <time>2022-07-24T17:45:50Z</time>
      </trkpt>
      <trkpt lat="47.20386" lon="5.93615">
        <ele>278.2</ele>
        <time>2022-07-24T17:45:51Z</time>
      </trkpt>
      <trkpt lat="47.20388" lon="5.93617">
        <ele>278.6</ele>
        <time>2022-07-24T17:45:52Z</time>
      </trkpt>
      <trkpt lat="47.20391" lon="5.93618">
        <ele>278.6</ele>
        <time>2022-07-24T17:45:53Z</time>
      </trkpt>
      <trkpt lat="47.20393" lon="5.93619">
        <ele>278.8</ele>
        <time>2022-07-24T17:45:54Z</time>
      </trkpt>
      <trkpt lat="47.20394" lon="5.9362">
        <ele>279</ele>
        <time>2022-07-24T17:45:55Z</time>
      </trkpt>
      <trkpt lat="47.20396" lon="5.93621">
        <ele>279.2</ele>
        <time>2022-07-24T17:45:56Z</time>
      </trkpt>
      <trkpt lat="47.20398" lon="5.93623">
        <ele>279.4</ele>
        <time>2022-07-24T17:45:57Z</time>
      </trkpt>
      <trkpt lat="47.204" lon="5.93624">
        <ele>279.4</ele>
        <time>2022-07-24T17:45:58Z</time>
      </trkpt>
      <trkpt lat="47.20402" lon="5.93626">
        <ele>279.6</ele>
        <time>2022-07-24T17:45:59Z</time>
      </trkpt>
      <trkpt lat="47.20404" lon="5.93627">
        <ele>279.6</ele>
        <time>2022-07-24T17:46:00Z</time>
      </trkpt>
      <trkpt lat="47.20406" lon="5.93628">
        <ele>279.8</ele>
        <time>2022-07-24T17:46:01Z</time>
      </trkpt>
      <trkpt lat="47.20408" lon="5.9363">
        <ele>280</ele>
        <time>2022-07-24T17:46:02Z</time>
      </trkpt>
      <trkpt lat="47.2041" lon="5.93631">
        <ele>280.2</ele>
        <time>2022-07-24T17:46:03Z</time>
      </trkpt>
      <trkpt lat="47.20412" lon="5.93632">
        <ele>280.4</ele>
        <time>2022-07-24T17:46:04Z</time>
      </trkpt>
      <trkpt lat="47.20413" lon="5.93634">
        <ele>280.6</ele>
        <time>2022-07-24T17:46:05Z</time>
      </trkpt>
      <trkpt lat="47.20416" lon="5.93636">
        <ele>280.8</ele>
        <time>2022-07-24T17:46:06Z</time>
      </trkpt>
      <trkpt lat="47.20418" lon="5.93638">
        <ele>280.8</ele>
        <time>2022-07-24T17:46:07Z</time>
      </trkpt>
      <trkpt lat="47.20419" lon="5.93638">
        <ele>281</ele>
        <time>2022-07-24T17:46:08Z</time>
      </trkpt>
      <trkpt lat="47.2042" lon="5.93638">
        <ele>281.2</ele>
        <time>2022-07-24T17:46:09Z</time>
      </trkpt>
      <trkpt lat="47.20422" lon="5.93638">
        <ele>281.2</ele>
        <time>2022-07-24T17:46:10Z</time>
      </trkpt>
      <trkpt lat="47.20425" lon="5.9364">
        <ele>281.4</ele>
        <time>2022-07-24T17:46:11Z</time>
      </trkpt>
      <trkpt lat="47.20428" lon="5.93641">
        <ele>281.4</ele>
        <time>2022-07-24T17:46:12Z</time>
      </trkpt>
      <trkpt lat="47.20429" lon="5.93644">
        <ele>281.6</ele>
        <time>2022-07-24T17:46:13Z</time>
      </trkpt>
      <trkpt lat="47.2043" lon="5.93647">
        <ele>282</ele>
        <time>2022-07-24T17:46:14Z</time>
      </trkpt>
      <trkpt lat="47.20433" lon="5.93649">
        <ele>282</ele>
        <time>2022-07-24T17:46:15Z</time>
      </trkpt>
      <trkpt lat="47.20435" lon="5.93651">
        <ele>282.2</ele>
        <time>2022-07-24T17:46:16Z</time>
      </trkpt>
      <trkpt lat="47.20437" lon="5.93653">
        <ele>282.2</ele>
        <time>2022-07-24T17:46:17Z</time>
      </trkpt>
      <trkpt lat="47.20438" lon="5.93655">
        <ele>282.4</ele>
        <time>2022-07-24T17:46:18Z</time>
      </trkpt>
      <trkpt lat="47.20439" lon="5.93657">
        <ele>282.8</ele>
        <time>2022-07-24T17:46:19Z</time>
      </trkpt>
      <trkpt lat="47.20442" lon="5.93658">
        <ele>283</ele>
        <time>2022-07-24T17:46:20Z</time>
      </trkpt>
      <trkpt lat="47.20444" lon="5.93659">
        <ele>283</ele>
        <time>2022-07-24T17:46:21Z</time>
      </trkpt>
      <trkpt lat="47.20446" lon="5.93661">
        <ele>283.2</ele>
        <time>2022-07-24T17:46:22Z</time>
      </trkpt>
      <trkpt lat="47.20448" lon="5.93662">
        <ele>283.4</ele>
        <time>2022-07-24T17:46:23Z</time>
      </trkpt>
      <trkpt lat="47.2045" lon="5.93664">
        <ele>283.6</ele>
        <time>2022-07-24T17:46:24Z</time>
      </trkpt>
      <trkpt lat="47.20451" lon="5.93665">
        <ele>283.8</ele>
        <time>2022-07-24T17:46:25Z</time>
      </trkpt>
      <trkpt lat="47.20453" lon="5.93666">
        <ele>284</ele>
        <time>2022-07-24T17:46:26Z</time>
      </trkpt>
      <trkpt lat="47.20454" lon="5.93668">
        <ele>284</ele>
        <time>2022-07-24T17:46:27Z</time>
      </trkpt>
      <trkpt lat="47.20456" lon="5.93669">
        <ele>284.2</ele>
        <time>2022-07-24T17:46:28Z</time>
      </trkpt>
      <trkpt lat="47.20458" lon="5.93671">
        <ele>284.4</ele>
        <time>2022-07-24T17:46:29Z</time>
      </trkpt>
      <trkpt lat="47.20459" lon="5.93671">
        <ele>284.6</ele>
        <time>2022-07-24T17:46:30Z</time>
      </trkpt>
      <trkpt lat="47.20461" lon="5.93672">
        <ele>284.6</ele>
        <time>2022-07-24T17:46:31Z</time>
      </trkpt>
      <trkpt lat="47.20462" lon="5.93672">
        <ele>284.8</ele>
        <time>2022-07-24T17:46:32Z</time>
      </trkpt>
      <trkpt lat="47.20463" lon="5.93672">
        <ele>285</ele>
        <time>2022-07-24T17:46:33Z</time>
      </trkpt>
      <trkpt lat="47.20465" lon="5.93673">
        <ele>285</ele>
        <time>2022-07-24T17:46:34Z</time>
      </trkpt>
      <trkpt lat="47.20466" lon="5.93674">
        <ele>285.2</ele>
        <time>2022-07-24T17:46:35Z</time>
      </trkpt>
      <trkpt lat="47.20468" lon="5.93675">
        <ele>285.2</ele>
        <time>2022-07-24T17:46:36Z</time>
      </trkpt>
      <trkpt lat="47.20469" lon="5.93676">
        <ele>285.4</ele>
        <time>2022-07-24T17:46:37Z</time>
      </trkpt>
      <trkpt lat="47.20471" lon="5.93676">
        <ele>285.4</ele>
        <time>2022-07-24T17:46:38Z</time>
      </trkpt>
      <trkpt lat="47.20473" lon="5.93677">
        <ele>285.6</ele>
        <time>2022-07-24T17:46:39Z</time>
      </trkpt>
      <trkpt lat="47.20475" lon="5.93678">
        <ele>285.6</ele>
        <time>2022-07-24T17:46:40Z</time>
      </trkpt>
      <trkpt lat="47.20476" lon="5.93679">
        <ele>285.8</ele>
        <time>2022-07-24T17:46:41Z</time>
      </trkpt>
      <trkpt lat="47.20477" lon="5.93679">
        <ele>286</ele>
        <time>2022-07-24T17:46:42Z</time>
      </trkpt>
      <trkpt lat="47.20479" lon="5.93681">
        <ele>286</ele>
        <time>2022-07-24T17:46:43Z</time>
      </trkpt>
      <trkpt lat="47.20481" lon="5.93681">
        <ele>286.2</ele>
        <time>2022-07-24T17:46:44Z</time>
      </trkpt>
      <trkpt lat="47.20483" lon="5.93681">
        <ele>286.2</ele>
        <time>2022-07-24T17:46:45Z</time>
      </trkpt>
      <trkpt lat="47.20485" lon="5.93681">
        <ele>286.4</ele>
        <time>2022-07-24T17:46:46Z</time>
      </trkpt>
      <trkpt lat="47.20488" lon="5.93682">
        <ele>286.8</ele>
        <time>2022-07-24T17:46:47Z</time>
      </trkpt>
      <trkpt lat="47.20491" lon="5.93683">
        <ele>286.8</ele>
        <time>2022-07-24T17:46:48Z</time>
      </trkpt>
      <trkpt lat="47.20494" lon="5.93683">
        <ele>287</ele>
        <time>2022-07-24T17:46:49Z</time>
      </trkpt>
      <trkpt lat="47.20497" lon="5.93685">
        <ele>287</ele>
        <time>2022-07-24T17:46:50Z</time>
      </trkpt>
      <trkpt lat="47.20499" lon="5.93686">
        <ele>287.2</ele>
        <time>2022-07-24T17:46:51Z</time>
      </trkpt>
      <trkpt lat="47.20501" lon="5.93688">
        <ele>287.6</ele>
        <time>2022-07-24T17:46:52Z</time>
      </trkpt>
      <trkpt lat="47.20502" lon="5.93689">
        <ele>287.8</ele>
        <time>2022-07-24T17:46:53Z</time>
      </trkpt>
      <trkpt lat="47.20504" lon="5.93689">
        <ele>288</ele>
        <time>2022-07-24T17:46:54Z</time>
      </trkpt>
      <trkpt lat="47.20506" lon="5.9369">
        <ele>288</ele>
        <time>2022-07-24T17:46:55Z</time>
      </trkpt>
      <trkpt lat="47.20507" lon="5.93691">
        <ele>288.2</ele>
        <time>2022-07-24T17:46:56Z</time>
      </trkpt>
      <trkpt lat="47.20508" lon="5.93692">
        <ele>288.4</ele>
        <time>2022-07-24T17:46:57Z</time>
      </trkpt>
      <trkpt lat="47.20512" lon="5.93695">
        <ele>288.6</ele>
        <time>2022-07-24T17:46:58Z</time>
      </trkpt>
      <trkpt lat="47.20514" lon="5.93698">
        <ele>288.6</ele>
        <time>2022-07-24T17:46:59Z</time>
      </trkpt>
      <trkpt lat="47.20516" lon="5.93699">
        <ele>288.8</ele>
        <time>2022-07-24T17:47:00Z</time>
      </trkpt>
      <trkpt lat="47.20518" lon="5.937">
        <ele>288.8</ele>
        <time>2022-07-24T17:47:01Z</time>
      </trkpt>
      <trkpt lat="47.20519" lon="5.937">
        <ele>289</ele>
        <time>2022-07-24T17:47:02Z</time>
      </trkpt>
      <trkpt lat="47.20521" lon="5.937">
        <ele>289</ele>
        <time>2022-07-24T17:47:03Z</time>
      </trkpt>
      <trkpt lat="47.20523" lon="5.93702">
        <ele>289.2</ele>
        <time>2022-07-24T17:47:04Z</time>
      </trkpt>
      <trkpt lat="47.20525" lon="5.93703">
        <ele>289.4</ele>
        <time>2022-07-24T17:47:05Z</time>
      </trkpt>
      <trkpt lat="47.20527" lon="5.93705">
        <ele>289.6</ele>
        <time>2022-07-24T17:47:06Z</time>
      </trkpt>
      <trkpt lat="47.20528" lon="5.93705">
        <ele>289.8</ele>
        <time>2022-07-24T17:47:07Z</time>
      </trkpt>
      <trkpt lat="47.2053" lon="5.93708">
        <ele>289.8</ele>
        <time>2022-07-24T17:47:08Z</time>
      </trkpt>
      <trkpt lat="47.20534" lon="5.9371">
        <ele>289.8</ele>
        <time>2022-07-24T17:47:09Z</time>
      </trkpt>
      <trkpt lat="47.20536" lon="5.93709">
        <ele>290</ele>
        <time>2022-07-24T17:47:10Z</time>
      </trkpt>
      <trkpt lat="47.20537" lon="5.93709">
        <ele>290</ele>
        <time>2022-07-24T17:47:11Z</time>
      </trkpt>
      <trkpt lat="47.20538" lon="5.93709">
        <ele>290.2</ele>
        <time>2022-07-24T17:47:12Z</time>
      </trkpt>
      <trkpt lat="47.20539" lon="5.9371">
        <ele>290.2</ele>
        <time>2022-07-24T17:47:13Z</time>
      </trkpt>
      <trkpt lat="47.20541" lon="5.93714">
        <ele>290.2</ele>
        <time>2022-07-24T17:47:14Z</time>
      </trkpt>
      <trkpt lat="47.20543" lon="5.93716">
        <ele>290.4</ele>
        <time>2022-07-24T17:47:15Z</time>
      </trkpt>
      <trkpt lat="47.20544" lon="5.93718">
        <ele>290.4</ele>
        <time>2022-07-24T17:47:16Z</time>
      </trkpt>
      <trkpt lat="47.20546" lon="5.93719">
        <ele>290.6</ele>
        <time>2022-07-24T17:47:17Z</time>
      </trkpt>
      <trkpt lat="47.20548" lon="5.9372">
        <ele>290.6</ele>
        <time>2022-07-24T17:47:18Z</time>
      </trkpt>
      <trkpt lat="47.2055" lon="5.93721">
        <ele>290.8</ele>
        <time>2022-07-24T17:47:19Z</time>
      </trkpt>
      <trkpt lat="47.20552" lon="5.93721">
        <ele>290.8</ele>
        <time>2022-07-24T17:47:20Z</time>
      </trkpt>
      <trkpt lat="47.20555" lon="5.93722">
        <ele>291</ele>
        <time>2022-07-24T17:47:21Z</time>
      </trkpt>
      <trkpt lat="47.20557" lon="5.93723">
        <ele>291.2</ele>
        <time>2022-07-24T17:47:22Z</time>
      </trkpt>
      <trkpt lat="47.2056" lon="5.93723">
        <ele>291.2</ele>
        <time>2022-07-24T17:47:23Z</time>
      </trkpt>
      <trkpt lat="47.20563" lon="5.93724">
        <ele>291.4</ele>
        <time>2022-07-24T17:47:24Z</time>
      </trkpt>
      <trkpt lat="47.20566" lon="5.93725">
        <ele>291.4</ele>
        <time>2022-07-24T17:47:25Z</time>
      </trkpt>
      <trkpt lat="47.20569" lon="5.93725">
        <ele>291.4</ele>
        <time>2022-07-24T17:47:26Z</time>
      </trkpt>
      <trkpt lat="47.20572" lon="5.93725">
        <ele>291.6</ele>
        <time>2022-07-24T17:47:27Z</time>
      </trkpt>
      <trkpt lat="47.20575" lon="5.93725">
        <ele>291.6</ele>
        <time>2022-07-24T17:47:28Z</time>
      </trkpt>
      <trkpt lat="47.20577" lon="5.93724">
        <ele>291.8</ele>
        <time>2022-07-24T17:47:29Z</time>
      </trkpt>
      <trkpt lat="47.20578" lon="5.93723">
        <ele>291.8</ele>
        <time>2022-07-24T17:47:30Z</time>
      </trkpt>
      <trkpt lat="47.2058" lon="5.93722">
        <ele>292.4</ele>
        <time>2022-07-24T17:48:10Z</time>
      </trkpt>
      <trkpt lat="47.20583" lon="5.93718">
        <ele>292.6</ele>
        <time>2022-07-24T17:48:12Z</time>
      </trkpt>
      <trkpt lat="47.2059" lon="5.93709">
        <ele>292.4</ele>
        <time>2022-07-24T17:48:16Z</time>
      </trkpt>
      <trkpt lat="47.20592" lon="5.93706">
        <ele>292.4</ele>
        <time>2022-07-24T17:48:17Z</time>
      </trkpt>
      <trkpt lat="47.20601" lon="5.93691">
        <ele>292.2</ele>
        <time>2022-07-24T17:48:22Z</time>
      </trkpt>
      <trkpt lat="47.20603" lon="5.93687">
        <ele>292.2</ele>
        <time>2022-07-24T17:48:23Z</time>
      </trkpt>
      <trkpt lat="47.20614" lon="5.93681">
        <ele>291.8</ele>
        <time>2022-07-24T17:48:26Z</time>
      </trkpt>
      <trkpt lat="47.20618" lon="5.9368">
        <ele>291.6</ele>
        <time>2022-07-24T17:48:27Z</time>
      </trkpt>
      <trkpt lat="47.2062" lon="5.93678">
        <ele>291.4</ele>
        <time>2022-07-24T17:48:28Z</time>
      </trkpt>
      <trkpt lat="47.20634" lon="5.93661">
        <ele>290.8</ele>
        <time>2022-07-24T17:48:32Z</time>
      </trkpt>
      <trkpt lat="47.20637" lon="5.93658">
        <ele>290.6</ele>
        <time>2022-07-24T17:48:33Z</time>
      </trkpt>
      <trkpt lat="47.20645" lon="5.93652">
        <ele>290.4</ele>
        <time>2022-07-24T17:48:35Z</time>
      </trkpt>
      <trkpt lat="47.20649" lon="5.93648">
        <ele>290.2</ele>
        <time>2022-07-24T17:48:36Z</time>
      </trkpt>
      <trkpt lat="47.20653" lon="5.93642">
        <ele>290</ele>
        <time>2022-07-24T17:48:37Z</time>
      </trkpt>
      <trkpt lat="47.20657" lon="5.93636">
        <ele>289.8</ele>
        <time>2022-07-24T17:48:38Z</time>
      </trkpt>
      <trkpt lat="47.20662" lon="5.9363">
        <ele>289.6</ele>
        <time>2022-07-24T17:48:39Z</time>
      </trkpt>
      <trkpt lat="47.20667" lon="5.93623">
        <ele>289.4</ele>
        <time>2022-07-24T17:48:40Z</time>
      </trkpt>
      <trkpt lat="47.20672" lon="5.93616">
        <ele>289.2</ele>
        <time>2022-07-24T17:48:41Z</time>
      </trkpt>
      <trkpt lat="47.20688" lon="5.93592">
        <ele>288</ele>
        <time>2022-07-24T17:48:44Z</time>
      </trkpt>
      <trkpt lat="47.20691" lon="5.93583">
        <ele>287.8</ele>
        <time>2022-07-24T17:48:45Z</time>
      </trkpt>
      <trkpt lat="47.20694" lon="5.93576">
        <ele>287.6</ele>
        <time>2022-07-24T17:48:46Z</time>
      </trkpt>
      <trkpt lat="47.20698" lon="5.9357">
        <ele>287</ele>
        <time>2022-07-24T17:48:47Z</time>
      </trkpt>
      <trkpt lat="47.20702" lon="5.93566">
        <ele>286.6</ele>
        <time>2022-07-24T17:48:48Z</time>
      </trkpt>
      <trkpt lat="47.20707" lon="5.93561">
        <ele>285.6</ele>
        <time>2022-07-24T17:48:49Z</time>
      </trkpt>
      <trkpt lat="47.20712" lon="5.93555">
        <ele>285</ele>
        <time>2022-07-24T17:48:50Z</time>
      </trkpt>
      <trkpt lat="47.20717" lon="5.9355">
        <ele>284.8</ele>
        <time>2022-07-24T17:48:51Z</time>
      </trkpt>
      <trkpt lat="47.20724" lon="5.93546">
        <ele>283.8</ele>
        <time>2022-07-24T17:48:52Z</time>
      </trkpt>
      <trkpt lat="47.2073" lon="5.93541">
        <ele>283.4</ele>
        <time>2022-07-24T17:48:53Z</time>
      </trkpt>
      <trkpt lat="47.20735" lon="5.93536">
        <ele>282.6</ele>
        <time>2022-07-24T17:48:54Z</time>
      </trkpt>
      <trkpt lat="47.2075" lon="5.93524">
        <ele>282</ele>
        <time>2022-07-24T17:48:56Z</time>
      </trkpt>
      <trkpt lat="47.20756" lon="5.9352">
        <ele>281</ele>
        <time>2022-07-24T17:48:57Z</time>
      </trkpt>
      <trkpt lat="47.20762" lon="5.93515">
        <ele>280.8</ele>
        <time>2022-07-24T17:48:58Z</time>
      </trkpt>
      <trkpt lat="47.20766" lon="5.93511">
        <ele>279.6</ele>
        <time>2022-07-24T17:48:59Z</time>
      </trkpt>
      <trkpt lat="47.2077" lon="5.93506">
        <ele>279.2</ele>
        <time>2022-07-24T17:49:00Z</time>
      </trkpt>
      <trkpt lat="47.20774" lon="5.93503">
        <ele>278.4</ele>
        <time>2022-07-24T17:49:01Z</time>
      </trkpt>
      <trkpt lat="47.20778" lon="5.93502">
        <ele>278.2</ele>
        <time>2022-07-24T17:49:02Z</time>
      </trkpt>
      <trkpt lat="47.20783" lon="5.93501">
        <ele>277.8</ele>
        <time>2022-07-24T17:49:03Z</time>
      </trkpt>
      <trkpt lat="47.20786" lon="5.93499">
        <ele>277.4</ele>
        <time>2022-07-24T17:49:04Z</time>
      </trkpt>
      <trkpt lat="47.2079" lon="5.93499">
        <ele>277.2</ele>
        <time>2022-07-24T17:49:05Z</time>
      </trkpt>
      <trkpt lat="47.20794" lon="5.935">
        <ele>277</ele>
        <time>2022-07-24T17:49:06Z</time>
      </trkpt>
      <trkpt lat="47.20796" lon="5.93501">
        <ele>277</ele>
        <time>2022-07-24T17:49:07Z</time>
      </trkpt>
      <trkpt lat="47.20798" lon="5.93503">
        <ele>276.8</ele>
        <time>2022-07-24T17:49:08Z</time>
      </trkpt>
      <trkpt lat="47.20801" lon="5.93504">
        <ele>276.8</ele>
        <time>2022-07-24T17:49:09Z</time>
      </trkpt>
      <trkpt lat="47.20804" lon="5.93506">
        <ele>276.8</ele>
        <time>2022-07-24T17:49:10Z</time>
      </trkpt>
      <trkpt lat="47.20812" lon="5.93506">
        <ele>276.8</ele>
        <time>2022-07-24T17:49:12Z</time>
      </trkpt>
      <trkpt lat="47.20815" lon="5.93505">
        <ele>276.8</ele>
        <time>2022-07-24T17:49:13Z</time>
      </trkpt>
      <trkpt lat="47.20817" lon="5.93504">
        <ele>276.8</ele>
        <time>2022-07-24T17:49:14Z</time>
      </trkpt>
      <trkpt lat="47.20821" lon="5.93504">
        <ele>277</ele>
        <time>2022-07-24T17:49:15Z</time>
      </trkpt>
      <trkpt lat="47.20825" lon="5.93504">
        <ele>277.2</ele>
        <time>2022-07-24T17:49:16Z</time>
      </trkpt>
      <trkpt lat="47.20832" lon="5.93505">
        <ele>277.2</ele>
        <time>2022-07-24T17:49:18Z</time>
      </trkpt>
      <trkpt lat="47.20834" lon="5.93506">
        <ele>277.2</ele>
        <time>2022-07-24T17:49:19Z</time>
      </trkpt>
      <trkpt lat="47.20839" lon="5.93506">
        <ele>277.2</ele>
        <time>2022-07-24T17:49:21Z</time>
      </trkpt>
      <trkpt lat="47.20842" lon="5.93506">
        <ele>277.4</ele>
        <time>2022-07-24T17:49:22Z</time>
      </trkpt>
      <trkpt lat="47.20846" lon="5.93505">
        <ele>277.4</ele>
        <time>2022-07-24T17:49:23Z</time>
      </trkpt>
      <trkpt lat="47.20865" lon="5.93502">
        <ele>278</ele>
        <time>2022-07-24T17:49:29Z</time>
      </trkpt>
      <trkpt lat="47.20873" lon="5.93501">
        <ele>278.2</ele>
        <time>2022-07-24T17:49:32Z</time>
      </trkpt>
      <trkpt lat="47.20879" lon="5.93498">
        <ele>278.4</ele>
        <time>2022-07-24T17:49:34Z</time>
      </trkpt>
      <trkpt lat="47.20881" lon="5.93496">
        <ele>278.4</ele>
        <time>2022-07-24T17:49:35Z</time>
      </trkpt>
      <trkpt lat="47.2089" lon="5.93491">
        <ele>278.8</ele>
        <time>2022-07-24T17:49:39Z</time>
      </trkpt>
      <trkpt lat="47.20896" lon="5.93485">
        <ele>279</ele>
        <time>2022-07-24T17:49:41Z</time>
      </trkpt>
      <trkpt lat="47.20897" lon="5.93482">
        <ele>279</ele>
        <time>2022-07-24T17:49:42Z</time>
      </trkpt>
      <trkpt lat="47.20898" lon="5.93479">
        <ele>279.2</ele>
        <time>2022-07-24T17:49:43Z</time>
      </trkpt>
      <trkpt lat="47.209" lon="5.93476">
        <ele>279.4</ele>
        <time>2022-07-24T17:49:44Z</time>
      </trkpt>
      <trkpt lat="47.20901" lon="5.93474">
        <ele>279.6</ele>
        <time>2022-07-24T17:49:45Z</time>
      </trkpt>
      <trkpt lat="47.20903" lon="5.93473">
        <ele>279.8</ele>
        <time>2022-07-24T17:49:46Z</time>
      </trkpt>
      <trkpt lat="47.20907" lon="5.93469">
        <ele>280</ele>
        <time>2022-07-24T17:49:48Z</time>
      </trkpt>
      <trkpt lat="47.20909" lon="5.93468">
        <ele>280</ele>
        <time>2022-07-24T17:49:49Z</time>
      </trkpt>
      <trkpt lat="47.20911" lon="5.93466">
        <ele>280.2</ele>
        <time>2022-07-24T17:49:50Z</time>
      </trkpt>
      <trkpt lat="47.20913" lon="5.93464">
        <ele>280.2</ele>
        <time>2022-07-24T17:49:51Z</time>
      </trkpt>
      <trkpt lat="47.20914" lon="5.93463">
        <ele>280.2</ele>
        <time>2022-07-24T17:49:52Z</time>
      </trkpt>
      <trkpt lat="47.20915" lon="5.93463">
        <ele>280.4</ele>
        <time>2022-07-24T17:49:53Z</time>
      </trkpt>
      <trkpt lat="47.20917" lon="5.93463">
        <ele>280.4</ele>
        <time>2022-07-24T17:49:54Z</time>
      </trkpt>
      <trkpt lat="47.20917" lon="5.93461">
        <ele>280.6</ele>
        <time>2022-07-24T17:49:55Z</time>
      </trkpt>
      <trkpt lat="47.20918" lon="5.93458">
        <ele>281</ele>
        <time>2022-07-24T17:49:56Z</time>
      </trkpt>
      <trkpt lat="47.20918" lon="5.93456">
        <ele>281</ele>
        <time>2022-07-24T17:49:57Z</time>
      </trkpt>
      <trkpt lat="47.2092" lon="5.93454">
        <ele>281.2</ele>
        <time>2022-07-24T17:49:58Z</time>
      </trkpt>
      <trkpt lat="47.20923" lon="5.93451">
        <ele>281.4</ele>
        <time>2022-07-24T17:49:59Z</time>
      </trkpt>
      <trkpt lat="47.20924" lon="5.93447">
        <ele>281.4</ele>
        <time>2022-07-24T17:50:00Z</time>
      </trkpt>
      <trkpt lat="47.20926" lon="5.93445">
        <ele>281.6</ele>
        <time>2022-07-24T17:50:01Z</time>
      </trkpt>
      <trkpt lat="47.20927" lon="5.93443">
        <ele>281.6</ele>
        <time>2022-07-24T17:50:02Z</time>
      </trkpt>
      <trkpt lat="47.20928" lon="5.93441">
        <ele>281.8</ele>
        <time>2022-07-24T17:50:03Z</time>
      </trkpt>
      <trkpt lat="47.20929" lon="5.93439">
        <ele>281.8</ele>
        <time>2022-07-24T17:50:04Z</time>
      </trkpt>
      <trkpt lat="47.20931" lon="5.93438">
        <ele>282</ele>
        <time>2022-07-24T17:50:05Z</time>
      </trkpt>
      <trkpt lat="47.20932" lon="5.93437">
        <ele>282</ele>
        <time>2022-07-24T17:50:06Z</time>
      </trkpt>
      <trkpt lat="47.20934" lon="5.93436">
        <ele>282.2</ele>
        <time>2022-07-24T17:50:07Z</time>
      </trkpt>
      <trkpt lat="47.20936" lon="5.93433">
        <ele>282.2</ele>
        <time>2022-07-24T17:50:08Z</time>
      </trkpt>
      <trkpt lat="47.20937" lon="5.93431">
        <ele>282.2</ele>
        <time>2022-07-24T17:50:09Z</time>
      </trkpt>
      <trkpt lat="47.20938" lon="5.93428">
        <ele>282.4</ele>
        <time>2022-07-24T17:50:10Z</time>
      </trkpt>
      <trkpt lat="47.2094" lon="5.93426">
        <ele>282.4</ele>
        <time>2022-07-24T17:50:11Z</time>
      </trkpt>
      <trkpt lat="47.20941" lon="5.93423">
        <ele>282.6</ele>
        <time>2022-07-24T17:50:12Z</time>
      </trkpt>
      <trkpt lat="47.20943" lon="5.9342">
        <ele>282.6</ele>
        <time>2022-07-24T17:50:13Z</time>
      </trkpt>
      <trkpt lat="47.20944" lon="5.93417">
        <ele>282.8</ele>
        <time>2022-07-24T17:50:14Z</time>
      </trkpt>
      <trkpt lat="47.20946" lon="5.93415">
        <ele>283</ele>
        <time>2022-07-24T17:50:15Z</time>
      </trkpt>
      <trkpt lat="47.20947" lon="5.93412">
        <ele>283.2</ele>
        <time>2022-07-24T17:50:16Z</time>
      </trkpt>
      <trkpt lat="47.20948" lon="5.93409">
        <ele>283.4</ele>
        <time>2022-07-24T17:50:17Z</time>
      </trkpt>
      <trkpt lat="47.20949" lon="5.93406">
        <ele>283.6</ele>
        <time>2022-07-24T17:50:18Z</time>
      </trkpt>
      <trkpt lat="47.2095" lon="5.93403">
        <ele>283.8</ele>
        <time>2022-07-24T17:50:19Z</time>
      </trkpt>
      <trkpt lat="47.20951" lon="5.934">
        <ele>283.8</ele>
        <time>2022-07-24T17:50:20Z</time>
      </trkpt>
      <trkpt lat="47.20952" lon="5.93396">
        <ele>284</ele>
        <time>2022-07-24T17:50:21Z</time>
      </trkpt>
      <trkpt lat="47.20953" lon="5.93394">
        <ele>284.2</ele>
        <time>2022-07-24T17:50:22Z</time>
      </trkpt>
      <trkpt lat="47.20954" lon="5.93391">
        <ele>284.2</ele>
        <time>2022-07-24T17:50:23Z</time>
      </trkpt>
      <trkpt lat="47.20955" lon="5.93389">
        <ele>284.4</ele>
        <time>2022-07-24T17:50:24Z</time>
      </trkpt>
      <trkpt lat="47.20956" lon="5.93388">
        <ele>284.4</ele>
        <time>2022-07-24T17:50:25Z</time>
      </trkpt>
      <trkpt lat="47.20957" lon="5.93386">
        <ele>284.6</ele>
        <time>2022-07-24T17:50:26Z</time>
      </trkpt>
      <trkpt lat="47.20958" lon="5.93384">
        <ele>284.4</ele>
        <time>2022-07-24T17:50:27Z</time>
      </trkpt>
      <trkpt lat="47.20959" lon="5.93383">
        <ele>284.8</ele>
        <time>2022-07-24T17:50:28Z</time>
      </trkpt>
      <trkpt lat="47.2096" lon="5.93381">
        <ele>285</ele>
        <time>2022-07-24T17:50:29Z</time>
      </trkpt>
      <trkpt lat="47.20962" lon="5.93378">
        <ele>284.8</ele>
        <time>2022-07-24T17:50:30Z</time>
      </trkpt>
      <trkpt lat="47.20964" lon="5.93374">
        <ele>285</ele>
        <time>2022-07-24T17:50:31Z</time>
      </trkpt>
      <trkpt lat="47.20966" lon="5.9337">
        <ele>285</ele>
        <time>2022-07-24T17:50:32Z</time>
      </trkpt>
      <trkpt lat="47.20968" lon="5.93367">
        <ele>285.2</ele>
        <time>2022-07-24T17:50:33Z</time>
      </trkpt>
      <trkpt lat="47.20968" lon="5.93365">
        <ele>285.2</ele>
        <time>2022-07-24T17:50:34Z</time>
      </trkpt>
      <trkpt lat="47.20968" lon="5.93363">
        <ele>285.4</ele>
        <time>2022-07-24T17:50:35Z</time>
      </trkpt>
      <trkpt lat="47.20969" lon="5.9336">
        <ele>285.6</ele>
        <time>2022-07-24T17:50:36Z</time>
      </trkpt>
      <trkpt lat="47.20967" lon="5.93358">
        <ele>285.6</ele>
        <time>2022-07-24T17:50:37Z</time>
      </trkpt>
      <trkpt lat="47.20966" lon="5.93355">
        <ele>285.8</ele>
        <time>2022-07-24T17:50:38Z</time>
      </trkpt>
      <trkpt lat="47.20966" lon="5.93352">
        <ele>285.8</ele>
        <time>2022-07-24T17:50:39Z</time>
      </trkpt>
      <trkpt lat="47.20966" lon="5.93349">
        <ele>286</ele>
        <time>2022-07-24T17:50:40Z</time>
      </trkpt>
      <trkpt lat="47.20968" lon="5.93345">
        <ele>286</ele>
        <time>2022-07-24T17:50:41Z</time>
      </trkpt>
      <trkpt lat="47.20968" lon="5.93341">
        <ele>286.2</ele>
        <time>2022-07-24T17:50:42Z</time>
      </trkpt>
      <trkpt lat="47.20969" lon="5.93338">
        <ele>286.2</ele>
        <time>2022-07-24T17:50:43Z</time>
      </trkpt>
      <trkpt lat="47.20969" lon="5.93334">
        <ele>286.2</ele>
        <time>2022-07-24T17:50:44Z</time>
      </trkpt>
      <trkpt lat="47.20971" lon="5.9333">
        <ele>286.4</ele>
        <time>2022-07-24T17:50:45Z</time>
      </trkpt>
      <trkpt lat="47.20972" lon="5.93324">
        <ele>286.4</ele>
        <time>2022-07-24T17:50:46Z</time>
      </trkpt>
      <trkpt lat="47.20972" lon="5.9332">
        <ele>286.6</ele>
        <time>2022-07-24T17:50:47Z</time>
      </trkpt>
      <trkpt lat="47.20973" lon="5.93317">
        <ele>286.8</ele>
        <time>2022-07-24T17:50:48Z</time>
      </trkpt>
      <trkpt lat="47.20974" lon="5.93314">
        <ele>286.8</ele>
        <time>2022-07-24T17:50:49Z</time>
      </trkpt>
      <trkpt lat="47.20975" lon="5.9331">
        <ele>287</ele>
        <time>2022-07-24T17:50:50Z</time>
      </trkpt>
      <trkpt lat="47.20975" lon="5.93305">
        <ele>287</ele>
        <time>2022-07-24T17:50:51Z</time>
      </trkpt>
      <trkpt lat="47.20975" lon="5.93302">
        <ele>287.2</ele>
        <time>2022-07-24T17:50:52Z</time>
      </trkpt>
      <trkpt lat="47.20975" lon="5.93299">
        <ele>287.2</ele>
        <time>2022-07-24T17:50:53Z</time>
      </trkpt>
      <trkpt lat="47.20976" lon="5.93295">
        <ele>287.4</ele>
        <time>2022-07-24T17:50:54Z</time>
      </trkpt>
      <trkpt lat="47.20977" lon="5.9329">
        <ele>287.6</ele>
        <time>2022-07-24T17:50:55Z</time>
      </trkpt>
      <trkpt lat="47.20978" lon="5.93287">
        <ele>287.6</ele>
        <time>2022-07-24T17:50:56Z</time>
      </trkpt>
      <trkpt lat="47.20978" lon="5.93284">
        <ele>287.6</ele>
        <time>2022-07-24T17:50:57Z</time>
      </trkpt>
      <trkpt lat="47.20978" lon="5.93281">
        <ele>287.6</ele>
        <time>2022-07-24T17:50:58Z</time>
      </trkpt>
      <trkpt lat="47.20979" lon="5.93278">
        <ele>287.6</ele>
        <time>2022-07-24T17:50:59Z</time>
      </trkpt>
      <trkpt lat="47.20981" lon="5.93275">
        <ele>287.6</ele>
        <time>2022-07-24T17:51:00Z</time>
      </trkpt>
      <trkpt lat="47.20982" lon="5.93273">
        <ele>287.4</ele>
        <time>2022-07-24T17:51:01Z</time>
      </trkpt>
      <trkpt lat="47.20983" lon="5.93272">
        <ele>287.4</ele>
        <time>2022-07-24T17:51:02Z</time>
      </trkpt>
      <trkpt lat="47.20984" lon="5.93271">
        <ele>287.4</ele>
        <time>2022-07-24T17:51:03Z</time>
      </trkpt>
      <trkpt lat="47.20985" lon="5.9327">
        <ele>287.6</ele>
        <time>2022-07-24T17:51:04Z</time>
      </trkpt>
      <trkpt lat="47.20986" lon="5.93269">
        <ele>287.6</ele>
        <time>2022-07-24T17:51:05Z</time>
      </trkpt>
      <trkpt lat="47.20988" lon="5.93266">
        <ele>287.6</ele>
        <time>2022-07-24T17:51:07Z</time>
      </trkpt>
      <trkpt lat="47.20989" lon="5.93264">
        <ele>287.6</ele>
        <time>2022-07-24T17:51:08Z</time>
      </trkpt>
      <trkpt lat="47.2099" lon="5.93262">
        <ele>287.6</ele>
        <time>2022-07-24T17:51:09Z</time>
      </trkpt>
      <trkpt lat="47.20991" lon="5.93261">
        <ele>287.6</ele>
        <time>2022-07-24T17:51:10Z</time>
      </trkpt>
      <trkpt lat="47.20991" lon="5.93258">
        <ele>287.8</ele>
        <time>2022-07-24T17:51:11Z</time>
      </trkpt>
      <trkpt lat="47.20992" lon="5.93256">
        <ele>287.8</ele>
        <time>2022-07-24T17:51:12Z</time>
      </trkpt>
      <trkpt lat="47.20992" lon="5.93253">
        <ele>287.8</ele>
        <time>2022-07-24T17:51:13Z</time>
      </trkpt>
      <trkpt lat="47.20992" lon="5.93251">
        <ele>287.8</ele>
        <time>2022-07-24T17:51:14Z</time>
      </trkpt>
      <trkpt lat="47.20991" lon="5.93248">
        <ele>287.8</ele>
        <time>2022-07-24T17:51:15Z</time>
      </trkpt>
      <trkpt lat="47.20988" lon="5.93226">
        <ele>287.6</ele>
        <time>2022-07-24T17:51:22Z</time>
      </trkpt>
      <trkpt lat="47.20987" lon="5.93203">
        <ele>287.2</ele>
        <time>2022-07-24T17:51:27Z</time>
      </trkpt>
      <trkpt lat="47.20988" lon="5.93197">
        <ele>287.2</ele>
        <time>2022-07-24T17:51:28Z</time>
      </trkpt>
      <trkpt lat="47.20991" lon="5.93177">
        <ele>287</ele>
        <time>2022-07-24T17:51:31Z</time>
      </trkpt>
      <trkpt lat="47.20994" lon="5.9316">
        <ele>286.8</ele>
        <time>2022-07-24T17:51:33Z</time>
      </trkpt>
      <trkpt lat="47.20997" lon="5.93142">
        <ele>286.2</ele>
        <time>2022-07-24T17:51:35Z</time>
      </trkpt>
      <trkpt lat="47.20999" lon="5.93114">
        <ele>285.2</ele>
        <time>2022-07-24T17:51:38Z</time>
      </trkpt>
      <trkpt lat="47.20999" lon="5.93105">
        <ele>284.8</ele>
        <time>2022-07-24T17:51:39Z</time>
      </trkpt>
      <trkpt lat="47.20997" lon="5.93067">
        <ele>283.6</ele>
        <time>2022-07-24T17:51:43Z</time>
      </trkpt>
      <trkpt lat="47.20996" lon="5.93041">
        <ele>282.6</ele>
        <time>2022-07-24T17:51:46Z</time>
      </trkpt>
      <trkpt lat="47.20995" lon="5.93032">
        <ele>282.4</ele>
        <time>2022-07-24T17:51:47Z</time>
      </trkpt>
      <trkpt lat="47.20995" lon="5.93025">
        <ele>282.4</ele>
        <time>2022-07-24T17:51:48Z</time>
      </trkpt>
      <trkpt lat="47.20994" lon="5.93017">
        <ele>282.4</ele>
        <time>2022-07-24T17:51:49Z</time>
      </trkpt>
      <trkpt lat="47.20993" lon="5.93009">
        <ele>282.2</ele>
        <time>2022-07-24T17:51:50Z</time>
      </trkpt>
      <trkpt lat="47.20991" lon="5.93001">
        <ele>282.2</ele>
        <time>2022-07-24T17:51:51Z</time>
      </trkpt>
      <trkpt lat="47.20978" lon="5.92958">
        <ele>281.6</ele>
        <time>2022-07-24T17:51:57Z</time>
      </trkpt>
      <trkpt lat="47.20976" lon="5.92953">
        <ele>281.4</ele>
        <time>2022-07-24T17:51:58Z</time>
      </trkpt>
      <trkpt lat="47.20975" lon="5.92949">
        <ele>281.2</ele>
        <time>2022-07-24T17:51:59Z</time>
      </trkpt>
      <trkpt lat="47.20974" lon="5.92946">
        <ele>281.2</ele>
        <time>2022-07-24T17:52:00Z</time>
      </trkpt>
      <trkpt lat="47.20972" lon="5.92943">
        <ele>281</ele>
        <time>2022-07-24T17:52:01Z</time>
      </trkpt>
      <trkpt lat="47.2097" lon="5.92941">
        <ele>281</ele>
        <time>2022-07-24T17:52:02Z</time>
      </trkpt>
      <trkpt lat="47.20969" lon="5.92939">
        <ele>281</ele>
        <time>2022-07-24T17:52:03Z</time>
      </trkpt>
      <trkpt lat="47.20967" lon="5.92938">
        <ele>281</ele>
        <time>2022-07-24T17:52:04Z</time>
      </trkpt>
      <trkpt lat="47.20965" lon="5.92937">
        <ele>280.8</ele>
        <time>2022-07-24T17:52:05Z</time>
      </trkpt>
      <trkpt lat="47.20964" lon="5.92936">
        <ele>280.6</ele>
        <time>2022-07-24T17:52:06Z</time>
      </trkpt>
      <trkpt lat="47.20962" lon="5.92936">
        <ele>280.6</ele>
        <time>2022-07-24T17:52:07Z</time>
      </trkpt>
      <trkpt lat="47.2096" lon="5.92934">
        <ele>280.8</ele>
        <time>2022-07-24T17:52:08Z</time>
      </trkpt>
      <trkpt lat="47.20952" lon="5.9293">
        <ele>280.6</ele>
        <time>2022-07-24T17:52:13Z</time>
      </trkpt>
      <trkpt lat="47.2095" lon="5.9293">
        <ele>280.6</ele>
        <time>2022-07-24T17:52:14Z</time>
      </trkpt>
      <trkpt lat="47.20948" lon="5.92929">
        <ele>280.8</ele>
        <time>2022-07-24T17:52:15Z</time>
      </trkpt>
      <trkpt lat="47.20947" lon="5.92928">
        <ele>281</ele>
        <time>2022-07-24T17:52:16Z</time>
      </trkpt>
      <trkpt lat="47.20946" lon="5.92928">
        <ele>281.2</ele>
        <time>2022-07-24T17:52:17Z</time>
      </trkpt>
      <trkpt lat="47.20945" lon="5.92927">
        <ele>281.2</ele>
        <time>2022-07-24T17:52:18Z</time>
      </trkpt>
      <trkpt lat="47.20944" lon="5.92927">
        <ele>281.4</ele>
        <time>2022-07-24T17:52:19Z</time>
      </trkpt>
      <trkpt lat="47.20942" lon="5.92926">
        <ele>281.6</ele>
        <time>2022-07-24T17:52:20Z</time>
      </trkpt>
      <trkpt lat="47.20937" lon="5.92924">
        <ele>282</ele>
        <time>2022-07-24T17:52:22Z</time>
      </trkpt>
      <trkpt lat="47.20934" lon="5.92923">
        <ele>282.2</ele>
        <time>2022-07-24T17:52:23Z</time>
      </trkpt>
      <trkpt lat="47.2093" lon="5.92921">
        <ele>282.6</ele>
        <time>2022-07-24T17:52:25Z</time>
      </trkpt>
      <trkpt lat="47.20926" lon="5.92915">
        <ele>282.6</ele>
        <time>2022-07-24T17:52:27Z</time>
      </trkpt>
      <trkpt lat="47.20925" lon="5.92912">
        <ele>282.8</ele>
        <time>2022-07-24T17:52:28Z</time>
      </trkpt>
      <trkpt lat="47.20922" lon="5.92909">
        <ele>282.8</ele>
        <time>2022-07-24T17:52:29Z</time>
      </trkpt>
      <trkpt lat="47.20921" lon="5.92906">
        <ele>282.8</ele>
        <time>2022-07-24T17:52:30Z</time>
      </trkpt>
      <trkpt lat="47.2092" lon="5.92902">
        <ele>282.8</ele>
        <time>2022-07-24T17:52:31Z</time>
      </trkpt>
      <trkpt lat="47.20919" lon="5.92898">
        <ele>283</ele>
        <time>2022-07-24T17:52:32Z</time>
      </trkpt>
      <trkpt lat="47.20914" lon="5.92885">
        <ele>282.8</ele>
        <time>2022-07-24T17:52:34Z</time>
      </trkpt>
      <trkpt lat="47.20911" lon="5.9288">
        <ele>282.8</ele>
        <time>2022-07-24T17:52:35Z</time>
      </trkpt>
      <trkpt lat="47.2091" lon="5.92877">
        <ele>282.6</ele>
        <time>2022-07-24T17:52:36Z</time>
      </trkpt>
      <trkpt lat="47.20907" lon="5.9287">
        <ele>282.6</ele>
        <time>2022-07-24T17:52:38Z</time>
      </trkpt>
      <trkpt lat="47.20906" lon="5.92867">
        <ele>282.6</ele>
        <time>2022-07-24T17:52:39Z</time>
      </trkpt>
      <trkpt lat="47.20903" lon="5.92864">
        <ele>282.4</ele>
        <time>2022-07-24T17:52:40Z</time>
      </trkpt>
      <trkpt lat="47.209" lon="5.92863">
        <ele>282.4</ele>
        <time>2022-07-24T17:52:41Z</time>
      </trkpt>
      <trkpt lat="47.2089" lon="5.92855">
        <ele>282.6</ele>
        <time>2022-07-24T17:52:45Z</time>
      </trkpt>
      <trkpt lat="47.20888" lon="5.92854">
        <ele>282.8</ele>
        <time>2022-07-24T17:52:46Z</time>
      </trkpt>
      <trkpt lat="47.20886" lon="5.92853">
        <ele>283</ele>
        <time>2022-07-24T17:52:47Z</time>
      </trkpt>
      <trkpt lat="47.2088" lon="5.92851">
        <ele>283.2</ele>
        <time>2022-07-24T17:52:49Z</time>
      </trkpt>
      <trkpt lat="47.20873" lon="5.92848">
        <ele>283.4</ele>
        <time>2022-07-24T17:52:51Z</time>
      </trkpt>
      <trkpt lat="47.2087" lon="5.92846">
        <ele>283.4</ele>
        <time>2022-07-24T17:52:52Z</time>
      </trkpt>
      <trkpt lat="47.20868" lon="5.92844">
        <ele>283.4</ele>
        <time>2022-07-24T17:52:53Z</time>
      </trkpt>
      <trkpt lat="47.20857" lon="5.92838">
        <ele>283.6</ele>
        <time>2022-07-24T17:52:58Z</time>
      </trkpt>
      <trkpt lat="47.20853" lon="5.92837">
        <ele>283.8</ele>
        <time>2022-07-24T17:53:00Z</time>
      </trkpt>
      <trkpt lat="47.20852" lon="5.92837">
        <ele>283.8</ele>
        <time>2022-07-24T17:53:01Z</time>
      </trkpt>
      <trkpt lat="47.2085" lon="5.92837">
        <ele>283.8</ele>
        <time>2022-07-24T17:53:02Z</time>
      </trkpt>
      <trkpt lat="47.20849" lon="5.92837">
        <ele>283.8</ele>
        <time>2022-07-24T17:53:03Z</time>
      </trkpt>
      <trkpt lat="47.20847" lon="5.92836">
        <ele>283.8</ele>
        <time>2022-07-24T17:53:04Z</time>
      </trkpt>
      <trkpt lat="47.20843" lon="5.92834">
        <ele>284</ele>
        <time>2022-07-24T17:53:06Z</time>
      </trkpt>
      <trkpt lat="47.2084" lon="5.92832">
        <ele>284.2</ele>
        <time>2022-07-24T17:53:08Z</time>
      </trkpt>
      <trkpt lat="47.20837" lon="5.9283">
        <ele>284.4</ele>
        <time>2022-07-24T17:53:09Z</time>
      </trkpt>
      <trkpt lat="47.20832" lon="5.92828">
        <ele>284.4</ele>
        <time>2022-07-24T17:53:11Z</time>
      </trkpt>
      <trkpt lat="47.2083" lon="5.92828">
        <ele>284.6</ele>
        <time>2022-07-24T17:53:12Z</time>
      </trkpt>
      <trkpt lat="47.20821" lon="5.92823">
        <ele>284.6</ele>
        <time>2022-07-24T17:53:15Z</time>
      </trkpt>
      <trkpt lat="47.20818" lon="5.92822">
        <ele>284.8</ele>
        <time>2022-07-24T17:53:16Z</time>
      </trkpt>
      <trkpt lat="47.20814" lon="5.9282">
        <ele>284.8</ele>
        <time>2022-07-24T17:53:17Z</time>
      </trkpt>
      <trkpt lat="47.20804" lon="5.92814">
        <ele>284.8</ele>
        <time>2022-07-24T17:53:21Z</time>
      </trkpt>
      <trkpt lat="47.20794" lon="5.92808">
        <ele>285</ele>
        <time>2022-07-24T17:53:24Z</time>
      </trkpt>
      <trkpt lat="47.20791" lon="5.92807">
        <ele>285</ele>
        <time>2022-07-24T17:53:25Z</time>
      </trkpt>
      <trkpt lat="47.20786" lon="5.92807">
        <ele>285</ele>
        <time>2022-07-24T17:53:27Z</time>
      </trkpt>
      <trkpt lat="47.20784" lon="5.92807">
        <ele>285</ele>
        <time>2022-07-24T17:53:28Z</time>
      </trkpt>
      <trkpt lat="47.20781" lon="5.92806">
        <ele>285</ele>
        <time>2022-07-24T17:53:29Z</time>
      </trkpt>
      <trkpt lat="47.20778" lon="5.92805">
        <ele>285</ele>
        <time>2022-07-24T17:53:30Z</time>
      </trkpt>
      <trkpt lat="47.20773" lon="5.92804">
        <ele>284.8</ele>
        <time>2022-07-24T17:53:32Z</time>
      </trkpt>
      <trkpt lat="47.20771" lon="5.92802">
        <ele>284.8</ele>
        <time>2022-07-24T17:53:33Z</time>
      </trkpt>
      <trkpt lat="47.20765" lon="5.92799">
        <ele>284.6</ele>
        <time>2022-07-24T17:53:35Z</time>
      </trkpt>
      <trkpt lat="47.20762" lon="5.92799">
        <ele>284.6</ele>
        <time>2022-07-24T17:53:36Z</time>
      </trkpt>
      <trkpt lat="47.20759" lon="5.928">
        <ele>284.6</ele>
        <time>2022-07-24T17:53:37Z</time>
      </trkpt>
      <trkpt lat="47.20745" lon="5.92791">
        <ele>284.4</ele>
        <time>2022-07-24T17:53:41Z</time>
      </trkpt>
      <trkpt lat="47.2074" lon="5.92789">
        <ele>284.2</ele>
        <time>2022-07-24T17:53:42Z</time>
      </trkpt>
      <trkpt lat="47.20733" lon="5.92784">
        <ele>284</ele>
        <time>2022-07-24T17:53:44Z</time>
      </trkpt>
      <trkpt lat="47.20729" lon="5.92782">
        <ele>283.8</ele>
        <time>2022-07-24T17:53:45Z</time>
      </trkpt>
      <trkpt lat="47.20717" lon="5.92777">
        <ele>283</ele>
        <time>2022-07-24T17:53:48Z</time>
      </trkpt>
      <trkpt lat="47.20715" lon="5.92777">
        <ele>282.6</ele>
        <time>2022-07-24T17:53:49Z</time>
      </trkpt>
      <trkpt lat="47.20713" lon="5.92778">
        <ele>282.4</ele>
        <time>2022-07-24T17:53:50Z</time>
      </trkpt>
      <trkpt lat="47.20712" lon="5.92774">
        <ele>282</ele>
        <time>2022-07-24T17:53:53Z</time>
      </trkpt>
      <trkpt lat="47.20711" lon="5.92769">
        <ele>281.6</ele>
        <time>2022-07-24T17:53:54Z</time>
      </trkpt>
      <trkpt lat="47.20709" lon="5.92762">
        <ele>281</ele>
        <time>2022-07-24T17:53:58Z</time>
      </trkpt>
      <trkpt lat="47.2071" lon="5.92758">
        <ele>280</ele>
        <time>2022-07-24T17:54:32Z</time>
      </trkpt>
      <trkpt lat="47.20711" lon="5.92757">
        <ele>280</ele>
        <time>2022-07-24T17:54:34Z</time>
      </trkpt>
      <trkpt lat="47.20711" lon="5.92756">
        <ele>279.6</ele>
        <time>2022-07-24T17:54:48Z</time>
      </trkpt>
      <trkpt lat="47.20711" lon="5.9275">
        <ele>279.6</ele>
        <time>2022-07-24T17:54:50Z</time>
      </trkpt>
      <trkpt lat="47.20711" lon="5.92746">
        <ele>279.6</ele>
        <time>2022-07-24T17:54:51Z</time>
      </trkpt>
      <trkpt lat="47.20713" lon="5.92724">
        <ele>279.4</ele>
        <time>2022-07-24T17:54:56Z</time>
      </trkpt>
      <trkpt lat="47.20714" lon="5.92719">
        <ele>279.4</ele>
        <time>2022-07-24T17:54:57Z</time>
      </trkpt>
      <trkpt lat="47.20715" lon="5.92714">
        <ele>279.2</ele>
        <time>2022-07-24T17:54:58Z</time>
      </trkpt>
      <trkpt lat="47.20716" lon="5.9271">
        <ele>279.2</ele>
        <time>2022-07-24T17:54:59Z</time>
      </trkpt>
      <trkpt lat="47.20718" lon="5.927">
        <ele>279.2</ele>
        <time>2022-07-24T17:55:01Z</time>
      </trkpt>
      <trkpt lat="47.20719" lon="5.92684">
        <ele>279.4</ele>
        <time>2022-07-24T17:55:05Z</time>
      </trkpt>
      <trkpt lat="47.2072" lon="5.92678">
        <ele>279.4</ele>
        <time>2022-07-24T17:55:06Z</time>
      </trkpt>
      <trkpt lat="47.20721" lon="5.92652">
        <ele>279.4</ele>
        <time>2022-07-24T17:55:10Z</time>
      </trkpt>
      <trkpt lat="47.20723" lon="5.9264">
        <ele>279.4</ele>
        <time>2022-07-24T17:55:12Z</time>
      </trkpt>
      <trkpt lat="47.20724" lon="5.92633">
        <ele>279.4</ele>
        <time>2022-07-24T17:55:13Z</time>
      </trkpt>
      <trkpt lat="47.20726" lon="5.9262">
        <ele>279.4</ele>
        <time>2022-07-24T17:55:15Z</time>
      </trkpt>
      <trkpt lat="47.20731" lon="5.92608">
        <ele>279.2</ele>
        <time>2022-07-24T17:55:17Z</time>
      </trkpt>
      <trkpt lat="47.20733" lon="5.92602">
        <ele>279</ele>
        <time>2022-07-24T17:55:18Z</time>
      </trkpt>
      <trkpt lat="47.20734" lon="5.92591">
        <ele>278.6</ele>
        <time>2022-07-24T17:55:20Z</time>
      </trkpt>
      <trkpt lat="47.20733" lon="5.92588">
        <ele>278.6</ele>
        <time>2022-07-24T17:55:21Z</time>
      </trkpt>
      <trkpt lat="47.20733" lon="5.92584">
        <ele>278.6</ele>
        <time>2022-07-24T17:55:22Z</time>
      </trkpt>
      <trkpt lat="47.20732" lon="5.9258">
        <ele>278.6</ele>
        <time>2022-07-24T17:55:23Z</time>
      </trkpt>
      <trkpt lat="47.20731" lon="5.92576">
        <ele>278.4</ele>
        <time>2022-07-24T17:55:24Z</time>
      </trkpt>
      <trkpt lat="47.20723" lon="5.92562">
        <ele>278.2</ele>
        <time>2022-07-24T17:55:27Z</time>
      </trkpt>
      <trkpt lat="47.20708" lon="5.92539">
        <ele>277.6</ele>
        <time>2022-07-24T17:55:34Z</time>
      </trkpt>
      <trkpt lat="47.20706" lon="5.92537">
        <ele>277.6</ele>
        <time>2022-07-24T17:55:35Z</time>
      </trkpt>
      <trkpt lat="47.20703" lon="5.92535">
        <ele>277.6</ele>
        <time>2022-07-24T17:55:36Z</time>
      </trkpt>
      <trkpt lat="47.20695" lon="5.92528">
        <ele>277.4</ele>
        <time>2022-07-24T17:55:40Z</time>
      </trkpt>
      <trkpt lat="47.20688" lon="5.92525">
        <ele>277.4</ele>
        <time>2022-07-24T17:55:42Z</time>
      </trkpt>
      <trkpt lat="47.20685" lon="5.92524">
        <ele>277.4</ele>
        <time>2022-07-24T17:55:43Z</time>
      </trkpt>
      <trkpt lat="47.20683" lon="5.92523">
        <ele>277.4</ele>
        <time>2022-07-24T17:55:44Z</time>
      </trkpt>
      <trkpt lat="47.2068" lon="5.92522">
        <ele>277.4</ele>
        <time>2022-07-24T17:55:45Z</time>
      </trkpt>
      <trkpt lat="47.20665" lon="5.92515">
        <ele>277.4</ele>
        <time>2022-07-24T17:55:49Z</time>
      </trkpt>
      <trkpt lat="47.20653" lon="5.92511">
        <ele>277.6</ele>
        <time>2022-07-24T17:55:53Z</time>
      </trkpt>
      <trkpt lat="47.20649" lon="5.92511">
        <ele>277.8</ele>
        <time>2022-07-24T17:55:54Z</time>
      </trkpt>
      <trkpt lat="47.2064" lon="5.92514">
        <ele>278.4</ele>
        <time>2022-07-24T17:55:57Z</time>
      </trkpt>
      <trkpt lat="47.20637" lon="5.92514">
        <ele>278.4</ele>
        <time>2022-07-24T17:55:58Z</time>
      </trkpt>
      <trkpt lat="47.20635" lon="5.92514">
        <ele>278.4</ele>
        <time>2022-07-24T17:55:59Z</time>
      </trkpt>
      <trkpt lat="47.20631" lon="5.92513">
        <ele>278.6</ele>
        <time>2022-07-24T17:56:00Z</time>
      </trkpt>
      <trkpt lat="47.20628" lon="5.92512">
        <ele>278.8</ele>
        <time>2022-07-24T17:56:01Z</time>
      </trkpt>
      <trkpt lat="47.20624" lon="5.92509">
        <ele>279.2</ele>
        <time>2022-07-24T17:56:02Z</time>
      </trkpt>
      <trkpt lat="47.20621" lon="5.92507">
        <ele>279.2</ele>
        <time>2022-07-24T17:56:03Z</time>
      </trkpt>
      <trkpt lat="47.20618" lon="5.92503">
        <ele>279.4</ele>
        <time>2022-07-24T17:56:04Z</time>
      </trkpt>
      <trkpt lat="47.20615" lon="5.92499">
        <ele>279.4</ele>
        <time>2022-07-24T17:56:05Z</time>
      </trkpt>
      <trkpt lat="47.20612" lon="5.92496">
        <ele>279.4</ele>
        <time>2022-07-24T17:56:06Z</time>
      </trkpt>
      <trkpt lat="47.20609" lon="5.92494">
        <ele>279.4</ele>
        <time>2022-07-24T17:56:07Z</time>
      </trkpt>
      <trkpt lat="47.206" lon="5.92485">
        <ele>279.4</ele>
        <time>2022-07-24T17:56:09Z</time>
      </trkpt>
      <trkpt lat="47.2059" lon="5.92476">
        <ele>279.2</ele>
        <time>2022-07-24T17:56:12Z</time>
      </trkpt>
      <trkpt lat="47.20586" lon="5.92471">
        <ele>279</ele>
        <time>2022-07-24T17:56:13Z</time>
      </trkpt>
      <trkpt lat="47.20582" lon="5.92466">
        <ele>279</ele>
        <time>2022-07-24T17:56:14Z</time>
      </trkpt>
      <trkpt lat="47.20579" lon="5.92464">
        <ele>279</ele>
        <time>2022-07-24T17:56:15Z</time>
      </trkpt>
      <trkpt lat="47.20576" lon="5.92462">
        <ele>278.8</ele>
        <time>2022-07-24T17:56:16Z</time>
      </trkpt>
      <trkpt lat="47.20573" lon="5.92459">
        <ele>278.8</ele>
        <time>2022-07-24T17:56:17Z</time>
      </trkpt>
      <trkpt lat="47.20569" lon="5.92456">
        <ele>278.8</ele>
        <time>2022-07-24T17:56:18Z</time>
      </trkpt>
      <trkpt lat="47.20565" lon="5.92452">
        <ele>278.8</ele>
        <time>2022-07-24T17:56:19Z</time>
      </trkpt>
      <trkpt lat="47.20563" lon="5.92448">
        <ele>278.8</ele>
        <time>2022-07-24T17:56:20Z</time>
      </trkpt>
      <trkpt lat="47.20561" lon="5.92444">
        <ele>278.6</ele>
        <time>2022-07-24T17:56:21Z</time>
      </trkpt>
      <trkpt lat="47.20558" lon="5.92439">
        <ele>278.6</ele>
        <time>2022-07-24T17:56:22Z</time>
      </trkpt>
      <trkpt lat="47.20555" lon="5.92434">
        <ele>278.6</ele>
        <time>2022-07-24T17:56:23Z</time>
      </trkpt>
      <trkpt lat="47.20549" lon="5.9242">
        <ele>278.4</ele>
        <time>2022-07-24T17:56:26Z</time>
      </trkpt>
      <trkpt lat="47.20547" lon="5.92416">
        <ele>278.4</ele>
        <time>2022-07-24T17:56:27Z</time>
      </trkpt>
      <trkpt lat="47.20544" lon="5.92411">
        <ele>278.4</ele>
        <time>2022-07-24T17:56:28Z</time>
      </trkpt>
      <trkpt lat="47.20541" lon="5.92407">
        <ele>278.4</ele>
        <time>2022-07-24T17:56:29Z</time>
      </trkpt>
      <trkpt lat="47.20528" lon="5.92387">
        <ele>278.2</ele>
        <time>2022-07-24T17:56:33Z</time>
      </trkpt>
      <trkpt lat="47.20524" lon="5.92381">
        <ele>278.2</ele>
        <time>2022-07-24T17:56:34Z</time>
      </trkpt>
      <trkpt lat="47.20515" lon="5.92369">
        <ele>278.2</ele>
        <time>2022-07-24T17:56:36Z</time>
      </trkpt>
      <trkpt lat="47.20507" lon="5.9236">
        <ele>277.8</ele>
        <time>2022-07-24T17:56:38Z</time>
      </trkpt>
      <trkpt lat="47.20503" lon="5.92357">
        <ele>277.6</ele>
        <time>2022-07-24T17:56:39Z</time>
      </trkpt>
      <trkpt lat="47.20499" lon="5.92352">
        <ele>277.4</ele>
        <time>2022-07-24T17:56:40Z</time>
      </trkpt>
      <trkpt lat="47.20494" lon="5.92346">
        <ele>277.2</ele>
        <time>2022-07-24T17:56:41Z</time>
      </trkpt>
      <trkpt lat="47.20488" lon="5.92342">
        <ele>277.2</ele>
        <time>2022-07-24T17:56:42Z</time>
      </trkpt>
      <trkpt lat="47.20482" lon="5.92337">
        <ele>277</ele>
        <time>2022-07-24T17:56:43Z</time>
      </trkpt>
      <trkpt lat="47.20478" lon="5.92331">
        <ele>277</ele>
        <time>2022-07-24T17:56:44Z</time>
      </trkpt>
      <trkpt lat="47.20475" lon="5.92327">
        <ele>276.8</ele>
        <time>2022-07-24T17:56:45Z</time>
      </trkpt>
      <trkpt lat="47.2047" lon="5.92323">
        <ele>276.8</ele>
        <time>2022-07-24T17:56:47Z</time>
      </trkpt>
      <trkpt lat="47.20466" lon="5.92319">
        <ele>276.8</ele>
        <time>2022-07-24T17:56:48Z</time>
      </trkpt>
      <trkpt lat="47.20456" lon="5.92304">
        <ele>276.8</ele>
        <time>2022-07-24T17:56:51Z</time>
      </trkpt>
      <trkpt lat="47.20451" lon="5.92298">
        <ele>276.6</ele>
        <time>2022-07-24T17:56:52Z</time>
      </trkpt>
      <trkpt lat="47.20445" lon="5.92291">
        <ele>276.6</ele>
        <time>2022-07-24T17:56:53Z</time>
      </trkpt>
      <trkpt lat="47.2044" lon="5.92285">
        <ele>276.6</ele>
        <time>2022-07-24T17:56:54Z</time>
      </trkpt>
      <trkpt lat="47.20432" lon="5.92273">
        <ele>276.6</ele>
        <time>2022-07-24T17:56:56Z</time>
      </trkpt>
      <trkpt lat="47.20429" lon="5.92267">
        <ele>276.6</ele>
        <time>2022-07-24T17:56:57Z</time>
      </trkpt>
      <trkpt lat="47.20424" lon="5.92261">
        <ele>276.4</ele>
        <time>2022-07-24T17:56:58Z</time>
      </trkpt>
      <trkpt lat="47.20404" lon="5.92228">
        <ele>276.2</ele>
        <time>2022-07-24T17:57:04Z</time>
      </trkpt>
      <trkpt lat="47.20384" lon="5.9219">
        <ele>275.8</ele>
        <time>2022-07-24T17:57:10Z</time>
      </trkpt>
      <trkpt lat="47.20377" lon="5.92176">
        <ele>275.6</ele>
        <time>2022-07-24T17:57:12Z</time>
      </trkpt>
      <trkpt lat="47.20363" lon="5.92147">
        <ele>275.2</ele>
        <time>2022-07-24T17:57:16Z</time>
      </trkpt>
      <trkpt lat="47.20359" lon="5.92141">
        <ele>275</ele>
        <time>2022-07-24T17:57:17Z</time>
      </trkpt>
      <trkpt lat="47.20346" lon="5.92122">
        <ele>274.4</ele>
        <time>2022-07-24T17:57:20Z</time>
      </trkpt>
      <trkpt lat="47.20337" lon="5.9211">
        <ele>274.2</ele>
        <time>2022-07-24T17:57:22Z</time>
      </trkpt>
      <trkpt lat="47.20332" lon="5.92096">
        <ele>274</ele>
        <time>2022-07-24T17:57:24Z</time>
      </trkpt>
      <trkpt lat="47.2033" lon="5.92088">
        <ele>274</ele>
        <time>2022-07-24T17:57:25Z</time>
      </trkpt>
      <trkpt lat="47.20329" lon="5.92079">
        <ele>273.8</ele>
        <time>2022-07-24T17:57:26Z</time>
      </trkpt>
      <trkpt lat="47.20329" lon="5.92071">
        <ele>273.6</ele>
        <time>2022-07-24T17:57:27Z</time>
      </trkpt>
      <trkpt lat="47.20329" lon="5.92063">
        <ele>273.4</ele>
        <time>2022-07-24T17:57:28Z</time>
      </trkpt>
      <trkpt lat="47.2033" lon="5.92055">
        <ele>273.4</ele>
        <time>2022-07-24T17:57:29Z</time>
      </trkpt>
      <trkpt lat="47.2033" lon="5.92049">
        <ele>273.2</ele>
        <time>2022-07-24T17:57:30Z</time>
      </trkpt>
      <trkpt lat="47.2033" lon="5.92038">
        <ele>273.2</ele>
        <time>2022-07-24T17:57:32Z</time>
      </trkpt>
      <trkpt lat="47.2033" lon="5.92034">
        <ele>273.2</ele>
        <time>2022-07-24T17:57:33Z</time>
      </trkpt>
      <trkpt lat="47.20332" lon="5.92031">
        <ele>273.4</ele>
        <time>2022-07-24T17:57:34Z</time>
      </trkpt>
      <trkpt lat="47.20334" lon="5.92027">
        <ele>273.4</ele>
        <time>2022-07-24T17:57:35Z</time>
      </trkpt>
      <trkpt lat="47.20335" lon="5.92023">
        <ele>273.2</ele>
        <time>2022-07-24T17:57:36Z</time>
      </trkpt>
      <trkpt lat="47.20337" lon="5.92019">
        <ele>273.4</ele>
        <time>2022-07-24T17:57:37Z</time>
      </trkpt>
      <trkpt lat="47.20339" lon="5.92016">
        <ele>273.4</ele>
        <time>2022-07-24T17:57:38Z</time>
      </trkpt>
      <trkpt lat="47.2034" lon="5.92013">
        <ele>273.6</ele>
        <time>2022-07-24T17:57:39Z</time>
      </trkpt>
      <trkpt lat="47.20341" lon="5.9201">
        <ele>273.8</ele>
        <time>2022-07-24T17:57:40Z</time>
      </trkpt>
      <trkpt lat="47.20342" lon="5.92007">
        <ele>274</ele>
        <time>2022-07-24T17:57:41Z</time>
      </trkpt>
      <trkpt lat="47.20341" lon="5.92004">
        <ele>274</ele>
        <time>2022-07-24T17:57:42Z</time>
      </trkpt>
      <trkpt lat="47.2034" lon="5.92">
        <ele>274.4</ele>
        <time>2022-07-24T17:57:43Z</time>
      </trkpt>
      <trkpt lat="47.20339" lon="5.91997">
        <ele>274.8</ele>
        <time>2022-07-24T17:57:44Z</time>
      </trkpt>
      <trkpt lat="47.20338" lon="5.91994">
        <ele>275</ele>
        <time>2022-07-24T17:57:45Z</time>
      </trkpt>
      <trkpt lat="47.20337" lon="5.9199">
        <ele>275</ele>
        <time>2022-07-24T17:57:46Z</time>
      </trkpt>
      <trkpt lat="47.20337" lon="5.91985">
        <ele>275.2</ele>
        <time>2022-07-24T17:57:47Z</time>
      </trkpt>
      <trkpt lat="47.20336" lon="5.9198">
        <ele>275.2</ele>
        <time>2022-07-24T17:57:48Z</time>
      </trkpt>
      <trkpt lat="47.20333" lon="5.91974">
        <ele>275.2</ele>
        <time>2022-07-24T17:57:49Z</time>
      </trkpt>
      <trkpt lat="47.2033" lon="5.91967">
        <ele>275.2</ele>
        <time>2022-07-24T17:57:50Z</time>
      </trkpt>
      <trkpt lat="47.20326" lon="5.91959">
        <ele>275.2</ele>
        <time>2022-07-24T17:57:51Z</time>
      </trkpt>
      <trkpt lat="47.20321" lon="5.91952">
        <ele>275.2</ele>
        <time>2022-07-24T17:57:52Z</time>
      </trkpt>
      <trkpt lat="47.20317" lon="5.91947">
        <ele>275.2</ele>
        <time>2022-07-24T17:57:53Z</time>
      </trkpt>
      <trkpt lat="47.20313" lon="5.91942">
        <ele>274.8</ele>
        <time>2022-07-24T17:57:54Z</time>
      </trkpt>
      <trkpt lat="47.20306" lon="5.9193">
        <ele>274.2</ele>
        <time>2022-07-24T17:57:56Z</time>
      </trkpt>
      <trkpt lat="47.20303" lon="5.9192">
        <ele>273.8</ele>
        <time>2022-07-24T17:57:57Z</time>
      </trkpt>
      <trkpt lat="47.203" lon="5.91909">
        <ele>273</ele>
        <time>2022-07-24T17:57:58Z</time>
      </trkpt>
      <trkpt lat="47.20298" lon="5.919">
        <ele>272.8</ele>
        <time>2022-07-24T17:57:59Z</time>
      </trkpt>
      <trkpt lat="47.20295" lon="5.9189">
        <ele>272.2</ele>
        <time>2022-07-24T17:58:00Z</time>
      </trkpt>
      <trkpt lat="47.20292" lon="5.91879">
        <ele>271.8</ele>
        <time>2022-07-24T17:58:01Z</time>
      </trkpt>
      <trkpt lat="47.20288" lon="5.91869">
        <ele>271.6</ele>
        <time>2022-07-24T17:58:02Z</time>
      </trkpt>
      <trkpt lat="47.20282" lon="5.9186">
        <ele>271</ele>
        <time>2022-07-24T17:58:03Z</time>
      </trkpt>
      <trkpt lat="47.20272" lon="5.91829">
        <ele>270.2</ele>
        <time>2022-07-24T17:58:06Z</time>
      </trkpt>
      <trkpt lat="47.20268" lon="5.9181">
        <ele>269.8</ele>
        <time>2022-07-24T17:58:08Z</time>
      </trkpt>
      <trkpt lat="47.20268" lon="5.91801">
        <ele>269.6</ele>
        <time>2022-07-24T17:58:09Z</time>
      </trkpt>
      <trkpt lat="47.20268" lon="5.91792">
        <ele>269.2</ele>
        <time>2022-07-24T17:58:10Z</time>
      </trkpt>
      <trkpt lat="47.20268" lon="5.91786">
        <ele>269.2</ele>
        <time>2022-07-24T17:58:11Z</time>
      </trkpt>
      <trkpt lat="47.20268" lon="5.91779">
        <ele>269</ele>
        <time>2022-07-24T17:58:12Z</time>
      </trkpt>
      <trkpt lat="47.2027" lon="5.91772">
        <ele>269</ele>
        <time>2022-07-24T17:58:13Z</time>
      </trkpt>
      <trkpt lat="47.20273" lon="5.91766">
        <ele>268.8</ele>
        <time>2022-07-24T17:58:14Z</time>
      </trkpt>
      <trkpt lat="47.20275" lon="5.91761">
        <ele>268.8</ele>
        <time>2022-07-24T17:58:15Z</time>
      </trkpt>
      <trkpt lat="47.20277" lon="5.91755">
        <ele>268.8</ele>
        <time>2022-07-24T17:58:16Z</time>
      </trkpt>
      <trkpt lat="47.20279" lon="5.9175">
        <ele>268.6</ele>
        <time>2022-07-24T17:58:17Z</time>
      </trkpt>
      <trkpt lat="47.2028" lon="5.91744">
        <ele>268.6</ele>
        <time>2022-07-24T17:58:18Z</time>
      </trkpt>
      <trkpt lat="47.20281" lon="5.91739">
        <ele>268.8</ele>
        <time>2022-07-24T17:58:19Z</time>
      </trkpt>
      <trkpt lat="47.2028" lon="5.91733">
        <ele>268.8</ele>
        <time>2022-07-24T17:58:20Z</time>
      </trkpt>
      <trkpt lat="47.20278" lon="5.91729">
        <ele>268.6</ele>
        <time>2022-07-24T17:58:21Z</time>
      </trkpt>
      <trkpt lat="47.20276" lon="5.91726">
        <ele>268.6</ele>
        <time>2022-07-24T17:58:22Z</time>
      </trkpt>
      <trkpt lat="47.2027" lon="5.9172">
        <ele>268.6</ele>
        <time>2022-07-24T17:58:23Z</time>
      </trkpt>
      <trkpt lat="47.20258" lon="5.91707">
        <ele>268.6</ele>
        <time>2022-07-24T17:58:26Z</time>
      </trkpt>
      <trkpt lat="47.2025" lon="5.91703">
        <ele>268.6</ele>
        <time>2022-07-24T17:58:29Z</time>
      </trkpt>
      <trkpt lat="47.20246" lon="5.917">
        <ele>268.6</ele>
        <time>2022-07-24T17:58:30Z</time>
      </trkpt>
      <trkpt lat="47.20242" lon="5.91696">
        <ele>268.6</ele>
        <time>2022-07-24T17:58:31Z</time>
      </trkpt>
      <trkpt lat="47.20236" lon="5.91686">
        <ele>268.6</ele>
        <time>2022-07-24T17:58:33Z</time>
      </trkpt>
      <trkpt lat="47.20234" lon="5.91681">
        <ele>268.6</ele>
        <time>2022-07-24T17:58:34Z</time>
      </trkpt>
      <trkpt lat="47.20232" lon="5.91677">
        <ele>268.6</ele>
        <time>2022-07-24T17:58:35Z</time>
      </trkpt>
      <trkpt lat="47.20228" lon="5.91672">
        <ele>268.6</ele>
        <time>2022-07-24T17:58:36Z</time>
      </trkpt>
      <trkpt lat="47.20223" lon="5.91664">
        <ele>268.6</ele>
        <time>2022-07-24T17:58:38Z</time>
      </trkpt>
      <trkpt lat="47.2022" lon="5.91654">
        <ele>268.8</ele>
        <time>2022-07-24T17:58:40Z</time>
      </trkpt>
      <trkpt lat="47.20219" lon="5.9165">
        <ele>268.8</ele>
        <time>2022-07-24T17:58:41Z</time>
      </trkpt>
      <trkpt lat="47.20218" lon="5.91646">
        <ele>268.8</ele>
        <time>2022-07-24T17:58:42Z</time>
      </trkpt>
      <trkpt lat="47.20217" lon="5.91643">
        <ele>268.8</ele>
        <time>2022-07-24T17:58:43Z</time>
      </trkpt>
      <trkpt lat="47.20216" lon="5.9164">
        <ele>268.8</ele>
        <time>2022-07-24T17:58:44Z</time>
      </trkpt>
      <trkpt lat="47.20216" lon="5.91637">
        <ele>268.8</ele>
        <time>2022-07-24T17:58:45Z</time>
      </trkpt>
      <trkpt lat="47.20215" lon="5.91633">
        <ele>268.8</ele>
        <time>2022-07-24T17:58:46Z</time>
      </trkpt>
      <trkpt lat="47.20216" lon="5.91629">
        <ele>268.8</ele>
        <time>2022-07-24T17:58:47Z</time>
      </trkpt>
      <trkpt lat="47.20216" lon="5.91621">
        <ele>268.8</ele>
        <time>2022-07-24T17:58:49Z</time>
      </trkpt>
      <trkpt lat="47.20215" lon="5.91617">
        <ele>268.8</ele>
        <time>2022-07-24T17:58:51Z</time>
      </trkpt>
      <trkpt lat="47.20213" lon="5.91613">
        <ele>268.8</ele>
        <time>2022-07-24T17:58:52Z</time>
      </trkpt>
      <trkpt lat="47.20211" lon="5.91608">
        <ele>268.8</ele>
        <time>2022-07-24T17:58:53Z</time>
      </trkpt>
      <trkpt lat="47.20209" lon="5.91603">
        <ele>268.8</ele>
        <time>2022-07-24T17:58:54Z</time>
      </trkpt>
      <trkpt lat="47.20206" lon="5.91599">
        <ele>268.8</ele>
        <time>2022-07-24T17:58:55Z</time>
      </trkpt>
      <trkpt lat="47.20203" lon="5.91594">
        <ele>268.8</ele>
        <time>2022-07-24T17:58:56Z</time>
      </trkpt>
      <trkpt lat="47.20199" lon="5.9159">
        <ele>268.8</ele>
        <time>2022-07-24T17:58:57Z</time>
      </trkpt>
      <trkpt lat="47.20196" lon="5.91585">
        <ele>268.8</ele>
        <time>2022-07-24T17:58:58Z</time>
      </trkpt>
      <trkpt lat="47.20194" lon="5.91581">
        <ele>268.8</ele>
        <time>2022-07-24T17:58:59Z</time>
      </trkpt>
      <trkpt lat="47.20193" lon="5.91578">
        <ele>268.8</ele>
        <time>2022-07-24T17:59:00Z</time>
      </trkpt>
      <trkpt lat="47.20191" lon="5.91573">
        <ele>268.8</ele>
        <time>2022-07-24T17:59:01Z</time>
      </trkpt>
      <trkpt lat="47.20189" lon="5.91569">
        <ele>268.8</ele>
        <time>2022-07-24T17:59:02Z</time>
      </trkpt>
      <trkpt lat="47.20179" lon="5.91538">
        <ele>268.8</ele>
        <time>2022-07-24T17:59:07Z</time>
      </trkpt>
      <trkpt lat="47.20175" lon="5.9153">
        <ele>268.8</ele>
        <time>2022-07-24T17:59:08Z</time>
      </trkpt>
      <trkpt lat="47.20173" lon="5.91526">
        <ele>268.8</ele>
        <time>2022-07-24T17:59:09Z</time>
      </trkpt>
      <trkpt lat="47.20163" lon="5.9151">
        <ele>269.2</ele>
        <time>2022-07-24T17:59:12Z</time>
      </trkpt>
      <trkpt lat="47.2016" lon="5.91507">
        <ele>269.4</ele>
        <time>2022-07-24T17:59:13Z</time>
      </trkpt>
      <trkpt lat="47.20157" lon="5.91502">
        <ele>269.4</ele>
        <time>2022-07-24T17:59:14Z</time>
      </trkpt>
      <trkpt lat="47.20154" lon="5.91496">
        <ele>269.4</ele>
        <time>2022-07-24T17:59:15Z</time>
      </trkpt>
      <trkpt lat="47.20151" lon="5.9149">
        <ele>269.4</ele>
        <time>2022-07-24T17:59:17Z</time>
      </trkpt>
      <trkpt lat="47.20149" lon="5.91486">
        <ele>270</ele>
        <time>2022-07-24T17:59:18Z</time>
      </trkpt>
      <trkpt lat="47.20147" lon="5.91482">
        <ele>270</ele>
        <time>2022-07-24T17:59:19Z</time>
      </trkpt>
      <trkpt lat="47.20142" lon="5.91467">
        <ele>270.2</ele>
        <time>2022-07-24T17:59:22Z</time>
      </trkpt>
      <trkpt lat="47.2014" lon="5.91462">
        <ele>270.2</ele>
        <time>2022-07-24T17:59:23Z</time>
      </trkpt>
      <trkpt lat="47.20136" lon="5.91457">
        <ele>270.2</ele>
        <time>2022-07-24T17:59:24Z</time>
      </trkpt>
      <trkpt lat="47.20135" lon="5.91448">
        <ele>270.6</ele>
        <time>2022-07-24T17:59:26Z</time>
      </trkpt>
      <trkpt lat="47.20133" lon="5.91443">
        <ele>270.6</ele>
        <time>2022-07-24T17:59:27Z</time>
      </trkpt>
      <trkpt lat="47.20131" lon="5.91438">
        <ele>270.6</ele>
        <time>2022-07-24T17:59:28Z</time>
      </trkpt>
      <trkpt lat="47.20129" lon="5.91432">
        <ele>270.6</ele>
        <time>2022-07-24T17:59:29Z</time>
      </trkpt>
      <trkpt lat="47.20126" lon="5.91427">
        <ele>270.6</ele>
        <time>2022-07-24T17:59:30Z</time>
      </trkpt>
      <trkpt lat="47.20121" lon="5.914">
        <ele>271</ele>
        <time>2022-07-24T17:59:35Z</time>
      </trkpt>
      <trkpt lat="47.20121" lon="5.91396">
        <ele>271</ele>
        <time>2022-07-24T17:59:36Z</time>
      </trkpt>
      <trkpt lat="47.20118" lon="5.91386">
        <ele>270.6</ele>
        <time>2022-07-24T17:59:38Z</time>
      </trkpt>
      <trkpt lat="47.20117" lon="5.91381">
        <ele>270.6</ele>
        <time>2022-07-24T17:59:39Z</time>
      </trkpt>
      <trkpt lat="47.20115" lon="5.91376">
        <ele>271</ele>
        <time>2022-07-24T17:59:40Z</time>
      </trkpt>
      <trkpt lat="47.20112" lon="5.9137">
        <ele>271</ele>
        <time>2022-07-24T17:59:41Z</time>
      </trkpt>
      <trkpt lat="47.2011" lon="5.91364">
        <ele>270.6</ele>
        <time>2022-07-24T17:59:42Z</time>
      </trkpt>
      <trkpt lat="47.20109" lon="5.91359">
        <ele>270.6</ele>
        <time>2022-07-24T17:59:43Z</time>
      </trkpt>
      <trkpt lat="47.20101" lon="5.91341">
        <ele>270.6</ele>
        <time>2022-07-24T17:59:46Z</time>
      </trkpt>
      <trkpt lat="47.201" lon="5.91335">
        <ele>270.4</ele>
        <time>2022-07-24T17:59:47Z</time>
      </trkpt>
      <trkpt lat="47.20098" lon="5.91329">
        <ele>270.4</ele>
        <time>2022-07-24T17:59:48Z</time>
      </trkpt>
      <trkpt lat="47.20097" lon="5.91325">
        <ele>270.4</ele>
        <time>2022-07-24T17:59:49Z</time>
      </trkpt>
      <trkpt lat="47.20097" lon="5.91323">
        <ele>270.4</ele>
        <time>2022-07-24T17:59:50Z</time>
      </trkpt>
      <trkpt lat="47.20096" lon="5.91318">
        <ele>270.4</ele>
        <time>2022-07-24T17:59:51Z</time>
      </trkpt>
      <trkpt lat="47.20095" lon="5.91314">
        <ele>270.4</ele>
        <time>2022-07-24T17:59:52Z</time>
      </trkpt>
      <trkpt lat="47.20093" lon="5.91308">
        <ele>270.6</ele>
        <time>2022-07-24T17:59:53Z</time>
      </trkpt>
      <trkpt lat="47.20093" lon="5.91304">
        <ele>270.6</ele>
        <time>2022-07-24T17:59:54Z</time>
      </trkpt>
      <trkpt lat="47.20093" lon="5.91299">
        <ele>270.6</ele>
        <time>2022-07-24T17:59:55Z</time>
      </trkpt>
      <trkpt lat="47.20092" lon="5.9129">
        <ele>270.6</ele>
        <time>2022-07-24T17:59:57Z</time>
      </trkpt>
      <trkpt lat="47.20091" lon="5.91285">
        <ele>270.6</ele>
        <time>2022-07-24T17:59:58Z</time>
      </trkpt>
      <trkpt lat="47.2009" lon="5.91281">
        <ele>270.6</ele>
        <time>2022-07-24T17:59:59Z</time>
      </trkpt>
      <trkpt lat="47.20089" lon="5.91278">
        <ele>270.6</ele>
        <time>2022-07-24T18:00:00Z</time>
      </trkpt>
      <trkpt lat="47.20087" lon="5.91272">
        <ele>271</ele>
        <time>2022-07-24T18:00:01Z</time>
      </trkpt>
      <trkpt lat="47.20086" lon="5.91268">
        <ele>271</ele>
        <time>2022-07-24T18:00:02Z</time>
      </trkpt>
      <trkpt lat="47.20084" lon="5.91264">
        <ele>271.2</ele>
        <time>2022-07-24T18:00:03Z</time>
      </trkpt>
      <trkpt lat="47.20083" lon="5.91262">
        <ele>271.2</ele>
        <time>2022-07-24T18:00:04Z</time>
      </trkpt>
      <trkpt lat="47.20082" lon="5.91258">
        <ele>271.2</ele>
        <time>2022-07-24T18:00:05Z</time>
      </trkpt>
      <trkpt lat="47.20078" lon="5.9125">
        <ele>271.4</ele>
        <time>2022-07-24T18:00:07Z</time>
      </trkpt>
      <trkpt lat="47.20069" lon="5.91232">
        <ele>271.8</ele>
        <time>2022-07-24T18:00:11Z</time>
      </trkpt>
      <trkpt lat="47.20062" lon="5.91218">
        <ele>271.4</ele>
        <time>2022-07-24T18:00:15Z</time>
      </trkpt>
      <trkpt lat="47.2006" lon="5.91214">
        <ele>271.4</ele>
        <time>2022-07-24T18:00:16Z</time>
      </trkpt>
      <trkpt lat="47.20058" lon="5.91209">
        <ele>271.4</ele>
        <time>2022-07-24T18:00:17Z</time>
      </trkpt>
      <trkpt lat="47.20055" lon="5.91198">
        <ele>271.4</ele>
        <time>2022-07-24T18:00:19Z</time>
      </trkpt>
      <trkpt lat="47.20048" lon="5.91187">
        <ele>271.4</ele>
        <time>2022-07-24T18:00:21Z</time>
      </trkpt>
      <trkpt lat="47.20043" lon="5.91179">
        <ele>271.4</ele>
        <time>2022-07-24T18:00:22Z</time>
      </trkpt>
      <trkpt lat="47.20035" lon="5.91166">
        <ele>271.2</ele>
        <time>2022-07-24T18:00:25Z</time>
      </trkpt>
      <trkpt lat="47.20031" lon="5.91159">
        <ele>271.2</ele>
        <time>2022-07-24T18:00:26Z</time>
      </trkpt>
      <trkpt lat="47.20029" lon="5.91154">
        <ele>271.2</ele>
        <time>2022-07-24T18:00:27Z</time>
      </trkpt>
      <trkpt lat="47.20019" lon="5.91128">
        <ele>270.8</ele>
        <time>2022-07-24T18:00:31Z</time>
      </trkpt>
      <trkpt lat="47.20016" lon="5.91123">
        <ele>270.6</ele>
        <time>2022-07-24T18:00:32Z</time>
      </trkpt>
      <trkpt lat="47.20011" lon="5.91117">
        <ele>270.6</ele>
        <time>2022-07-24T18:00:33Z</time>
      </trkpt>
      <trkpt lat="47.20006" lon="5.91112">
        <ele>270.6</ele>
        <time>2022-07-24T18:00:34Z</time>
      </trkpt>
      <trkpt lat="47.20001" lon="5.91104">
        <ele>270.6</ele>
        <time>2022-07-24T18:00:35Z</time>
      </trkpt>
      <trkpt lat="47.19994" lon="5.91086">
        <ele>270</ele>
        <time>2022-07-24T18:00:38Z</time>
      </trkpt>
      <trkpt lat="47.19992" lon="5.91082">
        <ele>270</ele>
        <time>2022-07-24T18:00:39Z</time>
      </trkpt>
      <trkpt lat="47.19989" lon="5.91075">
        <ele>270</ele>
        <time>2022-07-24T18:00:40Z</time>
      </trkpt>
      <trkpt lat="47.19984" lon="5.9106">
        <ele>269.4</ele>
        <time>2022-07-24T18:00:42Z</time>
      </trkpt>
      <trkpt lat="47.19976" lon="5.91046">
        <ele>269.2</ele>
        <time>2022-07-24T18:00:44Z</time>
      </trkpt>
      <trkpt lat="47.19969" lon="5.91028">
        <ele>269.2</ele>
        <time>2022-07-24T18:00:47Z</time>
      </trkpt>
      <trkpt lat="47.19964" lon="5.91022">
        <ele>268.8</ele>
        <time>2022-07-24T18:00:48Z</time>
      </trkpt>
      <trkpt lat="47.19957" lon="5.91008">
        <ele>268.8</ele>
        <time>2022-07-24T18:00:51Z</time>
      </trkpt>
      <trkpt lat="47.19954" lon="5.91001">
        <ele>268.8</ele>
        <time>2022-07-24T18:00:52Z</time>
      </trkpt>
      <trkpt lat="47.19946" lon="5.90974">
        <ele>268.8</ele>
        <time>2022-07-24T18:00:56Z</time>
      </trkpt>
      <trkpt lat="47.19929" lon="5.90943">
        <ele>269.2</ele>
        <time>2022-07-24T18:01:02Z</time>
      </trkpt>
      <trkpt lat="47.19927" lon="5.90939">
        <ele>269.2</ele>
        <time>2022-07-24T18:01:03Z</time>
      </trkpt>
      <trkpt lat="47.19917" lon="5.90918">
        <ele>269.4</ele>
        <time>2022-07-24T18:01:06Z</time>
      </trkpt>
      <trkpt lat="47.19916" lon="5.90914">
        <ele>269.4</ele>
        <time>2022-07-24T18:01:07Z</time>
      </trkpt>
      <trkpt lat="47.19915" lon="5.90911">
        <ele>269.4</ele>
        <time>2022-07-24T18:01:08Z</time>
      </trkpt>
      <trkpt lat="47.19914" lon="5.90908">
        <ele>269.4</ele>
        <time>2022-07-24T18:01:09Z</time>
      </trkpt>
      <trkpt lat="47.19911" lon="5.90904">
        <ele>269.6</ele>
        <time>2022-07-24T18:01:10Z</time>
      </trkpt>
      <trkpt lat="47.1991" lon="5.909">
        <ele>269.6</ele>
        <time>2022-07-24T18:01:11Z</time>
      </trkpt>
      <trkpt lat="47.19908" lon="5.90896">
        <ele>270</ele>
        <time>2022-07-24T18:01:12Z</time>
      </trkpt>
      <trkpt lat="47.19899" lon="5.90881">
        <ele>270.6</ele>
        <time>2022-07-24T18:01:15Z</time>
      </trkpt>
      <trkpt lat="47.19899" lon="5.90877">
        <ele>270.6</ele>
        <time>2022-07-24T18:01:16Z</time>
      </trkpt>
      <trkpt lat="47.19897" lon="5.90873">
        <ele>271</ele>
        <time>2022-07-24T18:01:17Z</time>
      </trkpt>
      <trkpt lat="47.19896" lon="5.90869">
        <ele>271</ele>
        <time>2022-07-24T18:01:18Z</time>
      </trkpt>
      <trkpt lat="47.19885" lon="5.90852">
        <ele>271.4</ele>
        <time>2022-07-24T18:01:22Z</time>
      </trkpt>
      <trkpt lat="47.19882" lon="5.90846">
        <ele>271.4</ele>
        <time>2022-07-24T18:01:23Z</time>
      </trkpt>
      <trkpt lat="47.19873" lon="5.90836">
        <ele>271.8</ele>
        <time>2022-07-24T18:01:25Z</time>
      </trkpt>
      <trkpt lat="47.19871" lon="5.90833">
        <ele>272</ele>
        <time>2022-07-24T18:01:26Z</time>
      </trkpt>
      <trkpt lat="47.19869" lon="5.90831">
        <ele>272</ele>
        <time>2022-07-24T18:01:27Z</time>
      </trkpt>
      <trkpt lat="47.19867" lon="5.90827">
        <ele>272</ele>
        <time>2022-07-24T18:01:28Z</time>
      </trkpt>
      <trkpt lat="47.19865" lon="5.90823">
        <ele>272</ele>
        <time>2022-07-24T18:01:29Z</time>
      </trkpt>
      <trkpt lat="47.19864" lon="5.90819">
        <ele>272</ele>
        <time>2022-07-24T18:01:30Z</time>
      </trkpt>
      <trkpt lat="47.19863" lon="5.90815">
        <ele>272</ele>
        <time>2022-07-24T18:01:31Z</time>
      </trkpt>
      <trkpt lat="47.1986" lon="5.90807">
        <ele>272</ele>
        <time>2022-07-24T18:01:32Z</time>
      </trkpt>
      <trkpt lat="47.19858" lon="5.90803">
        <ele>272</ele>
        <time>2022-07-24T18:01:33Z</time>
      </trkpt>
      <trkpt lat="47.19858" lon="5.908">
        <ele>272</ele>
        <time>2022-07-24T18:01:34Z</time>
      </trkpt>
      <trkpt lat="47.19858" lon="5.90795">
        <ele>272.4</ele>
        <time>2022-07-24T18:01:35Z</time>
      </trkpt>
      <trkpt lat="47.19858" lon="5.9079">
        <ele>272.4</ele>
        <time>2022-07-24T18:01:36Z</time>
      </trkpt>
      <trkpt lat="47.19855" lon="5.90778">
        <ele>272</ele>
        <time>2022-07-24T18:01:38Z</time>
      </trkpt>
      <trkpt lat="47.19848" lon="5.90749">
        <ele>271.8</ele>
        <time>2022-07-24T18:01:42Z</time>
      </trkpt>
      <trkpt lat="47.19846" lon="5.90742">
        <ele>271.4</ele>
        <time>2022-07-24T18:01:43Z</time>
      </trkpt>
      <trkpt lat="47.19831" lon="5.90709">
        <ele>270.6</ele>
        <time>2022-07-24T18:01:47Z</time>
      </trkpt>
      <trkpt lat="47.19826" lon="5.90701">
        <ele>270.4</ele>
        <time>2022-07-24T18:01:48Z</time>
      </trkpt>
      <trkpt lat="47.1982" lon="5.90694">
        <ele>270.2</ele>
        <time>2022-07-24T18:01:49Z</time>
      </trkpt>
      <trkpt lat="47.19808" lon="5.9068">
        <ele>269.6</ele>
        <time>2022-07-24T18:01:51Z</time>
      </trkpt>
      <trkpt lat="47.19804" lon="5.90674">
        <ele>268.2</ele>
        <time>2022-07-24T18:01:52Z</time>
      </trkpt>
      <trkpt lat="47.19803" lon="5.90668">
        <ele>267.8</ele>
        <time>2022-07-24T18:01:53Z</time>
      </trkpt>
      <trkpt lat="47.19801" lon="5.90663">
        <ele>267.4</ele>
        <time>2022-07-24T18:01:54Z</time>
      </trkpt>
      <trkpt lat="47.19801" lon="5.90658">
        <ele>267</ele>
        <time>2022-07-24T18:01:55Z</time>
      </trkpt>
      <trkpt lat="47.198" lon="5.90653">
        <ele>266.8</ele>
        <time>2022-07-24T18:01:56Z</time>
      </trkpt>
      <trkpt lat="47.198" lon="5.90647">
        <ele>266.6</ele>
        <time>2022-07-24T18:01:57Z</time>
      </trkpt>
      <trkpt lat="47.19799" lon="5.90641">
        <ele>266.4</ele>
        <time>2022-07-24T18:01:58Z</time>
      </trkpt>
      <trkpt lat="47.198" lon="5.90637">
        <ele>266.2</ele>
        <time>2022-07-24T18:01:59Z</time>
      </trkpt>
      <trkpt lat="47.19801" lon="5.90633">
        <ele>266.2</ele>
        <time>2022-07-24T18:02:00Z</time>
      </trkpt>
      <trkpt lat="47.19801" lon="5.9063">
        <ele>265.6</ele>
        <time>2022-07-24T18:02:01Z</time>
      </trkpt>
      <trkpt lat="47.198" lon="5.90628">
        <ele>265.4</ele>
        <time>2022-07-24T18:02:02Z</time>
      </trkpt>
      <trkpt lat="47.19798" lon="5.90625">
        <ele>265.2</ele>
        <time>2022-07-24T18:02:03Z</time>
      </trkpt>
      <trkpt lat="47.19792" lon="5.9062">
        <ele>264.6</ele>
        <time>2022-07-24T18:02:05Z</time>
      </trkpt>
      <trkpt lat="47.19789" lon="5.90618">
        <ele>264.2</ele>
        <time>2022-07-24T18:02:06Z</time>
      </trkpt>
      <trkpt lat="47.19787" lon="5.90617">
        <ele>263.8</ele>
        <time>2022-07-24T18:02:07Z</time>
      </trkpt>
      <trkpt lat="47.19786" lon="5.90616">
        <ele>263.6</ele>
        <time>2022-07-24T18:02:08Z</time>
      </trkpt>
      <trkpt lat="47.19781" lon="5.9061">
        <ele>261.8</ele>
        <time>2022-07-24T18:03:30Z</time>
      </trkpt>
      <trkpt lat="47.1978" lon="5.90607">
        <ele>262</ele>
        <time>2022-07-24T18:03:31Z</time>
      </trkpt>
      <trkpt lat="47.1978" lon="5.90602">
        <ele>262</ele>
        <time>2022-07-24T18:03:32Z</time>
      </trkpt>
      <trkpt lat="47.19781" lon="5.90598">
        <ele>262</ele>
        <time>2022-07-24T18:03:33Z</time>
      </trkpt>
      <trkpt lat="47.19784" lon="5.9059">
        <ele>261.6</ele>
        <time>2022-07-24T18:03:35Z</time>
      </trkpt>
      <trkpt lat="47.19787" lon="5.90582">
        <ele>261.2</ele>
        <time>2022-07-24T18:03:37Z</time>
      </trkpt>
      <trkpt lat="47.1979" lon="5.90573">
        <ele>261</ele>
        <time>2022-07-24T18:03:39Z</time>
      </trkpt>
      <trkpt lat="47.19801" lon="5.90558">
        <ele>260.4</ele>
        <time>2022-07-24T18:03:43Z</time>
      </trkpt>
      <trkpt lat="47.19805" lon="5.90554">
        <ele>260.4</ele>
        <time>2022-07-24T18:03:44Z</time>
      </trkpt>
      <trkpt lat="47.19809" lon="5.90552">
        <ele>260.2</ele>
        <time>2022-07-24T18:03:45Z</time>
      </trkpt>
      <trkpt lat="47.19817" lon="5.90549">
        <ele>260</ele>
        <time>2022-07-24T18:03:47Z</time>
      </trkpt>
      <trkpt lat="47.19826" lon="5.90548">
        <ele>259.6</ele>
        <time>2022-07-24T18:03:49Z</time>
      </trkpt>
      <trkpt lat="47.1983" lon="5.90549">
        <ele>259.6</ele>
        <time>2022-07-24T18:03:50Z</time>
      </trkpt>
      <trkpt lat="47.19835" lon="5.9055">
        <ele>259.4</ele>
        <time>2022-07-24T18:03:51Z</time>
      </trkpt>
      <trkpt lat="47.19844" lon="5.90546">
        <ele>259.2</ele>
        <time>2022-07-24T18:03:53Z</time>
      </trkpt>
      <trkpt lat="47.19847" lon="5.90542">
        <ele>259</ele>
        <time>2022-07-24T18:03:54Z</time>
      </trkpt>
      <trkpt lat="47.19847" lon="5.90536">
        <ele>258.8</ele>
        <time>2022-07-24T18:03:55Z</time>
      </trkpt>
      <trkpt lat="47.19846" lon="5.90531">
        <ele>258.6</ele>
        <time>2022-07-24T18:03:56Z</time>
      </trkpt>
      <trkpt lat="47.19839" lon="5.90515">
        <ele>258.4</ele>
        <time>2022-07-24T18:03:59Z</time>
      </trkpt>
      <trkpt lat="47.19836" lon="5.9051">
        <ele>258.4</ele>
        <time>2022-07-24T18:04:00Z</time>
      </trkpt>
      <trkpt lat="47.19834" lon="5.90504">
        <ele>258.4</ele>
        <time>2022-07-24T18:04:01Z</time>
      </trkpt>
      <trkpt lat="47.19831" lon="5.9049">
        <ele>258.2</ele>
        <time>2022-07-24T18:04:03Z</time>
      </trkpt>
      <trkpt lat="47.1983" lon="5.90483">
        <ele>258.2</ele>
        <time>2022-07-24T18:04:04Z</time>
      </trkpt>
      <trkpt lat="47.19831" lon="5.90474">
        <ele>258</ele>
        <time>2022-07-24T18:04:05Z</time>
      </trkpt>
      <trkpt lat="47.19833" lon="5.90466">
        <ele>258</ele>
        <time>2022-07-24T18:04:06Z</time>
      </trkpt>
      <trkpt lat="47.19835" lon="5.90457">
        <ele>258</ele>
        <time>2022-07-24T18:04:07Z</time>
      </trkpt>
      <trkpt lat="47.19837" lon="5.90448">
        <ele>257.8</ele>
        <time>2022-07-24T18:04:08Z</time>
      </trkpt>
      <trkpt lat="47.1984" lon="5.90431">
        <ele>256.8</ele>
        <time>2022-07-24T18:04:10Z</time>
      </trkpt>
      <trkpt lat="47.19839" lon="5.90422">
        <ele>256.6</ele>
        <time>2022-07-24T18:04:11Z</time>
      </trkpt>
      <trkpt lat="47.19836" lon="5.90414">
        <ele>256.2</ele>
        <time>2022-07-24T18:04:12Z</time>
      </trkpt>
      <trkpt lat="47.19833" lon="5.90407">
        <ele>256</ele>
        <time>2022-07-24T18:04:13Z</time>
      </trkpt>
      <trkpt lat="47.19829" lon="5.90401">
        <ele>255.6</ele>
        <time>2022-07-24T18:04:14Z</time>
      </trkpt>
      <trkpt lat="47.19824" lon="5.90398">
        <ele>255.4</ele>
        <time>2022-07-24T18:04:15Z</time>
      </trkpt>
      <trkpt lat="47.19819" lon="5.90395">
        <ele>254.8</ele>
        <time>2022-07-24T18:04:16Z</time>
      </trkpt>
      <trkpt lat="47.19815" lon="5.90395">
        <ele>254.2</ele>
        <time>2022-07-24T18:04:17Z</time>
      </trkpt>
      <trkpt lat="47.19809" lon="5.90396">
        <ele>253.8</ele>
        <time>2022-07-24T18:04:18Z</time>
      </trkpt>
      <trkpt lat="47.19803" lon="5.90397">
        <ele>253.4</ele>
        <time>2022-07-24T18:04:19Z</time>
      </trkpt>
      <trkpt lat="47.19797" lon="5.90399">
        <ele>253.2</ele>
        <time>2022-07-24T18:04:20Z</time>
      </trkpt>
      <trkpt lat="47.19782" lon="5.90402">
        <ele>252</ele>
        <time>2022-07-24T18:04:22Z</time>
      </trkpt>
      <trkpt lat="47.19759" lon="5.90402">
        <ele>251</ele>
        <time>2022-07-24T18:04:25Z</time>
      </trkpt>
      <trkpt lat="47.19753" lon="5.90398">
        <ele>250.6</ele>
        <time>2022-07-24T18:04:26Z</time>
      </trkpt>
      <trkpt lat="47.19746" lon="5.90391">
        <ele>250.4</ele>
        <time>2022-07-24T18:04:27Z</time>
      </trkpt>
      <trkpt lat="47.19741" lon="5.90381">
        <ele>249.8</ele>
        <time>2022-07-24T18:04:28Z</time>
      </trkpt>
      <trkpt lat="47.19737" lon="5.90368">
        <ele>249</ele>
        <time>2022-07-24T18:04:29Z</time>
      </trkpt>
      <trkpt lat="47.19735" lon="5.90341">
        <ele>248.2</ele>
        <time>2022-07-24T18:04:31Z</time>
      </trkpt>
      <trkpt lat="47.19735" lon="5.90326">
        <ele>247.6</ele>
        <time>2022-07-24T18:04:32Z</time>
      </trkpt>
      <trkpt lat="47.19737" lon="5.90312">
        <ele>246.6</ele>
        <time>2022-07-24T18:04:33Z</time>
      </trkpt>
      <trkpt lat="47.19739" lon="5.90299">
        <ele>245.8</ele>
        <time>2022-07-24T18:04:34Z</time>
      </trkpt>
      <trkpt lat="47.19743" lon="5.90288">
        <ele>244.6</ele>
        <time>2022-07-24T18:04:35Z</time>
      </trkpt>
      <trkpt lat="47.19747" lon="5.90279">
        <ele>244</ele>
        <time>2022-07-24T18:04:36Z</time>
      </trkpt>
      <trkpt lat="47.1975" lon="5.9027">
        <ele>244</ele>
        <time>2022-07-24T18:04:37Z</time>
      </trkpt>
      <trkpt lat="47.19752" lon="5.90261">
        <ele>243.8</ele>
        <time>2022-07-24T18:04:38Z</time>
      </trkpt>
      <trkpt lat="47.19753" lon="5.90255">
        <ele>243.6</ele>
        <time>2022-07-24T18:04:39Z</time>
      </trkpt>
      <trkpt lat="47.19753" lon="5.90249">
        <ele>243.6</ele>
        <time>2022-07-24T18:04:40Z</time>
      </trkpt>
      <trkpt lat="47.19754" lon="5.90245">
        <ele>243.6</ele>
        <time>2022-07-24T18:04:41Z</time>
      </trkpt>
      <trkpt lat="47.19753" lon="5.90242">
        <ele>244</ele>
        <time>2022-07-24T18:04:42Z</time>
      </trkpt>
      <trkpt lat="47.19753" lon="5.90239">
        <ele>244</ele>
        <time>2022-07-24T18:04:43Z</time>
      </trkpt>
      <trkpt lat="47.19752" lon="5.90236">
        <ele>244.4</ele>
        <time>2022-07-24T18:04:44Z</time>
      </trkpt>
      <trkpt lat="47.19751" lon="5.90234">
        <ele>244.8</ele>
        <time>2022-07-24T18:04:45Z</time>
      </trkpt>
      <trkpt lat="47.1975" lon="5.90232">
        <ele>245</ele>
        <time>2022-07-24T18:04:46Z</time>
      </trkpt>
      <trkpt lat="47.19749" lon="5.9023">
        <ele>245.4</ele>
        <time>2022-07-24T18:04:47Z</time>
      </trkpt>
      <trkpt lat="47.19749" lon="5.90228">
        <ele>246</ele>
        <time>2022-07-24T18:04:48Z</time>
      </trkpt>
      <trkpt lat="47.19748" lon="5.90227">
        <ele>246.2</ele>
        <time>2022-07-24T18:04:49Z</time>
      </trkpt>
      <trkpt lat="47.19747" lon="5.90225">
        <ele>246.6</ele>
        <time>2022-07-24T18:04:50Z</time>
      </trkpt>
      <trkpt lat="47.19747" lon="5.90224">
        <ele>246.8</ele>
        <time>2022-07-24T18:04:51Z</time>
      </trkpt>
      <trkpt lat="47.19746" lon="5.90223">
        <ele>246.6</ele>
        <time>2022-07-24T18:04:52Z</time>
      </trkpt>
      <trkpt lat="47.19745" lon="5.9022">
        <ele>247</ele>
        <time>2022-07-24T18:04:54Z</time>
      </trkpt>
      <trkpt lat="47.19743" lon="5.90217">
        <ele>247.2</ele>
        <time>2022-07-24T18:04:55Z</time>
      </trkpt>
      <trkpt lat="47.19736" lon="5.90202">
        <ele>247.6</ele>
        <time>2022-07-24T18:05:00Z</time>
      </trkpt>
      <trkpt lat="47.19735" lon="5.902">
        <ele>247.6</ele>
        <time>2022-07-24T18:05:01Z</time>
      </trkpt>
      <trkpt lat="47.19734" lon="5.90197">
        <ele>248</ele>
        <time>2022-07-24T18:05:02Z</time>
      </trkpt>
      <trkpt lat="47.19733" lon="5.90194">
        <ele>248</ele>
        <time>2022-07-24T18:05:03Z</time>
      </trkpt>
      <trkpt lat="47.19732" lon="5.90192">
        <ele>248.4</ele>
        <time>2022-07-24T18:05:04Z</time>
      </trkpt>
      <trkpt lat="47.19728" lon="5.90184">
        <ele>249</ele>
        <time>2022-07-24T18:05:07Z</time>
      </trkpt>
      <trkpt lat="47.19726" lon="5.90181">
        <ele>249</ele>
        <time>2022-07-24T18:05:08Z</time>
      </trkpt>
      <trkpt lat="47.19725" lon="5.90179">
        <ele>249.4</ele>
        <time>2022-07-24T18:05:09Z</time>
      </trkpt>
      <trkpt lat="47.19724" lon="5.90176">
        <ele>249.6</ele>
        <time>2022-07-24T18:05:10Z</time>
      </trkpt>
      <trkpt lat="47.19723" lon="5.90174">
        <ele>249.8</ele>
        <time>2022-07-24T18:05:11Z</time>
      </trkpt>
      <trkpt lat="47.19722" lon="5.90171">
        <ele>249.8</ele>
        <time>2022-07-24T18:05:12Z</time>
      </trkpt>
      <trkpt lat="47.19721" lon="5.90168">
        <ele>250</ele>
        <time>2022-07-24T18:05:13Z</time>
      </trkpt>
      <trkpt lat="47.1972" lon="5.90166">
        <ele>250.2</ele>
        <time>2022-07-24T18:05:14Z</time>
      </trkpt>
      <trkpt lat="47.1972" lon="5.90163">
        <ele>250.4</ele>
        <time>2022-07-24T18:05:15Z</time>
      </trkpt>
      <trkpt lat="47.19719" lon="5.90161">
        <ele>250.6</ele>
        <time>2022-07-24T18:05:16Z</time>
      </trkpt>
      <trkpt lat="47.19718" lon="5.90158">
        <ele>250.8</ele>
        <time>2022-07-24T18:05:17Z</time>
      </trkpt>
      <trkpt lat="47.19717" lon="5.90156">
        <ele>250.8</ele>
        <time>2022-07-24T18:05:18Z</time>
      </trkpt>
      <trkpt lat="47.19716" lon="5.90153">
        <ele>251.2</ele>
        <time>2022-07-24T18:05:19Z</time>
      </trkpt>
      <trkpt lat="47.19715" lon="5.9015">
        <ele>251.2</ele>
        <time>2022-07-24T18:05:20Z</time>
      </trkpt>
      <trkpt lat="47.19715" lon="5.90148">
        <ele>251.4</ele>
        <time>2022-07-24T18:05:21Z</time>
      </trkpt>
      <trkpt lat="47.19714" lon="5.90145">
        <ele>251.4</ele>
        <time>2022-07-24T18:05:22Z</time>
      </trkpt>
      <trkpt lat="47.19713" lon="5.90143">
        <ele>251.8</ele>
        <time>2022-07-24T18:05:23Z</time>
      </trkpt>
      <trkpt lat="47.19712" lon="5.9014">
        <ele>252</ele>
        <time>2022-07-24T18:05:24Z</time>
      </trkpt>
      <trkpt lat="47.19711" lon="5.90138">
        <ele>252.4</ele>
        <time>2022-07-24T18:05:25Z</time>
      </trkpt>
      <trkpt lat="47.19711" lon="5.90136">
        <ele>252.6</ele>
        <time>2022-07-24T18:05:26Z</time>
      </trkpt>
      <trkpt lat="47.1971" lon="5.90134">
        <ele>252.8</ele>
        <time>2022-07-24T18:05:27Z</time>
      </trkpt>
      <trkpt lat="47.1971" lon="5.90132">
        <ele>252.8</ele>
        <time>2022-07-24T18:05:28Z</time>
      </trkpt>
      <trkpt lat="47.1971" lon="5.9013">
        <ele>253</ele>
        <time>2022-07-24T18:05:29Z</time>
      </trkpt>
      <trkpt lat="47.1971" lon="5.90127">
        <ele>253.2</ele>
        <time>2022-07-24T18:05:30Z</time>
      </trkpt>
      <trkpt lat="47.19709" lon="5.90125">
        <ele>253.4</ele>
        <time>2022-07-24T18:05:31Z</time>
      </trkpt>
      <trkpt lat="47.19708" lon="5.90123">
        <ele>253.6</ele>
        <time>2022-07-24T18:05:32Z</time>
      </trkpt>
      <trkpt lat="47.19708" lon="5.90121">
        <ele>253.8</ele>
        <time>2022-07-24T18:05:33Z</time>
      </trkpt>
      <trkpt lat="47.19707" lon="5.90118">
        <ele>254</ele>
        <time>2022-07-24T18:05:34Z</time>
      </trkpt>
      <trkpt lat="47.19707" lon="5.90116">
        <ele>254.2</ele>
        <time>2022-07-24T18:05:35Z</time>
      </trkpt>
      <trkpt lat="47.19707" lon="5.90113">
        <ele>254.4</ele>
        <time>2022-07-24T18:05:36Z</time>
      </trkpt>
      <trkpt lat="47.19707" lon="5.9011">
        <ele>254.6</ele>
        <time>2022-07-24T18:05:37Z</time>
      </trkpt>
      <trkpt lat="47.19708" lon="5.90108">
        <ele>254.8</ele>
        <time>2022-07-24T18:05:38Z</time>
      </trkpt>
      <trkpt lat="47.19708" lon="5.90105">
        <ele>255</ele>
        <time>2022-07-24T18:05:39Z</time>
      </trkpt>
      <trkpt lat="47.19708" lon="5.90101">
        <ele>255.2</ele>
        <time>2022-07-24T18:05:40Z</time>
      </trkpt>
      <trkpt lat="47.19708" lon="5.90097">
        <ele>255.4</ele>
        <time>2022-07-24T18:05:41Z</time>
      </trkpt>
      <trkpt lat="47.19708" lon="5.90094">
        <ele>255.6</ele>
        <time>2022-07-24T18:05:42Z</time>
      </trkpt>
      <trkpt lat="47.19708" lon="5.9009">
        <ele>255.6</ele>
        <time>2022-07-24T18:05:43Z</time>
      </trkpt>
      <trkpt lat="47.19707" lon="5.90087">
        <ele>255.8</ele>
        <time>2022-07-24T18:05:44Z</time>
      </trkpt>
      <trkpt lat="47.19707" lon="5.90084">
        <ele>256.2</ele>
        <time>2022-07-24T18:05:45Z</time>
      </trkpt>
      <trkpt lat="47.19706" lon="5.90081">
        <ele>256.4</ele>
        <time>2022-07-24T18:05:46Z</time>
      </trkpt>
      <trkpt lat="47.19705" lon="5.90078">
        <ele>256.8</ele>
        <time>2022-07-24T18:05:47Z</time>
      </trkpt>
      <trkpt lat="47.19704" lon="5.90075">
        <ele>257</ele>
        <time>2022-07-24T18:05:48Z</time>
      </trkpt>
      <trkpt lat="47.19704" lon="5.90073">
        <ele>257.2</ele>
        <time>2022-07-24T18:05:49Z</time>
      </trkpt>
      <trkpt lat="47.19703" lon="5.9007">
        <ele>257.2</ele>
        <time>2022-07-24T18:05:50Z</time>
      </trkpt>
      <trkpt lat="47.19701" lon="5.90067">
        <ele>257.4</ele>
        <time>2022-07-24T18:05:51Z</time>
      </trkpt>
      <trkpt lat="47.197" lon="5.90064">
        <ele>257.6</ele>
        <time>2022-07-24T18:05:52Z</time>
      </trkpt>
      <trkpt lat="47.19699" lon="5.90061">
        <ele>257.6</ele>
        <time>2022-07-24T18:05:53Z</time>
      </trkpt>
      <trkpt lat="47.19698" lon="5.90058">
        <ele>257.8</ele>
        <time>2022-07-24T18:05:54Z</time>
      </trkpt>
      <trkpt lat="47.19698" lon="5.90055">
        <ele>257.8</ele>
        <time>2022-07-24T18:05:55Z</time>
      </trkpt>
      <trkpt lat="47.19697" lon="5.90052">
        <ele>258</ele>
        <time>2022-07-24T18:05:56Z</time>
      </trkpt>
      <trkpt lat="47.19696" lon="5.90048">
        <ele>258</ele>
        <time>2022-07-24T18:05:57Z</time>
      </trkpt>
      <trkpt lat="47.19696" lon="5.90045">
        <ele>258.2</ele>
        <time>2022-07-24T18:05:58Z</time>
      </trkpt>
      <trkpt lat="47.19696" lon="5.90041">
        <ele>258.2</ele>
        <time>2022-07-24T18:05:59Z</time>
      </trkpt>
      <trkpt lat="47.19695" lon="5.90038">
        <ele>258.4</ele>
        <time>2022-07-24T18:06:00Z</time>
      </trkpt>
      <trkpt lat="47.19695" lon="5.90034">
        <ele>258.4</ele>
        <time>2022-07-24T18:06:01Z</time>
      </trkpt>
      <trkpt lat="47.19695" lon="5.9003">
        <ele>258.4</ele>
        <time>2022-07-24T18:06:02Z</time>
      </trkpt>
      <trkpt lat="47.19694" lon="5.90026">
        <ele>258.6</ele>
        <time>2022-07-24T18:06:03Z</time>
      </trkpt>
      <trkpt lat="47.19694" lon="5.90022">
        <ele>258.6</ele>
        <time>2022-07-24T18:06:04Z</time>
      </trkpt>
      <trkpt lat="47.19694" lon="5.90018">
        <ele>258.6</ele>
        <time>2022-07-24T18:06:05Z</time>
      </trkpt>
      <trkpt lat="47.19693" lon="5.90014">
        <ele>258.8</ele>
        <time>2022-07-24T18:06:06Z</time>
      </trkpt>
      <trkpt lat="47.19693" lon="5.90009">
        <ele>258.8</ele>
        <time>2022-07-24T18:06:07Z</time>
      </trkpt>
      <trkpt lat="47.19692" lon="5.90005">
        <ele>258.8</ele>
        <time>2022-07-24T18:06:08Z</time>
      </trkpt>
      <trkpt lat="47.19692" lon="5.9">
        <ele>258.8</ele>
        <time>2022-07-24T18:06:09Z</time>
      </trkpt>
      <trkpt lat="47.19692" lon="5.89996">
        <ele>258.8</ele>
        <time>2022-07-24T18:06:10Z</time>
      </trkpt>
      <trkpt lat="47.19691" lon="5.89992">
        <ele>258.8</ele>
        <time>2022-07-24T18:06:11Z</time>
      </trkpt>
      <trkpt lat="47.19691" lon="5.89988">
        <ele>259</ele>
        <time>2022-07-24T18:06:12Z</time>
      </trkpt>
      <trkpt lat="47.19691" lon="5.89984">
        <ele>259</ele>
        <time>2022-07-24T18:06:13Z</time>
      </trkpt>
      <trkpt lat="47.19691" lon="5.8998">
        <ele>259</ele>
        <time>2022-07-24T18:06:14Z</time>
      </trkpt>
      <trkpt lat="47.19691" lon="5.89976">
        <ele>259</ele>
        <time>2022-07-24T18:06:15Z</time>
      </trkpt>
      <trkpt lat="47.19691" lon="5.89972">
        <ele>259</ele>
        <time>2022-07-24T18:06:16Z</time>
      </trkpt>
      <trkpt lat="47.19691" lon="5.89968">
        <ele>259</ele>
        <time>2022-07-24T18:06:17Z</time>
      </trkpt>
      <trkpt lat="47.19691" lon="5.89955">
        <ele>259</ele>
        <time>2022-07-24T18:06:20Z</time>
      </trkpt>
      <trkpt lat="47.19691" lon="5.8995">
        <ele>259</ele>
        <time>2022-07-24T18:06:21Z</time>
      </trkpt>
      <trkpt lat="47.19684" lon="5.8993">
        <ele>259</ele>
        <time>2022-07-24T18:06:25Z</time>
      </trkpt>
      <trkpt lat="47.1968" lon="5.8992">
        <ele>259</ele>
        <time>2022-07-24T18:06:27Z</time>
      </trkpt>
      <trkpt lat="47.19678" lon="5.89916">
        <ele>259</ele>
        <time>2022-07-24T18:06:28Z</time>
      </trkpt>
      <trkpt lat="47.19676" lon="5.89912">
        <ele>259</ele>
        <time>2022-07-24T18:06:29Z</time>
      </trkpt>
      <trkpt lat="47.19674" lon="5.89908">
        <ele>259</ele>
        <time>2022-07-24T18:06:30Z</time>
      </trkpt>
      <trkpt lat="47.19672" lon="5.89905">
        <ele>259</ele>
        <time>2022-07-24T18:06:31Z</time>
      </trkpt>
      <trkpt lat="47.1967" lon="5.89901">
        <ele>259</ele>
        <time>2022-07-24T18:06:32Z</time>
      </trkpt>
      <trkpt lat="47.19669" lon="5.89897">
        <ele>259</ele>
        <time>2022-07-24T18:06:33Z</time>
      </trkpt>
      <trkpt lat="47.19667" lon="5.89893">
        <ele>259</ele>
        <time>2022-07-24T18:06:34Z</time>
      </trkpt>
      <trkpt lat="47.19665" lon="5.89889">
        <ele>259</ele>
        <time>2022-07-24T18:06:35Z</time>
      </trkpt>
      <trkpt lat="47.19663" lon="5.89885">
        <ele>259</ele>
        <time>2022-07-24T18:06:36Z</time>
      </trkpt>
      <trkpt lat="47.19662" lon="5.8988">
        <ele>259</ele>
        <time>2022-07-24T18:06:37Z</time>
      </trkpt>
      <trkpt lat="47.19653" lon="5.89855">
        <ele>259.2</ele>
        <time>2022-07-24T18:06:42Z</time>
      </trkpt>
      <trkpt lat="47.19647" lon="5.89815">
        <ele>259.2</ele>
        <time>2022-07-24T18:06:49Z</time>
      </trkpt>
      <trkpt lat="47.19645" lon="5.89796">
        <ele>259.2</ele>
        <time>2022-07-24T18:06:52Z</time>
      </trkpt>
      <trkpt lat="47.19644" lon="5.89763">
        <ele>259.4</ele>
        <time>2022-07-24T18:06:57Z</time>
      </trkpt>
      <trkpt lat="47.19644" lon="5.89757">
        <ele>259.4</ele>
        <time>2022-07-24T18:06:58Z</time>
      </trkpt>
      <trkpt lat="47.19643" lon="5.89724">
        <ele>259.6</ele>
        <time>2022-07-24T18:07:03Z</time>
      </trkpt>
      <trkpt lat="47.19643" lon="5.89719">
        <ele>259.6</ele>
        <time>2022-07-24T18:07:04Z</time>
      </trkpt>
      <trkpt lat="47.19642" lon="5.89714">
        <ele>259.6</ele>
        <time>2022-07-24T18:07:05Z</time>
      </trkpt>
      <trkpt lat="47.19642" lon="5.89708">
        <ele>259.6</ele>
        <time>2022-07-24T18:07:06Z</time>
      </trkpt>
      <trkpt lat="47.19641" lon="5.89703">
        <ele>259.6</ele>
        <time>2022-07-24T18:07:07Z</time>
      </trkpt>
      <trkpt lat="47.1964" lon="5.89689">
        <ele>259.6</ele>
        <time>2022-07-24T18:07:10Z</time>
      </trkpt>
      <trkpt lat="47.19639" lon="5.89684">
        <ele>259.6</ele>
        <time>2022-07-24T18:07:11Z</time>
      </trkpt>
      <trkpt lat="47.19639" lon="5.89681">
        <ele>259.8</ele>
        <time>2022-07-24T18:07:12Z</time>
      </trkpt>
      <trkpt lat="47.19638" lon="5.89677">
        <ele>259.8</ele>
        <time>2022-07-24T18:07:13Z</time>
      </trkpt>
      <trkpt lat="47.19638" lon="5.89674">
        <ele>260</ele>
        <time>2022-07-24T18:07:14Z</time>
      </trkpt>
      <trkpt lat="47.19639" lon="5.89671">
        <ele>260.2</ele>
        <time>2022-07-24T18:07:15Z</time>
      </trkpt>
      <trkpt lat="47.1964" lon="5.89668">
        <ele>260.2</ele>
        <time>2022-07-24T18:07:16Z</time>
      </trkpt>
      <trkpt lat="47.19641" lon="5.89666">
        <ele>260.2</ele>
        <time>2022-07-24T18:07:17Z</time>
      </trkpt>
      <trkpt lat="47.19643" lon="5.89662">
        <ele>260.4</ele>
        <time>2022-07-24T18:07:18Z</time>
      </trkpt>
      <trkpt lat="47.19645" lon="5.89659">
        <ele>260.4</ele>
        <time>2022-07-24T18:07:19Z</time>
      </trkpt>
      <trkpt lat="47.19646" lon="5.89655">
        <ele>260.6</ele>
        <time>2022-07-24T18:07:20Z</time>
      </trkpt>
      <trkpt lat="47.1965" lon="5.89633">
        <ele>260.8</ele>
        <time>2022-07-24T18:07:25Z</time>
      </trkpt>
      <trkpt lat="47.19661" lon="5.89598">
        <ele>261.2</ele>
        <time>2022-07-24T18:07:32Z</time>
      </trkpt>
      <trkpt lat="47.19661" lon="5.89592">
        <ele>261.2</ele>
        <time>2022-07-24T18:07:33Z</time>
      </trkpt>
      <trkpt lat="47.19657" lon="5.89557">
        <ele>261.4</ele>
        <time>2022-07-24T18:07:39Z</time>
      </trkpt>
      <trkpt lat="47.19655" lon="5.89546">
        <ele>261.6</ele>
        <time>2022-07-24T18:07:41Z</time>
      </trkpt>
      <trkpt lat="47.19649" lon="5.89518">
        <ele>261.8</ele>
        <time>2022-07-24T18:07:46Z</time>
      </trkpt>
      <trkpt lat="47.19648" lon="5.89513">
        <ele>261.8</ele>
        <time>2022-07-24T18:07:47Z</time>
      </trkpt>
      <trkpt lat="47.19645" lon="5.89502">
        <ele>262</ele>
        <time>2022-07-24T18:07:49Z</time>
      </trkpt>
      <trkpt lat="47.19641" lon="5.89493">
        <ele>262.4</ele>
        <time>2022-07-24T18:07:51Z</time>
      </trkpt>
      <trkpt lat="47.19639" lon="5.89489">
        <ele>262.4</ele>
        <time>2022-07-24T18:07:52Z</time>
      </trkpt>
      <trkpt lat="47.19638" lon="5.89485">
        <ele>262.6</ele>
        <time>2022-07-24T18:07:53Z</time>
      </trkpt>
      <trkpt lat="47.19636" lon="5.8948">
        <ele>262.8</ele>
        <time>2022-07-24T18:07:54Z</time>
      </trkpt>
      <trkpt lat="47.19635" lon="5.89475">
        <ele>263.2</ele>
        <time>2022-07-24T18:07:55Z</time>
      </trkpt>
      <trkpt lat="47.19633" lon="5.8947">
        <ele>263.2</ele>
        <time>2022-07-24T18:07:56Z</time>
      </trkpt>
      <trkpt lat="47.19631" lon="5.89466">
        <ele>263.4</ele>
        <time>2022-07-24T18:07:57Z</time>
      </trkpt>
      <trkpt lat="47.19625" lon="5.89446">
        <ele>263.6</ele>
        <time>2022-07-24T18:08:01Z</time>
      </trkpt>
      <trkpt lat="47.19619" lon="5.89425">
        <ele>264.2</ele>
        <time>2022-07-24T18:08:05Z</time>
      </trkpt>
      <trkpt lat="47.19618" lon="5.8942">
        <ele>264.4</ele>
        <time>2022-07-24T18:08:06Z</time>
      </trkpt>
      <trkpt lat="47.19617" lon="5.89415">
        <ele>264.4</ele>
        <time>2022-07-24T18:08:07Z</time>
      </trkpt>
      <trkpt lat="47.19615" lon="5.8941">
        <ele>264.6</ele>
        <time>2022-07-24T18:08:08Z</time>
      </trkpt>
      <trkpt lat="47.19614" lon="5.89405">
        <ele>264.6</ele>
        <time>2022-07-24T18:08:09Z</time>
      </trkpt>
      <trkpt lat="47.19612" lon="5.89401">
        <ele>264.6</ele>
        <time>2022-07-24T18:08:10Z</time>
      </trkpt>
      <trkpt lat="47.1961" lon="5.89395">
        <ele>264.6</ele>
        <time>2022-07-24T18:08:11Z</time>
      </trkpt>
      <trkpt lat="47.19608" lon="5.8939">
        <ele>264.8</ele>
        <time>2022-07-24T18:08:12Z</time>
      </trkpt>
      <trkpt lat="47.19606" lon="5.89385">
        <ele>264.8</ele>
        <time>2022-07-24T18:08:13Z</time>
      </trkpt>
      <trkpt lat="47.19604" lon="5.89379">
        <ele>264.8</ele>
        <time>2022-07-24T18:08:14Z</time>
      </trkpt>
      <trkpt lat="47.19602" lon="5.89373">
        <ele>264.8</ele>
        <time>2022-07-24T18:08:15Z</time>
      </trkpt>
      <trkpt lat="47.19601" lon="5.89368">
        <ele>264.8</ele>
        <time>2022-07-24T18:08:16Z</time>
      </trkpt>
      <trkpt lat="47.19599" lon="5.89363">
        <ele>264.8</ele>
        <time>2022-07-24T18:08:17Z</time>
      </trkpt>
      <trkpt lat="47.19594" lon="5.89348">
        <ele>265</ele>
        <time>2022-07-24T18:08:20Z</time>
      </trkpt>
      <trkpt lat="47.1959" lon="5.89338">
        <ele>265.4</ele>
        <time>2022-07-24T18:08:22Z</time>
      </trkpt>
      <trkpt lat="47.19589" lon="5.89333">
        <ele>265.4</ele>
        <time>2022-07-24T18:08:23Z</time>
      </trkpt>
      <trkpt lat="47.19587" lon="5.89329">
        <ele>265.4</ele>
        <time>2022-07-24T18:08:24Z</time>
      </trkpt>
      <trkpt lat="47.19586" lon="5.89324">
        <ele>265.4</ele>
        <time>2022-07-24T18:08:25Z</time>
      </trkpt>
      <trkpt lat="47.19584" lon="5.89316">
        <ele>266.2</ele>
        <time>2022-07-24T18:08:27Z</time>
      </trkpt>
      <trkpt lat="47.19583" lon="5.89312">
        <ele>266.2</ele>
        <time>2022-07-24T18:08:28Z</time>
      </trkpt>
      <trkpt lat="47.19582" lon="5.89308">
        <ele>266.2</ele>
        <time>2022-07-24T18:08:29Z</time>
      </trkpt>
      <trkpt lat="47.19582" lon="5.89303">
        <ele>266.6</ele>
        <time>2022-07-24T18:08:30Z</time>
      </trkpt>
      <trkpt lat="47.19581" lon="5.89298">
        <ele>266.8</ele>
        <time>2022-07-24T18:08:31Z</time>
      </trkpt>
      <trkpt lat="47.1958" lon="5.89294">
        <ele>266.8</ele>
        <time>2022-07-24T18:08:32Z</time>
      </trkpt>
      <trkpt lat="47.19579" lon="5.89289">
        <ele>266.8</ele>
        <time>2022-07-24T18:08:33Z</time>
      </trkpt>
      <trkpt lat="47.19578" lon="5.89284">
        <ele>267.2</ele>
        <time>2022-07-24T18:08:34Z</time>
      </trkpt>
      <trkpt lat="47.19577" lon="5.89275">
        <ele>267.4</ele>
        <time>2022-07-24T18:08:36Z</time>
      </trkpt>
      <trkpt lat="47.19577" lon="5.89271">
        <ele>267.4</ele>
        <time>2022-07-24T18:08:37Z</time>
      </trkpt>
      <trkpt lat="47.19577" lon="5.89267">
        <ele>267.4</ele>
        <time>2022-07-24T18:08:38Z</time>
      </trkpt>
      <trkpt lat="47.19576" lon="5.89262">
        <ele>267.6</ele>
        <time>2022-07-24T18:08:39Z</time>
      </trkpt>
      <trkpt lat="47.19575" lon="5.89257">
        <ele>267.6</ele>
        <time>2022-07-24T18:08:40Z</time>
      </trkpt>
      <trkpt lat="47.19575" lon="5.89253">
        <ele>268</ele>
        <time>2022-07-24T18:08:41Z</time>
      </trkpt>
      <trkpt lat="47.19574" lon="5.89248">
        <ele>268</ele>
        <time>2022-07-24T18:08:42Z</time>
      </trkpt>
      <trkpt lat="47.19574" lon="5.89245">
        <ele>268.2</ele>
        <time>2022-07-24T18:08:43Z</time>
      </trkpt>
      <trkpt lat="47.19573" lon="5.89241">
        <ele>268.2</ele>
        <time>2022-07-24T18:08:44Z</time>
      </trkpt>
      <trkpt lat="47.19573" lon="5.89238">
        <ele>268.2</ele>
        <time>2022-07-24T18:08:45Z</time>
      </trkpt>
      <trkpt lat="47.19572" lon="5.89235">
        <ele>268.6</ele>
        <time>2022-07-24T18:08:46Z</time>
      </trkpt>
      <trkpt lat="47.19572" lon="5.89231">
        <ele>268.6</ele>
        <time>2022-07-24T18:08:47Z</time>
      </trkpt>
      <trkpt lat="47.19572" lon="5.89227">
        <ele>268.6</ele>
        <time>2022-07-24T18:08:48Z</time>
      </trkpt>
      <trkpt lat="47.19572" lon="5.89223">
        <ele>268.6</ele>
        <time>2022-07-24T18:08:49Z</time>
      </trkpt>
      <trkpt lat="47.19571" lon="5.89219">
        <ele>268.8</ele>
        <time>2022-07-24T18:08:50Z</time>
      </trkpt>
      <trkpt lat="47.19571" lon="5.89215">
        <ele>268.8</ele>
        <time>2022-07-24T18:08:51Z</time>
      </trkpt>
      <trkpt lat="47.19571" lon="5.89211">
        <ele>268.8</ele>
        <time>2022-07-24T18:08:52Z</time>
      </trkpt>
      <trkpt lat="47.19571" lon="5.89207">
        <ele>268.8</ele>
        <time>2022-07-24T18:08:53Z</time>
      </trkpt>
      <trkpt lat="47.1957" lon="5.89202">
        <ele>268.8</ele>
        <time>2022-07-24T18:08:54Z</time>
      </trkpt>
      <trkpt lat="47.1957" lon="5.89198">
        <ele>268.8</ele>
        <time>2022-07-24T18:08:55Z</time>
      </trkpt>
      <trkpt lat="47.19569" lon="5.89193">
        <ele>268.8</ele>
        <time>2022-07-24T18:08:56Z</time>
      </trkpt>
      <trkpt lat="47.19569" lon="5.89179">
        <ele>268.6</ele>
        <time>2022-07-24T18:08:59Z</time>
      </trkpt>
      <trkpt lat="47.19567" lon="5.89148">
        <ele>268.2</ele>
        <time>2022-07-24T18:09:06Z</time>
      </trkpt>
      <trkpt lat="47.19567" lon="5.89144">
        <ele>268.2</ele>
        <time>2022-07-24T18:09:07Z</time>
      </trkpt>
      <trkpt lat="47.19567" lon="5.8914">
        <ele>268.2</ele>
        <time>2022-07-24T18:09:08Z</time>
      </trkpt>
      <trkpt lat="47.19567" lon="5.89136">
        <ele>268.2</ele>
        <time>2022-07-24T18:09:09Z</time>
      </trkpt>
      <trkpt lat="47.19567" lon="5.89132">
        <ele>268.2</ele>
        <time>2022-07-24T18:09:10Z</time>
      </trkpt>
      <trkpt lat="47.19567" lon="5.89128">
        <ele>268.2</ele>
        <time>2022-07-24T18:09:11Z</time>
      </trkpt>
      <trkpt lat="47.19567" lon="5.89124">
        <ele>268.2</ele>
        <time>2022-07-24T18:09:12Z</time>
      </trkpt>
      <trkpt lat="47.19566" lon="5.8912">
        <ele>268.2</ele>
        <time>2022-07-24T18:09:13Z</time>
      </trkpt>
      <trkpt lat="47.19566" lon="5.89117">
        <ele>268.2</ele>
        <time>2022-07-24T18:09:14Z</time>
      </trkpt>
      <trkpt lat="47.19565" lon="5.89113">
        <ele>268.2</ele>
        <time>2022-07-24T18:09:15Z</time>
      </trkpt>
      <trkpt lat="47.19564" lon="5.89109">
        <ele>268.2</ele>
        <time>2022-07-24T18:09:16Z</time>
      </trkpt>
      <trkpt lat="47.1956" lon="5.89095">
        <ele>268.2</ele>
        <time>2022-07-24T18:09:20Z</time>
      </trkpt>
      <trkpt lat="47.19559" lon="5.89091">
        <ele>268.2</ele>
        <time>2022-07-24T18:09:21Z</time>
      </trkpt>
      <trkpt lat="47.19553" lon="5.89074">
        <ele>268.2</ele>
        <time>2022-07-24T18:09:26Z</time>
      </trkpt>
      <trkpt lat="47.19551" lon="5.89071">
        <ele>268.2</ele>
        <time>2022-07-24T18:09:27Z</time>
      </trkpt>
      <trkpt lat="47.19549" lon="5.89068">
        <ele>268.2</ele>
        <time>2022-07-24T18:09:28Z</time>
      </trkpt>
      <trkpt lat="47.19547" lon="5.89065">
        <ele>268.2</ele>
        <time>2022-07-24T18:09:29Z</time>
      </trkpt>
      <trkpt lat="47.19545" lon="5.89061">
        <ele>268.4</ele>
        <time>2022-07-24T18:09:30Z</time>
      </trkpt>
      <trkpt lat="47.19544" lon="5.89059">
        <ele>268.4</ele>
        <time>2022-07-24T18:09:31Z</time>
      </trkpt>
      <trkpt lat="47.19542" lon="5.89057">
        <ele>268.4</ele>
        <time>2022-07-24T18:09:32Z</time>
      </trkpt>
      <trkpt lat="47.19537" lon="5.89051">
        <ele>268.6</ele>
        <time>2022-07-24T18:09:34Z</time>
      </trkpt>
      <trkpt lat="47.19535" lon="5.89048">
        <ele>268.8</ele>
        <time>2022-07-24T18:09:35Z</time>
      </trkpt>
      <trkpt lat="47.19533" lon="5.89042">
        <ele>269</ele>
        <time>2022-07-24T18:09:36Z</time>
      </trkpt>
      <trkpt lat="47.19517" lon="5.89019">
        <ele>269.6</ele>
        <time>2022-07-24T18:09:43Z</time>
      </trkpt>
      <trkpt lat="47.19496" lon="5.88997">
        <ele>270.2</ele>
        <time>2022-07-24T18:09:49Z</time>
      </trkpt>
      <trkpt lat="47.19494" lon="5.88995">
        <ele>270.2</ele>
        <time>2022-07-24T18:09:50Z</time>
      </trkpt>
      <trkpt lat="47.19492" lon="5.88991">
        <ele>270.2</ele>
        <time>2022-07-24T18:09:51Z</time>
      </trkpt>
      <trkpt lat="47.1949" lon="5.88988">
        <ele>270.2</ele>
        <time>2022-07-24T18:09:52Z</time>
      </trkpt>
      <trkpt lat="47.19487" lon="5.88981">
        <ele>270.2</ele>
        <time>2022-07-24T18:09:54Z</time>
      </trkpt>
      <trkpt lat="47.19486" lon="5.88978">
        <ele>270.2</ele>
        <time>2022-07-24T18:09:55Z</time>
      </trkpt>
      <trkpt lat="47.19478" lon="5.88961">
        <ele>270.4</ele>
        <time>2022-07-24T18:09:58Z</time>
      </trkpt>
      <trkpt lat="47.19473" lon="5.88955">
        <ele>270.4</ele>
        <time>2022-07-24T18:09:59Z</time>
      </trkpt>
      <trkpt lat="47.1947" lon="5.88949">
        <ele>270.2</ele>
        <time>2022-07-24T18:10:00Z</time>
      </trkpt>
      <trkpt lat="47.19461" lon="5.88938">
        <ele>269.8</ele>
        <time>2022-07-24T18:10:03Z</time>
      </trkpt>
      <trkpt lat="47.19459" lon="5.88932">
        <ele>269.8</ele>
        <time>2022-07-24T18:10:04Z</time>
      </trkpt>
      <trkpt lat="47.19454" lon="5.88926">
        <ele>269.8</ele>
        <time>2022-07-24T18:10:05Z</time>
      </trkpt>
      <trkpt lat="47.19451" lon="5.88922">
        <ele>269.8</ele>
        <time>2022-07-24T18:10:06Z</time>
      </trkpt>
      <trkpt lat="47.19449" lon="5.88919">
        <ele>269.8</ele>
        <time>2022-07-24T18:10:07Z</time>
      </trkpt>
      <trkpt lat="47.19446" lon="5.88915">
        <ele>269.8</ele>
        <time>2022-07-24T18:10:08Z</time>
      </trkpt>
      <trkpt lat="47.19445" lon="5.8891">
        <ele>269.8</ele>
        <time>2022-07-24T18:10:09Z</time>
      </trkpt>
      <trkpt lat="47.19443" lon="5.88905">
        <ele>269.6</ele>
        <time>2022-07-24T18:10:10Z</time>
      </trkpt>
      <trkpt lat="47.19441" lon="5.88902">
        <ele>269.6</ele>
        <time>2022-07-24T18:10:11Z</time>
      </trkpt>
      <trkpt lat="47.19438" lon="5.88897">
        <ele>269.4</ele>
        <time>2022-07-24T18:10:12Z</time>
      </trkpt>
      <trkpt lat="47.19432" lon="5.8889">
        <ele>269.2</ele>
        <time>2022-07-24T18:10:15Z</time>
      </trkpt>
      <trkpt lat="47.1943" lon="5.88888">
        <ele>269.2</ele>
        <time>2022-07-24T18:10:16Z</time>
      </trkpt>
      <trkpt lat="47.19429" lon="5.88885">
        <ele>269.4</ele>
        <time>2022-07-24T18:10:17Z</time>
      </trkpt>
      <trkpt lat="47.19429" lon="5.88882">
        <ele>269.6</ele>
        <time>2022-07-24T18:10:18Z</time>
      </trkpt>
      <trkpt lat="47.19428" lon="5.88879">
        <ele>269.8</ele>
        <time>2022-07-24T18:10:19Z</time>
      </trkpt>
      <trkpt lat="47.19428" lon="5.88875">
        <ele>270</ele>
        <time>2022-07-24T18:10:20Z</time>
      </trkpt>
      <trkpt lat="47.19428" lon="5.88872">
        <ele>270.2</ele>
        <time>2022-07-24T18:10:21Z</time>
      </trkpt>
      <trkpt lat="47.19427" lon="5.88869">
        <ele>270.4</ele>
        <time>2022-07-24T18:10:22Z</time>
      </trkpt>
      <trkpt lat="47.19427" lon="5.88865">
        <ele>270.6</ele>
        <time>2022-07-24T18:10:23Z</time>
      </trkpt>
      <trkpt lat="47.19426" lon="5.88861">
        <ele>270.6</ele>
        <time>2022-07-24T18:10:24Z</time>
      </trkpt>
      <trkpt lat="47.19426" lon="5.88858">
        <ele>270.8</ele>
        <time>2022-07-24T18:10:25Z</time>
      </trkpt>
      <trkpt lat="47.19425" lon="5.88854">
        <ele>270.8</ele>
        <time>2022-07-24T18:10:26Z</time>
      </trkpt>
      <trkpt lat="47.19425" lon="5.88853">
        <ele>271</ele>
        <time>2022-07-24T18:10:27Z</time>
      </trkpt>
      <trkpt lat="47.19424" lon="5.88852">
        <ele>271</ele>
        <time>2022-07-24T18:10:28Z</time>
      </trkpt>
      <trkpt lat="47.19422" lon="5.88849">
        <ele>271.2</ele>
        <time>2022-07-24T18:10:29Z</time>
      </trkpt>
      <trkpt lat="47.19421" lon="5.88846">
        <ele>271.2</ele>
        <time>2022-07-24T18:10:30Z</time>
      </trkpt>
      <trkpt lat="47.1942" lon="5.88844">
        <ele>271.2</ele>
        <time>2022-07-24T18:10:31Z</time>
      </trkpt>
      <trkpt lat="47.19415" lon="5.88832">
        <ele>271.8</ele>
        <time>2022-07-24T18:10:35Z</time>
      </trkpt>
      <trkpt lat="47.19414" lon="5.88828">
        <ele>271.8</ele>
        <time>2022-07-24T18:10:36Z</time>
      </trkpt>
      <trkpt lat="47.19407" lon="5.88801">
        <ele>272.4</ele>
        <time>2022-07-24T18:10:43Z</time>
      </trkpt>
      <trkpt lat="47.19405" lon="5.88791">
        <ele>273</ele>
        <time>2022-07-24T18:10:45Z</time>
      </trkpt>
      <trkpt lat="47.19403" lon="5.88778">
        <ele>273.2</ele>
        <time>2022-07-24T18:10:48Z</time>
      </trkpt>
      <trkpt lat="47.19403" lon="5.88774">
        <ele>273.4</ele>
        <time>2022-07-24T18:10:49Z</time>
      </trkpt>
      <trkpt lat="47.19404" lon="5.88771">
        <ele>273.4</ele>
        <time>2022-07-24T18:10:50Z</time>
      </trkpt>
      <trkpt lat="47.19402" lon="5.88767">
        <ele>273.6</ele>
        <time>2022-07-24T18:10:51Z</time>
      </trkpt>
      <trkpt lat="47.19402" lon="5.88764">
        <ele>274</ele>
        <time>2022-07-24T18:10:52Z</time>
      </trkpt>
      <trkpt lat="47.19402" lon="5.88761">
        <ele>274.2</ele>
        <time>2022-07-24T18:10:53Z</time>
      </trkpt>
      <trkpt lat="47.194" lon="5.88757">
        <ele>274.2</ele>
        <time>2022-07-24T18:10:54Z</time>
      </trkpt>
      <trkpt lat="47.19399" lon="5.88754">
        <ele>274.4</ele>
        <time>2022-07-24T18:10:55Z</time>
      </trkpt>
      <trkpt lat="47.19399" lon="5.88751">
        <ele>274.4</ele>
        <time>2022-07-24T18:10:56Z</time>
      </trkpt>
      <trkpt lat="47.194" lon="5.88747">
        <ele>274.6</ele>
        <time>2022-07-24T18:10:57Z</time>
      </trkpt>
      <trkpt lat="47.19401" lon="5.88744">
        <ele>274.6</ele>
        <time>2022-07-24T18:10:58Z</time>
      </trkpt>
      <trkpt lat="47.194" lon="5.88741">
        <ele>275</ele>
        <time>2022-07-24T18:10:59Z</time>
      </trkpt>
      <trkpt lat="47.194" lon="5.88739">
        <ele>275</ele>
        <time>2022-07-24T18:11:00Z</time>
      </trkpt>
      <trkpt lat="47.194" lon="5.88737">
        <ele>275.2</ele>
        <time>2022-07-24T18:11:01Z</time>
      </trkpt>
      <trkpt lat="47.19398" lon="5.88732">
        <ele>275.4</ele>
        <time>2022-07-24T18:11:02Z</time>
      </trkpt>
      <trkpt lat="47.19399" lon="5.8873">
        <ele>275.4</ele>
        <time>2022-07-24T18:11:03Z</time>
      </trkpt>
      <trkpt lat="47.19398" lon="5.88726">
        <ele>275.6</ele>
        <time>2022-07-24T18:11:04Z</time>
      </trkpt>
      <trkpt lat="47.19398" lon="5.88723">
        <ele>275.6</ele>
        <time>2022-07-24T18:11:05Z</time>
      </trkpt>
      <trkpt lat="47.19397" lon="5.88718">
        <ele>275.6</ele>
        <time>2022-07-24T18:11:06Z</time>
      </trkpt>
      <trkpt lat="47.19397" lon="5.88713">
        <ele>275.6</ele>
        <time>2022-07-24T18:11:07Z</time>
      </trkpt>
      <trkpt lat="47.19396" lon="5.88708">
        <ele>275.6</ele>
        <time>2022-07-24T18:11:08Z</time>
      </trkpt>
      <trkpt lat="47.19393" lon="5.88701">
        <ele>275.6</ele>
        <time>2022-07-24T18:11:09Z</time>
      </trkpt>
      <trkpt lat="47.19392" lon="5.88696">
        <ele>275.6</ele>
        <time>2022-07-24T18:11:10Z</time>
      </trkpt>
      <trkpt lat="47.1939" lon="5.88691">
        <ele>275.8</ele>
        <time>2022-07-24T18:11:11Z</time>
      </trkpt>
      <trkpt lat="47.19388" lon="5.88687">
        <ele>275.8</ele>
        <time>2022-07-24T18:11:12Z</time>
      </trkpt>
      <trkpt lat="47.19385" lon="5.88681">
        <ele>275.6</ele>
        <time>2022-07-24T18:11:13Z</time>
      </trkpt>
      <trkpt lat="47.19384" lon="5.88676">
        <ele>275.6</ele>
        <time>2022-07-24T18:11:14Z</time>
      </trkpt>
      <trkpt lat="47.19382" lon="5.88669">
        <ele>275.6</ele>
        <time>2022-07-24T18:11:15Z</time>
      </trkpt>
      <trkpt lat="47.19378" lon="5.88643">
        <ele>275.2</ele>
        <time>2022-07-24T18:11:18Z</time>
      </trkpt>
      <trkpt lat="47.19378" lon="5.88636">
        <ele>275</ele>
        <time>2022-07-24T18:11:19Z</time>
      </trkpt>
      <trkpt lat="47.19371" lon="5.88613">
        <ele>274.4</ele>
        <time>2022-07-24T18:11:22Z</time>
      </trkpt>
      <trkpt lat="47.19368" lon="5.88606">
        <ele>274</ele>
        <time>2022-07-24T18:11:23Z</time>
      </trkpt>
      <trkpt lat="47.19364" lon="5.88597">
        <ele>273.8</ele>
        <time>2022-07-24T18:11:24Z</time>
      </trkpt>
      <trkpt lat="47.19356" lon="5.88581">
        <ele>273.2</ele>
        <time>2022-07-24T18:11:26Z</time>
      </trkpt>
      <trkpt lat="47.19353" lon="5.88574">
        <ele>272.8</ele>
        <time>2022-07-24T18:11:27Z</time>
      </trkpt>
      <trkpt lat="47.1935" lon="5.88568">
        <ele>272.6</ele>
        <time>2022-07-24T18:11:28Z</time>
      </trkpt>
      <trkpt lat="47.19347" lon="5.8856">
        <ele>272.2</ele>
        <time>2022-07-24T18:11:29Z</time>
      </trkpt>
      <trkpt lat="47.19341" lon="5.88543">
        <ele>271.8</ele>
        <time>2022-07-24T18:11:31Z</time>
      </trkpt>
      <trkpt lat="47.19339" lon="5.88534">
        <ele>271.4</ele>
        <time>2022-07-24T18:11:32Z</time>
      </trkpt>
      <trkpt lat="47.19335" lon="5.88517">
        <ele>270.8</ele>
        <time>2022-07-24T18:11:34Z</time>
      </trkpt>
      <trkpt lat="47.1933" lon="5.88508">
        <ele>270.6</ele>
        <time>2022-07-24T18:11:35Z</time>
      </trkpt>
      <trkpt lat="47.19323" lon="5.88498">
        <ele>270.4</ele>
        <time>2022-07-24T18:11:36Z</time>
      </trkpt>
      <trkpt lat="47.19317" lon="5.8849">
        <ele>269.8</ele>
        <time>2022-07-24T18:11:37Z</time>
      </trkpt>
      <trkpt lat="47.1931" lon="5.88485">
        <ele>269.4</ele>
        <time>2022-07-24T18:11:38Z</time>
      </trkpt>
      <trkpt lat="47.19303" lon="5.8848">
        <ele>269</ele>
        <time>2022-07-24T18:11:39Z</time>
      </trkpt>
      <trkpt lat="47.19285" lon="5.88469">
        <ele>268</ele>
        <time>2022-07-24T18:11:42Z</time>
      </trkpt>
      <trkpt lat="47.19279" lon="5.88469">
        <ele>268</ele>
        <time>2022-07-24T18:11:43Z</time>
      </trkpt>
      <trkpt lat="47.19275" lon="5.88469">
        <ele>267.6</ele>
        <time>2022-07-24T18:11:44Z</time>
      </trkpt>
      <trkpt lat="47.19269" lon="5.88468">
        <ele>267.6</ele>
        <time>2022-07-24T18:11:45Z</time>
      </trkpt>
      <trkpt lat="47.19264" lon="5.8847">
        <ele>267.4</ele>
        <time>2022-07-24T18:11:46Z</time>
      </trkpt>
      <trkpt lat="47.19261" lon="5.88471">
        <ele>267.4</ele>
        <time>2022-07-24T18:11:47Z</time>
      </trkpt>
      <trkpt lat="47.19257" lon="5.88473">
        <ele>267.4</ele>
        <time>2022-07-24T18:11:48Z</time>
      </trkpt>
      <trkpt lat="47.19254" lon="5.88476">
        <ele>267.4</ele>
        <time>2022-07-24T18:11:49Z</time>
      </trkpt>
      <trkpt lat="47.19251" lon="5.88478">
        <ele>267.4</ele>
        <time>2022-07-24T18:11:50Z</time>
      </trkpt>
      <trkpt lat="47.19247" lon="5.88479">
        <ele>267.6</ele>
        <time>2022-07-24T18:11:51Z</time>
      </trkpt>
      <trkpt lat="47.19236" lon="5.8848">
        <ele>267.8</ele>
        <time>2022-07-24T18:11:54Z</time>
      </trkpt>
      <trkpt lat="47.19227" lon="5.88483">
        <ele>268</ele>
        <time>2022-07-24T18:11:56Z</time>
      </trkpt>
      <trkpt lat="47.19222" lon="5.88487">
        <ele>268</ele>
        <time>2022-07-24T18:11:57Z</time>
      </trkpt>
      <trkpt lat="47.19208" lon="5.88489">
        <ele>268</ele>
        <time>2022-07-24T18:11:59Z</time>
      </trkpt>
      <trkpt lat="47.19197" lon="5.88495">
        <ele>267.8</ele>
        <time>2022-07-24T18:12:01Z</time>
      </trkpt>
      <trkpt lat="47.19192" lon="5.88498">
        <ele>267.4</ele>
        <time>2022-07-24T18:12:02Z</time>
      </trkpt>
      <trkpt lat="47.19188" lon="5.885">
        <ele>266.8</ele>
        <time>2022-07-24T18:12:03Z</time>
      </trkpt>
      <trkpt lat="47.19184" lon="5.88502">
        <ele>266.6</ele>
        <time>2022-07-24T18:12:04Z</time>
      </trkpt>
      <trkpt lat="47.19182" lon="5.88503">
        <ele>266.6</ele>
        <time>2022-07-24T18:12:05Z</time>
      </trkpt>
      <trkpt lat="47.19178" lon="5.88507">
        <ele>266.4</ele>
        <time>2022-07-24T18:12:06Z</time>
      </trkpt>
      <trkpt lat="47.19175" lon="5.8851">
        <ele>266.4</ele>
        <time>2022-07-24T18:12:07Z</time>
      </trkpt>
      <trkpt lat="47.19173" lon="5.88512">
        <ele>266.4</ele>
        <time>2022-07-24T18:12:08Z</time>
      </trkpt>
      <trkpt lat="47.19171" lon="5.88514">
        <ele>266.4</ele>
        <time>2022-07-24T18:12:09Z</time>
      </trkpt>
      <trkpt lat="47.19167" lon="5.88516">
        <ele>266.4</ele>
        <time>2022-07-24T18:12:10Z</time>
      </trkpt>
      <trkpt lat="47.19161" lon="5.88519">
        <ele>266.6</ele>
        <time>2022-07-24T18:12:12Z</time>
      </trkpt>
      <trkpt lat="47.19158" lon="5.88519">
        <ele>266.6</ele>
        <time>2022-07-24T18:12:13Z</time>
      </trkpt>
      <trkpt lat="47.19153" lon="5.8852">
        <ele>266.8</ele>
        <time>2022-07-24T18:12:14Z</time>
      </trkpt>
      <trkpt lat="47.19141" lon="5.88528">
        <ele>266.8</ele>
        <time>2022-07-24T18:12:17Z</time>
      </trkpt>
      <trkpt lat="47.19138" lon="5.88531">
        <ele>267</ele>
        <time>2022-07-24T18:12:18Z</time>
      </trkpt>
      <trkpt lat="47.19124" lon="5.88541">
        <ele>267</ele>
        <time>2022-07-24T18:12:22Z</time>
      </trkpt>
      <trkpt lat="47.19121" lon="5.88545">
        <ele>267</ele>
        <time>2022-07-24T18:12:23Z</time>
      </trkpt>
      <trkpt lat="47.1911" lon="5.88556">
        <ele>267.2</ele>
        <time>2022-07-24T18:12:26Z</time>
      </trkpt>
      <trkpt lat="47.19097" lon="5.88562">
        <ele>267.4</ele>
        <time>2022-07-24T18:12:29Z</time>
      </trkpt>
      <trkpt lat="47.19088" lon="5.88565">
        <ele>267.4</ele>
        <time>2022-07-24T18:12:31Z</time>
      </trkpt>
      <trkpt lat="47.1908" lon="5.88566">
        <ele>267.2</ele>
        <time>2022-07-24T18:12:33Z</time>
      </trkpt>
      <trkpt lat="47.19077" lon="5.88567">
        <ele>266.8</ele>
        <time>2022-07-24T18:12:34Z</time>
      </trkpt>
      <trkpt lat="47.19073" lon="5.88568">
        <ele>267</ele>
        <time>2022-07-24T18:12:35Z</time>
      </trkpt>
      <trkpt lat="47.19068" lon="5.88569">
        <ele>266.8</ele>
        <time>2022-07-24T18:12:36Z</time>
      </trkpt>
      <trkpt lat="47.19046" lon="5.88573">
        <ele>266.4</ele>
        <time>2022-07-24T18:12:41Z</time>
      </trkpt>
      <trkpt lat="47.19031" lon="5.88577">
        <ele>266.4</ele>
        <time>2022-07-24T18:12:44Z</time>
      </trkpt>
      <trkpt lat="47.19025" lon="5.88576">
        <ele>266.2</ele>
        <time>2022-07-24T18:12:45Z</time>
      </trkpt>
      <trkpt lat="47.19017" lon="5.88575">
        <ele>266.2</ele>
        <time>2022-07-24T18:12:46Z</time>
      </trkpt>
      <trkpt lat="47.18991" lon="5.88574">
        <ele>265.6</ele>
        <time>2022-07-24T18:12:49Z</time>
      </trkpt>
      <trkpt lat="47.18984" lon="5.88573">
        <ele>264.8</ele>
        <time>2022-07-24T18:12:50Z</time>
      </trkpt>
      <trkpt lat="47.18978" lon="5.88572">
        <ele>264.6</ele>
        <time>2022-07-24T18:12:51Z</time>
      </trkpt>
      <trkpt lat="47.18972" lon="5.88571">
        <ele>264.2</ele>
        <time>2022-07-24T18:12:52Z</time>
      </trkpt>
      <trkpt lat="47.18965" lon="5.8857">
        <ele>263.8</ele>
        <time>2022-07-24T18:12:53Z</time>
      </trkpt>
      <trkpt lat="47.18959" lon="5.88568">
        <ele>263.6</ele>
        <time>2022-07-24T18:12:54Z</time>
      </trkpt>
      <trkpt lat="47.18954" lon="5.88566">
        <ele>263.2</ele>
        <time>2022-07-24T18:12:55Z</time>
      </trkpt>
      <trkpt lat="47.1895" lon="5.88565">
        <ele>263</ele>
        <time>2022-07-24T18:12:56Z</time>
      </trkpt>
      <trkpt lat="47.18946" lon="5.88562">
        <ele>263</ele>
        <time>2022-07-24T18:12:57Z</time>
      </trkpt>
      <trkpt lat="47.18941" lon="5.8856">
        <ele>263</ele>
        <time>2022-07-24T18:12:58Z</time>
      </trkpt>
      <trkpt lat="47.18937" lon="5.88556">
        <ele>262.8</ele>
        <time>2022-07-24T18:12:59Z</time>
      </trkpt>
      <trkpt lat="47.18934" lon="5.88554">
        <ele>263</ele>
        <time>2022-07-24T18:13:00Z</time>
      </trkpt>
      <trkpt lat="47.18925" lon="5.88552">
        <ele>263.2</ele>
        <time>2022-07-24T18:13:02Z</time>
      </trkpt>
      <trkpt lat="47.18918" lon="5.88548">
        <ele>263.6</ele>
        <time>2022-07-24T18:13:04Z</time>
      </trkpt>
      <trkpt lat="47.18914" lon="5.88546">
        <ele>263.6</ele>
        <time>2022-07-24T18:13:05Z</time>
      </trkpt>
      <trkpt lat="47.1891" lon="5.88546">
        <ele>263.8</ele>
        <time>2022-07-24T18:13:06Z</time>
      </trkpt>
      <trkpt lat="47.1889" lon="5.88536">
        <ele>264.6</ele>
        <time>2022-07-24T18:13:10Z</time>
      </trkpt>
      <trkpt lat="47.18888" lon="5.88534">
        <ele>264.4</ele>
        <time>2022-07-24T18:13:11Z</time>
      </trkpt>
      <trkpt lat="47.18879" lon="5.88528">
        <ele>264.8</ele>
        <time>2022-07-24T18:13:14Z</time>
      </trkpt>
      <trkpt lat="47.18866" lon="5.88518">
        <ele>264.8</ele>
        <time>2022-07-24T18:13:18Z</time>
      </trkpt>
      <trkpt lat="47.18851" lon="5.88502">
        <ele>264.8</ele>
        <time>2022-07-24T18:13:23Z</time>
      </trkpt>
      <trkpt lat="47.18849" lon="5.88501">
        <ele>264.4</ele>
        <time>2022-07-24T18:13:24Z</time>
      </trkpt>
      <trkpt lat="47.18846" lon="5.88501">
        <ele>264.4</ele>
        <time>2022-07-24T18:13:25Z</time>
      </trkpt>
      <trkpt lat="47.18844" lon="5.88502">
        <ele>264.4</ele>
        <time>2022-07-24T18:13:26Z</time>
      </trkpt>
      <trkpt lat="47.18841" lon="5.88503">
        <ele>264.4</ele>
        <time>2022-07-24T18:13:27Z</time>
      </trkpt>
      <trkpt lat="47.18838" lon="5.88506">
        <ele>264.2</ele>
        <time>2022-07-24T18:13:28Z</time>
      </trkpt>
      <trkpt lat="47.18835" lon="5.88509">
        <ele>264.2</ele>
        <time>2022-07-24T18:13:29Z</time>
      </trkpt>
      <trkpt lat="47.18833" lon="5.88513">
        <ele>264.2</ele>
        <time>2022-07-24T18:13:30Z</time>
      </trkpt>
      <trkpt lat="47.1883" lon="5.88517">
        <ele>264.2</ele>
        <time>2022-07-24T18:13:31Z</time>
      </trkpt>
      <trkpt lat="47.18825" lon="5.88527">
        <ele>263.6</ele>
        <time>2022-07-24T18:13:33Z</time>
      </trkpt>
      <trkpt lat="47.18819" lon="5.88537">
        <ele>263.6</ele>
        <time>2022-07-24T18:13:35Z</time>
      </trkpt>
      <trkpt lat="47.18799" lon="5.88567">
        <ele>263</ele>
        <time>2022-07-24T18:13:41Z</time>
      </trkpt>
      <trkpt lat="47.18776" lon="5.88596">
        <ele>263.4</ele>
        <time>2022-07-24T18:13:48Z</time>
      </trkpt>
      <trkpt lat="47.18773" lon="5.88599">
        <ele>263.4</ele>
        <time>2022-07-24T18:13:49Z</time>
      </trkpt>
      <trkpt lat="47.1877" lon="5.88602">
        <ele>263.4</ele>
        <time>2022-07-24T18:13:50Z</time>
      </trkpt>
      <trkpt lat="47.18768" lon="5.88605">
        <ele>263.6</ele>
        <time>2022-07-24T18:13:51Z</time>
      </trkpt>
      <trkpt lat="47.18766" lon="5.88608">
        <ele>263.6</ele>
        <time>2022-07-24T18:13:52Z</time>
      </trkpt>
      <trkpt lat="47.18764" lon="5.88611">
        <ele>263.8</ele>
        <time>2022-07-24T18:13:53Z</time>
      </trkpt>
      <trkpt lat="47.18762" lon="5.88613">
        <ele>264</ele>
        <time>2022-07-24T18:13:54Z</time>
      </trkpt>
      <trkpt lat="47.18757" lon="5.88618">
        <ele>264.2</ele>
        <time>2022-07-24T18:13:56Z</time>
      </trkpt>
      <trkpt lat="47.18755" lon="5.88621">
        <ele>264.2</ele>
        <time>2022-07-24T18:13:57Z</time>
      </trkpt>
      <trkpt lat="47.18753" lon="5.88623">
        <ele>264.4</ele>
        <time>2022-07-24T18:13:58Z</time>
      </trkpt>
      <trkpt lat="47.18751" lon="5.88625">
        <ele>264.6</ele>
        <time>2022-07-24T18:13:59Z</time>
      </trkpt>
      <trkpt lat="47.18749" lon="5.88629">
        <ele>264.8</ele>
        <time>2022-07-24T18:14:00Z</time>
      </trkpt>
      <trkpt lat="47.18749" lon="5.88633">
        <ele>265.2</ele>
        <time>2022-07-24T18:14:01Z</time>
      </trkpt>
      <trkpt lat="47.18749" lon="5.88637">
        <ele>265.2</ele>
        <time>2022-07-24T18:14:02Z</time>
      </trkpt>
      <trkpt lat="47.18752" lon="5.88646">
        <ele>265.4</ele>
        <time>2022-07-24T18:14:04Z</time>
      </trkpt>
      <trkpt lat="47.18753" lon="5.88651">
        <ele>265.6</ele>
        <time>2022-07-24T18:14:05Z</time>
      </trkpt>
      <trkpt lat="47.18755" lon="5.88655">
        <ele>265.8</ele>
        <time>2022-07-24T18:14:06Z</time>
      </trkpt>
      <trkpt lat="47.18758" lon="5.88664">
        <ele>265.8</ele>
        <time>2022-07-24T18:14:08Z</time>
      </trkpt>
      <trkpt lat="47.18765" lon="5.88685">
        <ele>266.4</ele>
        <time>2022-07-24T18:14:13Z</time>
      </trkpt>
      <trkpt lat="47.18766" lon="5.88689">
        <ele>266.6</ele>
        <time>2022-07-24T18:14:14Z</time>
      </trkpt>
      <trkpt lat="47.18768" lon="5.88693">
        <ele>266.6</ele>
        <time>2022-07-24T18:14:15Z</time>
      </trkpt>
      <trkpt lat="47.18769" lon="5.88697">
        <ele>266.8</ele>
        <time>2022-07-24T18:14:16Z</time>
      </trkpt>
      <trkpt lat="47.1877" lon="5.88702">
        <ele>267</ele>
        <time>2022-07-24T18:14:17Z</time>
      </trkpt>
      <trkpt lat="47.18772" lon="5.88706">
        <ele>267.2</ele>
        <time>2022-07-24T18:14:18Z</time>
      </trkpt>
      <trkpt lat="47.18774" lon="5.8871">
        <ele>267.2</ele>
        <time>2022-07-24T18:14:19Z</time>
      </trkpt>
      <trkpt lat="47.18775" lon="5.88714">
        <ele>267.4</ele>
        <time>2022-07-24T18:14:20Z</time>
      </trkpt>
      <trkpt lat="47.18776" lon="5.88719">
        <ele>267.4</ele>
        <time>2022-07-24T18:14:21Z</time>
      </trkpt>
      <trkpt lat="47.18776" lon="5.88724">
        <ele>267.6</ele>
        <time>2022-07-24T18:14:22Z</time>
      </trkpt>
      <trkpt lat="47.18776" lon="5.88728">
        <ele>267.6</ele>
        <time>2022-07-24T18:14:23Z</time>
      </trkpt>
      <trkpt lat="47.18775" lon="5.88733">
        <ele>267.8</ele>
        <time>2022-07-24T18:14:24Z</time>
      </trkpt>
      <trkpt lat="47.18773" lon="5.88737">
        <ele>268</ele>
        <time>2022-07-24T18:14:25Z</time>
      </trkpt>
      <trkpt lat="47.18771" lon="5.8874">
        <ele>268</ele>
        <time>2022-07-24T18:14:26Z</time>
      </trkpt>
      <trkpt lat="47.18769" lon="5.88744">
        <ele>268.2</ele>
        <time>2022-07-24T18:14:27Z</time>
      </trkpt>
      <trkpt lat="47.18767" lon="5.88747">
        <ele>268.2</ele>
        <time>2022-07-24T18:14:28Z</time>
      </trkpt>
      <trkpt lat="47.18764" lon="5.88749">
        <ele>268.4</ele>
        <time>2022-07-24T18:14:29Z</time>
      </trkpt>
      <trkpt lat="47.1876" lon="5.88751">
        <ele>268.4</ele>
        <time>2022-07-24T18:14:30Z</time>
      </trkpt>
      <trkpt lat="47.18757" lon="5.88752">
        <ele>268.4</ele>
        <time>2022-07-24T18:14:31Z</time>
      </trkpt>
      <trkpt lat="47.18752" lon="5.88753">
        <ele>268.4</ele>
        <time>2022-07-24T18:14:32Z</time>
      </trkpt>
      <trkpt lat="47.18749" lon="5.88753">
        <ele>268.4</ele>
        <time>2022-07-24T18:14:33Z</time>
      </trkpt>
      <trkpt lat="47.18745" lon="5.88753">
        <ele>268.6</ele>
        <time>2022-07-24T18:14:34Z</time>
      </trkpt>
      <trkpt lat="47.18741" lon="5.88753">
        <ele>268.6</ele>
        <time>2022-07-24T18:14:35Z</time>
      </trkpt>
      <trkpt lat="47.18737" lon="5.88754">
        <ele>268.6</ele>
        <time>2022-07-24T18:14:36Z</time>
      </trkpt>
      <trkpt lat="47.18733" lon="5.88754">
        <ele>268.6</ele>
        <time>2022-07-24T18:14:37Z</time>
      </trkpt>
      <trkpt lat="47.1873" lon="5.88755">
        <ele>268.8</ele>
        <time>2022-07-24T18:14:38Z</time>
      </trkpt>
      <trkpt lat="47.18726" lon="5.88756">
        <ele>268.8</ele>
        <time>2022-07-24T18:14:39Z</time>
      </trkpt>
      <trkpt lat="47.18711" lon="5.8876">
        <ele>269</ele>
        <time>2022-07-24T18:14:43Z</time>
      </trkpt>
      <trkpt lat="47.18697" lon="5.88765">
        <ele>269.2</ele>
        <time>2022-07-24T18:14:47Z</time>
      </trkpt>
      <trkpt lat="47.18694" lon="5.88766">
        <ele>269.2</ele>
        <time>2022-07-24T18:14:48Z</time>
      </trkpt>
      <trkpt lat="47.18689" lon="5.88768">
        <ele>269.4</ele>
        <time>2022-07-24T18:14:50Z</time>
      </trkpt>
      <trkpt lat="47.18686" lon="5.88769">
        <ele>269.6</ele>
        <time>2022-07-24T18:14:51Z</time>
      </trkpt>
      <trkpt lat="47.18683" lon="5.8877">
        <ele>269.6</ele>
        <time>2022-07-24T18:14:52Z</time>
      </trkpt>
      <trkpt lat="47.1868" lon="5.88772">
        <ele>270</ele>
        <time>2022-07-24T18:14:53Z</time>
      </trkpt>
      <trkpt lat="47.18678" lon="5.88773">
        <ele>270.2</ele>
        <time>2022-07-24T18:14:54Z</time>
      </trkpt>
      <trkpt lat="47.18675" lon="5.88774">
        <ele>270.2</ele>
        <time>2022-07-24T18:14:55Z</time>
      </trkpt>
      <trkpt lat="47.18671" lon="5.88776">
        <ele>270.6</ele>
        <time>2022-07-24T18:14:57Z</time>
      </trkpt>
      <trkpt lat="47.18669" lon="5.88777">
        <ele>271</ele>
        <time>2022-07-24T18:14:58Z</time>
      </trkpt>
      <trkpt lat="47.18667" lon="5.88778">
        <ele>271</ele>
        <time>2022-07-24T18:14:59Z</time>
      </trkpt>
      <trkpt lat="47.18665" lon="5.88779">
        <ele>271.4</ele>
        <time>2022-07-24T18:15:00Z</time>
      </trkpt>
      <trkpt lat="47.18662" lon="5.88781">
        <ele>271.6</ele>
        <time>2022-07-24T18:15:01Z</time>
      </trkpt>
      <trkpt lat="47.1866" lon="5.88782">
        <ele>271.8</ele>
        <time>2022-07-24T18:15:02Z</time>
      </trkpt>
      <trkpt lat="47.18657" lon="5.88783">
        <ele>271.8</ele>
        <time>2022-07-24T18:15:03Z</time>
      </trkpt>
      <trkpt lat="47.18655" lon="5.88784">
        <ele>272.2</ele>
        <time>2022-07-24T18:15:04Z</time>
      </trkpt>
      <trkpt lat="47.18652" lon="5.88785">
        <ele>272.4</ele>
        <time>2022-07-24T18:15:05Z</time>
      </trkpt>
      <trkpt lat="47.1865" lon="5.88787">
        <ele>272.6</ele>
        <time>2022-07-24T18:15:06Z</time>
      </trkpt>
      <trkpt lat="47.18647" lon="5.88788">
        <ele>272.6</ele>
        <time>2022-07-24T18:15:07Z</time>
      </trkpt>
      <trkpt lat="47.18645" lon="5.88789">
        <ele>272.8</ele>
        <time>2022-07-24T18:15:08Z</time>
      </trkpt>
      <trkpt lat="47.18644" lon="5.88791">
        <ele>272.8</ele>
        <time>2022-07-24T18:15:09Z</time>
      </trkpt>
      <trkpt lat="47.18642" lon="5.88791">
        <ele>273.4</ele>
        <time>2022-07-24T18:15:10Z</time>
      </trkpt>
      <trkpt lat="47.1864" lon="5.88792">
        <ele>273.6</ele>
        <time>2022-07-24T18:15:11Z</time>
      </trkpt>
      <trkpt lat="47.18638" lon="5.88794">
        <ele>273.6</ele>
        <time>2022-07-24T18:15:12Z</time>
      </trkpt>
      <trkpt lat="47.18635" lon="5.88794">
        <ele>273.8</ele>
        <time>2022-07-24T18:15:13Z</time>
      </trkpt>
      <trkpt lat="47.18633" lon="5.88795">
        <ele>274</ele>
        <time>2022-07-24T18:15:14Z</time>
      </trkpt>
      <trkpt lat="47.18631" lon="5.88796">
        <ele>274</ele>
        <time>2022-07-24T18:15:15Z</time>
      </trkpt>
      <trkpt lat="47.1863" lon="5.88797">
        <ele>274.4</ele>
        <time>2022-07-24T18:15:16Z</time>
      </trkpt>
      <trkpt lat="47.18628" lon="5.88798">
        <ele>274.4</ele>
        <time>2022-07-24T18:15:17Z</time>
      </trkpt>
      <trkpt lat="47.18626" lon="5.888">
        <ele>274.6</ele>
        <time>2022-07-24T18:15:18Z</time>
      </trkpt>
      <trkpt lat="47.18624" lon="5.88801">
        <ele>275</ele>
        <time>2022-07-24T18:15:19Z</time>
      </trkpt>
      <trkpt lat="47.18622" lon="5.88802">
        <ele>275.2</ele>
        <time>2022-07-24T18:15:20Z</time>
      </trkpt>
      <trkpt lat="47.18619" lon="5.88803">
        <ele>275.4</ele>
        <time>2022-07-24T18:15:21Z</time>
      </trkpt>
      <trkpt lat="47.18617" lon="5.88805">
        <ele>275.4</ele>
        <time>2022-07-24T18:15:22Z</time>
      </trkpt>
      <trkpt lat="47.18616" lon="5.88806">
        <ele>275.8</ele>
        <time>2022-07-24T18:15:23Z</time>
      </trkpt>
      <trkpt lat="47.18614" lon="5.88808">
        <ele>276.2</ele>
        <time>2022-07-24T18:15:24Z</time>
      </trkpt>
      <trkpt lat="47.18612" lon="5.88809">
        <ele>276.2</ele>
        <time>2022-07-24T18:15:25Z</time>
      </trkpt>
      <trkpt lat="47.1861" lon="5.8881">
        <ele>276.4</ele>
        <time>2022-07-24T18:15:26Z</time>
      </trkpt>
      <trkpt lat="47.18608" lon="5.88812">
        <ele>276.4</ele>
        <time>2022-07-24T18:15:27Z</time>
      </trkpt>
      <trkpt lat="47.18607" lon="5.88814">
        <ele>276.6</ele>
        <time>2022-07-24T18:15:28Z</time>
      </trkpt>
      <trkpt lat="47.18604" lon="5.88816">
        <ele>276.8</ele>
        <time>2022-07-24T18:15:29Z</time>
      </trkpt>
      <trkpt lat="47.18601" lon="5.88818">
        <ele>277</ele>
        <time>2022-07-24T18:15:30Z</time>
      </trkpt>
      <trkpt lat="47.18598" lon="5.8882">
        <ele>277.4</ele>
        <time>2022-07-24T18:15:31Z</time>
      </trkpt>
      <trkpt lat="47.18595" lon="5.88821">
        <ele>277.4</ele>
        <time>2022-07-24T18:15:32Z</time>
      </trkpt>
      <trkpt lat="47.18593" lon="5.88822">
        <ele>277.8</ele>
        <time>2022-07-24T18:15:33Z</time>
      </trkpt>
      <trkpt lat="47.1859" lon="5.88823">
        <ele>277.8</ele>
        <time>2022-07-24T18:15:34Z</time>
      </trkpt>
      <trkpt lat="47.18586" lon="5.88824">
        <ele>278</ele>
        <time>2022-07-24T18:15:35Z</time>
      </trkpt>
      <trkpt lat="47.18583" lon="5.88826">
        <ele>278.2</ele>
        <time>2022-07-24T18:15:36Z</time>
      </trkpt>
      <trkpt lat="47.1858" lon="5.88828">
        <ele>278.2</ele>
        <time>2022-07-24T18:15:37Z</time>
      </trkpt>
      <trkpt lat="47.18577" lon="5.8883">
        <ele>278.4</ele>
        <time>2022-07-24T18:15:38Z</time>
      </trkpt>
      <trkpt lat="47.18574" lon="5.88832">
        <ele>278.6</ele>
        <time>2022-07-24T18:15:39Z</time>
      </trkpt>
      <trkpt lat="47.18571" lon="5.88834">
        <ele>278.6</ele>
        <time>2022-07-24T18:15:40Z</time>
      </trkpt>
      <trkpt lat="47.18569" lon="5.88837">
        <ele>278.8</ele>
        <time>2022-07-24T18:15:41Z</time>
      </trkpt>
      <trkpt lat="47.18566" lon="5.88838">
        <ele>278.8</ele>
        <time>2022-07-24T18:15:42Z</time>
      </trkpt>
      <trkpt lat="47.18564" lon="5.88841">
        <ele>278.8</ele>
        <time>2022-07-24T18:15:43Z</time>
      </trkpt>
      <trkpt lat="47.18562" lon="5.88842">
        <ele>279</ele>
        <time>2022-07-24T18:15:44Z</time>
      </trkpt>
      <trkpt lat="47.1856" lon="5.88843">
        <ele>279.2</ele>
        <time>2022-07-24T18:15:45Z</time>
      </trkpt>
      <trkpt lat="47.18558" lon="5.88844">
        <ele>279</ele>
        <time>2022-07-24T18:15:46Z</time>
      </trkpt>
      <trkpt lat="47.18556" lon="5.88846">
        <ele>279.4</ele>
        <time>2022-07-24T18:15:47Z</time>
      </trkpt>
      <trkpt lat="47.18555" lon="5.88847">
        <ele>279.4</ele>
        <time>2022-07-24T18:15:48Z</time>
      </trkpt>
      <trkpt lat="47.18553" lon="5.88849">
        <ele>279.4</ele>
        <time>2022-07-24T18:15:49Z</time>
      </trkpt>
      <trkpt lat="47.1855" lon="5.88851">
        <ele>279.6</ele>
        <time>2022-07-24T18:15:50Z</time>
      </trkpt>
      <trkpt lat="47.18548" lon="5.88852">
        <ele>279.8</ele>
        <time>2022-07-24T18:15:51Z</time>
      </trkpt>
      <trkpt lat="47.18545" lon="5.88854">
        <ele>279.8</ele>
        <time>2022-07-24T18:15:52Z</time>
      </trkpt>
      <trkpt lat="47.18543" lon="5.88855">
        <ele>280</ele>
        <time>2022-07-24T18:15:53Z</time>
      </trkpt>
      <trkpt lat="47.18542" lon="5.88855">
        <ele>280</ele>
        <time>2022-07-24T18:15:54Z</time>
      </trkpt>
      <trkpt lat="47.18539" lon="5.88856">
        <ele>280.2</ele>
        <time>2022-07-24T18:15:55Z</time>
      </trkpt>
      <trkpt lat="47.18536" lon="5.88858">
        <ele>280.4</ele>
        <time>2022-07-24T18:15:56Z</time>
      </trkpt>
      <trkpt lat="47.18534" lon="5.88859">
        <ele>280.4</ele>
        <time>2022-07-24T18:15:57Z</time>
      </trkpt>
      <trkpt lat="47.18531" lon="5.8886">
        <ele>280.6</ele>
        <time>2022-07-24T18:15:58Z</time>
      </trkpt>
      <trkpt lat="47.18528" lon="5.88861">
        <ele>280.6</ele>
        <time>2022-07-24T18:15:59Z</time>
      </trkpt>
      <trkpt lat="47.18523" lon="5.88863">
        <ele>280.6</ele>
        <time>2022-07-24T18:16:00Z</time>
      </trkpt>
      <trkpt lat="47.18519" lon="5.88863">
        <ele>280.8</ele>
        <time>2022-07-24T18:16:01Z</time>
      </trkpt>
      <trkpt lat="47.18515" lon="5.88864">
        <ele>280.8</ele>
        <time>2022-07-24T18:16:02Z</time>
      </trkpt>
      <trkpt lat="47.1851" lon="5.88866">
        <ele>280.8</ele>
        <time>2022-07-24T18:16:03Z</time>
      </trkpt>
      <trkpt lat="47.18508" lon="5.88866">
        <ele>281</ele>
        <time>2022-07-24T18:16:04Z</time>
      </trkpt>
      <trkpt lat="47.18504" lon="5.88867">
        <ele>281</ele>
        <time>2022-07-24T18:16:05Z</time>
      </trkpt>
      <trkpt lat="47.185" lon="5.88868">
        <ele>281</ele>
        <time>2022-07-24T18:16:06Z</time>
      </trkpt>
      <trkpt lat="47.18496" lon="5.8887">
        <ele>281.2</ele>
        <time>2022-07-24T18:16:07Z</time>
      </trkpt>
      <trkpt lat="47.18491" lon="5.88871">
        <ele>281.2</ele>
        <time>2022-07-24T18:16:08Z</time>
      </trkpt>
      <trkpt lat="47.18488" lon="5.88872">
        <ele>281.2</ele>
        <time>2022-07-24T18:16:09Z</time>
      </trkpt>
      <trkpt lat="47.18485" lon="5.88872">
        <ele>281.2</ele>
        <time>2022-07-24T18:16:10Z</time>
      </trkpt>
      <trkpt lat="47.18481" lon="5.88872">
        <ele>281.2</ele>
        <time>2022-07-24T18:16:11Z</time>
      </trkpt>
      <trkpt lat="47.18479" lon="5.88872">
        <ele>281.2</ele>
        <time>2022-07-24T18:16:12Z</time>
      </trkpt>
      <trkpt lat="47.18474" lon="5.88872">
        <ele>281.2</ele>
        <time>2022-07-24T18:16:14Z</time>
      </trkpt>
      <trkpt lat="47.18447" lon="5.88874">
        <ele>280.8</ele>
        <time>2022-07-24T18:16:23Z</time>
      </trkpt>
      <trkpt lat="47.18425" lon="5.88873">
        <ele>280.2</ele>
        <time>2022-07-24T18:16:28Z</time>
      </trkpt>
      <trkpt lat="47.18416" lon="5.88872">
        <ele>280.2</ele>
        <time>2022-07-24T18:16:30Z</time>
      </trkpt>
      <trkpt lat="47.18392" lon="5.88869">
        <ele>279.8</ele>
        <time>2022-07-24T18:16:35Z</time>
      </trkpt>
      <trkpt lat="47.18381" lon="5.88866">
        <ele>279.6</ele>
        <time>2022-07-24T18:16:37Z</time>
      </trkpt>
      <trkpt lat="47.18366" lon="5.88861">
        <ele>278.8</ele>
        <time>2022-07-24T18:16:40Z</time>
      </trkpt>
      <trkpt lat="47.18355" lon="5.88858">
        <ele>278.6</ele>
        <time>2022-07-24T18:16:42Z</time>
      </trkpt>
      <trkpt lat="47.1835" lon="5.88856">
        <ele>278.4</ele>
        <time>2022-07-24T18:16:43Z</time>
      </trkpt>
      <trkpt lat="47.18321" lon="5.88847">
        <ele>277.8</ele>
        <time>2022-07-24T18:16:48Z</time>
      </trkpt>
      <trkpt lat="47.18315" lon="5.88845">
        <ele>277.6</ele>
        <time>2022-07-24T18:16:49Z</time>
      </trkpt>
      <trkpt lat="47.18309" lon="5.88843">
        <ele>277.2</ele>
        <time>2022-07-24T18:16:50Z</time>
      </trkpt>
      <trkpt lat="47.18279" lon="5.88836">
        <ele>276.2</ele>
        <time>2022-07-24T18:16:55Z</time>
      </trkpt>
      <trkpt lat="47.18274" lon="5.88834">
        <ele>276</ele>
        <time>2022-07-24T18:16:56Z</time>
      </trkpt>
      <trkpt lat="47.18263" lon="5.8883">
        <ele>275.6</ele>
        <time>2022-07-24T18:16:58Z</time>
      </trkpt>
      <trkpt lat="47.18244" lon="5.88825">
        <ele>275.2</ele>
        <time>2022-07-24T18:17:01Z</time>
      </trkpt>
      <trkpt lat="47.18239" lon="5.88823">
        <ele>275</ele>
        <time>2022-07-24T18:17:02Z</time>
      </trkpt>
      <trkpt lat="47.18233" lon="5.88822">
        <ele>274.8</ele>
        <time>2022-07-24T18:17:03Z</time>
      </trkpt>
      <trkpt lat="47.18228" lon="5.8882">
        <ele>274.6</ele>
        <time>2022-07-24T18:17:04Z</time>
      </trkpt>
      <trkpt lat="47.18223" lon="5.88819">
        <ele>274.4</ele>
        <time>2022-07-24T18:17:05Z</time>
      </trkpt>
      <trkpt lat="47.18219" lon="5.88817">
        <ele>274.2</ele>
        <time>2022-07-24T18:17:06Z</time>
      </trkpt>
      <trkpt lat="47.18214" lon="5.88816">
        <ele>274</ele>
        <time>2022-07-24T18:17:07Z</time>
      </trkpt>
      <trkpt lat="47.18209" lon="5.88815">
        <ele>274</ele>
        <time>2022-07-24T18:17:08Z</time>
      </trkpt>
      <trkpt lat="47.18204" lon="5.88813">
        <ele>273.8</ele>
        <time>2022-07-24T18:17:09Z</time>
      </trkpt>
      <trkpt lat="47.182" lon="5.88812">
        <ele>273.6</ele>
        <time>2022-07-24T18:17:10Z</time>
      </trkpt>
      <trkpt lat="47.18196" lon="5.88811">
        <ele>273.4</ele>
        <time>2022-07-24T18:17:11Z</time>
      </trkpt>
      <trkpt lat="47.18192" lon="5.88809">
        <ele>273.2</ele>
        <time>2022-07-24T18:17:12Z</time>
      </trkpt>
      <trkpt lat="47.18189" lon="5.88808">
        <ele>273</ele>
        <time>2022-07-24T18:17:13Z</time>
      </trkpt>
      <trkpt lat="47.18186" lon="5.88807">
        <ele>273</ele>
        <time>2022-07-24T18:17:14Z</time>
      </trkpt>
      <trkpt lat="47.18183" lon="5.88806">
        <ele>272.8</ele>
        <time>2022-07-24T18:17:15Z</time>
      </trkpt>
      <trkpt lat="47.18176" lon="5.88803">
        <ele>272.6</ele>
        <time>2022-07-24T18:17:17Z</time>
      </trkpt>
      <trkpt lat="47.18174" lon="5.88802">
        <ele>272.4</ele>
        <time>2022-07-24T18:17:18Z</time>
      </trkpt>
      <trkpt lat="47.18172" lon="5.88801">
        <ele>272.4</ele>
        <time>2022-07-24T18:17:19Z</time>
      </trkpt>
      <trkpt lat="47.18171" lon="5.888">
        <ele>272.2</ele>
        <time>2022-07-24T18:17:20Z</time>
      </trkpt>
      <trkpt lat="47.18171" lon="5.88801">
        <ele>272.2</ele>
        <time>2022-07-24T18:17:22Z</time>
      </trkpt>
      <trkpt lat="47.18172" lon="5.88802">
        <ele>272.2</ele>
        <time>2022-07-24T18:17:25Z</time>
      </trkpt>
      <trkpt lat="47.18175" lon="5.88805">
        <ele>272.2</ele>
        <time>2022-07-24T18:17:29Z</time>
      </trkpt>
      <trkpt lat="47.18177" lon="5.88805">
        <ele>272.2</ele>
        <time>2022-07-24T18:17:30Z</time>
      </trkpt>
      <trkpt lat="47.1818" lon="5.88805">
        <ele>272.2</ele>
        <time>2022-07-24T18:17:31Z</time>
      </trkpt>
      <trkpt lat="47.18184" lon="5.88806">
        <ele>272.2</ele>
        <time>2022-07-24T18:17:32Z</time>
      </trkpt>
      <trkpt lat="47.18188" lon="5.88807">
        <ele>272.2</ele>
        <time>2022-07-24T18:17:33Z</time>
      </trkpt>
      <trkpt lat="47.18199" lon="5.88811">
        <ele>272.2</ele>
        <time>2022-07-24T18:17:36Z</time>
      </trkpt>
      <trkpt lat="47.18202" lon="5.88811">
        <ele>272.2</ele>
        <time>2022-07-24T18:17:37Z</time>
      </trkpt>
      <trkpt lat="47.18203" lon="5.8881">
        <ele>272.2</ele>
        <time>2022-07-24T18:17:38Z</time>
      </trkpt>
      <trkpt lat="47.18204" lon="5.88809">
        <ele>272.2</ele>
        <time>2022-07-24T18:17:39Z</time>
      </trkpt>
      <trkpt lat="47.18206" lon="5.88807">
        <ele>272.2</ele>
        <time>2022-07-24T18:17:40Z</time>
      </trkpt>
      <trkpt lat="47.18207" lon="5.88804">
        <ele>272.4</ele>
        <time>2022-07-24T18:17:41Z</time>
      </trkpt>
      <trkpt lat="47.18211" lon="5.88801">
        <ele>272.4</ele>
        <time>2022-07-24T18:17:44Z</time>
      </trkpt>
      <trkpt lat="47.18213" lon="5.888">
        <ele>272.4</ele>
        <time>2022-07-24T18:17:45Z</time>
      </trkpt>
      <trkpt lat="47.18214" lon="5.88798">
        <ele>272.4</ele>
        <time>2022-07-24T18:17:46Z</time>
      </trkpt>
      <trkpt lat="47.18216" lon="5.88797">
        <ele>272.4</ele>
        <time>2022-07-24T18:17:47Z</time>
      </trkpt>
      <trkpt lat="47.18217" lon="5.88796">
        <ele>272.4</ele>
        <time>2022-07-24T18:17:48Z</time>
      </trkpt>
      <trkpt lat="47.18218" lon="5.88796">
        <ele>272.6</ele>
        <time>2022-07-24T18:17:49Z</time>
      </trkpt>
      <trkpt lat="47.18219" lon="5.88796">
        <ele>272.6</ele>
        <time>2022-07-24T18:17:50Z</time>
      </trkpt>
      <trkpt lat="47.1822" lon="5.88796">
        <ele>272.8</ele>
        <time>2022-07-24T18:17:51Z</time>
      </trkpt>
      <trkpt lat="47.18221" lon="5.88795">
        <ele>272.8</ele>
        <time>2022-07-24T18:17:52Z</time>
      </trkpt>
      <trkpt lat="47.18224" lon="5.88793">
        <ele>273.2</ele>
        <time>2022-07-24T18:18:08Z</time>
      </trkpt>
      <trkpt lat="47.18234" lon="5.88786">
        <ele>273.2</ele>
        <time>2022-07-24T18:18:13Z</time>
      </trkpt>
      <trkpt lat="47.18237" lon="5.88785">
        <ele>273.2</ele>
        <time>2022-07-24T18:18:14Z</time>
      </trkpt>
      <trkpt lat="47.1824" lon="5.88785">
        <ele>273.2</ele>
        <time>2022-07-24T18:18:15Z</time>
      </trkpt>
      <trkpt lat="47.18255" lon="5.88776">
        <ele>273.8</ele>
        <time>2022-07-24T18:18:22Z</time>
      </trkpt>
      <trkpt lat="47.18259" lon="5.88774">
        <ele>274</ele>
        <time>2022-07-24T18:18:23Z</time>
      </trkpt>
      <trkpt lat="47.18261" lon="5.88773">
        <ele>274.2</ele>
        <time>2022-07-24T18:18:24Z</time>
      </trkpt>
      <trkpt lat="47.18277" lon="5.88765">
        <ele>274.6</ele>
        <time>2022-07-24T18:18:29Z</time>
      </trkpt>
      <trkpt lat="47.18281" lon="5.88763">
        <ele>274.6</ele>
        <time>2022-07-24T18:18:30Z</time>
      </trkpt>
      <trkpt lat="47.18294" lon="5.88756">
        <ele>275</ele>
        <time>2022-07-24T18:18:34Z</time>
      </trkpt>
      <trkpt lat="47.18299" lon="5.88751">
        <ele>275.2</ele>
        <time>2022-07-24T18:18:36Z</time>
      </trkpt>
      <trkpt lat="47.18301" lon="5.88749">
        <ele>275.2</ele>
        <time>2022-07-24T18:18:37Z</time>
      </trkpt>
      <trkpt lat="47.18302" lon="5.88747">
        <ele>275.4</ele>
        <time>2022-07-24T18:18:38Z</time>
      </trkpt>
      <trkpt lat="47.18303" lon="5.88745">
        <ele>275.4</ele>
        <time>2022-07-24T18:18:39Z</time>
      </trkpt>
      <trkpt lat="47.18304" lon="5.88743">
        <ele>275.6</ele>
        <time>2022-07-24T18:18:40Z</time>
      </trkpt>
      <trkpt lat="47.18305" lon="5.88741">
        <ele>275.8</ele>
        <time>2022-07-24T18:18:41Z</time>
      </trkpt>
      <trkpt lat="47.1831" lon="5.88739">
        <ele>275.8</ele>
        <time>2022-07-24T18:18:42Z</time>
      </trkpt>
      <trkpt lat="47.18312" lon="5.88736">
        <ele>275.8</ele>
        <time>2022-07-24T18:18:43Z</time>
      </trkpt>
      <trkpt lat="47.18314" lon="5.88734">
        <ele>275.8</ele>
        <time>2022-07-24T18:18:44Z</time>
      </trkpt>
      <trkpt lat="47.18315" lon="5.88732">
        <ele>276</ele>
        <time>2022-07-24T18:18:45Z</time>
      </trkpt>
      <trkpt lat="47.18316" lon="5.88731">
        <ele>276</ele>
        <time>2022-07-24T18:18:46Z</time>
      </trkpt>
      <trkpt lat="47.18318" lon="5.88729">
        <ele>276.2</ele>
        <time>2022-07-24T18:18:47Z</time>
      </trkpt>
      <trkpt lat="47.18321" lon="5.88728">
        <ele>276.2</ele>
        <time>2022-07-24T18:18:48Z</time>
      </trkpt>
      <trkpt lat="47.18323" lon="5.88727">
        <ele>276.2</ele>
        <time>2022-07-24T18:18:49Z</time>
      </trkpt>
      <trkpt lat="47.18323" lon="5.88725">
        <ele>276.2</ele>
        <time>2022-07-24T18:18:50Z</time>
      </trkpt>
      <trkpt lat="47.18324" lon="5.88724">
        <ele>276.2</ele>
        <time>2022-07-24T18:18:51Z</time>
      </trkpt>
      <trkpt lat="47.18325" lon="5.88723">
        <ele>276.6</ele>
        <time>2022-07-24T18:18:52Z</time>
      </trkpt>
      <trkpt lat="47.18326" lon="5.88721">
        <ele>276.4</ele>
        <time>2022-07-24T18:18:53Z</time>
      </trkpt>
      <trkpt lat="47.18327" lon="5.8872">
        <ele>276.6</ele>
        <time>2022-07-24T18:18:54Z</time>
      </trkpt>
      <trkpt lat="47.18328" lon="5.88719">
        <ele>276.8</ele>
        <time>2022-07-24T18:18:55Z</time>
      </trkpt>
      <trkpt lat="47.18329" lon="5.88718">
        <ele>276.8</ele>
        <time>2022-07-24T18:18:56Z</time>
      </trkpt>
      <trkpt lat="47.1833" lon="5.88717">
        <ele>277</ele>
        <time>2022-07-24T18:18:57Z</time>
      </trkpt>
      <trkpt lat="47.18331" lon="5.88716">
        <ele>277.2</ele>
        <time>2022-07-24T18:18:58Z</time>
      </trkpt>
      <trkpt lat="47.18332" lon="5.88715">
        <ele>277.4</ele>
        <time>2022-07-24T18:18:59Z</time>
      </trkpt>
      <trkpt lat="47.18334" lon="5.88714">
        <ele>277.4</ele>
        <time>2022-07-24T18:19:00Z</time>
      </trkpt>
      <trkpt lat="47.18335" lon="5.88712">
        <ele>277.6</ele>
        <time>2022-07-24T18:19:01Z</time>
      </trkpt>
      <trkpt lat="47.18338" lon="5.88711">
        <ele>277.8</ele>
        <time>2022-07-24T18:19:02Z</time>
      </trkpt>
      <trkpt lat="47.18339" lon="5.88709">
        <ele>277.8</ele>
        <time>2022-07-24T18:19:03Z</time>
      </trkpt>
      <trkpt lat="47.1834" lon="5.88707">
        <ele>278.2</ele>
        <time>2022-07-24T18:19:04Z</time>
      </trkpt>
      <trkpt lat="47.18341" lon="5.88706">
        <ele>278.2</ele>
        <time>2022-07-24T18:19:05Z</time>
      </trkpt>
      <trkpt lat="47.18342" lon="5.88705">
        <ele>278.4</ele>
        <time>2022-07-24T18:19:06Z</time>
      </trkpt>
      <trkpt lat="47.18344" lon="5.88703">
        <ele>278.6</ele>
        <time>2022-07-24T18:19:07Z</time>
      </trkpt>
      <trkpt lat="47.18345" lon="5.88702">
        <ele>278.8</ele>
        <time>2022-07-24T18:19:08Z</time>
      </trkpt>
      <trkpt lat="47.18346" lon="5.887">
        <ele>279.2</ele>
        <time>2022-07-24T18:19:09Z</time>
      </trkpt>
      <trkpt lat="47.18347" lon="5.88699">
        <ele>279.2</ele>
        <time>2022-07-24T18:19:10Z</time>
      </trkpt>
      <trkpt lat="47.18349" lon="5.88698">
        <ele>279.2</ele>
        <time>2022-07-24T18:19:11Z</time>
      </trkpt>
      <trkpt lat="47.1835" lon="5.88696">
        <ele>279.4</ele>
        <time>2022-07-24T18:19:12Z</time>
      </trkpt>
      <trkpt lat="47.18353" lon="5.88694">
        <ele>279.4</ele>
        <time>2022-07-24T18:19:13Z</time>
      </trkpt>
      <trkpt lat="47.18355" lon="5.88692">
        <ele>279.8</ele>
        <time>2022-07-24T18:19:14Z</time>
      </trkpt>
      <trkpt lat="47.18358" lon="5.8869">
        <ele>280</ele>
        <time>2022-07-24T18:19:15Z</time>
      </trkpt>
      <trkpt lat="47.18361" lon="5.88688">
        <ele>280.2</ele>
        <time>2022-07-24T18:19:16Z</time>
      </trkpt>
      <trkpt lat="47.18362" lon="5.88686">
        <ele>280.4</ele>
        <time>2022-07-24T18:19:17Z</time>
      </trkpt>
      <trkpt lat="47.18363" lon="5.88684">
        <ele>280.6</ele>
        <time>2022-07-24T18:19:18Z</time>
      </trkpt>
      <trkpt lat="47.18365" lon="5.88682">
        <ele>280.6</ele>
        <time>2022-07-24T18:19:19Z</time>
      </trkpt>
      <trkpt lat="47.18367" lon="5.8868">
        <ele>281</ele>
        <time>2022-07-24T18:19:20Z</time>
      </trkpt>
      <trkpt lat="47.18369" lon="5.88679">
        <ele>281.4</ele>
        <time>2022-07-24T18:19:21Z</time>
      </trkpt>
      <trkpt lat="47.18371" lon="5.88678">
        <ele>281.4</ele>
        <time>2022-07-24T18:19:22Z</time>
      </trkpt>
      <trkpt lat="47.18374" lon="5.88676">
        <ele>281.6</ele>
        <time>2022-07-24T18:19:23Z</time>
      </trkpt>
      <trkpt lat="47.18374" lon="5.88674">
        <ele>281.6</ele>
        <time>2022-07-24T18:19:24Z</time>
      </trkpt>
      <trkpt lat="47.18375" lon="5.88671">
        <ele>281.8</ele>
        <time>2022-07-24T18:19:25Z</time>
      </trkpt>
      <trkpt lat="47.18377" lon="5.88667">
        <ele>282</ele>
        <time>2022-07-24T18:19:26Z</time>
      </trkpt>
      <trkpt lat="47.18377" lon="5.88664">
        <ele>282.2</ele>
        <time>2022-07-24T18:19:27Z</time>
      </trkpt>
      <trkpt lat="47.18376" lon="5.88661">
        <ele>282.2</ele>
        <time>2022-07-24T18:19:28Z</time>
      </trkpt>
      <trkpt lat="47.18376" lon="5.8866">
        <ele>282.2</ele>
        <time>2022-07-24T18:19:29Z</time>
      </trkpt>
      <trkpt lat="47.18375" lon="5.88658">
        <ele>282.4</ele>
        <time>2022-07-24T18:19:30Z</time>
      </trkpt>
      <trkpt lat="47.18373" lon="5.88656">
        <ele>282.6</ele>
        <time>2022-07-24T18:19:31Z</time>
      </trkpt>
      <trkpt lat="47.18371" lon="5.88654">
        <ele>282.6</ele>
        <time>2022-07-24T18:19:32Z</time>
      </trkpt>
      <trkpt lat="47.18369" lon="5.88652">
        <ele>282.6</ele>
        <time>2022-07-24T18:19:33Z</time>
      </trkpt>
      <trkpt lat="47.18367" lon="5.8865">
        <ele>282.6</ele>
        <time>2022-07-24T18:19:34Z</time>
      </trkpt>
      <trkpt lat="47.18365" lon="5.88649">
        <ele>282.6</ele>
        <time>2022-07-24T18:19:35Z</time>
      </trkpt>
      <trkpt lat="47.18363" lon="5.88646">
        <ele>282.6</ele>
        <time>2022-07-24T18:19:36Z</time>
      </trkpt>
      <trkpt lat="47.18359" lon="5.88642">
        <ele>282.6</ele>
        <time>2022-07-24T18:19:37Z</time>
      </trkpt>
      <trkpt lat="47.18355" lon="5.88638">
        <ele>282.6</ele>
        <time>2022-07-24T18:19:38Z</time>
      </trkpt>
      <trkpt lat="47.18351" lon="5.88636">
        <ele>282.6</ele>
        <time>2022-07-24T18:19:39Z</time>
      </trkpt>
      <trkpt lat="47.18347" lon="5.88633">
        <ele>282.6</ele>
        <time>2022-07-24T18:19:40Z</time>
      </trkpt>
      <trkpt lat="47.18344" lon="5.8863">
        <ele>282.4</ele>
        <time>2022-07-24T18:19:41Z</time>
      </trkpt>
      <trkpt lat="47.18341" lon="5.88628">
        <ele>282.2</ele>
        <time>2022-07-24T18:19:42Z</time>
      </trkpt>
      <trkpt lat="47.18336" lon="5.88625">
        <ele>282.2</ele>
        <time>2022-07-24T18:19:43Z</time>
      </trkpt>
      <trkpt lat="47.18334" lon="5.88622">
        <ele>282</ele>
        <time>2022-07-24T18:19:44Z</time>
      </trkpt>
      <trkpt lat="47.18333" lon="5.88621">
        <ele>281.8</ele>
        <time>2022-07-24T18:19:45Z</time>
      </trkpt>
      <trkpt lat="47.18333" lon="5.8862">
        <ele>281.6</ele>
        <time>2022-07-24T18:19:46Z</time>
      </trkpt>
      <trkpt lat="47.18331" lon="5.88619">
        <ele>281.6</ele>
        <time>2022-07-24T18:20:46Z</time>
      </trkpt>
      <trkpt lat="47.18327" lon="5.88617">
        <ele>281.6</ele>
        <time>2022-07-24T18:20:48Z</time>
      </trkpt>
      <trkpt lat="47.18325" lon="5.88615">
        <ele>281.8</ele>
        <time>2022-07-24T18:20:49Z</time>
      </trkpt>
      <trkpt lat="47.18323" lon="5.88615">
        <ele>281.6</ele>
        <time>2022-07-24T18:20:50Z</time>
      </trkpt>
      <trkpt lat="47.18321" lon="5.88614">
        <ele>281.6</ele>
        <time>2022-07-24T18:20:51Z</time>
      </trkpt>
      <trkpt lat="47.1832" lon="5.88614">
        <ele>281.6</ele>
        <time>2022-07-24T18:20:52Z</time>
      </trkpt>
      <trkpt lat="47.18318" lon="5.88614">
        <ele>281.6</ele>
        <time>2022-07-24T18:20:53Z</time>
      </trkpt>
      <trkpt lat="47.18307" lon="5.88611">
        <ele>281.4</ele>
        <time>2022-07-24T18:20:58Z</time>
      </trkpt>
      <trkpt lat="47.18305" lon="5.8861">
        <ele>281.4</ele>
        <time>2022-07-24T18:20:59Z</time>
      </trkpt>
      <trkpt lat="47.18303" lon="5.88609">
        <ele>281.4</ele>
        <time>2022-07-24T18:21:00Z</time>
      </trkpt>
      <trkpt lat="47.18301" lon="5.88607">
        <ele>281.4</ele>
        <time>2022-07-24T18:21:01Z</time>
      </trkpt>
      <trkpt lat="47.1829" lon="5.886">
        <ele>281.4</ele>
        <time>2022-07-24T18:21:05Z</time>
      </trkpt>
      <trkpt lat="47.18282" lon="5.88596">
        <ele>281.4</ele>
        <time>2022-07-24T18:21:13Z</time>
      </trkpt>
      <trkpt lat="47.18271" lon="5.88586">
        <ele>281.4</ele>
        <time>2022-07-24T18:21:18Z</time>
      </trkpt>
      <trkpt lat="47.18268" lon="5.88584">
        <ele>281.4</ele>
        <time>2022-07-24T18:21:19Z</time>
      </trkpt>
      <trkpt lat="47.18266" lon="5.88582">
        <ele>281.4</ele>
        <time>2022-07-24T18:21:20Z</time>
      </trkpt>
      <trkpt lat="47.1826" lon="5.88578">
        <ele>281.6</ele>
        <time>2022-07-24T18:21:23Z</time>
      </trkpt>
      <trkpt lat="47.18258" lon="5.88578">
        <ele>281.8</ele>
        <time>2022-07-24T18:21:24Z</time>
      </trkpt>
      <trkpt lat="47.18256" lon="5.88576">
        <ele>282</ele>
        <time>2022-07-24T18:21:25Z</time>
      </trkpt>
      <trkpt lat="47.18254" lon="5.88575">
        <ele>282</ele>
        <time>2022-07-24T18:21:26Z</time>
      </trkpt>
      <trkpt lat="47.18253" lon="5.88573">
        <ele>282</ele>
        <time>2022-07-24T18:21:27Z</time>
      </trkpt>
      <trkpt lat="47.1825" lon="5.88571">
        <ele>282</ele>
        <time>2022-07-24T18:21:28Z</time>
      </trkpt>
      <trkpt lat="47.18248" lon="5.88568">
        <ele>282.2</ele>
        <time>2022-07-24T18:21:29Z</time>
      </trkpt>
      <trkpt lat="47.18245" lon="5.88565">
        <ele>282.4</ele>
        <time>2022-07-24T18:21:30Z</time>
      </trkpt>
      <trkpt lat="47.18245" lon="5.88558">
        <ele>282.4</ele>
        <time>2022-07-24T18:21:32Z</time>
      </trkpt>
      <trkpt lat="47.18245" lon="5.88555">
        <ele>282.4</ele>
        <time>2022-07-24T18:21:33Z</time>
      </trkpt>
      <trkpt lat="47.18244" lon="5.88551">
        <ele>282.6</ele>
        <time>2022-07-24T18:21:34Z</time>
      </trkpt>
      <trkpt lat="47.18241" lon="5.88549">
        <ele>282.6</ele>
        <time>2022-07-24T18:21:35Z</time>
      </trkpt>
      <trkpt lat="47.1824" lon="5.88547">
        <ele>282.6</ele>
        <time>2022-07-24T18:21:36Z</time>
      </trkpt>
      <trkpt lat="47.18238" lon="5.88544">
        <ele>282.8</ele>
        <time>2022-07-24T18:21:37Z</time>
      </trkpt>
      <trkpt lat="47.18236" lon="5.88539">
        <ele>282.8</ele>
        <time>2022-07-24T18:21:38Z</time>
      </trkpt>
      <trkpt lat="47.18223" lon="5.88515">
        <ele>282.8</ele>
        <time>2022-07-24T18:21:45Z</time>
      </trkpt>
      <trkpt lat="47.18221" lon="5.88512">
        <ele>282.8</ele>
        <time>2022-07-24T18:21:46Z</time>
      </trkpt>
      <trkpt lat="47.18212" lon="5.88498">
        <ele>282.8</ele>
        <time>2022-07-24T18:21:50Z</time>
      </trkpt>
      <trkpt lat="47.18209" lon="5.88492">
        <ele>282.6</ele>
        <time>2022-07-24T18:21:52Z</time>
      </trkpt>
      <trkpt lat="47.18206" lon="5.8849">
        <ele>282.6</ele>
        <time>2022-07-24T18:21:53Z</time>
      </trkpt>
      <trkpt lat="47.18204" lon="5.88486">
        <ele>282.6</ele>
        <time>2022-07-24T18:21:54Z</time>
      </trkpt>
      <trkpt lat="47.18201" lon="5.88483">
        <ele>282.6</ele>
        <time>2022-07-24T18:21:55Z</time>
      </trkpt>
      <trkpt lat="47.18198" lon="5.88481">
        <ele>282.8</ele>
        <time>2022-07-24T18:21:56Z</time>
      </trkpt>
      <trkpt lat="47.18197" lon="5.88479">
        <ele>282.8</ele>
        <time>2022-07-24T18:21:57Z</time>
      </trkpt>
      <trkpt lat="47.18195" lon="5.88478">
        <ele>283</ele>
        <time>2022-07-24T18:21:58Z</time>
      </trkpt>
      <trkpt lat="47.18193" lon="5.88476">
        <ele>283</ele>
        <time>2022-07-24T18:21:59Z</time>
      </trkpt>
      <trkpt lat="47.1819" lon="5.88475">
        <ele>283.2</ele>
        <time>2022-07-24T18:22:00Z</time>
      </trkpt>
      <trkpt lat="47.18188" lon="5.88473">
        <ele>283.4</ele>
        <time>2022-07-24T18:22:01Z</time>
      </trkpt>
      <trkpt lat="47.18187" lon="5.8847">
        <ele>283.4</ele>
        <time>2022-07-24T18:22:02Z</time>
      </trkpt>
      <trkpt lat="47.18186" lon="5.88466">
        <ele>283.6</ele>
        <time>2022-07-24T18:22:03Z</time>
      </trkpt>
      <trkpt lat="47.18187" lon="5.88461">
        <ele>283.6</ele>
        <time>2022-07-24T18:22:04Z</time>
      </trkpt>
      <trkpt lat="47.18187" lon="5.88457">
        <ele>283.6</ele>
        <time>2022-07-24T18:22:05Z</time>
      </trkpt>
      <trkpt lat="47.18184" lon="5.88453">
        <ele>283.8</ele>
        <time>2022-07-24T18:22:06Z</time>
      </trkpt>
      <trkpt lat="47.18181" lon="5.88449">
        <ele>283.8</ele>
        <time>2022-07-24T18:22:07Z</time>
      </trkpt>
      <trkpt lat="47.18179" lon="5.88445">
        <ele>284</ele>
        <time>2022-07-24T18:22:08Z</time>
      </trkpt>
      <trkpt lat="47.18177" lon="5.88441">
        <ele>284</ele>
        <time>2022-07-24T18:22:09Z</time>
      </trkpt>
      <trkpt lat="47.18176" lon="5.8844">
        <ele>284.2</ele>
        <time>2022-07-24T18:22:10Z</time>
      </trkpt>
      <trkpt lat="47.18166" lon="5.8843">
        <ele>284.4</ele>
        <time>2022-07-24T18:22:14Z</time>
      </trkpt>
      <trkpt lat="47.18156" lon="5.88421">
        <ele>284.6</ele>
        <time>2022-07-24T18:22:18Z</time>
      </trkpt>
      <trkpt lat="47.18149" lon="5.88418">
        <ele>285</ele>
        <time>2022-07-24T18:22:21Z</time>
      </trkpt>
      <trkpt lat="47.18145" lon="5.88413">
        <ele>285</ele>
        <time>2022-07-24T18:22:22Z</time>
      </trkpt>
      <trkpt lat="47.18132" lon="5.88395">
        <ele>285.4</ele>
        <time>2022-07-24T18:22:27Z</time>
      </trkpt>
      <trkpt lat="47.18131" lon="5.88393">
        <ele>285.4</ele>
        <time>2022-07-24T18:22:28Z</time>
      </trkpt>
      <trkpt lat="47.18129" lon="5.8839">
        <ele>285.6</ele>
        <time>2022-07-24T18:22:29Z</time>
      </trkpt>
      <trkpt lat="47.1812" lon="5.88378">
        <ele>286</ele>
        <time>2022-07-24T18:22:33Z</time>
      </trkpt>
      <trkpt lat="47.18118" lon="5.88373">
        <ele>286</ele>
        <time>2022-07-24T18:22:34Z</time>
      </trkpt>
      <trkpt lat="47.18116" lon="5.88368">
        <ele>286</ele>
        <time>2022-07-24T18:22:35Z</time>
      </trkpt>
      <trkpt lat="47.18114" lon="5.88366">
        <ele>286</ele>
        <time>2022-07-24T18:22:36Z</time>
      </trkpt>
      <trkpt lat="47.18112" lon="5.88365">
        <ele>286</ele>
        <time>2022-07-24T18:22:37Z</time>
      </trkpt>
      <trkpt lat="47.18112" lon="5.88363">
        <ele>286.2</ele>
        <time>2022-07-24T18:22:38Z</time>
      </trkpt>
      <trkpt lat="47.18109" lon="5.88359">
        <ele>286.6</ele>
        <time>2022-07-24T18:22:40Z</time>
      </trkpt>
      <trkpt lat="47.18106" lon="5.88354">
        <ele>286.8</ele>
        <time>2022-07-24T18:22:42Z</time>
      </trkpt>
      <trkpt lat="47.18101" lon="5.88346">
        <ele>287</ele>
        <time>2022-07-24T18:22:46Z</time>
      </trkpt>
      <trkpt lat="47.181" lon="5.88345">
        <ele>287.4</ele>
        <time>2022-07-24T18:22:47Z</time>
      </trkpt>
      <trkpt lat="47.18098" lon="5.88343">
        <ele>287.6</ele>
        <time>2022-07-24T18:22:48Z</time>
      </trkpt>
      <trkpt lat="47.18096" lon="5.8834">
        <ele>287.8</ele>
        <time>2022-07-24T18:22:49Z</time>
      </trkpt>
      <trkpt lat="47.18092" lon="5.88337">
        <ele>287.8</ele>
        <time>2022-07-24T18:22:50Z</time>
      </trkpt>
      <trkpt lat="47.18089" lon="5.88335">
        <ele>288</ele>
        <time>2022-07-24T18:22:51Z</time>
      </trkpt>
      <trkpt lat="47.18086" lon="5.88331">
        <ele>288.4</ele>
        <time>2022-07-24T18:22:53Z</time>
      </trkpt>
      <trkpt lat="47.18085" lon="5.88328">
        <ele>288.4</ele>
        <time>2022-07-24T18:22:54Z</time>
      </trkpt>
      <trkpt lat="47.18082" lon="5.88325">
        <ele>288.6</ele>
        <time>2022-07-24T18:22:55Z</time>
      </trkpt>
      <trkpt lat="47.1808" lon="5.88323">
        <ele>288.8</ele>
        <time>2022-07-24T18:22:56Z</time>
      </trkpt>
      <trkpt lat="47.18079" lon="5.88318">
        <ele>289</ele>
        <time>2022-07-24T18:22:57Z</time>
      </trkpt>
      <trkpt lat="47.18077" lon="5.88315">
        <ele>289</ele>
        <time>2022-07-24T18:22:58Z</time>
      </trkpt>
      <trkpt lat="47.18075" lon="5.88313">
        <ele>289.2</ele>
        <time>2022-07-24T18:22:59Z</time>
      </trkpt>
      <trkpt lat="47.18074" lon="5.88312">
        <ele>289.4</ele>
        <time>2022-07-24T18:23:00Z</time>
      </trkpt>
      <trkpt lat="47.18073" lon="5.8831">
        <ele>289.6</ele>
        <time>2022-07-24T18:23:01Z</time>
      </trkpt>
      <trkpt lat="47.18072" lon="5.88309">
        <ele>289.6</ele>
        <time>2022-07-24T18:23:02Z</time>
      </trkpt>
      <trkpt lat="47.18071" lon="5.8831">
        <ele>289.8</ele>
        <time>2022-07-24T18:23:03Z</time>
      </trkpt>
      <trkpt lat="47.1807" lon="5.88308">
        <ele>289.8</ele>
        <time>2022-07-24T18:23:04Z</time>
      </trkpt>
      <trkpt lat="47.18068" lon="5.88307">
        <ele>290</ele>
        <time>2022-07-24T18:23:05Z</time>
      </trkpt>
      <trkpt lat="47.18067" lon="5.88305">
        <ele>290.2</ele>
        <time>2022-07-24T18:23:06Z</time>
      </trkpt>
      <trkpt lat="47.18066" lon="5.88304">
        <ele>290.4</ele>
        <time>2022-07-24T18:23:07Z</time>
      </trkpt>
      <trkpt lat="47.18066" lon="5.88302">
        <ele>290.6</ele>
        <time>2022-07-24T18:23:08Z</time>
      </trkpt>
      <trkpt lat="47.18067" lon="5.88301">
        <ele>290.8</ele>
        <time>2022-07-24T18:23:09Z</time>
      </trkpt>
      <trkpt lat="47.18067" lon="5.88298">
        <ele>291.2</ele>
        <time>2022-07-24T18:23:10Z</time>
      </trkpt>
      <trkpt lat="47.18065" lon="5.88296">
        <ele>291.4</ele>
        <time>2022-07-24T18:23:11Z</time>
      </trkpt>
      <trkpt lat="47.18063" lon="5.88293">
        <ele>291.4</ele>
        <time>2022-07-24T18:23:12Z</time>
      </trkpt>
      <trkpt lat="47.18061" lon="5.88292">
        <ele>291.6</ele>
        <time>2022-07-24T18:23:13Z</time>
      </trkpt>
      <trkpt lat="47.1806" lon="5.8829">
        <ele>291.6</ele>
        <time>2022-07-24T18:23:14Z</time>
      </trkpt>
      <trkpt lat="47.18058" lon="5.88288">
        <ele>291.8</ele>
        <time>2022-07-24T18:23:15Z</time>
      </trkpt>
      <trkpt lat="47.18055" lon="5.88287">
        <ele>291.8</ele>
        <time>2022-07-24T18:23:16Z</time>
      </trkpt>
      <trkpt lat="47.18053" lon="5.88288">
        <ele>292</ele>
        <time>2022-07-24T18:23:17Z</time>
      </trkpt>
      <trkpt lat="47.18051" lon="5.88286">
        <ele>292</ele>
        <time>2022-07-24T18:23:18Z</time>
      </trkpt>
      <trkpt lat="47.1805" lon="5.88285">
        <ele>292.2</ele>
        <time>2022-07-24T18:23:19Z</time>
      </trkpt>
      <trkpt lat="47.18049" lon="5.88283">
        <ele>292.6</ele>
        <time>2022-07-24T18:23:20Z</time>
      </trkpt>
      <trkpt lat="47.18047" lon="5.8828">
        <ele>292.6</ele>
        <time>2022-07-24T18:23:21Z</time>
      </trkpt>
      <trkpt lat="47.18047" lon="5.88277">
        <ele>292.8</ele>
        <time>2022-07-24T18:23:22Z</time>
      </trkpt>
      <trkpt lat="47.18048" lon="5.88275">
        <ele>293</ele>
        <time>2022-07-24T18:23:23Z</time>
      </trkpt>
      <trkpt lat="47.18046" lon="5.88272">
        <ele>293.2</ele>
        <time>2022-07-24T18:23:24Z</time>
      </trkpt>
      <trkpt lat="47.18043" lon="5.88269">
        <ele>293.4</ele>
        <time>2022-07-24T18:23:25Z</time>
      </trkpt>
      <trkpt lat="47.1804" lon="5.88267">
        <ele>293.4</ele>
        <time>2022-07-24T18:23:26Z</time>
      </trkpt>
      <trkpt lat="47.18036" lon="5.88264">
        <ele>293.8</ele>
        <time>2022-07-24T18:23:27Z</time>
      </trkpt>
      <trkpt lat="47.18034" lon="5.88261">
        <ele>293.8</ele>
        <time>2022-07-24T18:23:28Z</time>
      </trkpt>
      <trkpt lat="47.18032" lon="5.88258">
        <ele>294.2</ele>
        <time>2022-07-24T18:23:29Z</time>
      </trkpt>
      <trkpt lat="47.18031" lon="5.88255">
        <ele>294.2</ele>
        <time>2022-07-24T18:23:30Z</time>
      </trkpt>
      <trkpt lat="47.1803" lon="5.88253">
        <ele>294.6</ele>
        <time>2022-07-24T18:23:31Z</time>
      </trkpt>
      <trkpt lat="47.18029" lon="5.88252">
        <ele>294.8</ele>
        <time>2022-07-24T18:23:32Z</time>
      </trkpt>
      <trkpt lat="47.18028" lon="5.8825">
        <ele>294.8</ele>
        <time>2022-07-24T18:23:33Z</time>
      </trkpt>
      <trkpt lat="47.18026" lon="5.88247">
        <ele>294.8</ele>
        <time>2022-07-24T18:23:34Z</time>
      </trkpt>
      <trkpt lat="47.18025" lon="5.88245">
        <ele>295</ele>
        <time>2022-07-24T18:23:35Z</time>
      </trkpt>
      <trkpt lat="47.18024" lon="5.88245">
        <ele>295</ele>
        <time>2022-07-24T18:23:36Z</time>
      </trkpt>
      <trkpt lat="47.18023" lon="5.88244">
        <ele>295.2</ele>
        <time>2022-07-24T18:23:37Z</time>
      </trkpt>
      <trkpt lat="47.18019" lon="5.88241">
        <ele>295.2</ele>
        <time>2022-07-24T18:23:38Z</time>
      </trkpt>
      <trkpt lat="47.18017" lon="5.88238">
        <ele>295.4</ele>
        <time>2022-07-24T18:23:39Z</time>
      </trkpt>
      <trkpt lat="47.18015" lon="5.88236">
        <ele>295.4</ele>
        <time>2022-07-24T18:23:40Z</time>
      </trkpt>
      <trkpt lat="47.18014" lon="5.88235">
        <ele>295.6</ele>
        <time>2022-07-24T18:23:41Z</time>
      </trkpt>
      <trkpt lat="47.18013" lon="5.88233">
        <ele>295.6</ele>
        <time>2022-07-24T18:23:42Z</time>
      </trkpt>
      <trkpt lat="47.18013" lon="5.88231">
        <ele>295.8</ele>
        <time>2022-07-24T18:23:43Z</time>
      </trkpt>
      <trkpt lat="47.18013" lon="5.8823">
        <ele>295.8</ele>
        <time>2022-07-24T18:23:44Z</time>
      </trkpt>
      <trkpt lat="47.18011" lon="5.88227">
        <ele>296</ele>
        <time>2022-07-24T18:23:45Z</time>
      </trkpt>
      <trkpt lat="47.1801" lon="5.88226">
        <ele>296.2</ele>
        <time>2022-07-24T18:23:46Z</time>
      </trkpt>
      <trkpt lat="47.18009" lon="5.88225">
        <ele>296.2</ele>
        <time>2022-07-24T18:23:47Z</time>
      </trkpt>
      <trkpt lat="47.18008" lon="5.88224">
        <ele>296.4</ele>
        <time>2022-07-24T18:23:48Z</time>
      </trkpt>
      <trkpt lat="47.18007" lon="5.88223">
        <ele>296.4</ele>
        <time>2022-07-24T18:23:49Z</time>
      </trkpt>
      <trkpt lat="47.18005" lon="5.88223">
        <ele>296.4</ele>
        <time>2022-07-24T18:23:50Z</time>
      </trkpt>
      <trkpt lat="47.18004" lon="5.88222">
        <ele>296.6</ele>
        <time>2022-07-24T18:23:51Z</time>
      </trkpt>
      <trkpt lat="47.18002" lon="5.88222">
        <ele>296.6</ele>
        <time>2022-07-24T18:23:52Z</time>
      </trkpt>
      <trkpt lat="47.18001" lon="5.88222">
        <ele>296.8</ele>
        <time>2022-07-24T18:23:53Z</time>
      </trkpt>
      <trkpt lat="47.18" lon="5.88221">
        <ele>296.8</ele>
        <time>2022-07-24T18:23:54Z</time>
      </trkpt>
      <trkpt lat="47.17998" lon="5.8822">
        <ele>297</ele>
        <time>2022-07-24T18:23:55Z</time>
      </trkpt>
      <trkpt lat="47.17997" lon="5.88219">
        <ele>297</ele>
        <time>2022-07-24T18:23:56Z</time>
      </trkpt>
      <trkpt lat="47.17995" lon="5.88217">
        <ele>297.2</ele>
        <time>2022-07-24T18:23:57Z</time>
      </trkpt>
      <trkpt lat="47.17993" lon="5.88215">
        <ele>297.6</ele>
        <time>2022-07-24T18:23:58Z</time>
      </trkpt>
      <trkpt lat="47.17991" lon="5.88214">
        <ele>297.6</ele>
        <time>2022-07-24T18:23:59Z</time>
      </trkpt>
      <trkpt lat="47.1799" lon="5.88212">
        <ele>297.6</ele>
        <time>2022-07-24T18:24:00Z</time>
      </trkpt>
      <trkpt lat="47.17987" lon="5.88209">
        <ele>297.8</ele>
        <time>2022-07-24T18:24:01Z</time>
      </trkpt>
      <trkpt lat="47.17985" lon="5.88207">
        <ele>298</ele>
        <time>2022-07-24T18:24:02Z</time>
      </trkpt>
      <trkpt lat="47.17983" lon="5.88205">
        <ele>298</ele>
        <time>2022-07-24T18:24:03Z</time>
      </trkpt>
      <trkpt lat="47.17981" lon="5.88203">
        <ele>298.2</ele>
        <time>2022-07-24T18:24:04Z</time>
      </trkpt>
      <trkpt lat="47.17979" lon="5.882">
        <ele>298.4</ele>
        <time>2022-07-24T18:24:05Z</time>
      </trkpt>
      <trkpt lat="47.17976" lon="5.88198">
        <ele>298.4</ele>
        <time>2022-07-24T18:24:06Z</time>
      </trkpt>
      <trkpt lat="47.17974" lon="5.88195">
        <ele>298.6</ele>
        <time>2022-07-24T18:24:07Z</time>
      </trkpt>
      <trkpt lat="47.17972" lon="5.88193">
        <ele>298.6</ele>
        <time>2022-07-24T18:24:08Z</time>
      </trkpt>
      <trkpt lat="47.1797" lon="5.88191">
        <ele>298.8</ele>
        <time>2022-07-24T18:24:09Z</time>
      </trkpt>
      <trkpt lat="47.17968" lon="5.88188">
        <ele>298.8</ele>
        <time>2022-07-24T18:24:10Z</time>
      </trkpt>
      <trkpt lat="47.17964" lon="5.88185">
        <ele>298.8</ele>
        <time>2022-07-24T18:24:11Z</time>
      </trkpt>
      <trkpt lat="47.17962" lon="5.88183">
        <ele>298.8</ele>
        <time>2022-07-24T18:24:12Z</time>
      </trkpt>
      <trkpt lat="47.1796" lon="5.88181">
        <ele>299</ele>
        <time>2022-07-24T18:24:13Z</time>
      </trkpt>
      <trkpt lat="47.17957" lon="5.8818">
        <ele>299</ele>
        <time>2022-07-24T18:24:14Z</time>
      </trkpt>
      <trkpt lat="47.17955" lon="5.88178">
        <ele>299</ele>
        <time>2022-07-24T18:24:15Z</time>
      </trkpt>
      <trkpt lat="47.17953" lon="5.88177">
        <ele>299.2</ele>
        <time>2022-07-24T18:24:16Z</time>
      </trkpt>
      <trkpt lat="47.1795" lon="5.88174">
        <ele>299.2</ele>
        <time>2022-07-24T18:24:17Z</time>
      </trkpt>
      <trkpt lat="47.17947" lon="5.88172">
        <ele>299.2</ele>
        <time>2022-07-24T18:24:18Z</time>
      </trkpt>
      <trkpt lat="47.17945" lon="5.8817">
        <ele>299.4</ele>
        <time>2022-07-24T18:24:19Z</time>
      </trkpt>
      <trkpt lat="47.17944" lon="5.88167">
        <ele>299.4</ele>
        <time>2022-07-24T18:24:20Z</time>
      </trkpt>
      <trkpt lat="47.17942" lon="5.88165">
        <ele>299.4</ele>
        <time>2022-07-24T18:24:21Z</time>
      </trkpt>
      <trkpt lat="47.17922" lon="5.88146">
        <ele>299.8</ele>
        <time>2022-07-24T18:24:29Z</time>
      </trkpt>
      <trkpt lat="47.17907" lon="5.88137">
        <ele>300</ele>
        <time>2022-07-24T18:24:35Z</time>
      </trkpt>
      <trkpt lat="47.17905" lon="5.88136">
        <ele>300</ele>
        <time>2022-07-24T18:24:36Z</time>
      </trkpt>
      <trkpt lat="47.17903" lon="5.88134">
        <ele>300</ele>
        <time>2022-07-24T18:24:37Z</time>
      </trkpt>
      <trkpt lat="47.17901" lon="5.8813">
        <ele>300</ele>
        <time>2022-07-24T18:24:38Z</time>
      </trkpt>
      <trkpt lat="47.17899" lon="5.88129">
        <ele>300</ele>
        <time>2022-07-24T18:24:39Z</time>
      </trkpt>
      <trkpt lat="47.17894" lon="5.88125">
        <ele>300</ele>
        <time>2022-07-24T18:24:41Z</time>
      </trkpt>
      <trkpt lat="47.17889" lon="5.88121">
        <ele>300.2</ele>
        <time>2022-07-24T18:24:44Z</time>
      </trkpt>
      <trkpt lat="47.17887" lon="5.88119">
        <ele>300.2</ele>
        <time>2022-07-24T18:24:45Z</time>
      </trkpt>
      <trkpt lat="47.17884" lon="5.88117">
        <ele>300.2</ele>
        <time>2022-07-24T18:24:46Z</time>
      </trkpt>
      <trkpt lat="47.17882" lon="5.88116">
        <ele>300.4</ele>
        <time>2022-07-24T18:24:47Z</time>
      </trkpt>
      <trkpt lat="47.1788" lon="5.88114">
        <ele>300.6</ele>
        <time>2022-07-24T18:24:48Z</time>
      </trkpt>
      <trkpt lat="47.17868" lon="5.88103">
        <ele>301</ele>
        <time>2022-07-24T18:24:53Z</time>
      </trkpt>
      <trkpt lat="47.17851" lon="5.88088">
        <ele>301.2</ele>
        <time>2022-07-24T18:25:00Z</time>
      </trkpt>
      <trkpt lat="47.17848" lon="5.88085">
        <ele>301.4</ele>
        <time>2022-07-24T18:25:02Z</time>
      </trkpt>
      <trkpt lat="47.17832" lon="5.88076">
        <ele>301.6</ele>
        <time>2022-07-24T18:25:08Z</time>
      </trkpt>
      <trkpt lat="47.17821" lon="5.88067">
        <ele>301.6</ele>
        <time>2022-07-24T18:25:14Z</time>
      </trkpt>
      <trkpt lat="47.17819" lon="5.88066">
        <ele>301.6</ele>
        <time>2022-07-24T18:25:15Z</time>
      </trkpt>
      <trkpt lat="47.17816" lon="5.88064">
        <ele>301.6</ele>
        <time>2022-07-24T18:25:16Z</time>
      </trkpt>
      <trkpt lat="47.17808" lon="5.88059">
        <ele>301.8</ele>
        <time>2022-07-24T18:25:20Z</time>
      </trkpt>
      <trkpt lat="47.17808" lon="5.88058">
        <ele>301.8</ele>
        <time>2022-07-24T18:25:21Z</time>
      </trkpt>
      <trkpt lat="47.17806" lon="5.88058">
        <ele>301.8</ele>
        <time>2022-07-24T18:25:23Z</time>
      </trkpt>
      <trkpt lat="47.17804" lon="5.88058">
        <ele>301.8</ele>
        <time>2022-07-24T18:25:24Z</time>
      </trkpt>
      <trkpt lat="47.17801" lon="5.88057">
        <ele>301.8</ele>
        <time>2022-07-24T18:25:25Z</time>
      </trkpt>
      <trkpt lat="47.17799" lon="5.88055">
        <ele>301.8</ele>
        <time>2022-07-24T18:25:26Z</time>
      </trkpt>
      <trkpt lat="47.17797" lon="5.88053">
        <ele>301.6</ele>
        <time>2022-07-24T18:25:27Z</time>
      </trkpt>
      <trkpt lat="47.17796" lon="5.88051">
        <ele>301.6</ele>
        <time>2022-07-24T18:25:28Z</time>
      </trkpt>
      <trkpt lat="47.17795" lon="5.88049">
        <ele>301.4</ele>
        <time>2022-07-24T18:25:29Z</time>
      </trkpt>
      <trkpt lat="47.17795" lon="5.88047">
        <ele>301.4</ele>
        <time>2022-07-24T18:25:30Z</time>
      </trkpt>
      <trkpt lat="47.17794" lon="5.88046">
        <ele>301.4</ele>
        <time>2022-07-24T18:25:31Z</time>
      </trkpt>
      <trkpt lat="47.17794" lon="5.88045">
        <ele>301.2</ele>
        <time>2022-07-24T18:25:36Z</time>
      </trkpt>
      <trkpt lat="47.17793" lon="5.88043">
        <ele>301.2</ele>
        <time>2022-07-24T18:25:37Z</time>
      </trkpt>
      <trkpt lat="47.17791" lon="5.88041">
        <ele>301.2</ele>
        <time>2022-07-24T18:25:38Z</time>
      </trkpt>
      <trkpt lat="47.17784" lon="5.88038">
        <ele>301.2</ele>
        <time>2022-07-24T18:25:40Z</time>
      </trkpt>
      <trkpt lat="47.1778" lon="5.88036">
        <ele>301.2</ele>
        <time>2022-07-24T18:25:41Z</time>
      </trkpt>
      <trkpt lat="47.1777" lon="5.88025">
        <ele>301.2</ele>
        <time>2022-07-24T18:25:45Z</time>
      </trkpt>
      <trkpt lat="47.17767" lon="5.88022">
        <ele>301</ele>
        <time>2022-07-24T18:25:46Z</time>
      </trkpt>
      <trkpt lat="47.17765" lon="5.88021">
        <ele>301</ele>
        <time>2022-07-24T18:25:47Z</time>
      </trkpt>
      <trkpt lat="47.17763" lon="5.8802">
        <ele>301</ele>
        <time>2022-07-24T18:25:48Z</time>
      </trkpt>
      <trkpt lat="47.17761" lon="5.88018">
        <ele>301</ele>
        <time>2022-07-24T18:25:49Z</time>
      </trkpt>
      <trkpt lat="47.17759" lon="5.88015">
        <ele>300.8</ele>
        <time>2022-07-24T18:25:50Z</time>
      </trkpt>
      <trkpt lat="47.17751" lon="5.8801">
        <ele>300.6</ele>
        <time>2022-07-24T18:25:53Z</time>
      </trkpt>
      <trkpt lat="47.17748" lon="5.88009">
        <ele>300.6</ele>
        <time>2022-07-24T18:25:54Z</time>
      </trkpt>
      <trkpt lat="47.17746" lon="5.88009">
        <ele>300.4</ele>
        <time>2022-07-24T18:25:55Z</time>
      </trkpt>
      <trkpt lat="47.17743" lon="5.88007">
        <ele>300.4</ele>
        <time>2022-07-24T18:25:56Z</time>
      </trkpt>
      <trkpt lat="47.17739" lon="5.88006">
        <ele>300.2</ele>
        <time>2022-07-24T18:25:57Z</time>
      </trkpt>
      <trkpt lat="47.17728" lon="5.88002">
        <ele>300</ele>
        <time>2022-07-24T18:25:59Z</time>
      </trkpt>
      <trkpt lat="47.17722" lon="5.87996">
        <ele>299.8</ele>
        <time>2022-07-24T18:26:01Z</time>
      </trkpt>
      <trkpt lat="47.17718" lon="5.87994">
        <ele>299.8</ele>
        <time>2022-07-24T18:26:02Z</time>
      </trkpt>
      <trkpt lat="47.17716" lon="5.87992">
        <ele>299.6</ele>
        <time>2022-07-24T18:26:03Z</time>
      </trkpt>
      <trkpt lat="47.17713" lon="5.8799">
        <ele>299.4</ele>
        <time>2022-07-24T18:26:04Z</time>
      </trkpt>
      <trkpt lat="47.1771" lon="5.87987">
        <ele>299.4</ele>
        <time>2022-07-24T18:26:05Z</time>
      </trkpt>
      <trkpt lat="47.17702" lon="5.8798">
        <ele>299.2</ele>
        <time>2022-07-24T18:26:07Z</time>
      </trkpt>
      <trkpt lat="47.17699" lon="5.87978">
        <ele>299</ele>
        <time>2022-07-24T18:26:09Z</time>
      </trkpt>
      <trkpt lat="47.17695" lon="5.87974">
        <ele>298.6</ele>
        <time>2022-07-24T18:26:10Z</time>
      </trkpt>
      <trkpt lat="47.17687" lon="5.87965">
        <ele>298.2</ele>
        <time>2022-07-24T18:26:12Z</time>
      </trkpt>
      <trkpt lat="47.17672" lon="5.87954">
        <ele>298</ele>
        <time>2022-07-24T18:26:15Z</time>
      </trkpt>
      <trkpt lat="47.17668" lon="5.87952">
        <ele>297.8</ele>
        <time>2022-07-24T18:26:16Z</time>
      </trkpt>
      <trkpt lat="47.17663" lon="5.8795">
        <ele>297.4</ele>
        <time>2022-07-24T18:26:17Z</time>
      </trkpt>
      <trkpt lat="47.17653" lon="5.87945">
        <ele>296.8</ele>
        <time>2022-07-24T18:26:19Z</time>
      </trkpt>
      <trkpt lat="47.17631" lon="5.87939">
        <ele>295.8</ele>
        <time>2022-07-24T18:26:24Z</time>
      </trkpt>
      <trkpt lat="47.17626" lon="5.87937">
        <ele>295.8</ele>
        <time>2022-07-24T18:26:25Z</time>
      </trkpt>
      <trkpt lat="47.17622" lon="5.87936">
        <ele>295.8</ele>
        <time>2022-07-24T18:26:26Z</time>
      </trkpt>
      <trkpt lat="47.17617" lon="5.87934">
        <ele>295.6</ele>
        <time>2022-07-24T18:26:27Z</time>
      </trkpt>
      <trkpt lat="47.1761" lon="5.87932">
        <ele>295.4</ele>
        <time>2022-07-24T18:26:28Z</time>
      </trkpt>
      <trkpt lat="47.17596" lon="5.87926">
        <ele>294.6</ele>
        <time>2022-07-24T18:26:32Z</time>
      </trkpt>
      <trkpt lat="47.17594" lon="5.87926">
        <ele>294.2</ele>
        <time>2022-07-24T18:26:33Z</time>
      </trkpt>
      <trkpt lat="47.17593" lon="5.87924">
        <ele>293.8</ele>
        <time>2022-07-24T18:26:34Z</time>
      </trkpt>
      <trkpt lat="47.17591" lon="5.87923">
        <ele>293</ele>
        <time>2022-07-24T18:27:33Z</time>
      </trkpt>
      <trkpt lat="47.1759" lon="5.87918">
        <ele>293</ele>
        <time>2022-07-24T18:27:35Z</time>
      </trkpt>
      <trkpt lat="47.1759" lon="5.87916">
        <ele>293</ele>
        <time>2022-07-24T18:27:36Z</time>
      </trkpt>
      <trkpt lat="47.1759" lon="5.87913">
        <ele>293</ele>
        <time>2022-07-24T18:27:37Z</time>
      </trkpt>
      <trkpt lat="47.17591" lon="5.8791">
        <ele>293</ele>
        <time>2022-07-24T18:27:38Z</time>
      </trkpt>
      <trkpt lat="47.17591" lon="5.87907">
        <ele>293</ele>
        <time>2022-07-24T18:27:39Z</time>
      </trkpt>
      <trkpt lat="47.17591" lon="5.87902">
        <ele>293.2</ele>
        <time>2022-07-24T18:27:41Z</time>
      </trkpt>
      <trkpt lat="47.17592" lon="5.879">
        <ele>293.4</ele>
        <time>2022-07-24T18:27:42Z</time>
      </trkpt>
      <trkpt lat="47.17591" lon="5.87898">
        <ele>293.4</ele>
        <time>2022-07-24T18:27:43Z</time>
      </trkpt>
      <trkpt lat="47.1759" lon="5.87896">
        <ele>293.4</ele>
        <time>2022-07-24T18:27:44Z</time>
      </trkpt>
      <trkpt lat="47.17589" lon="5.87893">
        <ele>293.4</ele>
        <time>2022-07-24T18:27:45Z</time>
      </trkpt>
      <trkpt lat="47.17588" lon="5.8789">
        <ele>293.4</ele>
        <time>2022-07-24T18:27:46Z</time>
      </trkpt>
      <trkpt lat="47.17588" lon="5.87882">
        <ele>293.8</ele>
        <time>2022-07-24T18:27:48Z</time>
      </trkpt>
      <trkpt lat="47.17588" lon="5.87879">
        <ele>293.8</ele>
        <time>2022-07-24T18:27:49Z</time>
      </trkpt>
      <trkpt lat="47.17588" lon="5.87876">
        <ele>294</ele>
        <time>2022-07-24T18:27:50Z</time>
      </trkpt>
      <trkpt lat="47.17586" lon="5.87868">
        <ele>294.4</ele>
        <time>2022-07-24T18:27:52Z</time>
      </trkpt>
      <trkpt lat="47.17585" lon="5.87864">
        <ele>294.4</ele>
        <time>2022-07-24T18:27:53Z</time>
      </trkpt>
      <trkpt lat="47.17584" lon="5.87856">
        <ele>294.8</ele>
        <time>2022-07-24T18:27:55Z</time>
      </trkpt>
      <trkpt lat="47.17583" lon="5.87845">
        <ele>295.2</ele>
        <time>2022-07-24T18:27:58Z</time>
      </trkpt>
      <trkpt lat="47.17582" lon="5.87826">
        <ele>295.6</ele>
        <time>2022-07-24T18:28:03Z</time>
      </trkpt>
      <trkpt lat="47.17581" lon="5.87822">
        <ele>295.6</ele>
        <time>2022-07-24T18:28:04Z</time>
      </trkpt>
      <trkpt lat="47.17579" lon="5.87817">
        <ele>295.6</ele>
        <time>2022-07-24T18:28:05Z</time>
      </trkpt>
      <trkpt lat="47.17578" lon="5.87811">
        <ele>295.6</ele>
        <time>2022-07-24T18:28:06Z</time>
      </trkpt>
      <trkpt lat="47.17577" lon="5.87801">
        <ele>295.6</ele>
        <time>2022-07-24T18:28:08Z</time>
      </trkpt>
      <trkpt lat="47.17574" lon="5.8779">
        <ele>295.4</ele>
        <time>2022-07-24T18:28:11Z</time>
      </trkpt>
      <trkpt lat="47.17573" lon="5.87786">
        <ele>295.4</ele>
        <time>2022-07-24T18:28:12Z</time>
      </trkpt>
      <trkpt lat="47.17573" lon="5.87782">
        <ele>295.4</ele>
        <time>2022-07-24T18:28:13Z</time>
      </trkpt>
      <trkpt lat="47.17574" lon="5.87772">
        <ele>295.4</ele>
        <time>2022-07-24T18:28:15Z</time>
      </trkpt>
      <trkpt lat="47.17574" lon="5.87767">
        <ele>295.2</ele>
        <time>2022-07-24T18:28:16Z</time>
      </trkpt>
      <trkpt lat="47.17573" lon="5.87762">
        <ele>294.8</ele>
        <time>2022-07-24T18:28:17Z</time>
      </trkpt>
      <trkpt lat="47.17573" lon="5.87757">
        <ele>294.8</ele>
        <time>2022-07-24T18:28:18Z</time>
      </trkpt>
      <trkpt lat="47.17573" lon="5.87751">
        <ele>294.6</ele>
        <time>2022-07-24T18:28:19Z</time>
      </trkpt>
      <trkpt lat="47.17569" lon="5.87728">
        <ele>294.6</ele>
        <time>2022-07-24T18:28:22Z</time>
      </trkpt>
      <trkpt lat="47.17567" lon="5.8772">
        <ele>294.4</ele>
        <time>2022-07-24T18:28:23Z</time>
      </trkpt>
      <trkpt lat="47.17569" lon="5.87714">
        <ele>294.2</ele>
        <time>2022-07-24T18:28:24Z</time>
      </trkpt>
      <trkpt lat="47.17572" lon="5.87707">
        <ele>294</ele>
        <time>2022-07-24T18:28:25Z</time>
      </trkpt>
      <trkpt lat="47.17571" lon="5.877">
        <ele>294</ele>
        <time>2022-07-24T18:28:26Z</time>
      </trkpt>
      <trkpt lat="47.17571" lon="5.87685">
        <ele>293.8</ele>
        <time>2022-07-24T18:28:28Z</time>
      </trkpt>
      <trkpt lat="47.17571" lon="5.87679">
        <ele>293.6</ele>
        <time>2022-07-24T18:28:29Z</time>
      </trkpt>
      <trkpt lat="47.17569" lon="5.8767">
        <ele>293.6</ele>
        <time>2022-07-24T18:28:30Z</time>
      </trkpt>
      <trkpt lat="47.17568" lon="5.87664">
        <ele>293.4</ele>
        <time>2022-07-24T18:28:31Z</time>
      </trkpt>
      <trkpt lat="47.17568" lon="5.87663">
        <ele>293.2</ele>
        <time>2022-07-24T18:28:32Z</time>
      </trkpt>
      <trkpt lat="47.17568" lon="5.87662">
        <ele>292.8</ele>
        <time>2022-07-24T18:28:35Z</time>
      </trkpt>
      <trkpt lat="47.17567" lon="5.87664">
        <ele>292.6</ele>
        <time>2022-07-24T18:28:36Z</time>
      </trkpt>
      <trkpt lat="47.17567" lon="5.87665">
        <ele>292.6</ele>
        <time>2022-07-24T18:28:37Z</time>
      </trkpt>
      <trkpt lat="47.17568" lon="5.87666">
        <ele>292.4</ele>
        <time>2022-07-24T18:28:38Z</time>
      </trkpt>
      <trkpt lat="47.17567" lon="5.87667">
        <ele>292.4</ele>
        <time>2022-07-24T18:28:39Z</time>
      </trkpt>
      <trkpt lat="47.17568" lon="5.87668">
        <ele>292.4</ele>
        <time>2022-07-24T18:28:40Z</time>
      </trkpt>
      <trkpt lat="47.17568" lon="5.87669">
        <ele>292.2</ele>
        <time>2022-07-24T18:28:41Z</time>
      </trkpt>
      <trkpt lat="47.17566" lon="5.8767">
        <ele>292.2</ele>
        <time>2022-07-24T18:28:43Z</time>
      </trkpt>
      <trkpt lat="47.17564" lon="5.8767">
        <ele>292</ele>
        <time>2022-07-24T18:28:44Z</time>
      </trkpt>
      <trkpt lat="47.17557" lon="5.8767">
        <ele>292.2</ele>
        <time>2022-07-24T18:28:46Z</time>
      </trkpt>
      <trkpt lat="47.17543" lon="5.87666">
        <ele>291.6</ele>
        <time>2022-07-24T18:28:49Z</time>
      </trkpt>
      <trkpt lat="47.17538" lon="5.87664">
        <ele>291.8</ele>
        <time>2022-07-24T18:28:50Z</time>
      </trkpt>
      <trkpt lat="47.17532" lon="5.87662">
        <ele>291.4</ele>
        <time>2022-07-24T18:28:51Z</time>
      </trkpt>
      <trkpt lat="47.17526" lon="5.8766">
        <ele>291.2</ele>
        <time>2022-07-24T18:28:52Z</time>
      </trkpt>
      <trkpt lat="47.1752" lon="5.87658">
        <ele>291</ele>
        <time>2022-07-24T18:28:53Z</time>
      </trkpt>
      <trkpt lat="47.17514" lon="5.87655">
        <ele>290.8</ele>
        <time>2022-07-24T18:28:54Z</time>
      </trkpt>
      <trkpt lat="47.17508" lon="5.87651">
        <ele>290.2</ele>
        <time>2022-07-24T18:28:55Z</time>
      </trkpt>
      <trkpt lat="47.17503" lon="5.87648">
        <ele>289.4</ele>
        <time>2022-07-24T18:28:56Z</time>
      </trkpt>
      <trkpt lat="47.17497" lon="5.87646">
        <ele>288.6</ele>
        <time>2022-07-24T18:28:57Z</time>
      </trkpt>
      <trkpt lat="47.17491" lon="5.87644">
        <ele>288</ele>
        <time>2022-07-24T18:28:58Z</time>
      </trkpt>
      <trkpt lat="47.17474" lon="5.87639">
        <ele>286.6</ele>
        <time>2022-07-24T18:29:00Z</time>
      </trkpt>
      <trkpt lat="47.1746" lon="5.87635">
        <ele>285.6</ele>
        <time>2022-07-24T18:29:02Z</time>
      </trkpt>
      <trkpt lat="47.17453" lon="5.87632">
        <ele>284.4</ele>
        <time>2022-07-24T18:29:03Z</time>
      </trkpt>
      <trkpt lat="47.17447" lon="5.8763">
        <ele>283.6</ele>
        <time>2022-07-24T18:29:04Z</time>
      </trkpt>
      <trkpt lat="47.1744" lon="5.87627">
        <ele>283.4</ele>
        <time>2022-07-24T18:29:05Z</time>
      </trkpt>
      <trkpt lat="47.17431" lon="5.87624">
        <ele>282.6</ele>
        <time>2022-07-24T18:29:06Z</time>
      </trkpt>
      <trkpt lat="47.17425" lon="5.87623">
        <ele>282.4</ele>
        <time>2022-07-24T18:29:07Z</time>
      </trkpt>
      <trkpt lat="47.17419" lon="5.87621">
        <ele>281.6</ele>
        <time>2022-07-24T18:29:08Z</time>
      </trkpt>
      <trkpt lat="47.17413" lon="5.8762">
        <ele>280.4</ele>
        <time>2022-07-24T18:29:09Z</time>
      </trkpt>
      <trkpt lat="47.17408" lon="5.87618">
        <ele>280</ele>
        <time>2022-07-24T18:29:10Z</time>
      </trkpt>
      <trkpt lat="47.17405" lon="5.87617">
        <ele>279.2</ele>
        <time>2022-07-24T18:29:11Z</time>
      </trkpt>
      <trkpt lat="47.17403" lon="5.87616">
        <ele>279</ele>
        <time>2022-07-24T18:29:12Z</time>
      </trkpt>
      <trkpt lat="47.17401" lon="5.87614">
        <ele>278.6</ele>
        <time>2022-07-24T18:29:13Z</time>
      </trkpt>
      <trkpt lat="47.17399" lon="5.87611">
        <ele>278.4</ele>
        <time>2022-07-24T18:29:14Z</time>
      </trkpt>
      <trkpt lat="47.17397" lon="5.87606">
        <ele>277.8</ele>
        <time>2022-07-24T18:29:15Z</time>
      </trkpt>
      <trkpt lat="47.17394" lon="5.87601">
        <ele>277.6</ele>
        <time>2022-07-24T18:29:16Z</time>
      </trkpt>
      <trkpt lat="47.1739" lon="5.87595">
        <ele>277.6</ele>
        <time>2022-07-24T18:29:17Z</time>
      </trkpt>
      <trkpt lat="47.17389" lon="5.87591">
        <ele>277</ele>
        <time>2022-07-24T18:29:18Z</time>
      </trkpt>
      <trkpt lat="47.17389" lon="5.87587">
        <ele>276.6</ele>
        <time>2022-07-24T18:29:19Z</time>
      </trkpt>
      <trkpt lat="47.17389" lon="5.8758">
        <ele>275.8</ele>
        <time>2022-07-24T18:29:20Z</time>
      </trkpt>
      <trkpt lat="47.1739" lon="5.87573">
        <ele>275.6</ele>
        <time>2022-07-24T18:29:21Z</time>
      </trkpt>
      <trkpt lat="47.1739" lon="5.8757">
        <ele>275.2</ele>
        <time>2022-07-24T18:29:22Z</time>
      </trkpt>
      <trkpt lat="47.17388" lon="5.87567">
        <ele>274.8</ele>
        <time>2022-07-24T18:29:23Z</time>
      </trkpt>
      <trkpt lat="47.17386" lon="5.87566">
        <ele>274.8</ele>
        <time>2022-07-24T18:29:24Z</time>
      </trkpt>
      <trkpt lat="47.17383" lon="5.87565">
        <ele>274.6</ele>
        <time>2022-07-24T18:29:25Z</time>
      </trkpt>
      <trkpt lat="47.1738" lon="5.87566">
        <ele>274.4</ele>
        <time>2022-07-24T18:29:26Z</time>
      </trkpt>
      <trkpt lat="47.17377" lon="5.87566">
        <ele>274.2</ele>
        <time>2022-07-24T18:29:27Z</time>
      </trkpt>
      <trkpt lat="47.17358" lon="5.87565">
        <ele>273.4</ele>
        <time>2022-07-24T18:29:31Z</time>
      </trkpt>
      <trkpt lat="47.17354" lon="5.87564">
        <ele>273</ele>
        <time>2022-07-24T18:29:32Z</time>
      </trkpt>
      <trkpt lat="47.17351" lon="5.87564">
        <ele>272.8</ele>
        <time>2022-07-24T18:29:33Z</time>
      </trkpt>
      <trkpt lat="47.17348" lon="5.87565">
        <ele>272</ele>
        <time>2022-07-24T18:29:34Z</time>
      </trkpt>
      <trkpt lat="47.17343" lon="5.87566">
        <ele>271.8</ele>
        <time>2022-07-24T18:29:35Z</time>
      </trkpt>
      <trkpt lat="47.1733" lon="5.87572">
        <ele>270.8</ele>
        <time>2022-07-24T18:29:38Z</time>
      </trkpt>
      <trkpt lat="47.17324" lon="5.87574">
        <ele>270</ele>
        <time>2022-07-24T18:29:39Z</time>
      </trkpt>
      <trkpt lat="47.17317" lon="5.87574">
        <ele>269.8</ele>
        <time>2022-07-24T18:29:40Z</time>
      </trkpt>
      <trkpt lat="47.17312" lon="5.87574">
        <ele>268.8</ele>
        <time>2022-07-24T18:29:41Z</time>
      </trkpt>
      <trkpt lat="47.17307" lon="5.87574">
        <ele>268.2</ele>
        <time>2022-07-24T18:29:42Z</time>
      </trkpt>
      <trkpt lat="47.17303" lon="5.87575">
        <ele>267.6</ele>
        <time>2022-07-24T18:29:43Z</time>
      </trkpt>
      <trkpt lat="47.173" lon="5.87575">
        <ele>267.2</ele>
        <time>2022-07-24T18:29:44Z</time>
      </trkpt>
      <trkpt lat="47.17297" lon="5.87575">
        <ele>267</ele>
        <time>2022-07-24T18:29:45Z</time>
      </trkpt>
      <trkpt lat="47.17295" lon="5.87575">
        <ele>265.4</ele>
        <time>2022-07-24T18:29:46Z</time>
      </trkpt>
      <trkpt lat="47.17289" lon="5.87571">
        <ele>264</ele>
        <time>2022-07-24T18:29:48Z</time>
      </trkpt>
      <trkpt lat="47.17287" lon="5.87567">
        <ele>263.4</ele>
        <time>2022-07-24T18:29:49Z</time>
        <extensions>
          <visugpx:TrkExtension xmlns:visugpx="https://www.visugpx.com/editgpx/">
            <visugpx:node>1</visugpx:node>
            </visugpx:TrkExtension>
        </extensions>
      </trkpt>
      <trkpt lat="47.1728" lon="5.87586">
        <ele>254.3</ele>
      </trkpt>
      <trkpt lat="47.17281" lon="5.87619">
        <ele>255.6</ele>
      </trkpt>
      <trkpt lat="47.17291" lon="5.87724">
        <ele>259</ele>
      </trkpt>
      <trkpt lat="47.17291" lon="5.87745">
        <ele>259.4</ele>
      </trkpt>
      <trkpt lat="47.17288" lon="5.87779">
        <ele>260.4</ele>
      </trkpt>
      <trkpt lat="47.17283" lon="5.87829">
        <ele>263.5</ele>
      </trkpt>
      <trkpt lat="47.17277" lon="5.8794">
        <ele>269.9</ele>
      </trkpt>
      <trkpt lat="47.17271" lon="5.88058">
        <ele>275.8</ele>
      </trkpt>
      <trkpt lat="47.17268" lon="5.88077">
        <ele>276.8</ele>
      </trkpt>
      <trkpt lat="47.17256" lon="5.88115">
        <ele>278.7</ele>
      </trkpt>
      <trkpt lat="47.17249" lon="5.88131">
        <ele>279.8</ele>
      </trkpt>
      <trkpt lat="47.17188" lon="5.88228">
        <ele>285.4</ele>
      </trkpt>
      <trkpt lat="47.17159" lon="5.88281">
        <ele>287.1</ele>
      </trkpt>
      <trkpt lat="47.17145" lon="5.88313">
        <ele>287.2</ele>
      </trkpt>
      <trkpt lat="47.17144" lon="5.88317">
        <ele>287.2</ele>
        <extensions>
          <visugpx:TrkExtension xmlns:visugpx="https://www.visugpx.com/editgpx/">
            <visugpx:node>2</visugpx:node>
            </visugpx:TrkExtension>
        </extensions>
      </trkpt>
      <trkpt lat="47.17141" lon="5.8833">
        <ele>287.1</ele>
      </trkpt>
      <trkpt lat="47.17071" lon="5.88294">
        <ele>284.3</ele>
      </trkpt>
      <trkpt lat="47.17016" lon="5.88289">
        <ele>286.4</ele>
      </trkpt>
      <trkpt lat="47.16987" lon="5.88296">
        <ele>287.5</ele>
      </trkpt>
      <trkpt lat="47.16833" lon="5.88265">
        <ele>284.5</ele>
      </trkpt>
      <trkpt lat="47.16808" lon="5.88285">
        <ele>284.3</ele>
      </trkpt>
      <trkpt lat="47.16803" lon="5.88274">
        <ele>283.9</ele>
      </trkpt>
      <trkpt lat="47.16763" lon="5.8818">
        <ele>279.5</ele>
      </trkpt>
      <trkpt lat="47.16755" lon="5.88159">
        <ele>278.7</ele>
      </trkpt>
      <trkpt lat="47.16737" lon="5.88166">
        <ele>279</ele>
      </trkpt>
      <trkpt lat="47.16706" lon="5.8817">
        <ele>279.1</ele>
      </trkpt>
      <trkpt lat="47.16688" lon="5.88169">
        <ele>279.1</ele>
      </trkpt>
      <trkpt lat="47.16656" lon="5.88158">
        <ele>279.1</ele>
      </trkpt>
      <trkpt lat="47.16648" lon="5.8816">
        <ele>279.4</ele>
      </trkpt>
      <trkpt lat="47.16642" lon="5.88163">
        <ele>279.8</ele>
      </trkpt>
      <trkpt lat="47.16576" lon="5.88247">
        <ele>284.9</ele>
      </trkpt>
      <trkpt lat="47.16562" lon="5.8826">
        <ele>285</ele>
      </trkpt>
      <trkpt lat="47.16547" lon="5.8827">
        <ele>285.3</ele>
      </trkpt>
      <trkpt lat="47.16533" lon="5.88273">
        <ele>285.8</ele>
      </trkpt>
      <trkpt lat="47.16518" lon="5.88267">
        <ele>285.8</ele>
      </trkpt>
      <trkpt lat="47.16514" lon="5.8827">
        <ele>285.6</ele>
      </trkpt>
      <trkpt lat="47.16507" lon="5.88282">
        <ele>284.9</ele>
      </trkpt>
      <trkpt lat="47.16501" lon="5.88286">
        <ele>284.2</ele>
      </trkpt>
      <trkpt lat="47.16491" lon="5.88285">
        <ele>283.3</ele>
      </trkpt>
      <trkpt lat="47.16462" lon="5.88269">
        <ele>282.1</ele>
      </trkpt>
      <trkpt lat="47.16399" lon="5.88231">
        <ele>277.3</ele>
      </trkpt>
      <trkpt lat="47.16394" lon="5.8823">
        <ele>276.1</ele>
      </trkpt>
      <trkpt lat="47.16382" lon="5.88241">
        <ele>273.7</ele>
      </trkpt>
      <trkpt lat="47.16377" lon="5.88234">
        <ele>273.5</ele>
        <extensions>
          <visugpx:TrkExtension xmlns:visugpx="https://www.visugpx.com/editgpx/">
            <visugpx:node>4</visugpx:node>
            </visugpx:TrkExtension>
        </extensions>
      </trkpt>
      <trkpt lat="47.16272" lon="5.88098">
        <ele>283</ele>
        <time>2022-07-24T18:48:27Z</time>
      </trkpt>
      <trkpt lat="47.16271" lon="5.88113">
        <ele>283.2</ele>
        <time>2022-07-24T18:48:31Z</time>
      </trkpt>
      <trkpt lat="47.1627" lon="5.88115">
        <ele>283.4</ele>
        <time>2022-07-24T18:48:32Z</time>
      </trkpt>
      <trkpt lat="47.16268" lon="5.88118">
        <ele>283.4</ele>
        <time>2022-07-24T18:48:33Z</time>
      </trkpt>
      <trkpt lat="47.16266" lon="5.8812">
        <ele>283.6</ele>
        <time>2022-07-24T18:48:34Z</time>
      </trkpt>
      <trkpt lat="47.16266" lon="5.88123">
        <ele>283.6</ele>
        <time>2022-07-24T18:48:35Z</time>
      </trkpt>
      <trkpt lat="47.16265" lon="5.88125">
        <ele>283.6</ele>
        <time>2022-07-24T18:48:36Z</time>
      </trkpt>
      <trkpt lat="47.16264" lon="5.88128">
        <ele>283.8</ele>
        <time>2022-07-24T18:48:37Z</time>
      </trkpt>
      <trkpt lat="47.16256" lon="5.88149">
        <ele>284.2</ele>
        <time>2022-07-24T18:48:43Z</time>
      </trkpt>
      <trkpt lat="47.16254" lon="5.88152">
        <ele>284.4</ele>
        <time>2022-07-24T18:48:44Z</time>
      </trkpt>
      <trkpt lat="47.16246" lon="5.88167">
        <ele>284.6</ele>
        <time>2022-07-24T18:48:49Z</time>
      </trkpt>
      <trkpt lat="47.16244" lon="5.88174">
        <ele>284.8</ele>
        <time>2022-07-24T18:48:51Z</time>
      </trkpt>
      <trkpt lat="47.16238" lon="5.88198">
        <ele>285.4</ele>
        <time>2022-07-24T18:48:57Z</time>
      </trkpt>
      <trkpt lat="47.16238" lon="5.88202">
        <ele>285.6</ele>
        <time>2022-07-24T18:48:58Z</time>
      </trkpt>
      <trkpt lat="47.16239" lon="5.88204">
        <ele>285.8</ele>
        <time>2022-07-24T18:48:59Z</time>
      </trkpt>
      <trkpt lat="47.16239" lon="5.88207">
        <ele>286</ele>
        <time>2022-07-24T18:49:00Z</time>
      </trkpt>
      <trkpt lat="47.1624" lon="5.8821">
        <ele>286</ele>
        <time>2022-07-24T18:49:01Z</time>
      </trkpt>
      <trkpt lat="47.16241" lon="5.88212">
        <ele>286.6</ele>
        <time>2022-07-24T18:49:02Z</time>
      </trkpt>
      <trkpt lat="47.16242" lon="5.88214">
        <ele>286.8</ele>
        <time>2022-07-24T18:49:03Z</time>
      </trkpt>
      <trkpt lat="47.16245" lon="5.8822">
        <ele>287.2</ele>
        <time>2022-07-24T18:49:05Z</time>
      </trkpt>
      <trkpt lat="47.16246" lon="5.88222">
        <ele>287.6</ele>
        <time>2022-07-24T18:49:06Z</time>
      </trkpt>
      <trkpt lat="47.16247" lon="5.88225">
        <ele>287.8</ele>
        <time>2022-07-24T18:49:07Z</time>
      </trkpt>
      <trkpt lat="47.16247" lon="5.88227">
        <ele>288</ele>
        <time>2022-07-24T18:49:08Z</time>
      </trkpt>
      <trkpt lat="47.16248" lon="5.8823">
        <ele>288</ele>
        <time>2022-07-24T18:49:09Z</time>
      </trkpt>
      <trkpt lat="47.1625" lon="5.88233">
        <ele>288.2</ele>
        <time>2022-07-24T18:49:10Z</time>
      </trkpt>
      <trkpt lat="47.16251" lon="5.88236">
        <ele>288.2</ele>
        <time>2022-07-24T18:49:11Z</time>
      </trkpt>
      <trkpt lat="47.16252" lon="5.88238">
        <ele>288.2</ele>
        <time>2022-07-24T18:49:12Z</time>
      </trkpt>
      <trkpt lat="47.16254" lon="5.88241">
        <ele>288.4</ele>
        <time>2022-07-24T18:49:13Z</time>
      </trkpt>
      <trkpt lat="47.16254" lon="5.88244">
        <ele>288.4</ele>
        <time>2022-07-24T18:49:14Z</time>
      </trkpt>
      <trkpt lat="47.16255" lon="5.88247">
        <ele>288.6</ele>
        <time>2022-07-24T18:49:15Z</time>
      </trkpt>
      <trkpt lat="47.16257" lon="5.8825">
        <ele>288.8</ele>
        <time>2022-07-24T18:49:16Z</time>
      </trkpt>
      <trkpt lat="47.16259" lon="5.88254">
        <ele>289</ele>
        <time>2022-07-24T18:49:17Z</time>
      </trkpt>
      <trkpt lat="47.16261" lon="5.88257">
        <ele>289</ele>
        <time>2022-07-24T18:49:18Z</time>
      </trkpt>
      <trkpt lat="47.16263" lon="5.8826">
        <ele>289.2</ele>
        <time>2022-07-24T18:49:19Z</time>
      </trkpt>
      <trkpt lat="47.16265" lon="5.88263">
        <ele>289.4</ele>
        <time>2022-07-24T18:49:20Z</time>
      </trkpt>
      <trkpt lat="47.16267" lon="5.88265">
        <ele>289.4</ele>
        <time>2022-07-24T18:49:21Z</time>
      </trkpt>
      <trkpt lat="47.16268" lon="5.88268">
        <ele>289.4</ele>
        <time>2022-07-24T18:49:22Z</time>
      </trkpt>
      <trkpt lat="47.1627" lon="5.88271">
        <ele>289.6</ele>
        <time>2022-07-24T18:49:23Z</time>
      </trkpt>
      <trkpt lat="47.16272" lon="5.88274">
        <ele>289.8</ele>
        <time>2022-07-24T18:49:24Z</time>
      </trkpt>
      <trkpt lat="47.16274" lon="5.88277">
        <ele>289.8</ele>
        <time>2022-07-24T18:49:25Z</time>
      </trkpt>
      <trkpt lat="47.16276" lon="5.8828">
        <ele>290</ele>
        <time>2022-07-24T18:49:26Z</time>
      </trkpt>
      <trkpt lat="47.16279" lon="5.88283">
        <ele>290</ele>
        <time>2022-07-24T18:49:27Z</time>
      </trkpt>
      <trkpt lat="47.16281" lon="5.88287">
        <ele>290.2</ele>
        <time>2022-07-24T18:49:28Z</time>
      </trkpt>
      <trkpt lat="47.16283" lon="5.8829">
        <ele>290.2</ele>
        <time>2022-07-24T18:49:29Z</time>
      </trkpt>
      <trkpt lat="47.16284" lon="5.88293">
        <ele>290.2</ele>
        <time>2022-07-24T18:49:30Z</time>
      </trkpt>
      <trkpt lat="47.16286" lon="5.88296">
        <ele>290.4</ele>
        <time>2022-07-24T18:49:31Z</time>
      </trkpt>
      <trkpt lat="47.16288" lon="5.88299">
        <ele>290.4</ele>
        <time>2022-07-24T18:49:32Z</time>
      </trkpt>
      <trkpt lat="47.16291" lon="5.88302">
        <ele>290.4</ele>
        <time>2022-07-24T18:49:33Z</time>
      </trkpt>
      <trkpt lat="47.16294" lon="5.88305">
        <ele>290.4</ele>
        <time>2022-07-24T18:49:34Z</time>
      </trkpt>
      <trkpt lat="47.16297" lon="5.88309">
        <ele>290.4</ele>
        <time>2022-07-24T18:49:35Z</time>
      </trkpt>
      <trkpt lat="47.163" lon="5.88313">
        <ele>290.4</ele>
        <time>2022-07-24T18:49:36Z</time>
      </trkpt>
      <trkpt lat="47.16302" lon="5.88316">
        <ele>290.2</ele>
        <time>2022-07-24T18:49:37Z</time>
      </trkpt>
      <trkpt lat="47.16305" lon="5.88319">
        <ele>290.2</ele>
        <time>2022-07-24T18:49:38Z</time>
      </trkpt>
      <trkpt lat="47.16308" lon="5.88322">
        <ele>290.2</ele>
        <time>2022-07-24T18:49:39Z</time>
      </trkpt>
      <trkpt lat="47.16323" lon="5.88342">
        <ele>290</ele>
        <time>2022-07-24T18:49:45Z</time>
      </trkpt>
      <trkpt lat="47.16328" lon="5.88348">
        <ele>290</ele>
        <time>2022-07-24T18:49:47Z</time>
      </trkpt>
      <trkpt lat="47.1633" lon="5.88351">
        <ele>290</ele>
        <time>2022-07-24T18:49:48Z</time>
      </trkpt>
      <trkpt lat="47.16332" lon="5.88355">
        <ele>290.2</ele>
        <time>2022-07-24T18:49:49Z</time>
      </trkpt>
      <trkpt lat="47.16342" lon="5.88374">
        <ele>290.2</ele>
        <time>2022-07-24T18:49:54Z</time>
      </trkpt>
      <trkpt lat="47.16344" lon="5.88377">
        <ele>290.2</ele>
        <time>2022-07-24T18:49:55Z</time>
      </trkpt>
      <trkpt lat="47.16345" lon="5.8838">
        <ele>290.2</ele>
        <time>2022-07-24T18:49:56Z</time>
      </trkpt>
      <trkpt lat="47.16346" lon="5.88384">
        <ele>290.4</ele>
        <time>2022-07-24T18:49:57Z</time>
      </trkpt>
      <trkpt lat="47.16347" lon="5.88386">
        <ele>290.4</ele>
        <time>2022-07-24T18:49:58Z</time>
      </trkpt>
      <trkpt lat="47.16349" lon="5.88389">
        <ele>290.4</ele>
        <time>2022-07-24T18:49:59Z</time>
      </trkpt>
      <trkpt lat="47.16353" lon="5.88395">
        <ele>290.6</ele>
        <time>2022-07-24T18:50:01Z</time>
      </trkpt>
      <trkpt lat="47.16355" lon="5.88398">
        <ele>290.6</ele>
        <time>2022-07-24T18:50:02Z</time>
      </trkpt>
      <trkpt lat="47.16356" lon="5.88402">
        <ele>290.6</ele>
        <time>2022-07-24T18:50:03Z</time>
      </trkpt>
      <trkpt lat="47.16357" lon="5.88405">
        <ele>290.8</ele>
        <time>2022-07-24T18:50:04Z</time>
      </trkpt>
      <trkpt lat="47.16358" lon="5.88409">
        <ele>290.8</ele>
        <time>2022-07-24T18:50:05Z</time>
      </trkpt>
      <trkpt lat="47.16359" lon="5.88413">
        <ele>291</ele>
        <time>2022-07-24T18:50:06Z</time>
      </trkpt>
      <trkpt lat="47.1636" lon="5.88416">
        <ele>291.4</ele>
        <time>2022-07-24T18:50:07Z</time>
      </trkpt>
      <trkpt lat="47.16364" lon="5.88428">
        <ele>291.8</ele>
        <time>2022-07-24T18:50:10Z</time>
      </trkpt>
      <trkpt lat="47.16374" lon="5.88447">
        <ele>292.6</ele>
        <time>2022-07-24T18:50:15Z</time>
      </trkpt>
      <trkpt lat="47.16376" lon="5.8845">
        <ele>292.8</ele>
        <time>2022-07-24T18:50:16Z</time>
      </trkpt>
      <trkpt lat="47.1639" lon="5.88473">
        <ele>293</ele>
        <time>2022-07-24T18:50:23Z</time>
      </trkpt>
      <trkpt lat="47.16392" lon="5.88476">
        <ele>293</ele>
        <time>2022-07-24T18:50:24Z</time>
      </trkpt>
      <trkpt lat="47.16394" lon="5.88478">
        <ele>293</ele>
        <time>2022-07-24T18:50:25Z</time>
      </trkpt>
      <trkpt lat="47.16403" lon="5.88491">
        <ele>293</ele>
        <time>2022-07-24T18:50:29Z</time>
      </trkpt>
      <trkpt lat="47.16421" lon="5.88521">
        <ele>293.2</ele>
        <time>2022-07-24T18:50:39Z</time>
      </trkpt>
      <trkpt lat="47.16423" lon="5.88524">
        <ele>293</ele>
        <time>2022-07-24T18:50:40Z</time>
      </trkpt>
      <trkpt lat="47.16424" lon="5.88526">
        <ele>293</ele>
        <time>2022-07-24T18:50:41Z</time>
      </trkpt>
      <trkpt lat="47.16425" lon="5.88529">
        <ele>293</ele>
        <time>2022-07-24T18:50:42Z</time>
      </trkpt>
      <trkpt lat="47.16426" lon="5.88531">
        <ele>293</ele>
        <time>2022-07-24T18:50:43Z</time>
      </trkpt>
      <trkpt lat="47.16427" lon="5.88534">
        <ele>293</ele>
        <time>2022-07-24T18:50:44Z</time>
      </trkpt>
      <trkpt lat="47.16428" lon="5.88537">
        <ele>293</ele>
        <time>2022-07-24T18:50:45Z</time>
      </trkpt>
      <trkpt lat="47.1643" lon="5.88539">
        <ele>293</ele>
        <time>2022-07-24T18:50:46Z</time>
      </trkpt>
      <trkpt lat="47.16432" lon="5.88542">
        <ele>293</ele>
        <time>2022-07-24T18:50:47Z</time>
      </trkpt>
      <trkpt lat="47.16433" lon="5.88545">
        <ele>293</ele>
        <time>2022-07-24T18:50:48Z</time>
      </trkpt>
      <trkpt lat="47.16434" lon="5.88547">
        <ele>293</ele>
        <time>2022-07-24T18:50:49Z</time>
      </trkpt>
      <trkpt lat="47.16436" lon="5.8855">
        <ele>293.2</ele>
        <time>2022-07-24T18:50:50Z</time>
      </trkpt>
      <trkpt lat="47.16437" lon="5.88553">
        <ele>293.2</ele>
        <time>2022-07-24T18:50:51Z</time>
      </trkpt>
      <trkpt lat="47.16438" lon="5.88556">
        <ele>293.2</ele>
        <time>2022-07-24T18:50:52Z</time>
      </trkpt>
      <trkpt lat="47.16439" lon="5.8856">
        <ele>293.2</ele>
        <time>2022-07-24T18:50:53Z</time>
      </trkpt>
      <trkpt lat="47.1644" lon="5.88564">
        <ele>293.2</ele>
        <time>2022-07-24T18:50:54Z</time>
      </trkpt>
      <trkpt lat="47.16443" lon="5.88571">
        <ele>293.2</ele>
        <time>2022-07-24T18:50:56Z</time>
      </trkpt>
      <trkpt lat="47.16444" lon="5.88574">
        <ele>293.4</ele>
        <time>2022-07-24T18:50:57Z</time>
      </trkpt>
      <trkpt lat="47.16445" lon="5.88578">
        <ele>293.4</ele>
        <time>2022-07-24T18:50:58Z</time>
      </trkpt>
      <trkpt lat="47.16449" lon="5.8859">
        <ele>293.8</ele>
        <time>2022-07-24T18:51:01Z</time>
      </trkpt>
      <trkpt lat="47.16452" lon="5.88596">
        <ele>294.2</ele>
        <time>2022-07-24T18:51:03Z</time>
      </trkpt>
      <trkpt lat="47.16452" lon="5.88598">
        <ele>294.4</ele>
        <time>2022-07-24T18:51:04Z</time>
      </trkpt>
      <trkpt lat="47.16453" lon="5.88601">
        <ele>294.4</ele>
        <time>2022-07-24T18:51:05Z</time>
      </trkpt>
      <trkpt lat="47.16455" lon="5.88603">
        <ele>294.6</ele>
        <time>2022-07-24T18:51:06Z</time>
      </trkpt>
      <trkpt lat="47.16456" lon="5.88605">
        <ele>294.8</ele>
        <time>2022-07-24T18:51:07Z</time>
      </trkpt>
      <trkpt lat="47.16458" lon="5.88608">
        <ele>294.8</ele>
        <time>2022-07-24T18:51:08Z</time>
      </trkpt>
      <trkpt lat="47.16459" lon="5.88611">
        <ele>295.4</ele>
        <time>2022-07-24T18:51:09Z</time>
      </trkpt>
      <trkpt lat="47.1646" lon="5.88614">
        <ele>295.4</ele>
        <time>2022-07-24T18:51:10Z</time>
      </trkpt>
      <trkpt lat="47.16461" lon="5.88618">
        <ele>295.6</ele>
        <time>2022-07-24T18:51:11Z</time>
      </trkpt>
      <trkpt lat="47.16462" lon="5.88622">
        <ele>295.6</ele>
        <time>2022-07-24T18:51:12Z</time>
      </trkpt>
      <trkpt lat="47.16462" lon="5.88626">
        <ele>295.8</ele>
        <time>2022-07-24T18:51:13Z</time>
      </trkpt>
      <trkpt lat="47.16465" lon="5.88635">
        <ele>296</ele>
        <time>2022-07-24T18:51:16Z</time>
      </trkpt>
      <trkpt lat="47.16466" lon="5.88638">
        <ele>296</ele>
        <time>2022-07-24T18:51:17Z</time>
      </trkpt>
      <trkpt lat="47.16467" lon="5.88641">
        <ele>296</ele>
        <time>2022-07-24T18:51:18Z</time>
      </trkpt>
      <trkpt lat="47.16468" lon="5.88643">
        <ele>296.2</ele>
        <time>2022-07-24T18:51:19Z</time>
      </trkpt>
      <trkpt lat="47.16469" lon="5.88646">
        <ele>296.2</ele>
        <time>2022-07-24T18:51:20Z</time>
      </trkpt>
      <trkpt lat="47.1647" lon="5.8865">
        <ele>296.2</ele>
        <time>2022-07-24T18:51:21Z</time>
      </trkpt>
      <trkpt lat="47.16471" lon="5.88653">
        <ele>296</ele>
        <time>2022-07-24T18:51:22Z</time>
      </trkpt>
      <trkpt lat="47.16476" lon="5.88664">
        <ele>296</ele>
        <time>2022-07-24T18:51:25Z</time>
      </trkpt>
      <trkpt lat="47.16477" lon="5.88667">
        <ele>296</ele>
        <time>2022-07-24T18:51:26Z</time>
      </trkpt>
      <trkpt lat="47.16477" lon="5.8867">
        <ele>296</ele>
        <time>2022-07-24T18:51:27Z</time>
      </trkpt>
      <trkpt lat="47.16478" lon="5.88672">
        <ele>295.8</ele>
        <time>2022-07-24T18:51:28Z</time>
      </trkpt>
      <trkpt lat="47.16478" lon="5.88674">
        <ele>295.6</ele>
        <time>2022-07-24T18:51:29Z</time>
      </trkpt>
      <trkpt lat="47.1648" lon="5.88676">
        <ele>294.6</ele>
        <time>2022-07-24T18:53:51Z</time>
      </trkpt>
      <trkpt lat="47.16481" lon="5.88676">
        <ele>294.8</ele>
        <time>2022-07-24T18:54:10Z</time>
      </trkpt>
      <trkpt lat="47.16482" lon="5.88676">
        <ele>295</ele>
        <time>2022-07-24T18:54:14Z</time>
      </trkpt>
      <trkpt lat="47.16488" lon="5.88676">
        <ele>295</ele>
        <time>2022-07-24T18:54:17Z</time>
      </trkpt>
      <trkpt lat="47.1649" lon="5.88677">
        <ele>295.2</ele>
        <time>2022-07-24T18:54:18Z</time>
      </trkpt>
      <trkpt lat="47.16499" lon="5.8868">
        <ele>295.2</ele>
        <time>2022-07-24T18:54:23Z</time>
      </trkpt>
      <trkpt lat="47.16501" lon="5.88682">
        <ele>295.2</ele>
        <time>2022-07-24T18:54:24Z</time>
      </trkpt>
      <trkpt lat="47.16502" lon="5.88683">
        <ele>295.2</ele>
        <time>2022-07-24T18:54:25Z</time>
      </trkpt>
      <trkpt lat="47.16503" lon="5.88685">
        <ele>295.2</ele>
        <time>2022-07-24T18:54:26Z</time>
      </trkpt>
      <trkpt lat="47.16507" lon="5.88693">
        <ele>295.2</ele>
        <time>2022-07-24T18:54:30Z</time>
      </trkpt>
      <trkpt lat="47.16514" lon="5.88702">
        <ele>294.8</ele>
        <time>2022-07-24T18:54:38Z</time>
      </trkpt>
      <trkpt lat="47.16517" lon="5.88705">
        <ele>294.8</ele>
        <time>2022-07-24T18:55:09Z</time>
      </trkpt>
      <trkpt lat="47.16518" lon="5.88708">
        <ele>294.8</ele>
        <time>2022-07-24T18:55:10Z</time>
      </trkpt>
      <trkpt lat="47.1652" lon="5.88711">
        <ele>294.6</ele>
        <time>2022-07-24T18:55:11Z</time>
      </trkpt>
      <trkpt lat="47.16522" lon="5.88714">
        <ele>294.6</ele>
        <time>2022-07-24T18:55:12Z</time>
      </trkpt>
      <trkpt lat="47.16529" lon="5.88725">
        <ele>294.4</ele>
        <time>2022-07-24T18:55:15Z</time>
      </trkpt>
      <trkpt lat="47.16535" lon="5.88738">
        <ele>294.2</ele>
        <time>2022-07-24T18:55:18Z</time>
      </trkpt>
      <trkpt lat="47.16537" lon="5.88741">
        <ele>293.8</ele>
        <time>2022-07-24T18:55:19Z</time>
      </trkpt>
      <trkpt lat="47.16539" lon="5.88743">
        <ele>293.6</ele>
        <time>2022-07-24T18:55:20Z</time>
      </trkpt>
      <trkpt lat="47.16541" lon="5.88745">
        <ele>293.4</ele>
        <time>2022-07-24T18:55:21Z</time>
      </trkpt>
      <trkpt lat="47.16542" lon="5.88747">
        <ele>293.2</ele>
        <time>2022-07-24T18:55:22Z</time>
      </trkpt>
      <trkpt lat="47.16543" lon="5.88748">
        <ele>293</ele>
        <time>2022-07-24T18:55:23Z</time>
      </trkpt>
      <trkpt lat="47.16543" lon="5.8875">
        <ele>292.6</ele>
        <time>2022-07-24T18:55:24Z</time>
      </trkpt>
      <trkpt lat="47.16543" lon="5.88751">
        <ele>292.6</ele>
        <time>2022-07-24T18:55:25Z</time>
      </trkpt>
      <trkpt lat="47.16545" lon="5.88752">
        <ele>291.6</ele>
        <time>2022-07-24T18:55:37Z</time>
      </trkpt>
      <trkpt lat="47.16547" lon="5.88753">
        <ele>291.6</ele>
        <time>2022-07-24T18:55:38Z</time>
      </trkpt>
      <trkpt lat="47.16548" lon="5.88755">
        <ele>291.6</ele>
        <time>2022-07-24T18:55:39Z</time>
      </trkpt>
      <trkpt lat="47.16549" lon="5.88757">
        <ele>291.4</ele>
        <time>2022-07-24T18:55:40Z</time>
      </trkpt>
      <trkpt lat="47.16551" lon="5.8876">
        <ele>291.4</ele>
        <time>2022-07-24T18:55:41Z</time>
      </trkpt>
      <trkpt lat="47.16552" lon="5.88762">
        <ele>291.4</ele>
        <time>2022-07-24T18:55:42Z</time>
      </trkpt>
      <trkpt lat="47.16556" lon="5.88769">
        <ele>291.2</ele>
        <time>2022-07-24T18:55:44Z</time>
      </trkpt>
      <trkpt lat="47.16572" lon="5.88794">
        <ele>290.6</ele>
        <time>2022-07-24T18:55:50Z</time>
      </trkpt>
      <trkpt lat="47.16578" lon="5.88804">
        <ele>290.2</ele>
        <time>2022-07-24T18:55:52Z</time>
      </trkpt>
      <trkpt lat="47.16588" lon="5.88822">
        <ele>289.6</ele>
        <time>2022-07-24T18:55:55Z</time>
      </trkpt>
      <trkpt lat="47.16593" lon="5.88829">
        <ele>289.2</ele>
        <time>2022-07-24T18:55:56Z</time>
      </trkpt>
      <trkpt lat="47.16606" lon="5.8885">
        <ele>288.4</ele>
        <time>2022-07-24T18:55:59Z</time>
      </trkpt>
      <trkpt lat="47.1661" lon="5.88856">
        <ele>288.4</ele>
        <time>2022-07-24T18:56:00Z</time>
      </trkpt>
      <trkpt lat="47.16614" lon="5.88861">
        <ele>288</ele>
        <time>2022-07-24T18:56:01Z</time>
      </trkpt>
      <trkpt lat="47.16617" lon="5.88866">
        <ele>287.6</ele>
        <time>2022-07-24T18:56:02Z</time>
      </trkpt>
      <trkpt lat="47.1662" lon="5.88869">
        <ele>287</ele>
        <time>2022-07-24T18:56:03Z</time>
      </trkpt>
      <trkpt lat="47.16622" lon="5.88873">
        <ele>286.8</ele>
        <time>2022-07-24T18:56:04Z</time>
      </trkpt>
      <trkpt lat="47.16625" lon="5.88876">
        <ele>286.6</ele>
        <time>2022-07-24T18:56:05Z</time>
      </trkpt>
      <trkpt lat="47.16627" lon="5.8888">
        <ele>286.4</ele>
        <time>2022-07-24T18:56:06Z</time>
      </trkpt>
      <trkpt lat="47.1663" lon="5.88884">
        <ele>286.2</ele>
        <time>2022-07-24T18:56:07Z</time>
      </trkpt>
      <trkpt lat="47.16634" lon="5.88889">
        <ele>286</ele>
        <time>2022-07-24T18:56:08Z</time>
      </trkpt>
      <trkpt lat="47.16649" lon="5.88911">
        <ele>285.4</ele>
        <time>2022-07-24T18:56:12Z</time>
      </trkpt>
      <trkpt lat="47.16658" lon="5.88925">
        <ele>284.8</ele>
        <time>2022-07-24T18:56:14Z</time>
      </trkpt>
      <trkpt lat="47.16671" lon="5.88944">
        <ele>283.6</ele>
        <time>2022-07-24T18:56:17Z</time>
      </trkpt>
      <trkpt lat="47.16676" lon="5.88951">
        <ele>283.2</ele>
        <time>2022-07-24T18:56:18Z</time>
      </trkpt>
      <trkpt lat="47.16685" lon="5.88966">
        <ele>282.6</ele>
        <time>2022-07-24T18:56:20Z</time>
      </trkpt>
      <trkpt lat="47.16694" lon="5.88984">
        <ele>282</ele>
        <time>2022-07-24T18:56:22Z</time>
      </trkpt>
      <trkpt lat="47.16706" lon="5.89004">
        <ele>281.4</ele>
        <time>2022-07-24T18:56:24Z</time>
      </trkpt>
      <trkpt lat="47.16718" lon="5.89022">
        <ele>280.4</ele>
        <time>2022-07-24T18:56:26Z</time>
      </trkpt>
      <trkpt lat="47.16723" lon="5.8903">
        <ele>279.2</ele>
        <time>2022-07-24T18:56:27Z</time>
      </trkpt>
      <trkpt lat="47.16727" lon="5.89038">
        <ele>278.8</ele>
        <time>2022-07-24T18:56:28Z</time>
      </trkpt>
      <trkpt lat="47.16731" lon="5.89045">
        <ele>277.8</ele>
        <time>2022-07-24T18:56:29Z</time>
      </trkpt>
      <trkpt lat="47.16735" lon="5.89052">
        <ele>277</ele>
        <time>2022-07-24T18:56:30Z</time>
      </trkpt>
      <trkpt lat="47.1674" lon="5.89058">
        <ele>276.6</ele>
        <time>2022-07-24T18:56:31Z</time>
      </trkpt>
      <trkpt lat="47.16746" lon="5.89062">
        <ele>276</ele>
        <time>2022-07-24T18:56:32Z</time>
      </trkpt>
      <trkpt lat="47.16752" lon="5.89065">
        <ele>275.8</ele>
        <time>2022-07-24T18:56:33Z</time>
      </trkpt>
      <trkpt lat="47.16759" lon="5.89068">
        <ele>275.2</ele>
        <time>2022-07-24T18:56:34Z</time>
      </trkpt>
      <trkpt lat="47.16772" lon="5.89074">
        <ele>274.6</ele>
        <time>2022-07-24T18:56:36Z</time>
      </trkpt>
      <trkpt lat="47.16779" lon="5.89078">
        <ele>273.8</ele>
        <time>2022-07-24T18:56:37Z</time>
      </trkpt>
      <trkpt lat="47.16794" lon="5.89086">
        <ele>273.2</ele>
        <time>2022-07-24T18:56:39Z</time>
      </trkpt>
      <trkpt lat="47.16801" lon="5.89091">
        <ele>273</ele>
        <time>2022-07-24T18:56:40Z</time>
      </trkpt>
      <trkpt lat="47.16808" lon="5.89097">
        <ele>272.8</ele>
        <time>2022-07-24T18:56:41Z</time>
      </trkpt>
      <trkpt lat="47.16814" lon="5.89103">
        <ele>272.2</ele>
        <time>2022-07-24T18:56:42Z</time>
      </trkpt>
      <trkpt lat="47.1682" lon="5.89107">
        <ele>271.6</ele>
        <time>2022-07-24T18:56:43Z</time>
      </trkpt>
      <trkpt lat="47.16824" lon="5.8911">
        <ele>271.2</ele>
        <time>2022-07-24T18:56:44Z</time>
      </trkpt>
      <trkpt lat="47.16828" lon="5.89113">
        <ele>270.8</ele>
        <time>2022-07-24T18:56:45Z</time>
      </trkpt>
      <trkpt lat="47.1683" lon="5.89115">
        <ele>270.2</ele>
        <time>2022-07-24T18:56:46Z</time>
      </trkpt>
      <trkpt lat="47.16831" lon="5.89116">
        <ele>270</ele>
        <time>2022-07-24T18:56:47Z</time>
      </trkpt>
      <trkpt lat="47.16837" lon="5.89121">
        <ele>269.6</ele>
        <time>2022-07-24T18:56:56Z</time>
      </trkpt>
      <trkpt lat="47.16838" lon="5.89123">
        <ele>269.6</ele>
        <time>2022-07-24T18:56:57Z</time>
      </trkpt>
      <trkpt lat="47.16839" lon="5.89126">
        <ele>269.6</ele>
        <time>2022-07-24T18:56:58Z</time>
      </trkpt>
      <trkpt lat="47.16845" lon="5.89148">
        <ele>269.4</ele>
        <time>2022-07-24T18:57:03Z</time>
      </trkpt>
      <trkpt lat="47.16845" lon="5.89155">
        <ele>269.2</ele>
        <time>2022-07-24T18:57:04Z</time>
      </trkpt>
      <trkpt lat="47.16844" lon="5.89162">
        <ele>269.4</ele>
        <time>2022-07-24T18:57:05Z</time>
      </trkpt>
      <trkpt lat="47.16843" lon="5.8917">
        <ele>269.2</ele>
        <time>2022-07-24T18:57:06Z</time>
      </trkpt>
      <trkpt lat="47.1684" lon="5.89179">
        <ele>268.8</ele>
        <time>2022-07-24T18:57:07Z</time>
      </trkpt>
      <trkpt lat="47.16836" lon="5.89187">
        <ele>268.8</ele>
        <time>2022-07-24T18:57:08Z</time>
      </trkpt>
      <trkpt lat="47.1683" lon="5.89194">
        <ele>268.6</ele>
        <time>2022-07-24T18:57:09Z</time>
      </trkpt>
      <trkpt lat="47.16825" lon="5.892">
        <ele>268.2</ele>
        <time>2022-07-24T18:57:10Z</time>
      </trkpt>
      <trkpt lat="47.16818" lon="5.89204">
        <ele>267.8</ele>
        <time>2022-07-24T18:57:11Z</time>
      </trkpt>
      <trkpt lat="47.1681" lon="5.89207">
        <ele>267.2</ele>
        <time>2022-07-24T18:57:12Z</time>
      </trkpt>
      <trkpt lat="47.16802" lon="5.89208">
        <ele>266.8</ele>
        <time>2022-07-24T18:57:13Z</time>
      </trkpt>
      <trkpt lat="47.16793" lon="5.8921">
        <ele>266.2</ele>
        <time>2022-07-24T18:57:14Z</time>
      </trkpt>
      <trkpt lat="47.16784" lon="5.89211">
        <ele>265.6</ele>
        <time>2022-07-24T18:57:15Z</time>
      </trkpt>
      <trkpt lat="47.16768" lon="5.89214">
        <ele>264.6</ele>
        <time>2022-07-24T18:57:17Z</time>
      </trkpt>
      <trkpt lat="47.1676" lon="5.89215">
        <ele>264</ele>
        <time>2022-07-24T18:57:18Z</time>
      </trkpt>
      <trkpt lat="47.16752" lon="5.89216">
        <ele>263.2</ele>
        <time>2022-07-24T18:57:19Z</time>
      </trkpt>
      <trkpt lat="47.16743" lon="5.89216">
        <ele>263</ele>
        <time>2022-07-24T18:57:20Z</time>
      </trkpt>
      <trkpt lat="47.16735" lon="5.89216">
        <ele>262.4</ele>
        <time>2022-07-24T18:57:21Z</time>
      </trkpt>
      <trkpt lat="47.16727" lon="5.89214">
        <ele>262</ele>
        <time>2022-07-24T18:57:22Z</time>
      </trkpt>
      <trkpt lat="47.1671" lon="5.89208">
        <ele>261.4</ele>
        <time>2022-07-24T18:57:24Z</time>
      </trkpt>
      <trkpt lat="47.16701" lon="5.89204">
        <ele>261</ele>
        <time>2022-07-24T18:57:25Z</time>
      </trkpt>
      <trkpt lat="47.16677" lon="5.89187">
        <ele>259.6</ele>
        <time>2022-07-24T18:57:28Z</time>
      </trkpt>
      <trkpt lat="47.16652" lon="5.89167">
        <ele>258.4</ele>
        <time>2022-07-24T18:57:31Z</time>
      </trkpt>
      <trkpt lat="47.16636" lon="5.89153">
        <ele>257.2</ele>
        <time>2022-07-24T18:57:33Z</time>
      </trkpt>
      <trkpt lat="47.1661" lon="5.89132">
        <ele>256.2</ele>
        <time>2022-07-24T18:57:36Z</time>
      </trkpt>
      <trkpt lat="47.16594" lon="5.89115">
        <ele>255</ele>
        <time>2022-07-24T18:57:38Z</time>
      </trkpt>
      <trkpt lat="47.16577" lon="5.89101">
        <ele>253.8</ele>
        <time>2022-07-24T18:57:40Z</time>
      </trkpt>
      <trkpt lat="47.16568" lon="5.89094">
        <ele>253.4</ele>
        <time>2022-07-24T18:57:41Z</time>
      </trkpt>
      <trkpt lat="47.16559" lon="5.89087">
        <ele>252.8</ele>
        <time>2022-07-24T18:57:42Z</time>
      </trkpt>
      <trkpt lat="47.16542" lon="5.89072">
        <ele>251.8</ele>
        <time>2022-07-24T18:57:44Z</time>
      </trkpt>
      <trkpt lat="47.16526" lon="5.89058">
        <ele>250.8</ele>
        <time>2022-07-24T18:57:46Z</time>
      </trkpt>
      <trkpt lat="47.16519" lon="5.89052">
        <ele>249.8</ele>
        <time>2022-07-24T18:57:47Z</time>
      </trkpt>
      <trkpt lat="47.16513" lon="5.89046">
        <ele>249.2</ele>
        <time>2022-07-24T18:57:48Z</time>
      </trkpt>
      <trkpt lat="47.16507" lon="5.8904">
        <ele>248.6</ele>
        <time>2022-07-24T18:57:49Z</time>
      </trkpt>
      <trkpt lat="47.165" lon="5.89033">
        <ele>248.4</ele>
        <time>2022-07-24T18:57:50Z</time>
      </trkpt>
      <trkpt lat="47.16494" lon="5.89026">
        <ele>247.8</ele>
        <time>2022-07-24T18:57:51Z</time>
      </trkpt>
      <trkpt lat="47.16475" lon="5.89002">
        <ele>246.6</ele>
        <time>2022-07-24T18:57:54Z</time>
      </trkpt>
      <trkpt lat="47.16469" lon="5.88993">
        <ele>246.4</ele>
        <time>2022-07-24T18:57:55Z</time>
      </trkpt>
      <trkpt lat="47.16451" lon="5.88963">
        <ele>245</ele>
        <time>2022-07-24T18:57:58Z</time>
      </trkpt>
      <trkpt lat="47.16447" lon="5.88952">
        <ele>244.4</ele>
        <time>2022-07-24T18:57:59Z</time>
      </trkpt>
      <trkpt lat="47.16442" lon="5.8894">
        <ele>244.2</ele>
        <time>2022-07-24T18:58:00Z</time>
      </trkpt>
      <trkpt lat="47.16438" lon="5.88927">
        <ele>243.2</ele>
        <time>2022-07-24T18:58:01Z</time>
      </trkpt>
      <trkpt lat="47.1643" lon="5.88902">
        <ele>242.4</ele>
        <time>2022-07-24T18:58:03Z</time>
      </trkpt>
      <trkpt lat="47.16427" lon="5.88889">
        <ele>242</ele>
        <time>2022-07-24T18:58:04Z</time>
      </trkpt>
      <trkpt lat="47.16415" lon="5.88851">
        <ele>240.8</ele>
        <time>2022-07-24T18:58:07Z</time>
      </trkpt>
      <trkpt lat="47.16409" lon="5.88827">
        <ele>240.4</ele>
        <time>2022-07-24T18:58:09Z</time>
      </trkpt>
      <trkpt lat="47.16406" lon="5.88816">
        <ele>239.8</ele>
        <time>2022-07-24T18:58:10Z</time>
      </trkpt>
      <trkpt lat="47.16403" lon="5.88806">
        <ele>239.6</ele>
        <time>2022-07-24T18:58:11Z</time>
      </trkpt>
      <trkpt lat="47.164" lon="5.88796">
        <ele>239.4</ele>
        <time>2022-07-24T18:58:12Z</time>
      </trkpt>
      <trkpt lat="47.16397" lon="5.88787">
        <ele>239</ele>
        <time>2022-07-24T18:58:13Z</time>
      </trkpt>
      <trkpt lat="47.16394" lon="5.88779">
        <ele>239</ele>
        <time>2022-07-24T18:58:14Z</time>
      </trkpt>
      <trkpt lat="47.16392" lon="5.88772">
        <ele>239</ele>
        <time>2022-07-24T18:58:15Z</time>
      </trkpt>
      <trkpt lat="47.1639" lon="5.88767">
        <ele>239</ele>
        <time>2022-07-24T18:58:16Z</time>
      </trkpt>
      <trkpt lat="47.16388" lon="5.88762">
        <ele>239</ele>
        <time>2022-07-24T18:58:17Z</time>
      </trkpt>
      <trkpt lat="47.16385" lon="5.88759">
        <ele>239</ele>
        <time>2022-07-24T18:58:18Z</time>
      </trkpt>
      <trkpt lat="47.16383" lon="5.88757">
        <ele>239</ele>
        <time>2022-07-24T18:58:19Z</time>
      </trkpt>
      <trkpt lat="47.16381" lon="5.88756">
        <ele>239</ele>
        <time>2022-07-24T18:58:20Z</time>
      </trkpt>
      <trkpt lat="47.16379" lon="5.88756">
        <ele>239</ele>
        <time>2022-07-24T18:58:21Z</time>
      </trkpt>
      <trkpt lat="47.16377" lon="5.88755">
        <ele>239.2</ele>
        <time>2022-07-24T18:58:22Z</time>
      </trkpt>
      <trkpt lat="47.16376" lon="5.88754">
        <ele>239.2</ele>
        <time>2022-07-24T18:58:23Z</time>
      </trkpt>
      <trkpt lat="47.16375" lon="5.88753">
        <ele>239.4</ele>
        <time>2022-07-24T18:58:24Z</time>
      </trkpt>
      <trkpt lat="47.16372" lon="5.8875">
        <ele>240</ele>
        <time>2022-07-24T18:58:54Z</time>
      </trkpt>
      <trkpt lat="47.16365" lon="5.88737">
        <ele>240</ele>
        <time>2022-07-24T18:58:58Z</time>
      </trkpt>
      <trkpt lat="47.16356" lon="5.88717">
        <ele>239.4</ele>
        <time>2022-07-24T18:59:02Z</time>
      </trkpt>
      <trkpt lat="47.16355" lon="5.8871">
        <ele>239.2</ele>
        <time>2022-07-24T18:59:03Z</time>
      </trkpt>
      <trkpt lat="47.16355" lon="5.88704">
        <ele>239</ele>
        <time>2022-07-24T18:59:04Z</time>
      </trkpt>
      <trkpt lat="47.16354" lon="5.88698">
        <ele>239</ele>
        <time>2022-07-24T18:59:05Z</time>
      </trkpt>
      <trkpt lat="47.16353" lon="5.88686">
        <ele>238.6</ele>
        <time>2022-07-24T18:59:07Z</time>
      </trkpt>
      <trkpt lat="47.16352" lon="5.88675">
        <ele>238.4</ele>
        <time>2022-07-24T18:59:09Z</time>
      </trkpt>
      <trkpt lat="47.16352" lon="5.88669">
        <ele>238.4</ele>
        <time>2022-07-24T18:59:10Z</time>
      </trkpt>
      <trkpt lat="47.1635" lon="5.88659">
        <ele>238.2</ele>
        <time>2022-07-24T18:59:12Z</time>
      </trkpt>
      <trkpt lat="47.1635" lon="5.88654">
        <ele>238</ele>
        <time>2022-07-24T18:59:13Z</time>
      </trkpt>
      <trkpt lat="47.16349" lon="5.88649">
        <ele>238</ele>
        <time>2022-07-24T18:59:14Z</time>
      </trkpt>
      <trkpt lat="47.16349" lon="5.88644">
        <ele>238</ele>
        <time>2022-07-24T18:59:15Z</time>
      </trkpt>
      <trkpt lat="47.16348" lon="5.8864">
        <ele>238</ele>
        <time>2022-07-24T18:59:16Z</time>
      </trkpt>
      <trkpt lat="47.16347" lon="5.88636">
        <ele>238</ele>
        <time>2022-07-24T18:59:17Z</time>
      </trkpt>
      <trkpt lat="47.16346" lon="5.88631">
        <ele>238</ele>
        <time>2022-07-24T18:59:18Z</time>
      </trkpt>
      <trkpt lat="47.16345" lon="5.88627">
        <ele>238</ele>
        <time>2022-07-24T18:59:19Z</time>
      </trkpt>
      <trkpt lat="47.16344" lon="5.88623">
        <ele>238</ele>
        <time>2022-07-24T18:59:20Z</time>
      </trkpt>
      <trkpt lat="47.16342" lon="5.88618">
        <ele>238</ele>
        <time>2022-07-24T18:59:21Z</time>
      </trkpt>
      <trkpt lat="47.16334" lon="5.88599">
        <ele>237.8</ele>
        <time>2022-07-24T18:59:25Z</time>
      </trkpt>
      <trkpt lat="47.16322" lon="5.8857">
        <ele>237.6</ele>
        <time>2022-07-24T18:59:30Z</time>
      </trkpt>
      <trkpt lat="47.16319" lon="5.88565">
        <ele>237.8</ele>
        <time>2022-07-24T18:59:31Z</time>
      </trkpt>
      <trkpt lat="47.1631" lon="5.88558">
        <ele>237.6</ele>
        <time>2022-07-24T18:59:33Z</time>
      </trkpt>
      <trkpt lat="47.16306" lon="5.88556">
        <ele>237.6</ele>
        <time>2022-07-24T18:59:34Z</time>
      </trkpt>
      <trkpt lat="47.16301" lon="5.88556">
        <ele>237.6</ele>
        <time>2022-07-24T18:59:35Z</time>
      </trkpt>
      <trkpt lat="47.16297" lon="5.88557">
        <ele>237.4</ele>
        <time>2022-07-24T18:59:36Z</time>
      </trkpt>
      <trkpt lat="47.16293" lon="5.88559">
        <ele>237.4</ele>
        <time>2022-07-24T18:59:37Z</time>
      </trkpt>
      <trkpt lat="47.16289" lon="5.88561">
        <ele>237.4</ele>
        <time>2022-07-24T18:59:38Z</time>
      </trkpt>
      <trkpt lat="47.16285" lon="5.88563">
        <ele>237.4</ele>
        <time>2022-07-24T18:59:39Z</time>
      </trkpt>
      <trkpt lat="47.1628" lon="5.88565">
        <ele>237.2</ele>
        <time>2022-07-24T18:59:40Z</time>
      </trkpt>
      <trkpt lat="47.16276" lon="5.88567">
        <ele>237.2</ele>
        <time>2022-07-24T18:59:41Z</time>
      </trkpt>
      <trkpt lat="47.16272" lon="5.8857">
        <ele>237.2</ele>
        <time>2022-07-24T18:59:42Z</time>
      </trkpt>
      <trkpt lat="47.16268" lon="5.88572">
        <ele>237.2</ele>
        <time>2022-07-24T18:59:43Z</time>
      </trkpt>
      <trkpt lat="47.16264" lon="5.88574">
        <ele>237.2</ele>
        <time>2022-07-24T18:59:44Z</time>
      </trkpt>
      <trkpt lat="47.16256" lon="5.88579">
        <ele>237.2</ele>
        <time>2022-07-24T18:59:46Z</time>
      </trkpt>
      <trkpt lat="47.16252" lon="5.88581">
        <ele>237.2</ele>
        <time>2022-07-24T18:59:47Z</time>
      </trkpt>
      <trkpt lat="47.1624" lon="5.88587">
        <ele>237.2</ele>
        <time>2022-07-24T18:59:50Z</time>
      </trkpt>
      <trkpt lat="47.16233" lon="5.88591">
        <ele>237.4</ele>
        <time>2022-07-24T18:59:52Z</time>
      </trkpt>
      <trkpt lat="47.1623" lon="5.88593">
        <ele>237.4</ele>
        <time>2022-07-24T18:59:53Z</time>
      </trkpt>
      <trkpt lat="47.16226" lon="5.88595">
        <ele>237.4</ele>
        <time>2022-07-24T18:59:54Z</time>
      </trkpt>
      <trkpt lat="47.16223" lon="5.88597">
        <ele>237.4</ele>
        <time>2022-07-24T18:59:55Z</time>
      </trkpt>
      <trkpt lat="47.16219" lon="5.88599">
        <ele>237.6</ele>
        <time>2022-07-24T18:59:56Z</time>
      </trkpt>
      <trkpt lat="47.16216" lon="5.88601">
        <ele>237.6</ele>
        <time>2022-07-24T18:59:57Z</time>
      </trkpt>
      <trkpt lat="47.16213" lon="5.88602">
        <ele>237.8</ele>
        <time>2022-07-24T18:59:58Z</time>
      </trkpt>
      <trkpt lat="47.1621" lon="5.88603">
        <ele>237.8</ele>
        <time>2022-07-24T18:59:59Z</time>
      </trkpt>
      <trkpt lat="47.16208" lon="5.88605">
        <ele>238</ele>
        <time>2022-07-24T19:00:00Z</time>
      </trkpt>
      <trkpt lat="47.16205" lon="5.88606">
        <ele>238.2</ele>
        <time>2022-07-24T19:00:01Z</time>
      </trkpt>
      <trkpt lat="47.16202" lon="5.88607">
        <ele>238.2</ele>
        <time>2022-07-24T19:00:02Z</time>
      </trkpt>
      <trkpt lat="47.162" lon="5.88609">
        <ele>238.4</ele>
        <time>2022-07-24T19:00:03Z</time>
      </trkpt>
      <trkpt lat="47.16192" lon="5.88613">
        <ele>238.8</ele>
        <time>2022-07-24T19:00:06Z</time>
      </trkpt>
      <trkpt lat="47.16189" lon="5.88615">
        <ele>239</ele>
        <time>2022-07-24T19:00:07Z</time>
      </trkpt>
      <trkpt lat="47.16186" lon="5.88616">
        <ele>239</ele>
        <time>2022-07-24T19:00:08Z</time>
      </trkpt>
      <trkpt lat="47.16184" lon="5.88618">
        <ele>239</ele>
        <time>2022-07-24T19:00:09Z</time>
      </trkpt>
      <trkpt lat="47.16182" lon="5.88619">
        <ele>239.2</ele>
        <time>2022-07-24T19:00:10Z</time>
      </trkpt>
      <trkpt lat="47.1618" lon="5.88621">
        <ele>239.4</ele>
        <time>2022-07-24T19:00:11Z</time>
      </trkpt>
      <trkpt lat="47.16178" lon="5.88623">
        <ele>239.4</ele>
        <time>2022-07-24T19:00:12Z</time>
      </trkpt>
      <trkpt lat="47.16175" lon="5.88624">
        <ele>239.6</ele>
        <time>2022-07-24T19:00:13Z</time>
      </trkpt>
      <trkpt lat="47.16173" lon="5.88626">
        <ele>239.8</ele>
        <time>2022-07-24T19:00:14Z</time>
      </trkpt>
      <trkpt lat="47.16171" lon="5.88627">
        <ele>239.8</ele>
        <time>2022-07-24T19:00:15Z</time>
      </trkpt>
      <trkpt lat="47.16168" lon="5.88629">
        <ele>240</ele>
        <time>2022-07-24T19:00:16Z</time>
      </trkpt>
      <trkpt lat="47.16164" lon="5.88631">
        <ele>240.4</ele>
        <time>2022-07-24T19:00:18Z</time>
      </trkpt>
      <trkpt lat="47.16161" lon="5.88632">
        <ele>240.6</ele>
        <time>2022-07-24T19:00:19Z</time>
      </trkpt>
      <trkpt lat="47.16154" lon="5.88636">
        <ele>241</ele>
        <time>2022-07-24T19:00:22Z</time>
      </trkpt>
      <trkpt lat="47.16152" lon="5.88637">
        <ele>241</ele>
        <time>2022-07-24T19:00:23Z</time>
      </trkpt>
      <trkpt lat="47.1615" lon="5.88639">
        <ele>241</ele>
        <time>2022-07-24T19:00:24Z</time>
      </trkpt>
      <trkpt lat="47.16148" lon="5.8864">
        <ele>241.2</ele>
        <time>2022-07-24T19:00:25Z</time>
      </trkpt>
      <trkpt lat="47.16145" lon="5.88642">
        <ele>241.2</ele>
        <time>2022-07-24T19:00:26Z</time>
      </trkpt>
      <trkpt lat="47.16142" lon="5.88643">
        <ele>241.2</ele>
        <time>2022-07-24T19:00:27Z</time>
      </trkpt>
      <trkpt lat="47.16139" lon="5.88644">
        <ele>241.2</ele>
        <time>2022-07-24T19:00:28Z</time>
      </trkpt>
      <trkpt lat="47.16136" lon="5.88645">
        <ele>241.2</ele>
        <time>2022-07-24T19:00:29Z</time>
      </trkpt>
      <trkpt lat="47.16133" lon="5.88647">
        <ele>241.2</ele>
        <time>2022-07-24T19:00:30Z</time>
      </trkpt>
      <trkpt lat="47.1613" lon="5.88648">
        <ele>241.4</ele>
        <time>2022-07-24T19:00:31Z</time>
      </trkpt>
      <trkpt lat="47.16127" lon="5.8865">
        <ele>241.4</ele>
        <time>2022-07-24T19:00:32Z</time>
      </trkpt>
      <trkpt lat="47.16121" lon="5.88653">
        <ele>241.4</ele>
        <time>2022-07-24T19:00:34Z</time>
      </trkpt>
      <trkpt lat="47.16083" lon="5.88675">
        <ele>241.4</ele>
        <time>2022-07-24T19:00:46Z</time>
      </trkpt>
      <trkpt lat="47.16058" lon="5.88689">
        <ele>241.2</ele>
        <time>2022-07-24T19:00:53Z</time>
      </trkpt>
      <trkpt lat="47.16042" lon="5.88697">
        <ele>240.8</ele>
        <time>2022-07-24T19:00:57Z</time>
      </trkpt>
      <trkpt lat="47.16032" lon="5.88704">
        <ele>240.6</ele>
        <time>2022-07-24T19:00:59Z</time>
      </trkpt>
      <trkpt lat="47.16015" lon="5.88712">
        <ele>240</ele>
        <time>2022-07-24T19:01:02Z</time>
      </trkpt>
      <trkpt lat="47.16002" lon="5.88721">
        <ele>239.6</ele>
        <time>2022-07-24T19:01:04Z</time>
      </trkpt>
      <trkpt lat="47.15991" lon="5.88731">
        <ele>239</ele>
        <time>2022-07-24T19:01:06Z</time>
      </trkpt>
      <trkpt lat="47.15986" lon="5.88737">
        <ele>238.8</ele>
        <time>2022-07-24T19:01:07Z</time>
      </trkpt>
      <trkpt lat="47.1598" lon="5.88742">
        <ele>238.4</ele>
        <time>2022-07-24T19:01:08Z</time>
      </trkpt>
      <trkpt lat="47.15972" lon="5.88754">
        <ele>238</ele>
        <time>2022-07-24T19:01:10Z</time>
      </trkpt>
      <trkpt lat="47.15968" lon="5.88761">
        <ele>237.8</ele>
        <time>2022-07-24T19:01:11Z</time>
      </trkpt>
      <trkpt lat="47.15965" lon="5.88767">
        <ele>237.6</ele>
        <time>2022-07-24T19:01:12Z</time>
      </trkpt>
      <trkpt lat="47.15962" lon="5.88773">
        <ele>237.4</ele>
        <time>2022-07-24T19:01:13Z</time>
      </trkpt>
      <trkpt lat="47.15959" lon="5.8878">
        <ele>237.4</ele>
        <time>2022-07-24T19:01:14Z</time>
      </trkpt>
      <trkpt lat="47.15956" lon="5.88785">
        <ele>237.2</ele>
        <time>2022-07-24T19:01:15Z</time>
      </trkpt>
      <trkpt lat="47.15954" lon="5.8879">
        <ele>237.2</ele>
        <time>2022-07-24T19:01:16Z</time>
      </trkpt>
      <trkpt lat="47.15952" lon="5.88796">
        <ele>237.2</ele>
        <time>2022-07-24T19:01:17Z</time>
      </trkpt>
      <trkpt lat="47.15949" lon="5.88801">
        <ele>237.2</ele>
        <time>2022-07-24T19:01:18Z</time>
      </trkpt>
      <trkpt lat="47.15946" lon="5.88806">
        <ele>237.2</ele>
        <time>2022-07-24T19:01:19Z</time>
      </trkpt>
      <trkpt lat="47.15938" lon="5.88819">
        <ele>237.2</ele>
        <time>2022-07-24T19:01:22Z</time>
      </trkpt>
      <trkpt lat="47.15935" lon="5.88823">
        <ele>237.4</ele>
        <time>2022-07-24T19:01:23Z</time>
      </trkpt>
      <trkpt lat="47.1593" lon="5.88831">
        <ele>237.6</ele>
        <time>2022-07-24T19:01:25Z</time>
      </trkpt>
      <trkpt lat="47.15927" lon="5.88834">
        <ele>237.6</ele>
        <time>2022-07-24T19:01:26Z</time>
      </trkpt>
      <trkpt lat="47.15924" lon="5.88836">
        <ele>237.6</ele>
        <time>2022-07-24T19:01:27Z</time>
      </trkpt>
      <trkpt lat="47.15922" lon="5.88837">
        <ele>237.6</ele>
        <time>2022-07-24T19:01:28Z</time>
      </trkpt>
      <trkpt lat="47.15919" lon="5.88837">
        <ele>237.8</ele>
        <time>2022-07-24T19:01:29Z</time>
      </trkpt>
      <trkpt lat="47.15915" lon="5.88837">
        <ele>237.8</ele>
        <time>2022-07-24T19:01:30Z</time>
      </trkpt>
      <trkpt lat="47.15911" lon="5.88836">
        <ele>237.8</ele>
        <time>2022-07-24T19:01:31Z</time>
      </trkpt>
      <trkpt lat="47.15906" lon="5.88834">
        <ele>238</ele>
        <time>2022-07-24T19:01:32Z</time>
      </trkpt>
      <trkpt lat="47.1589" lon="5.88824">
        <ele>238.8</ele>
        <time>2022-07-24T19:01:37Z</time>
      </trkpt>
      <trkpt lat="47.15886" lon="5.88822">
        <ele>239</ele>
        <time>2022-07-24T19:01:38Z</time>
      </trkpt>
      <trkpt lat="47.15871" lon="5.88811">
        <ele>239.6</ele>
        <time>2022-07-24T19:01:43Z</time>
      </trkpt>
      <trkpt lat="47.15869" lon="5.88811">
        <ele>239.8</ele>
        <time>2022-07-24T19:01:44Z</time>
      </trkpt>
      <trkpt lat="47.15865" lon="5.88811">
        <ele>239.8</ele>
        <time>2022-07-24T19:01:45Z</time>
      </trkpt>
      <trkpt lat="47.15862" lon="5.88812">
        <ele>240</ele>
        <time>2022-07-24T19:01:46Z</time>
      </trkpt>
      <trkpt lat="47.15859" lon="5.88814">
        <ele>240.2</ele>
        <time>2022-07-24T19:01:47Z</time>
      </trkpt>
      <trkpt lat="47.15857" lon="5.88815">
        <ele>240.4</ele>
        <time>2022-07-24T19:01:48Z</time>
      </trkpt>
      <trkpt lat="47.15855" lon="5.88817">
        <ele>240.4</ele>
        <time>2022-07-24T19:01:49Z</time>
      </trkpt>
      <trkpt lat="47.15853" lon="5.88819">
        <ele>240.6</ele>
        <time>2022-07-24T19:01:50Z</time>
      </trkpt>
      <trkpt lat="47.15851" lon="5.88821">
        <ele>240.6</ele>
        <time>2022-07-24T19:01:51Z</time>
      </trkpt>
      <trkpt lat="47.15847" lon="5.88822">
        <ele>240.8</ele>
        <time>2022-07-24T19:01:53Z</time>
      </trkpt>
      <trkpt lat="47.15845" lon="5.88823">
        <ele>241</ele>
        <time>2022-07-24T19:01:54Z</time>
      </trkpt>
      <trkpt lat="47.15843" lon="5.88823">
        <ele>241.2</ele>
        <time>2022-07-24T19:01:55Z</time>
      </trkpt>
      <trkpt lat="47.15842" lon="5.88823">
        <ele>241.4</ele>
        <time>2022-07-24T19:01:56Z</time>
      </trkpt>
      <trkpt lat="47.15841" lon="5.88822">
        <ele>241.6</ele>
        <time>2022-07-24T19:01:57Z</time>
      </trkpt>
      <trkpt lat="47.1584" lon="5.88822">
        <ele>242</ele>
        <time>2022-07-24T19:01:58Z</time>
      </trkpt>
      <trkpt lat="47.15838" lon="5.88821">
        <ele>242</ele>
        <time>2022-07-24T19:01:59Z</time>
      </trkpt>
      <trkpt lat="47.15837" lon="5.8882">
        <ele>242.2</ele>
        <time>2022-07-24T19:02:00Z</time>
      </trkpt>
      <trkpt lat="47.15836" lon="5.88819">
        <ele>242.4</ele>
        <time>2022-07-24T19:02:01Z</time>
      </trkpt>
      <trkpt lat="47.15834" lon="5.88819">
        <ele>242.6</ele>
        <time>2022-07-24T19:02:02Z</time>
      </trkpt>
      <trkpt lat="47.15833" lon="5.88817">
        <ele>243</ele>
        <time>2022-07-24T19:02:03Z</time>
      </trkpt>
      <trkpt lat="47.15832" lon="5.88815">
        <ele>243.2</ele>
        <time>2022-07-24T19:02:04Z</time>
      </trkpt>
      <trkpt lat="47.15831" lon="5.88813">
        <ele>243.6</ele>
        <time>2022-07-24T19:02:05Z</time>
      </trkpt>
      <trkpt lat="47.1583" lon="5.88813">
        <ele>243.6</ele>
        <time>2022-07-24T19:02:06Z</time>
      </trkpt>
      <trkpt lat="47.15829" lon="5.8881">
        <ele>243.8</ele>
        <time>2022-07-24T19:02:07Z</time>
      </trkpt>
      <trkpt lat="47.15828" lon="5.88808">
        <ele>244</ele>
        <time>2022-07-24T19:02:08Z</time>
      </trkpt>
      <trkpt lat="47.15827" lon="5.88808">
        <ele>244.2</ele>
        <time>2022-07-24T19:02:09Z</time>
      </trkpt>
      <trkpt lat="47.15826" lon="5.88807">
        <ele>244.6</ele>
        <time>2022-07-24T19:02:10Z</time>
      </trkpt>
      <trkpt lat="47.15824" lon="5.88806">
        <ele>244.8</ele>
        <time>2022-07-24T19:02:11Z</time>
      </trkpt>
      <trkpt lat="47.15823" lon="5.88805">
        <ele>245</ele>
        <time>2022-07-24T19:02:12Z</time>
      </trkpt>
      <trkpt lat="47.15821" lon="5.88805">
        <ele>245</ele>
        <time>2022-07-24T19:02:13Z</time>
      </trkpt>
      <trkpt lat="47.15819" lon="5.88804">
        <ele>245.2</ele>
        <time>2022-07-24T19:02:14Z</time>
      </trkpt>
      <trkpt lat="47.15819" lon="5.88803">
        <ele>245.2</ele>
        <time>2022-07-24T19:02:15Z</time>
      </trkpt>
      <trkpt lat="47.15817" lon="5.88803">
        <ele>245.6</ele>
        <time>2022-07-24T19:02:16Z</time>
      </trkpt>
      <trkpt lat="47.15815" lon="5.88801">
        <ele>245.8</ele>
        <time>2022-07-24T19:02:17Z</time>
      </trkpt>
      <trkpt lat="47.15814" lon="5.888">
        <ele>246</ele>
        <time>2022-07-24T19:02:18Z</time>
      </trkpt>
      <trkpt lat="47.15814" lon="5.88799">
        <ele>246</ele>
        <time>2022-07-24T19:02:19Z</time>
      </trkpt>
      <trkpt lat="47.15813" lon="5.88799">
        <ele>246.2</ele>
        <time>2022-07-24T19:02:20Z</time>
      </trkpt>
      <trkpt lat="47.15812" lon="5.88797">
        <ele>246.4</ele>
        <time>2022-07-24T19:02:21Z</time>
      </trkpt>
      <trkpt lat="47.1581" lon="5.88796">
        <ele>246.8</ele>
        <time>2022-07-24T19:02:22Z</time>
      </trkpt>
      <trkpt lat="47.15806" lon="5.88795">
        <ele>246.6</ele>
        <time>2022-07-24T19:02:23Z</time>
      </trkpt>
      <trkpt lat="47.15803" lon="5.88794">
        <ele>246.8</ele>
        <time>2022-07-24T19:02:24Z</time>
      </trkpt>
      <trkpt lat="47.158" lon="5.88794">
        <ele>246.8</ele>
        <time>2022-07-24T19:02:25Z</time>
      </trkpt>
      <trkpt lat="47.15798" lon="5.88792">
        <ele>247.2</ele>
        <time>2022-07-24T19:02:26Z</time>
      </trkpt>
      <trkpt lat="47.15797" lon="5.88791">
        <ele>247</ele>
        <time>2022-07-24T19:02:27Z</time>
      </trkpt>
      <trkpt lat="47.15794" lon="5.88789">
        <ele>247.2</ele>
        <time>2022-07-24T19:02:28Z</time>
      </trkpt>
      <trkpt lat="47.15793" lon="5.88788">
        <ele>247.4</ele>
        <time>2022-07-24T19:02:29Z</time>
      </trkpt>
      <trkpt lat="47.15789" lon="5.88787">
        <ele>247.4</ele>
        <time>2022-07-24T19:02:30Z</time>
      </trkpt>
      <trkpt lat="47.15785" lon="5.88786">
        <ele>247.4</ele>
        <time>2022-07-24T19:02:31Z</time>
      </trkpt>
      <trkpt lat="47.15783" lon="5.88785">
        <ele>247.4</ele>
        <time>2022-07-24T19:02:32Z</time>
      </trkpt>
      <trkpt lat="47.15782" lon="5.88784">
        <ele>247.4</ele>
        <time>2022-07-24T19:02:33Z</time>
      </trkpt>
      <trkpt lat="47.1578" lon="5.88783">
        <ele>247.6</ele>
        <time>2022-07-24T19:02:34Z</time>
      </trkpt>
      <trkpt lat="47.15778" lon="5.88782">
        <ele>247.8</ele>
        <time>2022-07-24T19:02:35Z</time>
      </trkpt>
      <trkpt lat="47.15775" lon="5.88782">
        <ele>247.6</ele>
        <time>2022-07-24T19:02:36Z</time>
      </trkpt>
      <trkpt lat="47.15772" lon="5.88779">
        <ele>247.8</ele>
        <time>2022-07-24T19:02:37Z</time>
      </trkpt>
      <trkpt lat="47.1577" lon="5.88778">
        <ele>247.8</ele>
        <time>2022-07-24T19:02:38Z</time>
      </trkpt>
      <trkpt lat="47.15769" lon="5.88778">
        <ele>247.8</ele>
        <time>2022-07-24T19:02:39Z</time>
      </trkpt>
      <trkpt lat="47.15767" lon="5.88777">
        <ele>248</ele>
        <time>2022-07-24T19:02:40Z</time>
      </trkpt>
      <trkpt lat="47.15765" lon="5.88775">
        <ele>248</ele>
        <time>2022-07-24T19:02:41Z</time>
      </trkpt>
      <trkpt lat="47.15764" lon="5.88775">
        <ele>248</ele>
        <time>2022-07-24T19:02:42Z</time>
      </trkpt>
      <trkpt lat="47.15762" lon="5.88775">
        <ele>248.2</ele>
        <time>2022-07-24T19:02:43Z</time>
      </trkpt>
      <trkpt lat="47.1576" lon="5.88774">
        <ele>248.2</ele>
        <time>2022-07-24T19:02:44Z</time>
      </trkpt>
      <trkpt lat="47.15757" lon="5.88772">
        <ele>248.4</ele>
        <time>2022-07-24T19:02:45Z</time>
      </trkpt>
      <trkpt lat="47.15754" lon="5.8877">
        <ele>248.4</ele>
        <time>2022-07-24T19:02:46Z</time>
      </trkpt>
      <trkpt lat="47.15745" lon="5.88769">
        <ele>248.6</ele>
        <time>2022-07-24T19:02:50Z</time>
      </trkpt>
      <trkpt lat="47.15744" lon="5.88769">
        <ele>248.8</ele>
        <time>2022-07-24T19:02:51Z</time>
      </trkpt>
      <trkpt lat="47.15742" lon="5.88771">
        <ele>248.8</ele>
        <time>2022-07-24T19:02:53Z</time>
      </trkpt>
      <trkpt lat="47.15742" lon="5.88772">
        <ele>249</ele>
        <time>2022-07-24T19:02:54Z</time>
      </trkpt>
      <trkpt lat="47.15741" lon="5.88772">
        <ele>249</ele>
        <time>2022-07-24T19:02:55Z</time>
      </trkpt>
      <trkpt lat="47.1574" lon="5.88775">
        <ele>249</ele>
        <time>2022-07-24T19:02:57Z</time>
      </trkpt>
      <trkpt lat="47.15739" lon="5.88777">
        <ele>249.2</ele>
        <time>2022-07-24T19:02:58Z</time>
      </trkpt>
      <trkpt lat="47.15738" lon="5.88779">
        <ele>251.8</ele>
        <time>2022-07-24T19:03:09Z</time>
      </trkpt>
      <trkpt lat="47.15738" lon="5.8878">
        <ele>252.2</ele>
        <time>2022-07-24T19:03:10Z</time>
      </trkpt>
      <trkpt lat="47.15738" lon="5.88781">
        <ele>255.8</ele>
        <time>2022-07-24T19:03:29Z</time>
      </trkpt>
      <trkpt lat="47.15739" lon="5.88784">
        <ele>256.2</ele>
        <time>2022-07-24T19:03:32Z</time>
      </trkpt>
      <trkpt lat="47.15739" lon="5.88786">
        <ele>256.2</ele>
        <time>2022-07-24T19:03:33Z</time>
      </trkpt>
      <trkpt lat="47.15739" lon="5.88788">
        <ele>256.4</ele>
        <time>2022-07-24T19:03:34Z</time>
      </trkpt>
      <trkpt lat="47.1574" lon="5.8879">
        <ele>256.4</ele>
        <time>2022-07-24T19:03:35Z</time>
      </trkpt>
      <trkpt lat="47.1574" lon="5.88792">
        <ele>256.6</ele>
        <time>2022-07-24T19:03:36Z</time>
      </trkpt>
      <trkpt lat="47.15741" lon="5.88793">
        <ele>256.8</ele>
        <time>2022-07-24T19:03:37Z</time>
      </trkpt>
      <trkpt lat="47.15742" lon="5.88794">
        <ele>256.8</ele>
        <time>2022-07-24T19:03:38Z</time>
      </trkpt>
      <trkpt lat="47.15742" lon="5.88796">
        <ele>257</ele>
        <time>2022-07-24T19:03:39Z</time>
      </trkpt>
      <trkpt lat="47.15743" lon="5.88799">
        <ele>257</ele>
        <time>2022-07-24T19:03:40Z</time>
      </trkpt>
      <trkpt lat="47.15743" lon="5.888">
        <ele>257.4</ele>
        <time>2022-07-24T19:03:41Z</time>
      </trkpt>
      <trkpt lat="47.15744" lon="5.88805">
        <ele>257.8</ele>
        <time>2022-07-24T19:03:47Z</time>
      </trkpt>
      <trkpt lat="47.15745" lon="5.88808">
        <ele>258</ele>
        <time>2022-07-24T19:03:49Z</time>
      </trkpt>
      <trkpt lat="47.15745" lon="5.8881">
        <ele>258.2</ele>
        <time>2022-07-24T19:03:50Z</time>
      </trkpt>
      <trkpt lat="47.15745" lon="5.88811">
        <ele>258.2</ele>
        <time>2022-07-24T19:03:51Z</time>
      </trkpt>
      <trkpt lat="47.15746" lon="5.88812">
        <ele>258.4</ele>
        <time>2022-07-24T19:03:53Z</time>
      </trkpt>
      <trkpt lat="47.15747" lon="5.88815">
        <ele>258.4</ele>
        <time>2022-07-24T19:03:54Z</time>
      </trkpt>
      <trkpt lat="47.15748" lon="5.88818">
        <ele>258.6</ele>
        <time>2022-07-24T19:03:55Z</time>
      </trkpt>
      <trkpt lat="47.15748" lon="5.8882">
        <ele>258.6</ele>
        <time>2022-07-24T19:03:56Z</time>
      </trkpt>
      <trkpt lat="47.15749" lon="5.88821">
        <ele>258.8</ele>
        <time>2022-07-24T19:03:57Z</time>
      </trkpt>
      <trkpt lat="47.15752" lon="5.88822">
        <ele>259</ele>
        <time>2022-07-24T19:03:58Z</time>
      </trkpt>
      <trkpt lat="47.15753" lon="5.88824">
        <ele>259</ele>
        <time>2022-07-24T19:03:59Z</time>
      </trkpt>
      <trkpt lat="47.15753" lon="5.88827">
        <ele>259.2</ele>
        <time>2022-07-24T19:04:00Z</time>
      </trkpt>
      <trkpt lat="47.15754" lon="5.88831">
        <ele>259.2</ele>
        <time>2022-07-24T19:04:01Z</time>
      </trkpt>
      <trkpt lat="47.15754" lon="5.88833">
        <ele>259.4</ele>
        <time>2022-07-24T19:04:02Z</time>
      </trkpt>
      <trkpt lat="47.15756" lon="5.88833">
        <ele>259.6</ele>
        <time>2022-07-24T19:04:03Z</time>
      </trkpt>
      <trkpt lat="47.15757" lon="5.88834">
        <ele>259.6</ele>
        <time>2022-07-24T19:04:04Z</time>
      </trkpt>
      <trkpt lat="47.15758" lon="5.88835">
        <ele>259.8</ele>
        <time>2022-07-24T19:04:05Z</time>
      </trkpt>
      <trkpt lat="47.15759" lon="5.88836">
        <ele>259.8</ele>
        <time>2022-07-24T19:04:06Z</time>
      </trkpt>
      <trkpt lat="47.1576" lon="5.88838">
        <ele>260</ele>
        <time>2022-07-24T19:04:07Z</time>
      </trkpt>
      <trkpt lat="47.1576" lon="5.88839">
        <ele>260</ele>
        <time>2022-07-24T19:04:08Z</time>
      </trkpt>
      <trkpt lat="47.1576" lon="5.8884">
        <ele>260.2</ele>
        <time>2022-07-24T19:04:09Z</time>
      </trkpt>
      <trkpt lat="47.15761" lon="5.88841">
        <ele>260.2</ele>
        <time>2022-07-24T19:04:10Z</time>
      </trkpt>
      <trkpt lat="47.15761" lon="5.88843">
        <ele>260.6</ele>
        <time>2022-07-24T19:04:11Z</time>
      </trkpt>
      <trkpt lat="47.15762" lon="5.88843">
        <ele>260.6</ele>
        <time>2022-07-24T19:04:12Z</time>
      </trkpt>
      <trkpt lat="47.15763" lon="5.88844">
        <ele>260.8</ele>
        <time>2022-07-24T19:04:13Z</time>
      </trkpt>
      <trkpt lat="47.15764" lon="5.88847">
        <ele>261</ele>
        <time>2022-07-24T19:04:14Z</time>
      </trkpt>
      <trkpt lat="47.15765" lon="5.8885">
        <ele>261.2</ele>
        <time>2022-07-24T19:04:16Z</time>
      </trkpt>
      <trkpt lat="47.15767" lon="5.88852">
        <ele>261.4</ele>
        <time>2022-07-24T19:04:17Z</time>
      </trkpt>
      <trkpt lat="47.15769" lon="5.88855">
        <ele>261.6</ele>
        <time>2022-07-24T19:04:18Z</time>
      </trkpt>
      <trkpt lat="47.15771" lon="5.88856">
        <ele>261.8</ele>
        <time>2022-07-24T19:04:19Z</time>
      </trkpt>
      <trkpt lat="47.15773" lon="5.88857">
        <ele>262</ele>
        <time>2022-07-24T19:04:20Z</time>
      </trkpt>
      <trkpt lat="47.15774" lon="5.88857">
        <ele>262.2</ele>
        <time>2022-07-24T19:04:21Z</time>
      </trkpt>
      <trkpt lat="47.15776" lon="5.88858">
        <ele>262.2</ele>
        <time>2022-07-24T19:04:22Z</time>
      </trkpt>
      <trkpt lat="47.15778" lon="5.8886">
        <ele>262.2</ele>
        <time>2022-07-24T19:04:23Z</time>
      </trkpt>
      <trkpt lat="47.1578" lon="5.88863">
        <ele>262.4</ele>
        <time>2022-07-24T19:04:24Z</time>
      </trkpt>
      <trkpt lat="47.15781" lon="5.88867">
        <ele>262.4</ele>
        <time>2022-07-24T19:04:25Z</time>
      </trkpt>
      <trkpt lat="47.15784" lon="5.88868">
        <ele>262.4</ele>
        <time>2022-07-24T19:04:26Z</time>
      </trkpt>
      <trkpt lat="47.15787" lon="5.8887">
        <ele>262.4</ele>
        <time>2022-07-24T19:04:27Z</time>
      </trkpt>
      <trkpt lat="47.1579" lon="5.88872">
        <ele>262.4</ele>
        <time>2022-07-24T19:04:28Z</time>
      </trkpt>
      <trkpt lat="47.15791" lon="5.88874">
        <ele>262.4</ele>
        <time>2022-07-24T19:04:29Z</time>
      </trkpt>
      <trkpt lat="47.15794" lon="5.88877">
        <ele>262.4</ele>
        <time>2022-07-24T19:04:30Z</time>
      </trkpt>
      <trkpt lat="47.15796" lon="5.8888">
        <ele>262.4</ele>
        <time>2022-07-24T19:04:31Z</time>
      </trkpt>
      <trkpt lat="47.15798" lon="5.88882">
        <ele>262.4</ele>
        <time>2022-07-24T19:04:32Z</time>
      </trkpt>
      <trkpt lat="47.15801" lon="5.88883">
        <ele>262.4</ele>
        <time>2022-07-24T19:04:33Z</time>
      </trkpt>
      <trkpt lat="47.15805" lon="5.88886">
        <ele>262.4</ele>
        <time>2022-07-24T19:04:34Z</time>
      </trkpt>
      <trkpt lat="47.15807" lon="5.88889">
        <ele>262.4</ele>
        <time>2022-07-24T19:04:35Z</time>
      </trkpt>
      <trkpt lat="47.15813" lon="5.88893">
        <ele>262.6</ele>
        <time>2022-07-24T19:04:37Z</time>
      </trkpt>
      <trkpt lat="47.15816" lon="5.88894">
        <ele>262.6</ele>
        <time>2022-07-24T19:04:38Z</time>
      </trkpt>
      <trkpt lat="47.15819" lon="5.88896">
        <ele>262.8</ele>
        <time>2022-07-24T19:04:40Z</time>
      </trkpt>
      <trkpt lat="47.1582" lon="5.88897">
        <ele>262.6</ele>
        <time>2022-07-24T19:04:41Z</time>
      </trkpt>
      <trkpt lat="47.15821" lon="5.88896">
        <ele>262.6</ele>
        <time>2022-07-24T19:04:42Z</time>
      </trkpt>
      <trkpt lat="47.15823" lon="5.88896">
        <ele>262.6</ele>
        <time>2022-07-24T19:04:43Z</time>
      </trkpt>
      <trkpt lat="47.15831" lon="5.88903">
        <ele>263</ele>
        <time>2022-07-24T19:04:47Z</time>
      </trkpt>
      <trkpt lat="47.15833" lon="5.88905">
        <ele>263.2</ele>
        <time>2022-07-24T19:04:48Z</time>
      </trkpt>
      <trkpt lat="47.15835" lon="5.88908">
        <ele>263.2</ele>
        <time>2022-07-24T19:04:49Z</time>
      </trkpt>
      <trkpt lat="47.15836" lon="5.88911">
        <ele>263.2</ele>
        <time>2022-07-24T19:04:50Z</time>
      </trkpt>
      <trkpt lat="47.15839" lon="5.88915">
        <ele>263.2</ele>
        <time>2022-07-24T19:04:52Z</time>
      </trkpt>
      <trkpt lat="47.1584" lon="5.88918">
        <ele>263.2</ele>
        <time>2022-07-24T19:04:53Z</time>
      </trkpt>
      <trkpt lat="47.15843" lon="5.8892">
        <ele>263.4</ele>
        <time>2022-07-24T19:04:54Z</time>
      </trkpt>
      <trkpt lat="47.15847" lon="5.88927">
        <ele>263.4</ele>
        <time>2022-07-24T19:04:56Z</time>
      </trkpt>
      <trkpt lat="47.15849" lon="5.88929">
        <ele>263.4</ele>
        <time>2022-07-24T19:04:57Z</time>
      </trkpt>
      <trkpt lat="47.15853" lon="5.88933">
        <ele>263.6</ele>
        <time>2022-07-24T19:04:59Z</time>
      </trkpt>
      <trkpt lat="47.15856" lon="5.88935">
        <ele>263.8</ele>
        <time>2022-07-24T19:05:00Z</time>
      </trkpt>
      <trkpt lat="47.15861" lon="5.8894">
        <ele>264</ele>
        <time>2022-07-24T19:05:03Z</time>
      </trkpt>
      <trkpt lat="47.15863" lon="5.88941">
        <ele>264.2</ele>
        <time>2022-07-24T19:05:04Z</time>
      </trkpt>
      <trkpt lat="47.15864" lon="5.88943">
        <ele>264.2</ele>
        <time>2022-07-24T19:05:05Z</time>
      </trkpt>
      <trkpt lat="47.15866" lon="5.88947">
        <ele>264.2</ele>
        <time>2022-07-24T19:05:06Z</time>
      </trkpt>
      <trkpt lat="47.15869" lon="5.8895">
        <ele>264.4</ele>
        <time>2022-07-24T19:05:07Z</time>
      </trkpt>
      <trkpt lat="47.1587" lon="5.88953">
        <ele>264.8</ele>
        <time>2022-07-24T19:05:08Z</time>
      </trkpt>
      <trkpt lat="47.15872" lon="5.88956">
        <ele>264.8</ele>
        <time>2022-07-24T19:05:09Z</time>
      </trkpt>
      <trkpt lat="47.15876" lon="5.88957">
        <ele>265</ele>
        <time>2022-07-24T19:05:10Z</time>
      </trkpt>
      <trkpt lat="47.15878" lon="5.88958">
        <ele>265</ele>
        <time>2022-07-24T19:05:11Z</time>
      </trkpt>
      <trkpt lat="47.15878" lon="5.88959">
        <ele>265</ele>
        <time>2022-07-24T19:05:12Z</time>
      </trkpt>
      <trkpt lat="47.15893" lon="5.88972">
        <ele>265.4</ele>
        <time>2022-07-24T19:05:17Z</time>
      </trkpt>
      <trkpt lat="47.15897" lon="5.88975">
        <ele>265.4</ele>
        <time>2022-07-24T19:05:18Z</time>
      </trkpt>
      <trkpt lat="47.159" lon="5.88976">
        <ele>265.4</ele>
        <time>2022-07-24T19:05:19Z</time>
      </trkpt>
      <trkpt lat="47.15902" lon="5.88978">
        <ele>265.4</ele>
        <time>2022-07-24T19:05:20Z</time>
      </trkpt>
      <trkpt lat="47.15904" lon="5.88981">
        <ele>265.4</ele>
        <time>2022-07-24T19:05:21Z</time>
      </trkpt>
      <trkpt lat="47.15906" lon="5.88984">
        <ele>265.4</ele>
        <time>2022-07-24T19:05:22Z</time>
      </trkpt>
      <trkpt lat="47.15912" lon="5.88993">
        <ele>265.4</ele>
        <time>2022-07-24T19:05:25Z</time>
      </trkpt>
      <trkpt lat="47.15913" lon="5.88995">
        <ele>265.4</ele>
        <time>2022-07-24T19:05:26Z</time>
      </trkpt>
      <trkpt lat="47.15916" lon="5.88997">
        <ele>265.4</ele>
        <time>2022-07-24T19:05:27Z</time>
      </trkpt>
      <trkpt lat="47.15917" lon="5.88997">
        <ele>265.4</ele>
        <time>2022-07-24T19:05:28Z</time>
      </trkpt>
      <trkpt lat="47.15918" lon="5.88998">
        <ele>265.4</ele>
        <time>2022-07-24T19:05:29Z</time>
      </trkpt>
      <trkpt lat="47.15919" lon="5.89">
        <ele>265.4</ele>
        <time>2022-07-24T19:05:30Z</time>
      </trkpt>
      <trkpt lat="47.15921" lon="5.89002">
        <ele>265.2</ele>
        <time>2022-07-24T19:05:32Z</time>
      </trkpt>
      <trkpt lat="47.15922" lon="5.89003">
        <ele>265.2</ele>
        <time>2022-07-24T19:05:33Z</time>
      </trkpt>
      <trkpt lat="47.15923" lon="5.89004">
        <ele>265.2</ele>
        <time>2022-07-24T19:05:34Z</time>
      </trkpt>
      <trkpt lat="47.15924" lon="5.89005">
        <ele>265.2</ele>
        <time>2022-07-24T19:05:35Z</time>
      </trkpt>
      <trkpt lat="47.15926" lon="5.89007">
        <ele>265.2</ele>
        <time>2022-07-24T19:05:36Z</time>
      </trkpt>
      <trkpt lat="47.15929" lon="5.89009">
        <ele>265.2</ele>
        <time>2022-07-24T19:05:38Z</time>
      </trkpt>
      <trkpt lat="47.15933" lon="5.89012">
        <ele>265.2</ele>
        <time>2022-07-24T19:05:41Z</time>
      </trkpt>
      <trkpt lat="47.15934" lon="5.89014">
        <ele>265.2</ele>
        <time>2022-07-24T19:05:42Z</time>
      </trkpt>
      <trkpt lat="47.15936" lon="5.89016">
        <ele>265.4</ele>
        <time>2022-07-24T19:05:43Z</time>
      </trkpt>
      <trkpt lat="47.15941" lon="5.89023">
        <ele>265.8</ele>
        <time>2022-07-24T19:05:46Z</time>
      </trkpt>
      <trkpt lat="47.15945" lon="5.89027">
        <ele>266</ele>
        <time>2022-07-24T19:05:48Z</time>
      </trkpt>
      <trkpt lat="47.15947" lon="5.89028">
        <ele>266</ele>
        <time>2022-07-24T19:05:49Z</time>
      </trkpt>
      <trkpt lat="47.15951" lon="5.89032">
        <ele>266</ele>
        <time>2022-07-24T19:05:51Z</time>
      </trkpt>
      <trkpt lat="47.15956" lon="5.89036">
        <ele>266.2</ele>
        <time>2022-07-24T19:05:53Z</time>
      </trkpt>
      <trkpt lat="47.15965" lon="5.89043">
        <ele>266.4</ele>
        <time>2022-07-24T19:05:56Z</time>
      </trkpt>
      <trkpt lat="47.15966" lon="5.89043">
        <ele>266.4</ele>
        <time>2022-07-24T19:05:57Z</time>
      </trkpt>
      <trkpt lat="47.15967" lon="5.89044">
        <ele>266.4</ele>
        <time>2022-07-24T19:05:58Z</time>
      </trkpt>
      <trkpt lat="47.15968" lon="5.89044">
        <ele>266.6</ele>
        <time>2022-07-24T19:05:59Z</time>
      </trkpt>
      <trkpt lat="47.15972" lon="5.89049">
        <ele>266.6</ele>
        <time>2022-07-24T19:06:01Z</time>
      </trkpt>
      <trkpt lat="47.15975" lon="5.89056">
        <ele>266.6</ele>
        <time>2022-07-24T19:06:02Z</time>
      </trkpt>
      <trkpt lat="47.15976" lon="5.89059">
        <ele>266.6</ele>
        <time>2022-07-24T19:06:03Z</time>
      </trkpt>
      <trkpt lat="47.1598" lon="5.89062">
        <ele>266.6</ele>
        <time>2022-07-24T19:06:04Z</time>
      </trkpt>
      <trkpt lat="47.15983" lon="5.89066">
        <ele>266.6</ele>
        <time>2022-07-24T19:06:05Z</time>
      </trkpt>
      <trkpt lat="47.15995" lon="5.89075">
        <ele>266.8</ele>
        <time>2022-07-24T19:06:09Z</time>
      </trkpt>
      <trkpt lat="47.15998" lon="5.89077">
        <ele>267</ele>
        <time>2022-07-24T19:06:10Z</time>
      </trkpt>
      <trkpt lat="47.16002" lon="5.89079">
        <ele>266.8</ele>
        <time>2022-07-24T19:06:11Z</time>
      </trkpt>
      <trkpt lat="47.1601" lon="5.89081">
        <ele>267</ele>
        <time>2022-07-24T19:06:14Z</time>
      </trkpt>
      <trkpt lat="47.16011" lon="5.89084">
        <ele>267.2</ele>
        <time>2022-07-24T19:06:15Z</time>
      </trkpt>
      <trkpt lat="47.16012" lon="5.89087">
        <ele>267.2</ele>
        <time>2022-07-24T19:06:16Z</time>
      </trkpt>
      <trkpt lat="47.16014" lon="5.89089">
        <ele>267.2</ele>
        <time>2022-07-24T19:06:17Z</time>
      </trkpt>
      <trkpt lat="47.16017" lon="5.8909">
        <ele>267</ele>
        <time>2022-07-24T19:06:18Z</time>
      </trkpt>
      <trkpt lat="47.16018" lon="5.89091">
        <ele>267</ele>
        <time>2022-07-24T19:06:19Z</time>
      </trkpt>
      <trkpt lat="47.16019" lon="5.89093">
        <ele>267</ele>
        <time>2022-07-24T19:06:20Z</time>
      </trkpt>
      <trkpt lat="47.16023" lon="5.89097">
        <ele>267</ele>
        <time>2022-07-24T19:06:22Z</time>
      </trkpt>
      <trkpt lat="47.16025" lon="5.89099">
        <ele>267</ele>
        <time>2022-07-24T19:06:23Z</time>
      </trkpt>
      <trkpt lat="47.16031" lon="5.89105">
        <ele>267</ele>
        <time>2022-07-24T19:06:25Z</time>
      </trkpt>
      <trkpt lat="47.16035" lon="5.8911">
        <ele>267</ele>
        <time>2022-07-24T19:06:27Z</time>
      </trkpt>
      <trkpt lat="47.16036" lon="5.89112">
        <ele>267.2</ele>
        <time>2022-07-24T19:06:28Z</time>
      </trkpt>
      <trkpt lat="47.16037" lon="5.89114">
        <ele>267.4</ele>
        <time>2022-07-24T19:06:29Z</time>
      </trkpt>
      <trkpt lat="47.16038" lon="5.89115">
        <ele>267.6</ele>
        <time>2022-07-24T19:06:30Z</time>
      </trkpt>
      <trkpt lat="47.16039" lon="5.89116">
        <ele>267.8</ele>
        <time>2022-07-24T19:06:31Z</time>
      </trkpt>
      <trkpt lat="47.1604" lon="5.89118">
        <ele>268</ele>
        <time>2022-07-24T19:06:32Z</time>
      </trkpt>
      <trkpt lat="47.16041" lon="5.89121">
        <ele>268.2</ele>
        <time>2022-07-24T19:06:34Z</time>
      </trkpt>
      <trkpt lat="47.16044" lon="5.89129">
        <ele>268.4</ele>
        <time>2022-07-24T19:06:36Z</time>
      </trkpt>
      <trkpt lat="47.16045" lon="5.89131">
        <ele>268.8</ele>
        <time>2022-07-24T19:06:37Z</time>
      </trkpt>
      <trkpt lat="47.16046" lon="5.89132">
        <ele>269</ele>
        <time>2022-07-24T19:06:38Z</time>
      </trkpt>
      <trkpt lat="47.16047" lon="5.89134">
        <ele>269.2</ele>
        <time>2022-07-24T19:06:39Z</time>
      </trkpt>
      <trkpt lat="47.16049" lon="5.89136">
        <ele>269.2</ele>
        <time>2022-07-24T19:06:40Z</time>
      </trkpt>
      <trkpt lat="47.16054" lon="5.89146">
        <ele>270.2</ele>
        <time>2022-07-24T19:06:44Z</time>
      </trkpt>
      <trkpt lat="47.16054" lon="5.89147">
        <ele>270.2</ele>
        <time>2022-07-24T19:06:45Z</time>
      </trkpt>
      <trkpt lat="47.16055" lon="5.89149">
        <ele>270.4</ele>
        <time>2022-07-24T19:06:46Z</time>
      </trkpt>
      <trkpt lat="47.16056" lon="5.89152">
        <ele>270.4</ele>
        <time>2022-07-24T19:06:47Z</time>
      </trkpt>
      <trkpt lat="47.16057" lon="5.89154">
        <ele>270.8</ele>
        <time>2022-07-24T19:06:48Z</time>
      </trkpt>
      <trkpt lat="47.16058" lon="5.89154">
        <ele>270.8</ele>
        <time>2022-07-24T19:06:49Z</time>
      </trkpt>
      <trkpt lat="47.1606" lon="5.89156">
        <ele>271</ele>
        <time>2022-07-24T19:06:50Z</time>
      </trkpt>
      <trkpt lat="47.16061" lon="5.89158">
        <ele>271.4</ele>
        <time>2022-07-24T19:06:52Z</time>
      </trkpt>
      <trkpt lat="47.16063" lon="5.8916">
        <ele>271.8</ele>
        <time>2022-07-24T19:06:53Z</time>
      </trkpt>
      <trkpt lat="47.16063" lon="5.89161">
        <ele>272</ele>
        <time>2022-07-24T19:06:54Z</time>
      </trkpt>
      <trkpt lat="47.16065" lon="5.89164">
        <ele>272.4</ele>
        <time>2022-07-24T19:06:56Z</time>
      </trkpt>
      <trkpt lat="47.16066" lon="5.89167">
        <ele>272.8</ele>
        <time>2022-07-24T19:06:57Z</time>
      </trkpt>
      <trkpt lat="47.16068" lon="5.89172">
        <ele>273</ele>
        <time>2022-07-24T19:06:58Z</time>
      </trkpt>
      <trkpt lat="47.16069" lon="5.89174">
        <ele>273</ele>
        <time>2022-07-24T19:06:59Z</time>
      </trkpt>
      <trkpt lat="47.1607" lon="5.89176">
        <ele>273.4</ele>
        <time>2022-07-24T19:07:00Z</time>
      </trkpt>
      <trkpt lat="47.1607" lon="5.89178">
        <ele>273.6</ele>
        <time>2022-07-24T19:07:01Z</time>
      </trkpt>
      <trkpt lat="47.16072" lon="5.8918">
        <ele>273.6</ele>
        <time>2022-07-24T19:07:02Z</time>
      </trkpt>
      <trkpt lat="47.16073" lon="5.89182">
        <ele>273.8</ele>
        <time>2022-07-24T19:07:03Z</time>
      </trkpt>
      <trkpt lat="47.16074" lon="5.89183">
        <ele>274</ele>
        <time>2022-07-24T19:07:04Z</time>
      </trkpt>
      <trkpt lat="47.16074" lon="5.89185">
        <ele>274.2</ele>
        <time>2022-07-24T19:07:05Z</time>
      </trkpt>
      <trkpt lat="47.16075" lon="5.89186">
        <ele>274.4</ele>
        <time>2022-07-24T19:07:06Z</time>
      </trkpt>
      <trkpt lat="47.16076" lon="5.89187">
        <ele>274.6</ele>
        <time>2022-07-24T19:07:07Z</time>
      </trkpt>
      <trkpt lat="47.16077" lon="5.89188">
        <ele>274.8</ele>
        <time>2022-07-24T19:07:08Z</time>
      </trkpt>
      <trkpt lat="47.16079" lon="5.89189">
        <ele>275.2</ele>
        <time>2022-07-24T19:07:09Z</time>
      </trkpt>
      <trkpt lat="47.1608" lon="5.89191">
        <ele>275.2</ele>
        <time>2022-07-24T19:07:10Z</time>
      </trkpt>
      <trkpt lat="47.16082" lon="5.89194">
        <ele>275.4</ele>
        <time>2022-07-24T19:07:11Z</time>
      </trkpt>
      <trkpt lat="47.16083" lon="5.89196">
        <ele>275.6</ele>
        <time>2022-07-24T19:07:12Z</time>
      </trkpt>
      <trkpt lat="47.16084" lon="5.89198">
        <ele>275.6</ele>
        <time>2022-07-24T19:07:13Z</time>
      </trkpt>
      <trkpt lat="47.16084" lon="5.89199">
        <ele>276</ele>
        <time>2022-07-24T19:07:14Z</time>
      </trkpt>
      <trkpt lat="47.16084" lon="5.892">
        <ele>276</ele>
        <time>2022-07-24T19:07:15Z</time>
      </trkpt>
      <trkpt lat="47.16085" lon="5.89202">
        <ele>276.2</ele>
        <time>2022-07-24T19:07:16Z</time>
      </trkpt>
      <trkpt lat="47.16086" lon="5.89205">
        <ele>276.4</ele>
        <time>2022-07-24T19:07:17Z</time>
      </trkpt>
      <trkpt lat="47.16087" lon="5.89207">
        <ele>276.4</ele>
        <time>2022-07-24T19:07:18Z</time>
      </trkpt>
      <trkpt lat="47.16087" lon="5.8921">
        <ele>276.8</ele>
        <time>2022-07-24T19:07:19Z</time>
      </trkpt>
      <trkpt lat="47.16088" lon="5.89212">
        <ele>277</ele>
        <time>2022-07-24T19:07:20Z</time>
      </trkpt>
      <trkpt lat="47.16089" lon="5.89214">
        <ele>277.2</ele>
        <time>2022-07-24T19:07:21Z</time>
      </trkpt>
      <trkpt lat="47.16089" lon="5.89215">
        <ele>277.4</ele>
        <time>2022-07-24T19:07:22Z</time>
      </trkpt>
      <trkpt lat="47.1609" lon="5.89217">
        <ele>277.4</ele>
        <time>2022-07-24T19:07:23Z</time>
      </trkpt>
      <trkpt lat="47.16091" lon="5.89218">
        <ele>277.6</ele>
        <time>2022-07-24T19:07:24Z</time>
      </trkpt>
      <trkpt lat="47.16091" lon="5.8922">
        <ele>277.8</ele>
        <time>2022-07-24T19:07:25Z</time>
      </trkpt>
      <trkpt lat="47.16092" lon="5.89223">
        <ele>278</ele>
        <time>2022-07-24T19:07:26Z</time>
      </trkpt>
      <trkpt lat="47.16093" lon="5.89226">
        <ele>278.2</ele>
        <time>2022-07-24T19:07:27Z</time>
      </trkpt>
      <trkpt lat="47.16095" lon="5.89229">
        <ele>278.4</ele>
        <time>2022-07-24T19:07:28Z</time>
      </trkpt>
      <trkpt lat="47.16095" lon="5.89232">
        <ele>278.6</ele>
        <time>2022-07-24T19:07:29Z</time>
      </trkpt>
      <trkpt lat="47.16096" lon="5.89234">
        <ele>278.8</ele>
        <time>2022-07-24T19:07:30Z</time>
      </trkpt>
      <trkpt lat="47.16097" lon="5.89237">
        <ele>278.8</ele>
        <time>2022-07-24T19:07:31Z</time>
      </trkpt>
      <trkpt lat="47.16098" lon="5.89238">
        <ele>279.2</ele>
        <time>2022-07-24T19:07:32Z</time>
      </trkpt>
      <trkpt lat="47.16099" lon="5.8924">
        <ele>279.4</ele>
        <time>2022-07-24T19:07:33Z</time>
      </trkpt>
      <trkpt lat="47.16099" lon="5.89241">
        <ele>279.4</ele>
        <time>2022-07-24T19:07:34Z</time>
      </trkpt>
      <trkpt lat="47.161" lon="5.89244">
        <ele>279.6</ele>
        <time>2022-07-24T19:07:35Z</time>
      </trkpt>
      <trkpt lat="47.16101" lon="5.89247">
        <ele>279.6</ele>
        <time>2022-07-24T19:07:36Z</time>
      </trkpt>
      <trkpt lat="47.16102" lon="5.89247">
        <ele>279.8</ele>
        <time>2022-07-24T19:07:37Z</time>
      </trkpt>
      <trkpt lat="47.16102" lon="5.89248">
        <ele>280</ele>
        <time>2022-07-24T19:07:38Z</time>
      </trkpt>
      <trkpt lat="47.16105" lon="5.89249">
        <ele>280</ele>
        <time>2022-07-24T19:07:39Z</time>
      </trkpt>
      <trkpt lat="47.16106" lon="5.89252">
        <ele>280.2</ele>
        <time>2022-07-24T19:07:40Z</time>
      </trkpt>
      <trkpt lat="47.16108" lon="5.89254">
        <ele>280.4</ele>
        <time>2022-07-24T19:07:41Z</time>
      </trkpt>
      <trkpt lat="47.16109" lon="5.89256">
        <ele>280.6</ele>
        <time>2022-07-24T19:07:42Z</time>
      </trkpt>
      <trkpt lat="47.16109" lon="5.89258">
        <ele>280.8</ele>
        <time>2022-07-24T19:07:43Z</time>
      </trkpt>
      <trkpt lat="47.1611" lon="5.8926">
        <ele>281</ele>
        <time>2022-07-24T19:07:44Z</time>
      </trkpt>
      <trkpt lat="47.1611" lon="5.89262">
        <ele>281.2</ele>
        <time>2022-07-24T19:07:45Z</time>
      </trkpt>
      <trkpt lat="47.1611" lon="5.89263">
        <ele>281.4</ele>
        <time>2022-07-24T19:07:46Z</time>
      </trkpt>
      <trkpt lat="47.16111" lon="5.89267">
        <ele>281.6</ele>
        <time>2022-07-24T19:07:47Z</time>
      </trkpt>
      <trkpt lat="47.16112" lon="5.89268">
        <ele>281.6</ele>
        <time>2022-07-24T19:07:48Z</time>
      </trkpt>
      <trkpt lat="47.16113" lon="5.89269">
        <ele>282</ele>
        <time>2022-07-24T19:07:50Z</time>
      </trkpt>
      <trkpt lat="47.16113" lon="5.8927">
        <ele>282.4</ele>
        <time>2022-07-24T19:07:52Z</time>
      </trkpt>
      <trkpt lat="47.16114" lon="5.89271">
        <ele>282.6</ele>
        <time>2022-07-24T19:07:54Z</time>
      </trkpt>
      <trkpt lat="47.16114" lon="5.89273">
        <ele>282.6</ele>
        <time>2022-07-24T19:07:55Z</time>
      </trkpt>
      <trkpt lat="47.16115" lon="5.89275">
        <ele>282.8</ele>
        <time>2022-07-24T19:07:56Z</time>
      </trkpt>
      <trkpt lat="47.16116" lon="5.89276">
        <ele>282.8</ele>
        <time>2022-07-24T19:07:57Z</time>
      </trkpt>
      <trkpt lat="47.16117" lon="5.89278">
        <ele>283</ele>
        <time>2022-07-24T19:07:58Z</time>
      </trkpt>
      <trkpt lat="47.16118" lon="5.8928">
        <ele>283.4</ele>
        <time>2022-07-24T19:07:59Z</time>
      </trkpt>
      <trkpt lat="47.16118" lon="5.89282">
        <ele>283.6</ele>
        <time>2022-07-24T19:08:00Z</time>
      </trkpt>
      <trkpt lat="47.16119" lon="5.89283">
        <ele>283.8</ele>
        <time>2022-07-24T19:08:01Z</time>
      </trkpt>
      <trkpt lat="47.16119" lon="5.89284">
        <ele>284</ele>
        <time>2022-07-24T19:08:02Z</time>
      </trkpt>
      <trkpt lat="47.1612" lon="5.89286">
        <ele>284</ele>
        <time>2022-07-24T19:08:03Z</time>
      </trkpt>
      <trkpt lat="47.16121" lon="5.89288">
        <ele>284.2</ele>
        <time>2022-07-24T19:08:04Z</time>
      </trkpt>
      <trkpt lat="47.16122" lon="5.8929">
        <ele>284.2</ele>
        <time>2022-07-24T19:08:05Z</time>
      </trkpt>
      <trkpt lat="47.16123" lon="5.89292">
        <ele>284.4</ele>
        <time>2022-07-24T19:08:06Z</time>
      </trkpt>
      <trkpt lat="47.16123" lon="5.89295">
        <ele>284.4</ele>
        <time>2022-07-24T19:08:07Z</time>
      </trkpt>
      <trkpt lat="47.16124" lon="5.89297">
        <ele>284.6</ele>
        <time>2022-07-24T19:08:08Z</time>
      </trkpt>
      <trkpt lat="47.16125" lon="5.89299">
        <ele>284.8</ele>
        <time>2022-07-24T19:08:09Z</time>
      </trkpt>
      <trkpt lat="47.16126" lon="5.89301">
        <ele>285</ele>
        <time>2022-07-24T19:08:10Z</time>
      </trkpt>
      <trkpt lat="47.16128" lon="5.89304">
        <ele>285.2</ele>
        <time>2022-07-24T19:08:11Z</time>
      </trkpt>
      <trkpt lat="47.16129" lon="5.89306">
        <ele>285.6</ele>
        <time>2022-07-24T19:08:12Z</time>
      </trkpt>
      <trkpt lat="47.1613" lon="5.89309">
        <ele>285.6</ele>
        <time>2022-07-24T19:08:13Z</time>
      </trkpt>
      <trkpt lat="47.16131" lon="5.89313">
        <ele>285.8</ele>
        <time>2022-07-24T19:08:14Z</time>
      </trkpt>
      <trkpt lat="47.16132" lon="5.89315">
        <ele>286</ele>
        <time>2022-07-24T19:08:15Z</time>
      </trkpt>
      <trkpt lat="47.16133" lon="5.89317">
        <ele>286</ele>
        <time>2022-07-24T19:08:16Z</time>
      </trkpt>
      <trkpt lat="47.16133" lon="5.89319">
        <ele>286.2</ele>
        <time>2022-07-24T19:08:17Z</time>
      </trkpt>
      <trkpt lat="47.16135" lon="5.89323">
        <ele>286.4</ele>
        <time>2022-07-24T19:08:18Z</time>
      </trkpt>
      <trkpt lat="47.16136" lon="5.89325">
        <ele>286.8</ele>
        <time>2022-07-24T19:08:19Z</time>
      </trkpt>
      <trkpt lat="47.16136" lon="5.89328">
        <ele>286.8</ele>
        <time>2022-07-24T19:08:20Z</time>
      </trkpt>
      <trkpt lat="47.16137" lon="5.89331">
        <ele>287</ele>
        <time>2022-07-24T19:08:21Z</time>
      </trkpt>
      <trkpt lat="47.16137" lon="5.89332">
        <ele>287</ele>
        <time>2022-07-24T19:08:22Z</time>
      </trkpt>
      <trkpt lat="47.16138" lon="5.89333">
        <ele>287.2</ele>
        <time>2022-07-24T19:08:23Z</time>
      </trkpt>
      <trkpt lat="47.16139" lon="5.89334">
        <ele>287.2</ele>
        <time>2022-07-24T19:08:24Z</time>
      </trkpt>
      <trkpt lat="47.16138" lon="5.89335">
        <ele>287.2</ele>
        <time>2022-07-24T19:08:25Z</time>
      </trkpt>
      <trkpt lat="47.16139" lon="5.89336">
        <ele>287.4</ele>
        <time>2022-07-24T19:08:26Z</time>
      </trkpt>
      <trkpt lat="47.1614" lon="5.89339">
        <ele>287.6</ele>
        <time>2022-07-24T19:08:27Z</time>
      </trkpt>
      <trkpt lat="47.1614" lon="5.8934">
        <ele>287.6</ele>
        <time>2022-07-24T19:08:28Z</time>
      </trkpt>
      <trkpt lat="47.1614" lon="5.89341">
        <ele>287.6</ele>
        <time>2022-07-24T19:08:29Z</time>
      </trkpt>
      <trkpt lat="47.16141" lon="5.89344">
        <ele>287.6</ele>
        <time>2022-07-24T19:08:30Z</time>
      </trkpt>
      <trkpt lat="47.16142" lon="5.89346">
        <ele>287.8</ele>
        <time>2022-07-24T19:08:31Z</time>
      </trkpt>
      <trkpt lat="47.16144" lon="5.8935">
        <ele>287.8</ele>
        <time>2022-07-24T19:08:32Z</time>
      </trkpt>
      <trkpt lat="47.16145" lon="5.89353">
        <ele>287.8</ele>
        <time>2022-07-24T19:08:33Z</time>
      </trkpt>
      <trkpt lat="47.16145" lon="5.89355">
        <ele>287.8</ele>
        <time>2022-07-24T19:08:34Z</time>
      </trkpt>
      <trkpt lat="47.16145" lon="5.89356">
        <ele>287.8</ele>
        <time>2022-07-24T19:08:35Z</time>
      </trkpt>
      <trkpt lat="47.16145" lon="5.89359">
        <ele>287.8</ele>
        <time>2022-07-24T19:08:36Z</time>
      </trkpt>
      <trkpt lat="47.16146" lon="5.89364">
        <ele>287.8</ele>
        <time>2022-07-24T19:08:37Z</time>
      </trkpt>
      <trkpt lat="47.16147" lon="5.89366">
        <ele>287.8</ele>
        <time>2022-07-24T19:08:38Z</time>
      </trkpt>
      <trkpt lat="47.16148" lon="5.89369">
        <ele>287.8</ele>
        <time>2022-07-24T19:08:39Z</time>
      </trkpt>
      <trkpt lat="47.1615" lon="5.89371">
        <ele>287.8</ele>
        <time>2022-07-24T19:08:40Z</time>
      </trkpt>
      <trkpt lat="47.16151" lon="5.89373">
        <ele>288</ele>
        <time>2022-07-24T19:08:41Z</time>
      </trkpt>
      <trkpt lat="47.16151" lon="5.89376">
        <ele>288</ele>
        <time>2022-07-24T19:08:42Z</time>
      </trkpt>
      <trkpt lat="47.16151" lon="5.89377">
        <ele>288</ele>
        <time>2022-07-24T19:08:43Z</time>
      </trkpt>
      <trkpt lat="47.16153" lon="5.89378">
        <ele>288</ele>
        <time>2022-07-24T19:08:44Z</time>
      </trkpt>
      <trkpt lat="47.16154" lon="5.8938">
        <ele>288.2</ele>
        <time>2022-07-24T19:08:45Z</time>
      </trkpt>
      <trkpt lat="47.16156" lon="5.89382">
        <ele>288.2</ele>
        <time>2022-07-24T19:08:46Z</time>
      </trkpt>
      <trkpt lat="47.16156" lon="5.89384">
        <ele>288.4</ele>
        <time>2022-07-24T19:08:47Z</time>
      </trkpt>
      <trkpt lat="47.16157" lon="5.89386">
        <ele>288.4</ele>
        <time>2022-07-24T19:08:48Z</time>
      </trkpt>
      <trkpt lat="47.16158" lon="5.89389">
        <ele>288.4</ele>
        <time>2022-07-24T19:08:49Z</time>
      </trkpt>
      <trkpt lat="47.16158" lon="5.89391">
        <ele>288.4</ele>
        <time>2022-07-24T19:08:50Z</time>
      </trkpt>
      <trkpt lat="47.16158" lon="5.89396">
        <ele>288.4</ele>
        <time>2022-07-24T19:08:52Z</time>
      </trkpt>
      <trkpt lat="47.16157" lon="5.89398">
        <ele>288.6</ele>
        <time>2022-07-24T19:08:53Z</time>
      </trkpt>
      <trkpt lat="47.16156" lon="5.89402">
        <ele>288.8</ele>
        <time>2022-07-24T19:08:55Z</time>
      </trkpt>
      <trkpt lat="47.16156" lon="5.89403">
        <ele>289</ele>
        <time>2022-07-24T19:08:56Z</time>
      </trkpt>
      <trkpt lat="47.16157" lon="5.89405">
        <ele>289.2</ele>
        <time>2022-07-24T19:08:57Z</time>
      </trkpt>
      <trkpt lat="47.16157" lon="5.89406">
        <ele>289.4</ele>
        <time>2022-07-24T19:08:58Z</time>
      </trkpt>
      <trkpt lat="47.16157" lon="5.89407">
        <ele>289.6</ele>
        <time>2022-07-24T19:08:59Z</time>
      </trkpt>
      <trkpt lat="47.16157" lon="5.89409">
        <ele>289.8</ele>
        <time>2022-07-24T19:09:00Z</time>
      </trkpt>
      <trkpt lat="47.16158" lon="5.89411">
        <ele>290</ele>
        <time>2022-07-24T19:09:01Z</time>
      </trkpt>
      <trkpt lat="47.16158" lon="5.89414">
        <ele>291.2</ele>
        <time>2022-07-24T19:09:58Z</time>
      </trkpt>
      <trkpt lat="47.16159" lon="5.89419">
        <ele>291.4</ele>
        <time>2022-07-24T19:10:00Z</time>
      </trkpt>
      <trkpt lat="47.1616" lon="5.89422">
        <ele>291.4</ele>
        <time>2022-07-24T19:10:01Z</time>
      </trkpt>
      <trkpt lat="47.1616" lon="5.89425">
        <ele>291.4</ele>
        <time>2022-07-24T19:10:02Z</time>
      </trkpt>
      <trkpt lat="47.1616" lon="5.89436">
        <ele>291.6</ele>
        <time>2022-07-24T19:10:06Z</time>
      </trkpt>
      <trkpt lat="47.16161" lon="5.89441">
        <ele>292</ele>
        <time>2022-07-24T19:10:09Z</time>
      </trkpt>
      <trkpt lat="47.16161" lon="5.89446">
        <ele>292</ele>
        <time>2022-07-24T19:10:11Z</time>
      </trkpt>
      <trkpt lat="47.1616" lon="5.89449">
        <ele>292.2</ele>
        <time>2022-07-24T19:10:12Z</time>
      </trkpt>
      <trkpt lat="47.1616" lon="5.89453">
        <ele>292.2</ele>
        <time>2022-07-24T19:10:13Z</time>
      </trkpt>
      <trkpt lat="47.16159" lon="5.89456">
        <ele>292.2</ele>
        <time>2022-07-24T19:10:14Z</time>
      </trkpt>
      <trkpt lat="47.16159" lon="5.8946">
        <ele>292.6</ele>
        <time>2022-07-24T19:10:15Z</time>
      </trkpt>
      <trkpt lat="47.16159" lon="5.89463">
        <ele>292.6</ele>
        <time>2022-07-24T19:10:16Z</time>
      </trkpt>
      <trkpt lat="47.16159" lon="5.89467">
        <ele>292.8</ele>
        <time>2022-07-24T19:10:17Z</time>
      </trkpt>
      <trkpt lat="47.16161" lon="5.8948">
        <ele>292.8</ele>
        <time>2022-07-24T19:10:20Z</time>
      </trkpt>
      <trkpt lat="47.16161" lon="5.89484">
        <ele>292.8</ele>
        <time>2022-07-24T19:10:21Z</time>
      </trkpt>
      <trkpt lat="47.16161" lon="5.89489">
        <ele>293</ele>
        <time>2022-07-24T19:10:22Z</time>
      </trkpt>
      <trkpt lat="47.16162" lon="5.895">
        <ele>293.2</ele>
        <time>2022-07-24T19:10:25Z</time>
      </trkpt>
      <trkpt lat="47.16163" lon="5.89504">
        <ele>293.2</ele>
        <time>2022-07-24T19:10:26Z</time>
      </trkpt>
      <trkpt lat="47.16164" lon="5.89508">
        <ele>293.2</ele>
        <time>2022-07-24T19:10:27Z</time>
      </trkpt>
      <trkpt lat="47.16166" lon="5.8951">
        <ele>293.4</ele>
        <time>2022-07-24T19:10:28Z</time>
      </trkpt>
      <trkpt lat="47.16167" lon="5.8951">
        <ele>293.6</ele>
        <time>2022-07-24T19:10:29Z</time>
      </trkpt>
      <trkpt lat="47.16166" lon="5.89513">
        <ele>293.6</ele>
        <time>2022-07-24T19:10:30Z</time>
      </trkpt>
      <trkpt lat="47.16166" lon="5.89514">
        <ele>293.8</ele>
        <time>2022-07-24T19:10:31Z</time>
      </trkpt>
      <trkpt lat="47.16167" lon="5.89522">
        <ele>294</ele>
        <time>2022-07-24T19:10:33Z</time>
      </trkpt>
      <trkpt lat="47.16167" lon="5.89525">
        <ele>294</ele>
        <time>2022-07-24T19:10:34Z</time>
      </trkpt>
      <trkpt lat="47.16169" lon="5.89529">
        <ele>294.2</ele>
        <time>2022-07-24T19:10:35Z</time>
      </trkpt>
      <trkpt lat="47.16169" lon="5.89532">
        <ele>294.4</ele>
        <time>2022-07-24T19:10:36Z</time>
      </trkpt>
      <trkpt lat="47.16168" lon="5.89539">
        <ele>295</ele>
        <time>2022-07-24T19:10:38Z</time>
      </trkpt>
      <trkpt lat="47.16168" lon="5.89547">
        <ele>295.6</ele>
        <time>2022-07-24T19:10:41Z</time>
      </trkpt>
      <trkpt lat="47.16167" lon="5.89548">
        <ele>295.8</ele>
        <time>2022-07-24T19:10:42Z</time>
      </trkpt>
      <trkpt lat="47.16166" lon="5.8955">
        <ele>296</ele>
        <time>2022-07-24T19:10:43Z</time>
      </trkpt>
      <trkpt lat="47.16166" lon="5.89553">
        <ele>296</ele>
        <time>2022-07-24T19:10:44Z</time>
      </trkpt>
      <trkpt lat="47.16166" lon="5.89554">
        <ele>296.2</ele>
        <time>2022-07-24T19:10:45Z</time>
      </trkpt>
      <trkpt lat="47.16166" lon="5.89557">
        <ele>296.2</ele>
        <time>2022-07-24T19:10:46Z</time>
      </trkpt>
      <trkpt lat="47.16166" lon="5.89559">
        <ele>296.4</ele>
        <time>2022-07-24T19:10:47Z</time>
      </trkpt>
      <trkpt lat="47.16166" lon="5.89562">
        <ele>296.4</ele>
        <time>2022-07-24T19:10:48Z</time>
      </trkpt>
      <trkpt lat="47.16165" lon="5.89564">
        <ele>296.6</ele>
        <time>2022-07-24T19:10:49Z</time>
      </trkpt>
      <trkpt lat="47.16165" lon="5.89566">
        <ele>297</ele>
        <time>2022-07-24T19:10:50Z</time>
      </trkpt>
      <trkpt lat="47.16165" lon="5.89568">
        <ele>297</ele>
        <time>2022-07-24T19:10:51Z</time>
      </trkpt>
      <trkpt lat="47.16165" lon="5.89569">
        <ele>297.4</ele>
        <time>2022-07-24T19:10:52Z</time>
      </trkpt>
      <trkpt lat="47.16165" lon="5.89571">
        <ele>297.4</ele>
        <time>2022-07-24T19:10:53Z</time>
      </trkpt>
      <trkpt lat="47.16165" lon="5.89573">
        <ele>297.8</ele>
        <time>2022-07-24T19:10:54Z</time>
      </trkpt>
      <trkpt lat="47.16165" lon="5.89576">
        <ele>297.8</ele>
        <time>2022-07-24T19:10:55Z</time>
      </trkpt>
      <trkpt lat="47.16165" lon="5.89579">
        <ele>298</ele>
        <time>2022-07-24T19:10:56Z</time>
      </trkpt>
      <trkpt lat="47.16165" lon="5.8958">
        <ele>298.2</ele>
        <time>2022-07-24T19:10:57Z</time>
      </trkpt>
      <trkpt lat="47.16165" lon="5.89582">
        <ele>298.2</ele>
        <time>2022-07-24T19:10:58Z</time>
      </trkpt>
      <trkpt lat="47.16165" lon="5.89584">
        <ele>298.4</ele>
        <time>2022-07-24T19:10:59Z</time>
      </trkpt>
      <trkpt lat="47.16165" lon="5.89586">
        <ele>298.6</ele>
        <time>2022-07-24T19:11:00Z</time>
      </trkpt>
      <trkpt lat="47.16166" lon="5.89591">
        <ele>298.6</ele>
        <time>2022-07-24T19:11:01Z</time>
      </trkpt>
      <trkpt lat="47.16167" lon="5.89594">
        <ele>298.8</ele>
        <time>2022-07-24T19:11:02Z</time>
      </trkpt>
      <trkpt lat="47.16168" lon="5.89597">
        <ele>299</ele>
        <time>2022-07-24T19:11:03Z</time>
      </trkpt>
      <trkpt lat="47.16168" lon="5.89601">
        <ele>299.2</ele>
        <time>2022-07-24T19:11:04Z</time>
      </trkpt>
      <trkpt lat="47.16168" lon="5.89604">
        <ele>299.2</ele>
        <time>2022-07-24T19:11:05Z</time>
      </trkpt>
      <trkpt lat="47.16168" lon="5.89607">
        <ele>299.4</ele>
        <time>2022-07-24T19:11:06Z</time>
      </trkpt>
      <trkpt lat="47.16168" lon="5.8961">
        <ele>299.6</ele>
        <time>2022-07-24T19:11:07Z</time>
      </trkpt>
      <trkpt lat="47.16169" lon="5.89614">
        <ele>299.8</ele>
        <time>2022-07-24T19:11:08Z</time>
      </trkpt>
      <trkpt lat="47.16171" lon="5.89617">
        <ele>300</ele>
        <time>2022-07-24T19:11:09Z</time>
      </trkpt>
      <trkpt lat="47.16171" lon="5.89619">
        <ele>300.2</ele>
        <time>2022-07-24T19:11:10Z</time>
      </trkpt>
      <trkpt lat="47.16172" lon="5.89624">
        <ele>300.6</ele>
        <time>2022-07-24T19:11:11Z</time>
      </trkpt>
      <trkpt lat="47.16174" lon="5.89627">
        <ele>300.6</ele>
        <time>2022-07-24T19:11:12Z</time>
      </trkpt>
      <trkpt lat="47.16174" lon="5.89628">
        <ele>300.8</ele>
        <time>2022-07-24T19:11:13Z</time>
      </trkpt>
      <trkpt lat="47.16173" lon="5.89631">
        <ele>301</ele>
        <time>2022-07-24T19:11:14Z</time>
      </trkpt>
      <trkpt lat="47.16174" lon="5.89634">
        <ele>301.2</ele>
        <time>2022-07-24T19:11:15Z</time>
      </trkpt>
      <trkpt lat="47.16175" lon="5.89637">
        <ele>301.2</ele>
        <time>2022-07-24T19:11:16Z</time>
      </trkpt>
      <trkpt lat="47.16176" lon="5.8964">
        <ele>301.4</ele>
        <time>2022-07-24T19:11:17Z</time>
      </trkpt>
      <trkpt lat="47.16177" lon="5.89646">
        <ele>301.6</ele>
        <time>2022-07-24T19:11:18Z</time>
      </trkpt>
      <trkpt lat="47.16178" lon="5.89651">
        <ele>301.6</ele>
        <time>2022-07-24T19:11:19Z</time>
      </trkpt>
      <trkpt lat="47.16179" lon="5.89655">
        <ele>302</ele>
        <time>2022-07-24T19:11:20Z</time>
      </trkpt>
      <trkpt lat="47.1618" lon="5.89659">
        <ele>302</ele>
        <time>2022-07-24T19:11:21Z</time>
      </trkpt>
      <trkpt lat="47.16181" lon="5.89661">
        <ele>302.2</ele>
        <time>2022-07-24T19:11:22Z</time>
      </trkpt>
      <trkpt lat="47.16181" lon="5.89664">
        <ele>302.6</ele>
        <time>2022-07-24T19:11:23Z</time>
      </trkpt>
      <trkpt lat="47.1618" lon="5.89665">
        <ele>302.8</ele>
        <time>2022-07-24T19:11:25Z</time>
      </trkpt>
      <trkpt lat="47.1618" lon="5.89668">
        <ele>303.6</ele>
        <time>2022-07-24T19:12:11Z</time>
      </trkpt>
      <trkpt lat="47.16178" lon="5.89675">
        <ele>303.6</ele>
        <time>2022-07-24T19:12:13Z</time>
      </trkpt>
      <trkpt lat="47.16175" lon="5.89697">
        <ele>303.6</ele>
        <time>2022-07-24T19:12:18Z</time>
      </trkpt>
      <trkpt lat="47.16174" lon="5.89701">
        <ele>303.4</ele>
        <time>2022-07-24T19:12:19Z</time>
      </trkpt>
      <trkpt lat="47.16166" lon="5.89721">
        <ele>303</ele>
        <time>2022-07-24T19:12:23Z</time>
      </trkpt>
      <trkpt lat="47.16156" lon="5.89745">
        <ele>303</ele>
        <time>2022-07-24T19:12:27Z</time>
      </trkpt>
      <trkpt lat="47.16154" lon="5.8975">
        <ele>303</ele>
        <time>2022-07-24T19:12:28Z</time>
      </trkpt>
      <trkpt lat="47.16153" lon="5.89756">
        <ele>303</ele>
        <time>2022-07-24T19:12:29Z</time>
      </trkpt>
      <trkpt lat="47.16152" lon="5.89761">
        <ele>302.8</ele>
        <time>2022-07-24T19:12:30Z</time>
      </trkpt>
      <trkpt lat="47.16151" lon="5.89767">
        <ele>302.8</ele>
        <time>2022-07-24T19:12:31Z</time>
      </trkpt>
      <trkpt lat="47.16151" lon="5.89771">
        <ele>302.8</ele>
        <time>2022-07-24T19:12:32Z</time>
      </trkpt>
      <trkpt lat="47.16152" lon="5.89776">
        <ele>303</ele>
        <time>2022-07-24T19:12:33Z</time>
      </trkpt>
      <trkpt lat="47.16152" lon="5.89781">
        <ele>303</ele>
        <time>2022-07-24T19:12:34Z</time>
      </trkpt>
      <trkpt lat="47.16152" lon="5.89787">
        <ele>303</ele>
        <time>2022-07-24T19:12:35Z</time>
      </trkpt>
      <trkpt lat="47.16152" lon="5.89791">
        <ele>303</ele>
        <time>2022-07-24T19:12:36Z</time>
      </trkpt>
      <trkpt lat="47.16151" lon="5.89795">
        <ele>303</ele>
        <time>2022-07-24T19:12:37Z</time>
      </trkpt>
      <trkpt lat="47.1615" lon="5.898">
        <ele>303</ele>
        <time>2022-07-24T19:12:38Z</time>
      </trkpt>
      <trkpt lat="47.1615" lon="5.89805">
        <ele>303.2</ele>
        <time>2022-07-24T19:12:39Z</time>
      </trkpt>
      <trkpt lat="47.16149" lon="5.89809">
        <ele>303.2</ele>
        <time>2022-07-24T19:12:40Z</time>
      </trkpt>
      <trkpt lat="47.16149" lon="5.89818">
        <ele>303.2</ele>
        <time>2022-07-24T19:12:42Z</time>
      </trkpt>
      <trkpt lat="47.16148" lon="5.89822">
        <ele>303.2</ele>
        <time>2022-07-24T19:12:43Z</time>
      </trkpt>
      <trkpt lat="47.16147" lon="5.89826">
        <ele>303.4</ele>
        <time>2022-07-24T19:12:44Z</time>
      </trkpt>
      <trkpt lat="47.16145" lon="5.89835">
        <ele>303.4</ele>
        <time>2022-07-24T19:12:46Z</time>
      </trkpt>
      <trkpt lat="47.16143" lon="5.8984">
        <ele>303.6</ele>
        <time>2022-07-24T19:12:47Z</time>
      </trkpt>
      <trkpt lat="47.16141" lon="5.89846">
        <ele>303.6</ele>
        <time>2022-07-24T19:12:48Z</time>
      </trkpt>
      <trkpt lat="47.16135" lon="5.89862">
        <ele>303.2</ele>
        <time>2022-07-24T19:12:51Z</time>
      </trkpt>
      <trkpt lat="47.16133" lon="5.89868">
        <ele>303</ele>
        <time>2022-07-24T19:12:52Z</time>
      </trkpt>
      <trkpt lat="47.16127" lon="5.89879">
        <ele>302.8</ele>
        <time>2022-07-24T19:12:54Z</time>
      </trkpt>
      <trkpt lat="47.16125" lon="5.89883">
        <ele>302.8</ele>
        <time>2022-07-24T19:12:55Z</time>
      </trkpt>
      <trkpt lat="47.16123" lon="5.89886">
        <ele>302.8</ele>
        <time>2022-07-24T19:12:56Z</time>
      </trkpt>
      <trkpt lat="47.16119" lon="5.89888">
        <ele>302.6</ele>
        <time>2022-07-24T19:12:57Z</time>
      </trkpt>
      <trkpt lat="47.16113" lon="5.89891">
        <ele>302.2</ele>
        <time>2022-07-24T19:12:58Z</time>
      </trkpt>
      <trkpt lat="47.16107" lon="5.89893">
        <ele>302</ele>
        <time>2022-07-24T19:12:59Z</time>
      </trkpt>
      <trkpt lat="47.16101" lon="5.89897">
        <ele>301.8</ele>
        <time>2022-07-24T19:13:00Z</time>
      </trkpt>
      <trkpt lat="47.16085" lon="5.89909">
        <ele>301.2</ele>
        <time>2022-07-24T19:13:03Z</time>
      </trkpt>
      <trkpt lat="47.16082" lon="5.89912">
        <ele>301.2</ele>
        <time>2022-07-24T19:13:04Z</time>
      </trkpt>
      <trkpt lat="47.1608" lon="5.89915">
        <ele>301</ele>
        <time>2022-07-24T19:13:05Z</time>
      </trkpt>
      <trkpt lat="47.16076" lon="5.89919">
        <ele>300.8</ele>
        <time>2022-07-24T19:13:06Z</time>
      </trkpt>
      <trkpt lat="47.16072" lon="5.89925">
        <ele>300.6</ele>
        <time>2022-07-24T19:13:07Z</time>
      </trkpt>
      <trkpt lat="47.16066" lon="5.89928">
        <ele>300.4</ele>
        <time>2022-07-24T19:13:08Z</time>
      </trkpt>
      <trkpt lat="47.16059" lon="5.89932">
        <ele>300.2</ele>
        <time>2022-07-24T19:13:09Z</time>
      </trkpt>
      <trkpt lat="47.16052" lon="5.89935">
        <ele>300</ele>
        <time>2022-07-24T19:13:10Z</time>
      </trkpt>
      <trkpt lat="47.16037" lon="5.89939">
        <ele>299.6</ele>
        <time>2022-07-24T19:13:12Z</time>
      </trkpt>
      <trkpt lat="47.1603" lon="5.89942">
        <ele>299.2</ele>
        <time>2022-07-24T19:13:13Z</time>
      </trkpt>
      <trkpt lat="47.16024" lon="5.89945">
        <ele>299</ele>
        <time>2022-07-24T19:13:14Z</time>
      </trkpt>
      <trkpt lat="47.16018" lon="5.89949">
        <ele>298.6</ele>
        <time>2022-07-24T19:13:15Z</time>
      </trkpt>
      <trkpt lat="47.16005" lon="5.89956">
        <ele>298</ele>
        <time>2022-07-24T19:13:17Z</time>
      </trkpt>
      <trkpt lat="47.15998" lon="5.89962">
        <ele>297.2</ele>
        <time>2022-07-24T19:13:18Z</time>
      </trkpt>
      <trkpt lat="47.15992" lon="5.8997">
        <ele>296.8</ele>
        <time>2022-07-24T19:13:19Z</time>
      </trkpt>
      <trkpt lat="47.15987" lon="5.89979">
        <ele>296.2</ele>
        <time>2022-07-24T19:13:20Z</time>
      </trkpt>
      <trkpt lat="47.15973" lon="5.90006">
        <ele>295</ele>
        <time>2022-07-24T19:13:23Z</time>
      </trkpt>
      <trkpt lat="47.15969" lon="5.90016">
        <ele>294.4</ele>
        <time>2022-07-24T19:13:24Z</time>
      </trkpt>
      <trkpt lat="47.15965" lon="5.90026">
        <ele>293.2</ele>
        <time>2022-07-24T19:13:25Z</time>
      </trkpt>
      <trkpt lat="47.15962" lon="5.90036">
        <ele>292.8</ele>
        <time>2022-07-24T19:13:26Z</time>
      </trkpt>
      <trkpt lat="47.15959" lon="5.90045">
        <ele>292</ele>
        <time>2022-07-24T19:13:27Z</time>
      </trkpt>
      <trkpt lat="47.15956" lon="5.90054">
        <ele>291.8</ele>
        <time>2022-07-24T19:13:28Z</time>
      </trkpt>
      <trkpt lat="47.15954" lon="5.90061">
        <ele>291.6</ele>
        <time>2022-07-24T19:13:29Z</time>
      </trkpt>
      <trkpt lat="47.15952" lon="5.90068">
        <ele>291.4</ele>
        <time>2022-07-24T19:13:30Z</time>
      </trkpt>
      <trkpt lat="47.1595" lon="5.90073">
        <ele>291.4</ele>
        <time>2022-07-24T19:13:31Z</time>
      </trkpt>
      <trkpt lat="47.15948" lon="5.90078">
        <ele>291.2</ele>
        <time>2022-07-24T19:13:32Z</time>
      </trkpt>
      <trkpt lat="47.15947" lon="5.90082">
        <ele>291.2</ele>
        <time>2022-07-24T19:13:33Z</time>
      </trkpt>
      <trkpt lat="47.15947" lon="5.90087">
        <ele>291.2</ele>
        <time>2022-07-24T19:13:34Z</time>
      </trkpt>
      <trkpt lat="47.15948" lon="5.9009">
        <ele>291.2</ele>
        <time>2022-07-24T19:13:35Z</time>
      </trkpt>
      <trkpt lat="47.15949" lon="5.90094">
        <ele>291.2</ele>
        <time>2022-07-24T19:13:36Z</time>
      </trkpt>
      <trkpt lat="47.15949" lon="5.90097">
        <ele>291.2</ele>
        <time>2022-07-24T19:13:37Z</time>
      </trkpt>
      <trkpt lat="47.15951" lon="5.901">
        <ele>291.2</ele>
        <time>2022-07-24T19:13:38Z</time>
      </trkpt>
      <trkpt lat="47.15952" lon="5.90102">
        <ele>291.2</ele>
        <time>2022-07-24T19:13:39Z</time>
      </trkpt>
      <trkpt lat="47.15955" lon="5.90104">
        <ele>291.2</ele>
        <time>2022-07-24T19:13:40Z</time>
      </trkpt>
      <trkpt lat="47.15957" lon="5.90106">
        <ele>291.2</ele>
        <time>2022-07-24T19:13:41Z</time>
      </trkpt>
      <trkpt lat="47.15959" lon="5.90107">
        <ele>291.2</ele>
        <time>2022-07-24T19:13:42Z</time>
      </trkpt>
      <trkpt lat="47.15962" lon="5.90109">
        <ele>291.4</ele>
        <time>2022-07-24T19:13:43Z</time>
      </trkpt>
      <trkpt lat="47.15975" lon="5.90116">
        <ele>291.8</ele>
        <time>2022-07-24T19:13:48Z</time>
      </trkpt>
      <trkpt lat="47.15995" lon="5.90133">
        <ele>293</ele>
        <time>2022-07-24T19:13:56Z</time>
      </trkpt>
      <trkpt lat="47.15998" lon="5.90134">
        <ele>293.2</ele>
        <time>2022-07-24T19:13:57Z</time>
      </trkpt>
      <trkpt lat="47.16015" lon="5.90144">
        <ele>294</ele>
        <time>2022-07-24T19:14:03Z</time>
      </trkpt>
      <trkpt lat="47.1602" lon="5.90147">
        <ele>294.4</ele>
        <time>2022-07-24T19:14:05Z</time>
      </trkpt>
      <trkpt lat="47.16034" lon="5.90155">
        <ele>294.8</ele>
        <time>2022-07-24T19:14:10Z</time>
      </trkpt>
      <trkpt lat="47.16037" lon="5.90157">
        <ele>294.8</ele>
        <time>2022-07-24T19:14:11Z</time>
      </trkpt>
      <trkpt lat="47.16039" lon="5.90158">
        <ele>295</ele>
        <time>2022-07-24T19:14:12Z</time>
      </trkpt>
      <trkpt lat="47.16042" lon="5.9016">
        <ele>295</ele>
        <time>2022-07-24T19:14:13Z</time>
      </trkpt>
      <trkpt lat="47.16045" lon="5.90161">
        <ele>295</ele>
        <time>2022-07-24T19:14:14Z</time>
      </trkpt>
      <trkpt lat="47.16047" lon="5.90161">
        <ele>295.2</ele>
        <time>2022-07-24T19:14:15Z</time>
      </trkpt>
      <trkpt lat="47.16049" lon="5.90163">
        <ele>295.2</ele>
        <time>2022-07-24T19:14:16Z</time>
      </trkpt>
      <trkpt lat="47.16052" lon="5.90165">
        <ele>295.4</ele>
        <time>2022-07-24T19:14:17Z</time>
      </trkpt>
      <trkpt lat="47.16054" lon="5.90167">
        <ele>295.4</ele>
        <time>2022-07-24T19:14:18Z</time>
      </trkpt>
      <trkpt lat="47.16057" lon="5.90169">
        <ele>295.6</ele>
        <time>2022-07-24T19:14:19Z</time>
      </trkpt>
      <trkpt lat="47.1606" lon="5.9017">
        <ele>295.6</ele>
        <time>2022-07-24T19:14:20Z</time>
      </trkpt>
      <trkpt lat="47.16063" lon="5.90172">
        <ele>295.6</ele>
        <time>2022-07-24T19:14:21Z</time>
      </trkpt>
      <trkpt lat="47.16066" lon="5.90174">
        <ele>295.6</ele>
        <time>2022-07-24T19:14:22Z</time>
      </trkpt>
      <trkpt lat="47.16069" lon="5.90176">
        <ele>295.8</ele>
        <time>2022-07-24T19:14:23Z</time>
      </trkpt>
      <trkpt lat="47.16072" lon="5.90177">
        <ele>295.8</ele>
        <time>2022-07-24T19:14:24Z</time>
      </trkpt>
      <trkpt lat="47.16096" lon="5.90192">
        <ele>296.2</ele>
        <time>2022-07-24T19:14:32Z</time>
      </trkpt>
      <trkpt lat="47.16099" lon="5.90194">
        <ele>296.2</ele>
        <time>2022-07-24T19:14:33Z</time>
      </trkpt>
      <trkpt lat="47.16102" lon="5.90195">
        <ele>296.2</ele>
        <time>2022-07-24T19:14:34Z</time>
      </trkpt>
      <trkpt lat="47.16108" lon="5.90199">
        <ele>296.4</ele>
        <time>2022-07-24T19:14:36Z</time>
      </trkpt>
      <trkpt lat="47.16121" lon="5.90204">
        <ele>296.6</ele>
        <time>2022-07-24T19:14:40Z</time>
      </trkpt>
      <trkpt lat="47.16155" lon="5.90212">
        <ele>297.2</ele>
        <time>2022-07-24T19:14:50Z</time>
      </trkpt>
      <trkpt lat="47.16166" lon="5.90213">
        <ele>297.4</ele>
        <time>2022-07-24T19:14:53Z</time>
      </trkpt>
      <trkpt lat="47.16187" lon="5.90211">
        <ele>297.8</ele>
        <time>2022-07-24T19:14:59Z</time>
      </trkpt>
      <trkpt lat="47.16196" lon="5.90207">
        <ele>298</ele>
        <time>2022-07-24T19:15:02Z</time>
      </trkpt>
      <trkpt lat="47.16199" lon="5.90206">
        <ele>298</ele>
        <time>2022-07-24T19:15:03Z</time>
      </trkpt>
      <trkpt lat="47.16202" lon="5.90205">
        <ele>298</ele>
        <time>2022-07-24T19:15:04Z</time>
      </trkpt>
      <trkpt lat="47.16208" lon="5.90203">
        <ele>298</ele>
        <time>2022-07-24T19:15:06Z</time>
      </trkpt>
      <trkpt lat="47.16239" lon="5.90202">
        <ele>298.4</ele>
        <time>2022-07-24T19:15:15Z</time>
      </trkpt>
      <trkpt lat="47.16242" lon="5.90203">
        <ele>298.4</ele>
        <time>2022-07-24T19:15:16Z</time>
      </trkpt>
      <trkpt lat="47.16261" lon="5.9021">
        <ele>298.6</ele>
        <time>2022-07-24T19:15:22Z</time>
      </trkpt>
      <trkpt lat="47.16264" lon="5.90212">
        <ele>298.6</ele>
        <time>2022-07-24T19:15:23Z</time>
      </trkpt>
      <trkpt lat="47.16267" lon="5.90214">
        <ele>298.6</ele>
        <time>2022-07-24T19:15:24Z</time>
      </trkpt>
      <trkpt lat="47.1627" lon="5.90216">
        <ele>298.6</ele>
        <time>2022-07-24T19:15:25Z</time>
      </trkpt>
      <trkpt lat="47.16273" lon="5.90218">
        <ele>298.8</ele>
        <time>2022-07-24T19:15:26Z</time>
      </trkpt>
      <trkpt lat="47.16276" lon="5.9022">
        <ele>299</ele>
        <time>2022-07-24T19:15:27Z</time>
      </trkpt>
      <trkpt lat="47.16279" lon="5.90222">
        <ele>299.2</ele>
        <time>2022-07-24T19:15:28Z</time>
      </trkpt>
      <trkpt lat="47.16281" lon="5.90224">
        <ele>299.2</ele>
        <time>2022-07-24T19:15:29Z</time>
      </trkpt>
      <trkpt lat="47.16284" lon="5.90227">
        <ele>299.2</ele>
        <time>2022-07-24T19:15:30Z</time>
      </trkpt>
      <trkpt lat="47.16286" lon="5.90229">
        <ele>299.4</ele>
        <time>2022-07-24T19:15:31Z</time>
      </trkpt>
      <trkpt lat="47.16288" lon="5.90231">
        <ele>299.6</ele>
        <time>2022-07-24T19:15:32Z</time>
      </trkpt>
      <trkpt lat="47.16289" lon="5.90232">
        <ele>299.6</ele>
        <time>2022-07-24T19:15:33Z</time>
      </trkpt>
      <trkpt lat="47.1629" lon="5.90233">
        <ele>299.8</ele>
        <time>2022-07-24T19:15:34Z</time>
      </trkpt>
      <trkpt lat="47.16292" lon="5.90235">
        <ele>299.8</ele>
        <time>2022-07-24T19:15:35Z</time>
      </trkpt>
      <trkpt lat="47.16293" lon="5.90236">
        <ele>300</ele>
        <time>2022-07-24T19:15:36Z</time>
      </trkpt>
      <trkpt lat="47.16293" lon="5.90238">
        <ele>300.2</ele>
        <time>2022-07-24T19:15:37Z</time>
      </trkpt>
      <trkpt lat="47.16292" lon="5.90243">
        <ele>300.4</ele>
        <time>2022-07-24T19:15:39Z</time>
      </trkpt>
      <trkpt lat="47.1629" lon="5.90244">
        <ele>300.4</ele>
        <time>2022-07-24T19:15:40Z</time>
      </trkpt>
      <trkpt lat="47.16288" lon="5.90246">
        <ele>300.6</ele>
        <time>2022-07-24T19:15:41Z</time>
      </trkpt>
      <trkpt lat="47.16286" lon="5.90248">
        <ele>300.6</ele>
        <time>2022-07-24T19:15:42Z</time>
      </trkpt>
      <trkpt lat="47.16285" lon="5.9025">
        <ele>300.8</ele>
        <time>2022-07-24T19:15:43Z</time>
      </trkpt>
      <trkpt lat="47.16285" lon="5.90252">
        <ele>300.8</ele>
        <time>2022-07-24T19:15:44Z</time>
      </trkpt>
      <trkpt lat="47.16284" lon="5.90255">
        <ele>300.8</ele>
        <time>2022-07-24T19:15:45Z</time>
      </trkpt>
      <trkpt lat="47.16284" lon="5.90261">
        <ele>301.2</ele>
        <time>2022-07-24T19:15:47Z</time>
      </trkpt>
      <trkpt lat="47.16285" lon="5.90264">
        <ele>301.4</ele>
        <time>2022-07-24T19:15:48Z</time>
      </trkpt>
      <trkpt lat="47.16285" lon="5.90266">
        <ele>301.2</ele>
        <time>2022-07-24T19:15:49Z</time>
      </trkpt>
      <trkpt lat="47.16285" lon="5.90268">
        <ele>301.2</ele>
        <time>2022-07-24T19:15:50Z</time>
      </trkpt>
      <trkpt lat="47.16284" lon="5.9027">
        <ele>301.4</ele>
        <time>2022-07-24T19:15:51Z</time>
      </trkpt>
      <trkpt lat="47.16284" lon="5.90272">
        <ele>301.6</ele>
        <time>2022-07-24T19:15:52Z</time>
      </trkpt>
      <trkpt lat="47.16283" lon="5.90274">
        <ele>301.6</ele>
        <time>2022-07-24T19:15:53Z</time>
      </trkpt>
      <trkpt lat="47.16282" lon="5.90275">
        <ele>301.6</ele>
        <time>2022-07-24T19:15:54Z</time>
      </trkpt>
      <trkpt lat="47.16281" lon="5.90277">
        <ele>301.8</ele>
        <time>2022-07-24T19:15:55Z</time>
      </trkpt>
      <trkpt lat="47.1628" lon="5.90279">
        <ele>302</ele>
        <time>2022-07-24T19:15:56Z</time>
      </trkpt>
      <trkpt lat="47.16279" lon="5.90285">
        <ele>301.8</ele>
        <time>2022-07-24T19:15:58Z</time>
      </trkpt>
      <trkpt lat="47.16279" lon="5.90288">
        <ele>302</ele>
        <time>2022-07-24T19:15:59Z</time>
      </trkpt>
      <trkpt lat="47.16278" lon="5.90291">
        <ele>302</ele>
        <time>2022-07-24T19:16:00Z</time>
      </trkpt>
      <trkpt lat="47.16277" lon="5.9031">
        <ele>302.2</ele>
        <time>2022-07-24T19:16:05Z</time>
      </trkpt>
      <trkpt lat="47.16277" lon="5.90323">
        <ele>302.6</ele>
        <time>2022-07-24T19:16:08Z</time>
      </trkpt>
      <trkpt lat="47.16276" lon="5.90338">
        <ele>303.4</ele>
        <time>2022-07-24T19:16:12Z</time>
      </trkpt>
      <trkpt lat="47.16275" lon="5.90349">
        <ele>303.6</ele>
        <time>2022-07-24T19:16:15Z</time>
      </trkpt>
      <trkpt lat="47.16275" lon="5.90352">
        <ele>303.8</ele>
        <time>2022-07-24T19:16:16Z</time>
      </trkpt>
      <trkpt lat="47.16275" lon="5.90356">
        <ele>303.8</ele>
        <time>2022-07-24T19:16:17Z</time>
      </trkpt>
      <trkpt lat="47.16274" lon="5.9036">
        <ele>304.2</ele>
        <time>2022-07-24T19:16:18Z</time>
      </trkpt>
      <trkpt lat="47.16274" lon="5.90367">
        <ele>304.8</ele>
        <time>2022-07-24T19:16:20Z</time>
      </trkpt>
      <trkpt lat="47.16273" lon="5.9037">
        <ele>305</ele>
        <time>2022-07-24T19:16:21Z</time>
      </trkpt>
      <trkpt lat="47.16273" lon="5.90374">
        <ele>305.2</ele>
        <time>2022-07-24T19:16:22Z</time>
      </trkpt>
      <trkpt lat="47.16272" lon="5.90377">
        <ele>305.4</ele>
        <time>2022-07-24T19:16:23Z</time>
      </trkpt>
      <trkpt lat="47.16272" lon="5.90381">
        <ele>305.6</ele>
        <time>2022-07-24T19:16:24Z</time>
      </trkpt>
      <trkpt lat="47.16272" lon="5.90384">
        <ele>306</ele>
        <time>2022-07-24T19:16:25Z</time>
      </trkpt>
      <trkpt lat="47.16272" lon="5.90388">
        <ele>306.2</ele>
        <time>2022-07-24T19:16:26Z</time>
      </trkpt>
      <trkpt lat="47.16272" lon="5.90392">
        <ele>306.6</ele>
        <time>2022-07-24T19:16:27Z</time>
      </trkpt>
      <trkpt lat="47.16272" lon="5.90395">
        <ele>306.6</ele>
        <time>2022-07-24T19:16:28Z</time>
      </trkpt>
      <trkpt lat="47.16271" lon="5.90398">
        <ele>307.6</ele>
        <time>2022-07-24T19:16:29Z</time>
      </trkpt>
      <trkpt lat="47.16271" lon="5.90401">
        <ele>308.2</ele>
        <time>2022-07-24T19:16:30Z</time>
      </trkpt>
      <trkpt lat="47.16271" lon="5.90403">
        <ele>308.2</ele>
        <time>2022-07-24T19:16:31Z</time>
      </trkpt>
      <trkpt lat="47.16271" lon="5.90407">
        <ele>309</ele>
        <time>2022-07-24T19:16:32Z</time>
      </trkpt>
      <trkpt lat="47.16271" lon="5.90409">
        <ele>309.2</ele>
        <time>2022-07-24T19:16:33Z</time>
      </trkpt>
      <trkpt lat="47.16271" lon="5.90412">
        <ele>309.8</ele>
        <time>2022-07-24T19:16:34Z</time>
      </trkpt>
      <trkpt lat="47.16271" lon="5.90414">
        <ele>310</ele>
        <time>2022-07-24T19:16:35Z</time>
      </trkpt>
      <trkpt lat="47.16271" lon="5.90417">
        <ele>310.4</ele>
        <time>2022-07-24T19:16:36Z</time>
      </trkpt>
      <trkpt lat="47.16272" lon="5.9042">
        <ele>310.8</ele>
        <time>2022-07-24T19:16:37Z</time>
      </trkpt>
      <trkpt lat="47.16273" lon="5.90421">
        <ele>311</ele>
        <time>2022-07-24T19:16:38Z</time>
      </trkpt>
      <trkpt lat="47.16273" lon="5.90422">
        <ele>311.4</ele>
        <time>2022-07-24T19:16:39Z</time>
      </trkpt>
      <trkpt lat="47.16274" lon="5.90422">
        <ele>311.6</ele>
        <time>2022-07-24T19:16:40Z</time>
      </trkpt>
      <trkpt lat="47.16275" lon="5.9042">
        <ele>311.8</ele>
        <time>2022-07-24T19:16:41Z</time>
      </trkpt>
      <trkpt lat="47.16274" lon="5.90418">
        <ele>311.8</ele>
        <time>2022-07-24T19:16:42Z</time>
      </trkpt>
      <trkpt lat="47.16273" lon="5.90416">
        <ele>312</ele>
        <time>2022-07-24T19:16:43Z</time>
      </trkpt>
      <trkpt lat="47.16272" lon="5.90413">
        <ele>312</ele>
        <time>2022-07-24T19:16:44Z</time>
      </trkpt>
      <trkpt lat="47.16272" lon="5.9041">
        <ele>312</ele>
        <time>2022-07-24T19:16:45Z</time>
      </trkpt>
      <trkpt lat="47.16272" lon="5.90407">
        <ele>312</ele>
        <time>2022-07-24T19:16:46Z</time>
      </trkpt>
      <trkpt lat="47.16272" lon="5.90404">
        <ele>312</ele>
        <time>2022-07-24T19:16:47Z</time>
      </trkpt>
      <trkpt lat="47.16272" lon="5.90401">
        <ele>312</ele>
        <time>2022-07-24T19:16:48Z</time>
      </trkpt>
      <trkpt lat="47.16273" lon="5.90397">
        <ele>312</ele>
        <time>2022-07-24T19:16:49Z</time>
      </trkpt>
      <trkpt lat="47.16272" lon="5.90393">
        <ele>312</ele>
        <time>2022-07-24T19:16:50Z</time>
      </trkpt>
      <trkpt lat="47.16272" lon="5.90389">
        <ele>311.8</ele>
        <time>2022-07-24T19:16:51Z</time>
      </trkpt>
      <trkpt lat="47.16273" lon="5.90385">
        <ele>311.6</ele>
        <time>2022-07-24T19:16:52Z</time>
      </trkpt>
      <trkpt lat="47.16274" lon="5.90381">
        <ele>311.4</ele>
        <time>2022-07-24T19:16:53Z</time>
      </trkpt>
      <trkpt lat="47.16275" lon="5.90377">
        <ele>311</ele>
        <time>2022-07-24T19:16:54Z</time>
      </trkpt>
      <trkpt lat="47.16276" lon="5.90371">
        <ele>310.4</ele>
        <time>2022-07-24T19:16:55Z</time>
      </trkpt>
      <trkpt lat="47.16276" lon="5.90364">
        <ele>310</ele>
        <time>2022-07-24T19:16:56Z</time>
      </trkpt>
      <trkpt lat="47.16276" lon="5.90354">
        <ele>309.6</ele>
        <time>2022-07-24T19:16:57Z</time>
      </trkpt>
      <trkpt lat="47.16276" lon="5.90345">
        <ele>309</ele>
        <time>2022-07-24T19:16:58Z</time>
      </trkpt>
      <trkpt lat="47.16276" lon="5.90336">
        <ele>308.8</ele>
        <time>2022-07-24T19:16:59Z</time>
      </trkpt>
      <trkpt lat="47.16276" lon="5.90328">
        <ele>308</ele>
        <time>2022-07-24T19:17:00Z</time>
      </trkpt>
      <trkpt lat="47.16276" lon="5.9032">
        <ele>307.8</ele>
        <time>2022-07-24T19:17:01Z</time>
      </trkpt>
      <trkpt lat="47.16277" lon="5.90312">
        <ele>306.4</ele>
        <time>2022-07-24T19:17:02Z</time>
      </trkpt>
      <trkpt lat="47.16278" lon="5.90303">
        <ele>305.8</ele>
        <time>2022-07-24T19:17:03Z</time>
      </trkpt>
      <trkpt lat="47.1628" lon="5.90294">
        <ele>305.2</ele>
        <time>2022-07-24T19:17:04Z</time>
      </trkpt>
      <trkpt lat="47.16283" lon="5.90276">
        <ele>304</ele>
        <time>2022-07-24T19:17:06Z</time>
      </trkpt>
      <trkpt lat="47.16285" lon="5.9026">
        <ele>303.4</ele>
        <time>2022-07-24T19:17:08Z</time>
      </trkpt>
      <trkpt lat="47.16286" lon="5.90254">
        <ele>303.2</ele>
        <time>2022-07-24T19:17:09Z</time>
      </trkpt>
      <trkpt lat="47.16288" lon="5.9025">
        <ele>302.6</ele>
        <time>2022-07-24T19:17:10Z</time>
      </trkpt>
      <trkpt lat="47.1629" lon="5.90246">
        <ele>302.4</ele>
        <time>2022-07-24T19:17:11Z</time>
      </trkpt>
      <trkpt lat="47.16292" lon="5.90244">
        <ele>302</ele>
        <time>2022-07-24T19:17:12Z</time>
      </trkpt>
      <trkpt lat="47.16295" lon="5.90245">
        <ele>302</ele>
        <time>2022-07-24T19:17:13Z</time>
      </trkpt>
      <trkpt lat="47.16298" lon="5.90247">
        <ele>301.6</ele>
        <time>2022-07-24T19:17:14Z</time>
      </trkpt>
      <trkpt lat="47.163" lon="5.90248">
        <ele>301.4</ele>
        <time>2022-07-24T19:17:15Z</time>
      </trkpt>
      <trkpt lat="47.16302" lon="5.9025">
        <ele>301.4</ele>
        <time>2022-07-24T19:17:16Z</time>
      </trkpt>
      <trkpt lat="47.16304" lon="5.90252">
        <ele>301.2</ele>
        <time>2022-07-24T19:17:17Z</time>
      </trkpt>
      <trkpt lat="47.16306" lon="5.90254">
        <ele>301.2</ele>
        <time>2022-07-24T19:17:18Z</time>
      </trkpt>
      <trkpt lat="47.16307" lon="5.90255">
        <ele>301.2</ele>
        <time>2022-07-24T19:17:19Z</time>
      </trkpt>
      <trkpt lat="47.16309" lon="5.90257">
        <ele>301.2</ele>
        <time>2022-07-24T19:17:20Z</time>
      </trkpt>
      <trkpt lat="47.1631" lon="5.90259">
        <ele>301.2</ele>
        <time>2022-07-24T19:17:21Z</time>
      </trkpt>
      <trkpt lat="47.16312" lon="5.9026">
        <ele>301.2</ele>
        <time>2022-07-24T19:17:22Z</time>
      </trkpt>
      <trkpt lat="47.16314" lon="5.90261">
        <ele>301.6</ele>
        <time>2022-07-24T19:17:23Z</time>
      </trkpt>
      <trkpt lat="47.16316" lon="5.90262">
        <ele>301.6</ele>
        <time>2022-07-24T19:17:24Z</time>
      </trkpt>
      <trkpt lat="47.16318" lon="5.90264">
        <ele>301.6</ele>
        <time>2022-07-24T19:17:25Z</time>
      </trkpt>
      <trkpt lat="47.16333" lon="5.90276">
        <ele>302.2</ele>
        <time>2022-07-24T19:17:32Z</time>
      </trkpt>
      <trkpt lat="47.16337" lon="5.90282">
        <ele>302.6</ele>
        <time>2022-07-24T19:17:35Z</time>
      </trkpt>
      <trkpt lat="47.16339" lon="5.90284">
        <ele>302.6</ele>
        <time>2022-07-24T19:17:36Z</time>
      </trkpt>
      <trkpt lat="47.16342" lon="5.90286">
        <ele>302.8</ele>
        <time>2022-07-24T19:17:37Z</time>
      </trkpt>
      <trkpt lat="47.16344" lon="5.90288">
        <ele>302.8</ele>
        <time>2022-07-24T19:17:38Z</time>
      </trkpt>
      <trkpt lat="47.16351" lon="5.90294">
        <ele>303</ele>
        <time>2022-07-24T19:17:41Z</time>
      </trkpt>
      <trkpt lat="47.16361" lon="5.90306">
        <ele>303.8</ele>
        <time>2022-07-24T19:17:46Z</time>
      </trkpt>
      <trkpt lat="47.16369" lon="5.90314">
        <ele>304.2</ele>
        <time>2022-07-24T19:17:49Z</time>
      </trkpt>
      <trkpt lat="47.16385" lon="5.90331">
        <ele>304.8</ele>
        <time>2022-07-24T19:17:56Z</time>
      </trkpt>
      <trkpt lat="47.1639" lon="5.90336">
        <ele>305.2</ele>
        <time>2022-07-24T19:17:58Z</time>
      </trkpt>
      <trkpt lat="47.16401" lon="5.90348">
        <ele>305.8</ele>
        <time>2022-07-24T19:18:03Z</time>
      </trkpt>
      <trkpt lat="47.16404" lon="5.90351">
        <ele>305.8</ele>
        <time>2022-07-24T19:18:04Z</time>
      </trkpt>
      <trkpt lat="47.16406" lon="5.90353">
        <ele>306</ele>
        <time>2022-07-24T19:18:05Z</time>
      </trkpt>
      <trkpt lat="47.16408" lon="5.90355">
        <ele>306</ele>
        <time>2022-07-24T19:18:06Z</time>
      </trkpt>
      <trkpt lat="47.1641" lon="5.90358">
        <ele>306.2</ele>
        <time>2022-07-24T19:18:07Z</time>
      </trkpt>
      <trkpt lat="47.16413" lon="5.9036">
        <ele>306.4</ele>
        <time>2022-07-24T19:18:08Z</time>
      </trkpt>
      <trkpt lat="47.16414" lon="5.90363">
        <ele>306.4</ele>
        <time>2022-07-24T19:18:09Z</time>
      </trkpt>
      <trkpt lat="47.16417" lon="5.90365">
        <ele>306.6</ele>
        <time>2022-07-24T19:18:10Z</time>
      </trkpt>
      <trkpt lat="47.16419" lon="5.90368">
        <ele>306.6</ele>
        <time>2022-07-24T19:18:11Z</time>
      </trkpt>
      <trkpt lat="47.16421" lon="5.90371">
        <ele>306.8</ele>
        <time>2022-07-24T19:18:12Z</time>
      </trkpt>
      <trkpt lat="47.16423" lon="5.90374">
        <ele>307</ele>
        <time>2022-07-24T19:18:13Z</time>
      </trkpt>
      <trkpt lat="47.16425" lon="5.90376">
        <ele>307</ele>
        <time>2022-07-24T19:18:14Z</time>
      </trkpt>
      <trkpt lat="47.16427" lon="5.90378">
        <ele>307</ele>
        <time>2022-07-24T19:18:15Z</time>
      </trkpt>
      <trkpt lat="47.16429" lon="5.9038">
        <ele>307.2</ele>
        <time>2022-07-24T19:18:16Z</time>
      </trkpt>
      <trkpt lat="47.16431" lon="5.90381">
        <ele>307.2</ele>
        <time>2022-07-24T19:18:17Z</time>
      </trkpt>
      <trkpt lat="47.16433" lon="5.90383">
        <ele>307.2</ele>
        <time>2022-07-24T19:18:18Z</time>
      </trkpt>
      <trkpt lat="47.16435" lon="5.90385">
        <ele>307.2</ele>
        <time>2022-07-24T19:18:19Z</time>
      </trkpt>
      <trkpt lat="47.16437" lon="5.90387">
        <ele>307.2</ele>
        <time>2022-07-24T19:18:20Z</time>
      </trkpt>
      <trkpt lat="47.16439" lon="5.90389">
        <ele>307.2</ele>
        <time>2022-07-24T19:18:21Z</time>
      </trkpt>
      <trkpt lat="47.16441" lon="5.90391">
        <ele>307.2</ele>
        <time>2022-07-24T19:18:22Z</time>
      </trkpt>
      <trkpt lat="47.16443" lon="5.90393">
        <ele>307.2</ele>
        <time>2022-07-24T19:18:23Z</time>
      </trkpt>
      <trkpt lat="47.16445" lon="5.90395">
        <ele>307.2</ele>
        <time>2022-07-24T19:18:24Z</time>
      </trkpt>
      <trkpt lat="47.16461" lon="5.90411">
        <ele>307.2</ele>
        <time>2022-07-24T19:18:32Z</time>
      </trkpt>
      <trkpt lat="47.16463" lon="5.90413">
        <ele>307</ele>
        <time>2022-07-24T19:18:33Z</time>
      </trkpt>
      <trkpt lat="47.16464" lon="5.90414">
        <ele>307</ele>
        <time>2022-07-24T19:18:34Z</time>
      </trkpt>
      <trkpt lat="47.16466" lon="5.90416">
        <ele>307</ele>
        <time>2022-07-24T19:18:35Z</time>
      </trkpt>
      <trkpt lat="47.16468" lon="5.90418">
        <ele>307</ele>
        <time>2022-07-24T19:18:36Z</time>
      </trkpt>
      <trkpt lat="47.1647" lon="5.9042">
        <ele>307</ele>
        <time>2022-07-24T19:18:37Z</time>
      </trkpt>
      <trkpt lat="47.16472" lon="5.90422">
        <ele>307</ele>
        <time>2022-07-24T19:18:38Z</time>
      </trkpt>
      <trkpt lat="47.16474" lon="5.90425">
        <ele>307</ele>
        <time>2022-07-24T19:18:39Z</time>
      </trkpt>
      <trkpt lat="47.1649" lon="5.90448">
        <ele>307</ele>
        <time>2022-07-24T19:18:47Z</time>
      </trkpt>
      <trkpt lat="47.16493" lon="5.90458">
        <ele>306.8</ele>
        <time>2022-07-24T19:18:50Z</time>
      </trkpt>
      <trkpt lat="47.16494" lon="5.90462">
        <ele>306.8</ele>
        <time>2022-07-24T19:18:51Z</time>
      </trkpt>
      <trkpt lat="47.16494" lon="5.90466">
        <ele>306.8</ele>
        <time>2022-07-24T19:18:52Z</time>
      </trkpt>
      <trkpt lat="47.16495" lon="5.90469">
        <ele>306.8</ele>
        <time>2022-07-24T19:18:53Z</time>
      </trkpt>
      <trkpt lat="47.16499" lon="5.90504">
        <ele>307.4</ele>
        <time>2022-07-24T19:19:02Z</time>
      </trkpt>
      <trkpt lat="47.165" lon="5.90506">
        <ele>307.4</ele>
        <time>2022-07-24T19:19:03Z</time>
      </trkpt>
      <trkpt lat="47.16501" lon="5.90509">
        <ele>307.6</ele>
        <time>2022-07-24T19:19:04Z</time>
      </trkpt>
      <trkpt lat="47.16501" lon="5.90512">
        <ele>307.8</ele>
        <time>2022-07-24T19:19:05Z</time>
      </trkpt>
      <trkpt lat="47.16502" lon="5.90515">
        <ele>308.2</ele>
        <time>2022-07-24T19:19:06Z</time>
      </trkpt>
      <trkpt lat="47.16502" lon="5.90518">
        <ele>308.2</ele>
        <time>2022-07-24T19:19:07Z</time>
      </trkpt>
      <trkpt lat="47.16503" lon="5.90521">
        <ele>308.6</ele>
        <time>2022-07-24T19:19:08Z</time>
      </trkpt>
      <trkpt lat="47.16503" lon="5.90524">
        <ele>308.8</ele>
        <time>2022-07-24T19:19:09Z</time>
      </trkpt>
      <trkpt lat="47.16504" lon="5.90528">
        <ele>309.2</ele>
        <time>2022-07-24T19:19:10Z</time>
      </trkpt>
      <trkpt lat="47.16508" lon="5.90544">
        <ele>310.2</ele>
        <time>2022-07-24T19:19:14Z</time>
      </trkpt>
      <trkpt lat="47.16509" lon="5.90548">
        <ele>310.4</ele>
        <time>2022-07-24T19:19:15Z</time>
      </trkpt>
      <trkpt lat="47.1651" lon="5.90552">
        <ele>310.6</ele>
        <time>2022-07-24T19:19:16Z</time>
      </trkpt>
      <trkpt lat="47.1651" lon="5.90555">
        <ele>310.8</ele>
        <time>2022-07-24T19:19:17Z</time>
      </trkpt>
      <trkpt lat="47.1651" lon="5.90559">
        <ele>311</ele>
        <time>2022-07-24T19:19:18Z</time>
      </trkpt>
      <trkpt lat="47.16511" lon="5.90563">
        <ele>311.2</ele>
        <time>2022-07-24T19:19:19Z</time>
      </trkpt>
      <trkpt lat="47.16511" lon="5.90567">
        <ele>311.4</ele>
        <time>2022-07-24T19:19:20Z</time>
      </trkpt>
      <trkpt lat="47.16511" lon="5.9057">
        <ele>311.6</ele>
        <time>2022-07-24T19:19:21Z</time>
      </trkpt>
      <trkpt lat="47.16511" lon="5.90573">
        <ele>312</ele>
        <time>2022-07-24T19:19:22Z</time>
      </trkpt>
      <trkpt lat="47.16511" lon="5.90577">
        <ele>312.2</ele>
        <time>2022-07-24T19:19:23Z</time>
      </trkpt>
      <trkpt lat="47.16512" lon="5.90581">
        <ele>312.4</ele>
        <time>2022-07-24T19:19:24Z</time>
      </trkpt>
      <trkpt lat="47.16512" lon="5.90583">
        <ele>312.8</ele>
        <time>2022-07-24T19:19:25Z</time>
      </trkpt>
      <trkpt lat="47.16512" lon="5.90587">
        <ele>312.8</ele>
        <time>2022-07-24T19:19:26Z</time>
      </trkpt>
      <trkpt lat="47.16512" lon="5.9059">
        <ele>313.2</ele>
        <time>2022-07-24T19:19:27Z</time>
      </trkpt>
      <trkpt lat="47.16512" lon="5.90593">
        <ele>313.4</ele>
        <time>2022-07-24T19:19:28Z</time>
      </trkpt>
      <trkpt lat="47.16512" lon="5.90596">
        <ele>313.6</ele>
        <time>2022-07-24T19:19:29Z</time>
      </trkpt>
      <trkpt lat="47.16512" lon="5.90598">
        <ele>314.2</ele>
        <time>2022-07-24T19:19:30Z</time>
      </trkpt>
      <trkpt lat="47.16513" lon="5.90601">
        <ele>314.4</ele>
        <time>2022-07-24T19:19:31Z</time>
      </trkpt>
      <trkpt lat="47.16513" lon="5.90604">
        <ele>314.6</ele>
        <time>2022-07-24T19:19:32Z</time>
      </trkpt>
      <trkpt lat="47.16513" lon="5.90606">
        <ele>314.8</ele>
        <time>2022-07-24T19:19:33Z</time>
      </trkpt>
      <trkpt lat="47.16512" lon="5.90609">
        <ele>315</ele>
        <time>2022-07-24T19:19:34Z</time>
      </trkpt>
      <trkpt lat="47.16512" lon="5.90611">
        <ele>315</ele>
        <time>2022-07-24T19:19:35Z</time>
      </trkpt>
      <trkpt lat="47.16512" lon="5.90613">
        <ele>315.4</ele>
        <time>2022-07-24T19:19:36Z</time>
      </trkpt>
      <trkpt lat="47.16512" lon="5.90615">
        <ele>315.6</ele>
        <time>2022-07-24T19:19:37Z</time>
      </trkpt>
      <trkpt lat="47.16512" lon="5.90618">
        <ele>315.6</ele>
        <time>2022-07-24T19:19:38Z</time>
      </trkpt>
      <trkpt lat="47.16512" lon="5.9062">
        <ele>316.2</ele>
        <time>2022-07-24T19:19:39Z</time>
      </trkpt>
      <trkpt lat="47.16511" lon="5.90624">
        <ele>316.4</ele>
        <time>2022-07-24T19:19:40Z</time>
      </trkpt>
      <trkpt lat="47.16511" lon="5.90626">
        <ele>316.6</ele>
        <time>2022-07-24T19:19:41Z</time>
      </trkpt>
      <trkpt lat="47.16511" lon="5.90629">
        <ele>316.8</ele>
        <time>2022-07-24T19:19:42Z</time>
      </trkpt>
      <trkpt lat="47.16511" lon="5.90631">
        <ele>317</ele>
        <time>2022-07-24T19:19:43Z</time>
      </trkpt>
      <trkpt lat="47.16511" lon="5.90634">
        <ele>317.4</ele>
        <time>2022-07-24T19:19:44Z</time>
      </trkpt>
      <trkpt lat="47.16512" lon="5.90637">
        <ele>317.6</ele>
        <time>2022-07-24T19:19:45Z</time>
      </trkpt>
      <trkpt lat="47.16512" lon="5.90639">
        <ele>318</ele>
        <time>2022-07-24T19:19:46Z</time>
      </trkpt>
      <trkpt lat="47.16512" lon="5.90641">
        <ele>318</ele>
        <time>2022-07-24T19:19:47Z</time>
      </trkpt>
      <trkpt lat="47.16513" lon="5.90644">
        <ele>318.4</ele>
        <time>2022-07-24T19:19:48Z</time>
      </trkpt>
      <trkpt lat="47.16514" lon="5.90646">
        <ele>318.6</ele>
        <time>2022-07-24T19:19:49Z</time>
      </trkpt>
      <trkpt lat="47.16514" lon="5.90648">
        <ele>319</ele>
        <time>2022-07-24T19:19:50Z</time>
      </trkpt>
      <trkpt lat="47.16514" lon="5.90651">
        <ele>319.2</ele>
        <time>2022-07-24T19:19:51Z</time>
      </trkpt>
      <trkpt lat="47.16515" lon="5.90653">
        <ele>319.2</ele>
        <time>2022-07-24T19:19:52Z</time>
      </trkpt>
      <trkpt lat="47.16515" lon="5.90655">
        <ele>319.6</ele>
        <time>2022-07-24T19:19:53Z</time>
      </trkpt>
      <trkpt lat="47.16516" lon="5.90656">
        <ele>319.8</ele>
        <time>2022-07-24T19:19:54Z</time>
      </trkpt>
      <trkpt lat="47.16518" lon="5.90657">
        <ele>320</ele>
        <time>2022-07-24T19:19:55Z</time>
      </trkpt>
      <trkpt lat="47.16519" lon="5.90658">
        <ele>320</ele>
        <time>2022-07-24T19:19:56Z</time>
      </trkpt>
      <trkpt lat="47.16521" lon="5.90658">
        <ele>320.2</ele>
        <time>2022-07-24T19:19:57Z</time>
      </trkpt>
      <trkpt lat="47.16522" lon="5.90659">
        <ele>320.4</ele>
        <time>2022-07-24T19:19:58Z</time>
      </trkpt>
      <trkpt lat="47.16523" lon="5.90659">
        <ele>320.4</ele>
        <time>2022-07-24T19:19:59Z</time>
      </trkpt>
      <trkpt lat="47.16525" lon="5.90659">
        <ele>320.6</ele>
        <time>2022-07-24T19:20:00Z</time>
      </trkpt>
      <trkpt lat="47.16527" lon="5.90659">
        <ele>320.8</ele>
        <time>2022-07-24T19:20:01Z</time>
      </trkpt>
      <trkpt lat="47.16528" lon="5.90659">
        <ele>321</ele>
        <time>2022-07-24T19:20:02Z</time>
      </trkpt>
      <trkpt lat="47.16529" lon="5.90659">
        <ele>321</ele>
        <time>2022-07-24T19:20:03Z</time>
      </trkpt>
      <trkpt lat="47.16531" lon="5.90659">
        <ele>321.2</ele>
        <time>2022-07-24T19:20:04Z</time>
      </trkpt>
      <trkpt lat="47.16533" lon="5.90659">
        <ele>321.2</ele>
        <time>2022-07-24T19:20:05Z</time>
      </trkpt>
      <trkpt lat="47.16535" lon="5.90659">
        <ele>321.2</ele>
        <time>2022-07-24T19:20:06Z</time>
      </trkpt>
      <trkpt lat="47.16537" lon="5.9066">
        <ele>321.2</ele>
        <time>2022-07-24T19:20:07Z</time>
      </trkpt>
      <trkpt lat="47.16539" lon="5.9066">
        <ele>321.2</ele>
        <time>2022-07-24T19:20:08Z</time>
      </trkpt>
      <trkpt lat="47.16542" lon="5.9066">
        <ele>321.2</ele>
        <time>2022-07-24T19:20:09Z</time>
      </trkpt>
      <trkpt lat="47.16544" lon="5.90659">
        <ele>321.2</ele>
        <time>2022-07-24T19:20:10Z</time>
      </trkpt>
      <trkpt lat="47.16547" lon="5.90658">
        <ele>321.2</ele>
        <time>2022-07-24T19:20:11Z</time>
      </trkpt>
      <trkpt lat="47.1655" lon="5.90658">
        <ele>321.2</ele>
        <time>2022-07-24T19:20:12Z</time>
      </trkpt>
      <trkpt lat="47.16552" lon="5.90657">
        <ele>321.2</ele>
        <time>2022-07-24T19:20:13Z</time>
      </trkpt>
      <trkpt lat="47.16555" lon="5.90656">
        <ele>321.2</ele>
        <time>2022-07-24T19:20:14Z</time>
      </trkpt>
      <trkpt lat="47.16557" lon="5.90656">
        <ele>321</ele>
        <time>2022-07-24T19:20:15Z</time>
      </trkpt>
      <trkpt lat="47.16559" lon="5.90656">
        <ele>321</ele>
        <time>2022-07-24T19:20:16Z</time>
      </trkpt>
      <trkpt lat="47.16561" lon="5.90656">
        <ele>320.8</ele>
        <time>2022-07-24T19:20:17Z</time>
      </trkpt>
      <trkpt lat="47.16563" lon="5.90656">
        <ele>320.6</ele>
        <time>2022-07-24T19:20:18Z</time>
      </trkpt>
      <trkpt lat="47.16566" lon="5.90655">
        <ele>320.6</ele>
        <time>2022-07-24T19:20:19Z</time>
      </trkpt>
      <trkpt lat="47.16574" lon="5.90652">
        <ele>320.2</ele>
        <time>2022-07-24T19:20:22Z</time>
      </trkpt>
      <trkpt lat="47.16577" lon="5.90652">
        <ele>320.2</ele>
        <time>2022-07-24T19:20:23Z</time>
      </trkpt>
      <trkpt lat="47.1658" lon="5.9065">
        <ele>320</ele>
        <time>2022-07-24T19:20:24Z</time>
      </trkpt>
      <trkpt lat="47.16583" lon="5.90649">
        <ele>320</ele>
        <time>2022-07-24T19:20:25Z</time>
      </trkpt>
      <trkpt lat="47.16608" lon="5.90643">
        <ele>319.4</ele>
        <time>2022-07-24T19:20:33Z</time>
      </trkpt>
      <trkpt lat="47.1661" lon="5.90643">
        <ele>319.4</ele>
        <time>2022-07-24T19:20:34Z</time>
      </trkpt>
      <trkpt lat="47.16612" lon="5.90643">
        <ele>319.4</ele>
        <time>2022-07-24T19:20:35Z</time>
      </trkpt>
      <trkpt lat="47.16614" lon="5.90643">
        <ele>319.2</ele>
        <time>2022-07-24T19:20:36Z</time>
      </trkpt>
      <trkpt lat="47.16616" lon="5.90643">
        <ele>319.2</ele>
        <time>2022-07-24T19:20:37Z</time>
      </trkpt>
      <trkpt lat="47.16627" lon="5.90641">
        <ele>319.4</ele>
        <time>2022-07-24T19:20:42Z</time>
      </trkpt>
      <trkpt lat="47.1663" lon="5.90641">
        <ele>319.6</ele>
        <time>2022-07-24T19:20:43Z</time>
      </trkpt>
      <trkpt lat="47.16632" lon="5.90641">
        <ele>319.6</ele>
        <time>2022-07-24T19:20:44Z</time>
      </trkpt>
      <trkpt lat="47.16651" lon="5.90643">
        <ele>320.2</ele>
        <time>2022-07-24T19:20:51Z</time>
      </trkpt>
      <trkpt lat="47.16658" lon="5.90643">
        <ele>320.4</ele>
        <time>2022-07-24T19:20:54Z</time>
      </trkpt>
      <trkpt lat="47.16663" lon="5.90643">
        <ele>320.6</ele>
        <time>2022-07-24T19:20:56Z</time>
      </trkpt>
      <trkpt lat="47.16665" lon="5.90643">
        <ele>320.6</ele>
        <time>2022-07-24T19:20:57Z</time>
      </trkpt>
      <trkpt lat="47.16667" lon="5.90643">
        <ele>320.6</ele>
        <time>2022-07-24T19:20:58Z</time>
      </trkpt>
      <trkpt lat="47.1667" lon="5.90643">
        <ele>320.6</ele>
        <time>2022-07-24T19:20:59Z</time>
      </trkpt>
      <trkpt lat="47.16672" lon="5.90642">
        <ele>320.6</ele>
        <time>2022-07-24T19:21:00Z</time>
      </trkpt>
      <trkpt lat="47.16674" lon="5.90642">
        <ele>320.6</ele>
        <time>2022-07-24T19:21:01Z</time>
      </trkpt>
      <trkpt lat="47.16675" lon="5.90642">
        <ele>320.6</ele>
        <time>2022-07-24T19:21:02Z</time>
      </trkpt>
      <trkpt lat="47.16677" lon="5.90642">
        <ele>320.4</ele>
        <time>2022-07-24T19:21:03Z</time>
      </trkpt>
      <trkpt lat="47.16678" lon="5.90642">
        <ele>320.4</ele>
        <time>2022-07-24T19:21:04Z</time>
      </trkpt>
      <trkpt lat="47.16679" lon="5.90643">
        <ele>320.2</ele>
        <time>2022-07-24T19:21:05Z</time>
      </trkpt>
      <trkpt lat="47.16682" lon="5.90643">
        <ele>320.2</ele>
        <time>2022-07-24T19:21:07Z</time>
      </trkpt>
      <trkpt lat="47.16683" lon="5.90643">
        <ele>320.2</ele>
        <time>2022-07-24T19:21:08Z</time>
      </trkpt>
      <trkpt lat="47.16684" lon="5.90643">
        <ele>320.2</ele>
        <time>2022-07-24T19:21:09Z</time>
      </trkpt>
      <trkpt lat="47.16686" lon="5.90643">
        <ele>320</ele>
        <time>2022-07-24T19:21:10Z</time>
      </trkpt>
      <trkpt lat="47.16691" lon="5.90646">
        <ele>320</ele>
        <time>2022-07-24T19:21:12Z</time>
      </trkpt>
      <trkpt lat="47.16703" lon="5.90651">
        <ele>319.8</ele>
        <time>2022-07-24T19:21:15Z</time>
      </trkpt>
      <trkpt lat="47.16709" lon="5.90653">
        <ele>319.6</ele>
        <time>2022-07-24T19:21:16Z</time>
      </trkpt>
      <trkpt lat="47.1672" lon="5.90656">
        <ele>319.2</ele>
        <time>2022-07-24T19:21:18Z</time>
      </trkpt>
      <trkpt lat="47.16726" lon="5.90658">
        <ele>319</ele>
        <time>2022-07-24T19:21:19Z</time>
      </trkpt>
      <trkpt lat="47.16731" lon="5.9066">
        <ele>318</ele>
        <time>2022-07-24T19:21:20Z</time>
      </trkpt>
      <trkpt lat="47.16736" lon="5.90661">
        <ele>317.6</ele>
        <time>2022-07-24T19:21:21Z</time>
      </trkpt>
      <trkpt lat="47.16742" lon="5.90664">
        <ele>316.8</ele>
        <time>2022-07-24T19:21:22Z</time>
      </trkpt>
      <trkpt lat="47.16753" lon="5.90669">
        <ele>315.2</ele>
        <time>2022-07-24T19:21:24Z</time>
      </trkpt>
      <trkpt lat="47.16768" lon="5.90674">
        <ele>313.6</ele>
        <time>2022-07-24T19:21:26Z</time>
      </trkpt>
      <trkpt lat="47.16782" lon="5.9068">
        <ele>312.4</ele>
        <time>2022-07-24T19:21:28Z</time>
      </trkpt>
      <trkpt lat="47.16788" lon="5.90683">
        <ele>311</ele>
        <time>2022-07-24T19:21:29Z</time>
      </trkpt>
      <trkpt lat="47.16798" lon="5.90683">
        <ele>310.4</ele>
        <time>2022-07-24T19:21:30Z</time>
      </trkpt>
      <trkpt lat="47.16807" lon="5.90682">
        <ele>308.8</ele>
        <time>2022-07-24T19:21:31Z</time>
      </trkpt>
      <trkpt lat="47.16825" lon="5.90681">
        <ele>307</ele>
        <time>2022-07-24T19:21:33Z</time>
      </trkpt>
      <trkpt lat="47.16841" lon="5.90682">
        <ele>306</ele>
        <time>2022-07-24T19:21:35Z</time>
      </trkpt>
      <trkpt lat="47.16849" lon="5.90683">
        <ele>303.6</ele>
        <time>2022-07-24T19:21:36Z</time>
      </trkpt>
      <trkpt lat="47.16855" lon="5.90683">
        <ele>302.6</ele>
        <time>2022-07-24T19:21:37Z</time>
      </trkpt>
      <trkpt lat="47.16862" lon="5.90684">
        <ele>300.8</ele>
        <time>2022-07-24T19:21:38Z</time>
      </trkpt>
      <trkpt lat="47.16868" lon="5.90687">
        <ele>300.2</ele>
        <time>2022-07-24T19:21:39Z</time>
      </trkpt>
      <trkpt lat="47.16873" lon="5.90692">
        <ele>299.4</ele>
        <time>2022-07-24T19:21:40Z</time>
      </trkpt>
      <trkpt lat="47.16879" lon="5.90698">
        <ele>298.4</ele>
        <time>2022-07-24T19:21:41Z</time>
      </trkpt>
      <trkpt lat="47.16884" lon="5.90704">
        <ele>298.2</ele>
        <time>2022-07-24T19:21:42Z</time>
      </trkpt>
      <trkpt lat="47.16889" lon="5.9071">
        <ele>297.6</ele>
        <time>2022-07-24T19:21:43Z</time>
      </trkpt>
      <trkpt lat="47.16901" lon="5.90721">
        <ele>296.8</ele>
        <time>2022-07-24T19:21:45Z</time>
      </trkpt>
      <trkpt lat="47.16911" lon="5.90733">
        <ele>296.4</ele>
        <time>2022-07-24T19:21:47Z</time>
      </trkpt>
      <trkpt lat="47.16916" lon="5.90739">
        <ele>296</ele>
        <time>2022-07-24T19:21:48Z</time>
      </trkpt>
      <trkpt lat="47.16922" lon="5.90745">
        <ele>296</ele>
        <time>2022-07-24T19:21:49Z</time>
      </trkpt>
      <trkpt lat="47.16928" lon="5.90752">
        <ele>294.8</ele>
        <time>2022-07-24T19:21:50Z</time>
      </trkpt>
      <trkpt lat="47.16942" lon="5.90768">
        <ele>292.4</ele>
        <time>2022-07-24T19:21:52Z</time>
      </trkpt>
      <trkpt lat="47.16955" lon="5.90782">
        <ele>291.2</ele>
        <time>2022-07-24T19:21:54Z</time>
      </trkpt>
      <trkpt lat="47.16961" lon="5.90787">
        <ele>290.4</ele>
        <time>2022-07-24T19:21:55Z</time>
      </trkpt>
      <trkpt lat="47.16967" lon="5.90793">
        <ele>290</ele>
        <time>2022-07-24T19:21:56Z</time>
      </trkpt>
      <trkpt lat="47.16972" lon="5.90798">
        <ele>287.8</ele>
        <time>2022-07-24T19:21:57Z</time>
      </trkpt>
      <trkpt lat="47.16977" lon="5.90803">
        <ele>286.8</ele>
        <time>2022-07-24T19:21:58Z</time>
      </trkpt>
      <trkpt lat="47.16983" lon="5.90809">
        <ele>284.6</ele>
        <time>2022-07-24T19:21:59Z</time>
      </trkpt>
      <trkpt lat="47.16987" lon="5.90814">
        <ele>283.4</ele>
        <time>2022-07-24T19:22:00Z</time>
      </trkpt>
      <trkpt lat="47.16992" lon="5.90818">
        <ele>282.2</ele>
        <time>2022-07-24T19:22:01Z</time>
      </trkpt>
      <trkpt lat="47.16997" lon="5.9082">
        <ele>281.4</ele>
        <time>2022-07-24T19:22:02Z</time>
      </trkpt>
      <trkpt lat="47.17001" lon="5.90822">
        <ele>280.8</ele>
        <time>2022-07-24T19:22:03Z</time>
      </trkpt>
      <trkpt lat="47.17006" lon="5.90822">
        <ele>280.2</ele>
        <time>2022-07-24T19:22:04Z</time>
      </trkpt>
      <trkpt lat="47.17009" lon="5.90822">
        <ele>279.8</ele>
        <time>2022-07-24T19:22:05Z</time>
      </trkpt>
      <trkpt lat="47.17012" lon="5.90821">
        <ele>279.4</ele>
        <time>2022-07-24T19:22:06Z</time>
      </trkpt>
      <trkpt lat="47.17014" lon="5.90821">
        <ele>279</ele>
        <time>2022-07-24T19:22:07Z</time>
      </trkpt>
      <trkpt lat="47.17017" lon="5.9082">
        <ele>278.4</ele>
        <time>2022-07-24T19:22:08Z</time>
      </trkpt>
      <trkpt lat="47.17019" lon="5.90818">
        <ele>277.8</ele>
        <time>2022-07-24T19:22:09Z</time>
      </trkpt>
      <trkpt lat="47.1702" lon="5.90815">
        <ele>277.6</ele>
        <time>2022-07-24T19:22:10Z</time>
      </trkpt>
      <trkpt lat="47.17022" lon="5.90813">
        <ele>276.8</ele>
        <time>2022-07-24T19:22:11Z</time>
      </trkpt>
      <trkpt lat="47.17029" lon="5.90812">
        <ele>275.6</ele>
        <time>2022-07-24T19:22:13Z</time>
      </trkpt>
      <trkpt lat="47.17032" lon="5.90813">
        <ele>275.2</ele>
        <time>2022-07-24T19:22:14Z</time>
      </trkpt>
      <trkpt lat="47.17038" lon="5.90812">
        <ele>274</ele>
        <time>2022-07-24T19:22:16Z</time>
      </trkpt>
      <trkpt lat="47.1704" lon="5.90811">
        <ele>273.6</ele>
        <time>2022-07-24T19:22:17Z</time>
      </trkpt>
      <trkpt lat="47.17042" lon="5.9081">
        <ele>273.2</ele>
        <time>2022-07-24T19:22:18Z</time>
      </trkpt>
      <trkpt lat="47.17043" lon="5.90808">
        <ele>273</ele>
        <time>2022-07-24T19:22:19Z</time>
      </trkpt>
      <trkpt lat="47.17045" lon="5.90806">
        <ele>272.6</ele>
        <time>2022-07-24T19:22:20Z</time>
      </trkpt>
      <trkpt lat="47.17046" lon="5.90804">
        <ele>272.6</ele>
        <time>2022-07-24T19:22:21Z</time>
      </trkpt>
      <trkpt lat="47.17048" lon="5.90801">
        <ele>272.2</ele>
        <time>2022-07-24T19:22:22Z</time>
      </trkpt>
      <trkpt lat="47.1705" lon="5.908">
        <ele>272</ele>
        <time>2022-07-24T19:22:23Z</time>
      </trkpt>
      <trkpt lat="47.17055" lon="5.90796">
        <ele>271.8</ele>
        <time>2022-07-24T19:22:25Z</time>
      </trkpt>
      <trkpt lat="47.17058" lon="5.90794">
        <ele>271.6</ele>
        <time>2022-07-24T19:22:26Z</time>
      </trkpt>
      <trkpt lat="47.17066" lon="5.90784">
        <ele>271</ele>
        <time>2022-07-24T19:22:31Z</time>
      </trkpt>
      <trkpt lat="47.17067" lon="5.90783">
        <ele>270.6</ele>
        <time>2022-07-24T19:22:32Z</time>
      </trkpt>
      <trkpt lat="47.17079" lon="5.90766">
        <ele>269.8</ele>
        <time>2022-07-24T19:22:37Z</time>
      </trkpt>
      <trkpt lat="47.17085" lon="5.90757">
        <ele>269.4</ele>
        <time>2022-07-24T19:22:39Z</time>
      </trkpt>
      <trkpt lat="47.17088" lon="5.90753">
        <ele>269.2</ele>
        <time>2022-07-24T19:22:40Z</time>
      </trkpt>
      <trkpt lat="47.17091" lon="5.9075">
        <ele>268.8</ele>
        <time>2022-07-24T19:22:41Z</time>
      </trkpt>
      <trkpt lat="47.17093" lon="5.90747">
        <ele>268.6</ele>
        <time>2022-07-24T19:22:42Z</time>
      </trkpt>
      <trkpt lat="47.17095" lon="5.90744">
        <ele>268.4</ele>
        <time>2022-07-24T19:22:43Z</time>
      </trkpt>
      <trkpt lat="47.17096" lon="5.90742">
        <ele>268</ele>
        <time>2022-07-24T19:22:44Z</time>
      </trkpt>
      <trkpt lat="47.17098" lon="5.9074">
        <ele>267.8</ele>
        <time>2022-07-24T19:22:45Z</time>
      </trkpt>
      <trkpt lat="47.17115" lon="5.90725">
        <ele>267.2</ele>
        <time>2022-07-24T19:22:50Z</time>
      </trkpt>
      <trkpt lat="47.17119" lon="5.90723">
        <ele>267</ele>
        <time>2022-07-24T19:22:51Z</time>
      </trkpt>
      <trkpt lat="47.17127" lon="5.90715">
        <ele>266.6</ele>
        <time>2022-07-24T19:22:53Z</time>
      </trkpt>
      <trkpt lat="47.17135" lon="5.90707">
        <ele>266.2</ele>
        <time>2022-07-24T19:22:55Z</time>
      </trkpt>
      <trkpt lat="47.17146" lon="5.9069">
        <ele>265.8</ele>
        <time>2022-07-24T19:22:58Z</time>
      </trkpt>
      <trkpt lat="47.17154" lon="5.90677">
        <ele>265.4</ele>
        <time>2022-07-24T19:23:00Z</time>
      </trkpt>
      <trkpt lat="47.17165" lon="5.90653">
        <ele>264.8</ele>
        <time>2022-07-24T19:23:03Z</time>
      </trkpt>
      <trkpt lat="47.17168" lon="5.90644">
        <ele>264.6</ele>
        <time>2022-07-24T19:23:04Z</time>
      </trkpt>
      <trkpt lat="47.17172" lon="5.90635">
        <ele>264.2</ele>
        <time>2022-07-24T19:23:05Z</time>
      </trkpt>
      <trkpt lat="47.17179" lon="5.90615">
        <ele>263.4</ele>
        <time>2022-07-24T19:23:07Z</time>
      </trkpt>
      <trkpt lat="47.17187" lon="5.90596">
        <ele>262.6</ele>
        <time>2022-07-24T19:23:09Z</time>
      </trkpt>
      <trkpt lat="47.17191" lon="5.90586">
        <ele>262.4</ele>
        <time>2022-07-24T19:23:10Z</time>
      </trkpt>
      <trkpt lat="47.17196" lon="5.90576">
        <ele>262</ele>
        <time>2022-07-24T19:23:11Z</time>
      </trkpt>
      <trkpt lat="47.172" lon="5.90566">
        <ele>261.4</ele>
        <time>2022-07-24T19:23:12Z</time>
      </trkpt>
      <trkpt lat="47.17205" lon="5.90556">
        <ele>261.2</ele>
        <time>2022-07-24T19:23:13Z</time>
      </trkpt>
      <trkpt lat="47.17218" lon="5.90525">
        <ele>260</ele>
        <time>2022-07-24T19:23:16Z</time>
      </trkpt>
      <trkpt lat="47.17223" lon="5.90516">
        <ele>259.2</ele>
        <time>2022-07-24T19:23:17Z</time>
      </trkpt>
      <trkpt lat="47.17227" lon="5.90508">
        <ele>259</ele>
        <time>2022-07-24T19:23:18Z</time>
      </trkpt>
      <trkpt lat="47.1723" lon="5.90501">
        <ele>258.6</ele>
        <time>2022-07-24T19:23:19Z</time>
      </trkpt>
      <trkpt lat="47.17234" lon="5.90497">
        <ele>258.4</ele>
        <time>2022-07-24T19:23:20Z</time>
      </trkpt>
      <trkpt lat="47.17237" lon="5.90497">
        <ele>257.6</ele>
        <time>2022-07-24T19:23:21Z</time>
      </trkpt>
      <trkpt lat="47.1724" lon="5.905">
        <ele>257.2</ele>
        <time>2022-07-24T19:23:22Z</time>
      </trkpt>
      <trkpt lat="47.17241" lon="5.90506">
        <ele>256.8</ele>
        <time>2022-07-24T19:23:23Z</time>
      </trkpt>
      <trkpt lat="47.17243" lon="5.90511">
        <ele>256.6</ele>
        <time>2022-07-24T19:23:24Z</time>
      </trkpt>
      <trkpt lat="47.17246" lon="5.90516">
        <ele>256.4</ele>
        <time>2022-07-24T19:23:25Z</time>
      </trkpt>
      <trkpt lat="47.17249" lon="5.90522">
        <ele>256.2</ele>
        <time>2022-07-24T19:23:26Z</time>
      </trkpt>
      <trkpt lat="47.17256" lon="5.90536">
        <ele>255.6</ele>
        <time>2022-07-24T19:23:28Z</time>
      </trkpt>
      <trkpt lat="47.17258" lon="5.90544">
        <ele>255.4</ele>
        <time>2022-07-24T19:23:29Z</time>
      </trkpt>
      <trkpt lat="47.1726" lon="5.90551">
        <ele>255</ele>
        <time>2022-07-24T19:23:30Z</time>
      </trkpt>
      <trkpt lat="47.1726" lon="5.90558">
        <ele>254.6</ele>
        <time>2022-07-24T19:23:31Z</time>
      </trkpt>
      <trkpt lat="47.17258" lon="5.90565">
        <ele>254.4</ele>
        <time>2022-07-24T19:23:32Z</time>
      </trkpt>
      <trkpt lat="47.17249" lon="5.90578">
        <ele>253.6</ele>
        <time>2022-07-24T19:23:34Z</time>
      </trkpt>
      <trkpt lat="47.17244" lon="5.90585">
        <ele>252.8</ele>
        <time>2022-07-24T19:23:35Z</time>
      </trkpt>
      <trkpt lat="47.17239" lon="5.90593">
        <ele>252.6</ele>
        <time>2022-07-24T19:23:36Z</time>
      </trkpt>
      <trkpt lat="47.17227" lon="5.9061">
        <ele>251.4</ele>
        <time>2022-07-24T19:23:38Z</time>
      </trkpt>
      <trkpt lat="47.17216" lon="5.90626">
        <ele>250.6</ele>
        <time>2022-07-24T19:23:40Z</time>
      </trkpt>
      <trkpt lat="47.17211" lon="5.90633">
        <ele>250.2</ele>
        <time>2022-07-24T19:23:41Z</time>
      </trkpt>
      <trkpt lat="47.17206" lon="5.90641">
        <ele>249.2</ele>
        <time>2022-07-24T19:23:42Z</time>
      </trkpt>
      <trkpt lat="47.17201" lon="5.90649">
        <ele>248.8</ele>
        <time>2022-07-24T19:23:43Z</time>
      </trkpt>
      <trkpt lat="47.17192" lon="5.90666">
        <ele>247.2</ele>
        <time>2022-07-24T19:23:45Z</time>
      </trkpt>
      <trkpt lat="47.17188" lon="5.90673">
        <ele>247</ele>
        <time>2022-07-24T19:23:46Z</time>
      </trkpt>
      <trkpt lat="47.17184" lon="5.90678">
        <ele>246.4</ele>
        <time>2022-07-24T19:23:47Z</time>
      </trkpt>
      <trkpt lat="47.17182" lon="5.90684">
        <ele>246</ele>
        <time>2022-07-24T19:23:48Z</time>
      </trkpt>
      <trkpt lat="47.17181" lon="5.90688">
        <ele>246</ele>
        <time>2022-07-24T19:23:49Z</time>
      </trkpt>
      <trkpt lat="47.17181" lon="5.90691">
        <ele>245.6</ele>
        <time>2022-07-24T19:23:50Z</time>
      </trkpt>
      <trkpt lat="47.17182" lon="5.90695">
        <ele>245</ele>
        <time>2022-07-24T19:23:51Z</time>
      </trkpt>
      <trkpt lat="47.17184" lon="5.90696">
        <ele>244.6</ele>
        <time>2022-07-24T19:23:52Z</time>
      </trkpt>
      <trkpt lat="47.17186" lon="5.90695">
        <ele>244.4</ele>
        <time>2022-07-24T19:23:53Z</time>
      </trkpt>
      <trkpt lat="47.17191" lon="5.90689">
        <ele>244</ele>
        <time>2022-07-24T19:23:55Z</time>
      </trkpt>
      <trkpt lat="47.17193" lon="5.90686">
        <ele>243.8</ele>
        <time>2022-07-24T19:23:56Z</time>
      </trkpt>
      <trkpt lat="47.17203" lon="5.90673">
        <ele>242.8</ele>
        <time>2022-07-24T19:23:59Z</time>
      </trkpt>
      <trkpt lat="47.17206" lon="5.90669">
        <ele>242.6</ele>
        <time>2022-07-24T19:24:00Z</time>
      </trkpt>
      <trkpt lat="47.17217" lon="5.9066">
        <ele>241.6</ele>
        <time>2022-07-24T19:24:03Z</time>
      </trkpt>
      <trkpt lat="47.17223" lon="5.90653">
        <ele>240.8</ele>
        <time>2022-07-24T19:24:05Z</time>
      </trkpt>
      <trkpt lat="47.17225" lon="5.9065">
        <ele>239.6</ele>
        <time>2022-07-24T19:24:06Z</time>
      </trkpt>
      <trkpt lat="47.17227" lon="5.90648">
        <ele>239.4</ele>
        <time>2022-07-24T19:24:07Z</time>
      </trkpt>
      <trkpt lat="47.17229" lon="5.90645">
        <ele>239</ele>
        <time>2022-07-24T19:24:08Z</time>
      </trkpt>
      <trkpt lat="47.17231" lon="5.90643">
        <ele>239</ele>
        <time>2022-07-24T19:24:09Z</time>
      </trkpt>
      <trkpt lat="47.17233" lon="5.90642">
        <ele>239</ele>
        <time>2022-07-24T19:24:10Z</time>
      </trkpt>
      <trkpt lat="47.17234" lon="5.90641">
        <ele>238.8</ele>
        <time>2022-07-24T19:24:11Z</time>
      </trkpt>
      <trkpt lat="47.17235" lon="5.90639">
        <ele>239</ele>
        <time>2022-07-24T19:24:12Z</time>
      </trkpt>
      <trkpt lat="47.17241" lon="5.90632">
        <ele>239</ele>
        <time>2022-07-24T19:24:15Z</time>
      </trkpt>
      <trkpt lat="47.17246" lon="5.90628">
        <ele>239</ele>
        <time>2022-07-24T19:24:17Z</time>
      </trkpt>
      <trkpt lat="47.17249" lon="5.90626">
        <ele>239</ele>
        <time>2022-07-24T19:24:18Z</time>
      </trkpt>
      <trkpt lat="47.17252" lon="5.90624">
        <ele>239</ele>
        <time>2022-07-24T19:24:19Z</time>
      </trkpt>
      <trkpt lat="47.17255" lon="5.90621">
        <ele>239.2</ele>
        <time>2022-07-24T19:24:20Z</time>
      </trkpt>
      <trkpt lat="47.17271" lon="5.90611">
        <ele>239</ele>
        <time>2022-07-24T19:24:25Z</time>
      </trkpt>
      <trkpt lat="47.17274" lon="5.90608">
        <ele>239</ele>
        <time>2022-07-24T19:24:26Z</time>
      </trkpt>
      <trkpt lat="47.17288" lon="5.906">
        <ele>239</ele>
        <time>2022-07-24T19:24:30Z</time>
      </trkpt>
      <trkpt lat="47.17292" lon="5.90598">
        <ele>238.8</ele>
        <time>2022-07-24T19:24:31Z</time>
      </trkpt>
      <trkpt lat="47.17296" lon="5.90597">
        <ele>238.8</ele>
        <time>2022-07-24T19:24:32Z</time>
      </trkpt>
      <trkpt lat="47.17305" lon="5.90595">
        <ele>238.6</ele>
        <time>2022-07-24T19:24:34Z</time>
      </trkpt>
      <trkpt lat="47.17308" lon="5.90594">
        <ele>238.6</ele>
        <time>2022-07-24T19:24:35Z</time>
      </trkpt>
      <trkpt lat="47.17312" lon="5.90592">
        <ele>238.6</ele>
        <time>2022-07-24T19:24:37Z</time>
      </trkpt>
      <trkpt lat="47.17325" lon="5.90587">
        <ele>238.4</ele>
        <time>2022-07-24T19:24:40Z</time>
      </trkpt>
      <trkpt lat="47.17335" lon="5.90586">
        <ele>238.2</ele>
        <time>2022-07-24T19:24:43Z</time>
      </trkpt>
      <trkpt lat="47.17338" lon="5.90587">
        <ele>238.2</ele>
        <time>2022-07-24T19:24:44Z</time>
      </trkpt>
      <trkpt lat="47.1734" lon="5.90589">
        <ele>238.2</ele>
        <time>2022-07-24T19:24:45Z</time>
      </trkpt>
      <trkpt lat="47.17341" lon="5.90591">
        <ele>238.2</ele>
        <time>2022-07-24T19:24:46Z</time>
      </trkpt>
      <trkpt lat="47.17343" lon="5.90592">
        <ele>238.2</ele>
        <time>2022-07-24T19:24:47Z</time>
      </trkpt>
      <trkpt lat="47.17344" lon="5.90593">
        <ele>238.2</ele>
        <time>2022-07-24T19:24:48Z</time>
      </trkpt>
      <trkpt lat="47.17347" lon="5.90593">
        <ele>238.2</ele>
        <time>2022-07-24T19:24:50Z</time>
      </trkpt>
      <trkpt lat="47.17349" lon="5.90592">
        <ele>238.2</ele>
        <time>2022-07-24T19:24:51Z</time>
      </trkpt>
      <trkpt lat="47.17352" lon="5.90591">
        <ele>238.2</ele>
        <time>2022-07-24T19:24:52Z</time>
      </trkpt>
      <trkpt lat="47.17355" lon="5.9059">
        <ele>238</ele>
        <time>2022-07-24T19:24:53Z</time>
      </trkpt>
      <trkpt lat="47.17359" lon="5.9059">
        <ele>238</ele>
        <time>2022-07-24T19:24:54Z</time>
      </trkpt>
      <trkpt lat="47.17363" lon="5.9059">
        <ele>238</ele>
        <time>2022-07-24T19:24:55Z</time>
      </trkpt>
      <trkpt lat="47.17365" lon="5.90591">
        <ele>238</ele>
        <time>2022-07-24T19:24:56Z</time>
      </trkpt>
      <trkpt lat="47.17366" lon="5.90592">
        <ele>238</ele>
        <time>2022-07-24T19:24:57Z</time>
      </trkpt>
      <trkpt lat="47.17367" lon="5.90593">
        <ele>238</ele>
        <time>2022-07-24T19:24:58Z</time>
      </trkpt>
      <trkpt lat="47.17369" lon="5.90594">
        <ele>238</ele>
        <time>2022-07-24T19:24:59Z</time>
      </trkpt>
      <trkpt lat="47.17372" lon="5.90592">
        <ele>238</ele>
        <time>2022-07-24T19:25:00Z</time>
      </trkpt>
      <trkpt lat="47.17376" lon="5.90589">
        <ele>238</ele>
        <time>2022-07-24T19:25:01Z</time>
      </trkpt>
      <trkpt lat="47.17384" lon="5.90581">
        <ele>238</ele>
        <time>2022-07-24T19:25:03Z</time>
      </trkpt>
      <trkpt lat="47.17388" lon="5.90579">
        <ele>238.2</ele>
        <time>2022-07-24T19:25:04Z</time>
      </trkpt>
      <trkpt lat="47.17399" lon="5.90566">
        <ele>237.8</ele>
        <time>2022-07-24T19:25:08Z</time>
      </trkpt>
      <trkpt lat="47.17407" lon="5.90558">
        <ele>238</ele>
        <time>2022-07-24T19:25:11Z</time>
      </trkpt>
      <trkpt lat="47.17413" lon="5.90553">
        <ele>238.2</ele>
        <time>2022-07-24T19:25:13Z</time>
      </trkpt>
      <trkpt lat="47.17415" lon="5.9055">
        <ele>238.2</ele>
        <time>2022-07-24T19:25:14Z</time>
      </trkpt>
      <trkpt lat="47.17417" lon="5.90547">
        <ele>238.4</ele>
        <time>2022-07-24T19:25:15Z</time>
      </trkpt>
      <trkpt lat="47.17419" lon="5.90545">
        <ele>238.4</ele>
        <time>2022-07-24T19:25:16Z</time>
      </trkpt>
      <trkpt lat="47.1742" lon="5.90544">
        <ele>238.4</ele>
        <time>2022-07-24T19:25:17Z</time>
      </trkpt>
      <trkpt lat="47.1742" lon="5.90541">
        <ele>239</ele>
        <time>2022-07-24T19:25:18Z</time>
      </trkpt>
      <trkpt lat="47.17421" lon="5.90539">
        <ele>239.2</ele>
        <time>2022-07-24T19:25:19Z</time>
      </trkpt>
      <trkpt lat="47.17423" lon="5.90536">
        <ele>239.6</ele>
        <time>2022-07-24T19:25:20Z</time>
      </trkpt>
      <trkpt lat="47.17424" lon="5.90533">
        <ele>239.6</ele>
        <time>2022-07-24T19:25:21Z</time>
      </trkpt>
      <trkpt lat="47.17427" lon="5.90531">
        <ele>239.8</ele>
        <time>2022-07-24T19:25:22Z</time>
      </trkpt>
      <trkpt lat="47.1743" lon="5.90528">
        <ele>240</ele>
        <time>2022-07-24T19:25:23Z</time>
      </trkpt>
      <trkpt lat="47.17434" lon="5.90523">
        <ele>240.2</ele>
        <time>2022-07-24T19:25:25Z</time>
      </trkpt>
      <trkpt lat="47.1744" lon="5.90516">
        <ele>240.4</ele>
        <time>2022-07-24T19:25:27Z</time>
      </trkpt>
      <trkpt lat="47.17442" lon="5.90514">
        <ele>240.4</ele>
        <time>2022-07-24T19:25:28Z</time>
      </trkpt>
      <trkpt lat="47.17443" lon="5.90512">
        <ele>240.4</ele>
        <time>2022-07-24T19:25:29Z</time>
      </trkpt>
      <trkpt lat="47.17446" lon="5.9051">
        <ele>240.4</ele>
        <time>2022-07-24T19:25:30Z</time>
      </trkpt>
      <trkpt lat="47.17449" lon="5.90507">
        <ele>240.4</ele>
        <time>2022-07-24T19:25:31Z</time>
      </trkpt>
      <trkpt lat="47.17452" lon="5.90505">
        <ele>240.4</ele>
        <time>2022-07-24T19:25:32Z</time>
      </trkpt>
      <trkpt lat="47.17454" lon="5.90502">
        <ele>240.4</ele>
        <time>2022-07-24T19:25:33Z</time>
      </trkpt>
      <trkpt lat="47.17456" lon="5.90499">
        <ele>240.4</ele>
        <time>2022-07-24T19:25:34Z</time>
      </trkpt>
      <trkpt lat="47.17458" lon="5.90495">
        <ele>240.4</ele>
        <time>2022-07-24T19:25:35Z</time>
      </trkpt>
      <trkpt lat="47.17462" lon="5.90485">
        <ele>240.2</ele>
        <time>2022-07-24T19:25:37Z</time>
      </trkpt>
      <trkpt lat="47.17462" lon="5.90481">
        <ele>240</ele>
        <time>2022-07-24T19:25:38Z</time>
      </trkpt>
      <trkpt lat="47.17462" lon="5.90477">
        <ele>240</ele>
        <time>2022-07-24T19:25:39Z</time>
      </trkpt>
      <trkpt lat="47.17462" lon="5.90473">
        <ele>239.8</ele>
        <time>2022-07-24T19:25:40Z</time>
      </trkpt>
      <trkpt lat="47.17462" lon="5.9047">
        <ele>239.8</ele>
        <time>2022-07-24T19:25:41Z</time>
      </trkpt>
      <trkpt lat="47.17461" lon="5.90466">
        <ele>239.8</ele>
        <time>2022-07-24T19:25:42Z</time>
      </trkpt>
      <trkpt lat="47.17461" lon="5.90462">
        <ele>240.2</ele>
        <time>2022-07-24T19:25:43Z</time>
      </trkpt>
      <trkpt lat="47.17462" lon="5.90459">
        <ele>240.4</ele>
        <time>2022-07-24T19:25:44Z</time>
      </trkpt>
      <trkpt lat="47.17463" lon="5.90455">
        <ele>240.4</ele>
        <time>2022-07-24T19:25:45Z</time>
      </trkpt>
      <trkpt lat="47.17464" lon="5.90452">
        <ele>240.6</ele>
        <time>2022-07-24T19:25:46Z</time>
      </trkpt>
      <trkpt lat="47.17465" lon="5.90449">
        <ele>240.4</ele>
        <time>2022-07-24T19:25:47Z</time>
      </trkpt>
      <trkpt lat="47.17467" lon="5.90446">
        <ele>240.6</ele>
        <time>2022-07-24T19:25:48Z</time>
      </trkpt>
      <trkpt lat="47.17467" lon="5.90443">
        <ele>240.6</ele>
        <time>2022-07-24T19:25:49Z</time>
      </trkpt>
      <trkpt lat="47.17469" lon="5.9044">
        <ele>240.4</ele>
        <time>2022-07-24T19:25:50Z</time>
      </trkpt>
      <trkpt lat="47.1747" lon="5.90438">
        <ele>240.4</ele>
        <time>2022-07-24T19:25:51Z</time>
      </trkpt>
      <trkpt lat="47.17471" lon="5.90436">
        <ele>240.6</ele>
        <time>2022-07-24T19:25:52Z</time>
      </trkpt>
      <trkpt lat="47.17473" lon="5.90434">
        <ele>240.6</ele>
        <time>2022-07-24T19:25:53Z</time>
      </trkpt>
      <trkpt lat="47.17474" lon="5.90433">
        <ele>240.6</ele>
        <time>2022-07-24T19:25:54Z</time>
      </trkpt>
      <trkpt lat="47.17475" lon="5.90432">
        <ele>240.6</ele>
        <time>2022-07-24T19:25:55Z</time>
      </trkpt>
      <trkpt lat="47.17476" lon="5.90432">
        <ele>240.6</ele>
        <time>2022-07-24T19:25:56Z</time>
      </trkpt>
      <trkpt lat="47.17477" lon="5.90432">
        <ele>240.6</ele>
        <time>2022-07-24T19:25:57Z</time>
      </trkpt>
      <trkpt lat="47.17477" lon="5.90433">
        <ele>240.6</ele>
        <time>2022-07-24T19:25:58Z</time>
      </trkpt>
      <trkpt lat="47.17478" lon="5.90435">
        <ele>240.6</ele>
        <time>2022-07-24T19:25:59Z</time>
      </trkpt>
      <trkpt lat="47.17479" lon="5.90436">
        <ele>240.8</ele>
        <time>2022-07-24T19:26:00Z</time>
      </trkpt>
      <trkpt lat="47.1748" lon="5.90437">
        <ele>240.8</ele>
        <time>2022-07-24T19:26:01Z</time>
      </trkpt>
      <trkpt lat="47.17481" lon="5.9044">
        <ele>240.8</ele>
        <time>2022-07-24T19:26:03Z</time>
      </trkpt>
      <trkpt lat="47.17481" lon="5.90443">
        <ele>240.8</ele>
        <time>2022-07-24T19:26:24Z</time>
      </trkpt>
      <trkpt lat="47.17488" lon="5.90461">
        <ele>240.8</ele>
        <time>2022-07-24T19:26:29Z</time>
      </trkpt>
      <trkpt lat="47.17497" lon="5.90477">
        <ele>240.6</ele>
        <time>2022-07-24T19:26:33Z</time>
      </trkpt>
      <trkpt lat="47.175" lon="5.9048">
        <ele>240.6</ele>
        <time>2022-07-24T19:26:34Z</time>
      </trkpt>
      <trkpt lat="47.17503" lon="5.90482">
        <ele>240.6</ele>
        <time>2022-07-24T19:26:35Z</time>
      </trkpt>
      <trkpt lat="47.17506" lon="5.90483">
        <ele>240.4</ele>
        <time>2022-07-24T19:26:36Z</time>
      </trkpt>
      <trkpt lat="47.17509" lon="5.90483">
        <ele>240.4</ele>
        <time>2022-07-24T19:26:37Z</time>
      </trkpt>
      <trkpt lat="47.17512" lon="5.90483">
        <ele>240.4</ele>
        <time>2022-07-24T19:26:38Z</time>
      </trkpt>
      <trkpt lat="47.17515" lon="5.90483">
        <ele>240.2</ele>
        <time>2022-07-24T19:26:39Z</time>
      </trkpt>
      <trkpt lat="47.17522" lon="5.9048">
        <ele>240</ele>
        <time>2022-07-24T19:26:41Z</time>
      </trkpt>
      <trkpt lat="47.17524" lon="5.90478">
        <ele>240</ele>
        <time>2022-07-24T19:26:42Z</time>
      </trkpt>
      <trkpt lat="47.17527" lon="5.90477">
        <ele>239.8</ele>
        <time>2022-07-24T19:26:43Z</time>
      </trkpt>
      <trkpt lat="47.17531" lon="5.90475">
        <ele>239.6</ele>
        <time>2022-07-24T19:26:44Z</time>
      </trkpt>
      <trkpt lat="47.17535" lon="5.90474">
        <ele>239.4</ele>
        <time>2022-07-24T19:26:46Z</time>
      </trkpt>
      <trkpt lat="47.17538" lon="5.90473">
        <ele>239.4</ele>
        <time>2022-07-24T19:26:47Z</time>
      </trkpt>
      <trkpt lat="47.17541" lon="5.90472">
        <ele>239.2</ele>
        <time>2022-07-24T19:26:48Z</time>
      </trkpt>
      <trkpt lat="47.1756" lon="5.9046">
        <ele>239</ele>
        <time>2022-07-24T19:26:54Z</time>
      </trkpt>
      <trkpt lat="47.17584" lon="5.90446">
        <ele>240</ele>
        <time>2022-07-24T19:27:01Z</time>
      </trkpt>
      <trkpt lat="47.17606" lon="5.90439">
        <ele>240</ele>
        <time>2022-07-24T19:27:06Z</time>
      </trkpt>
      <trkpt lat="47.17611" lon="5.90438">
        <ele>240</ele>
        <time>2022-07-24T19:27:07Z</time>
      </trkpt>
      <trkpt lat="47.17633" lon="5.90435">
        <ele>239.6</ele>
        <time>2022-07-24T19:27:12Z</time>
      </trkpt>
      <trkpt lat="47.17642" lon="5.90433">
        <ele>239.6</ele>
        <time>2022-07-24T19:27:14Z</time>
      </trkpt>
      <trkpt lat="47.17664" lon="5.9043">
        <ele>239.8</ele>
        <time>2022-07-24T19:27:19Z</time>
      </trkpt>
      <trkpt lat="47.17668" lon="5.90429">
        <ele>239.8</ele>
        <time>2022-07-24T19:27:20Z</time>
      </trkpt>
      <trkpt lat="47.17677" lon="5.90427">
        <ele>240</ele>
        <time>2022-07-24T19:27:22Z</time>
      </trkpt>
      <trkpt lat="47.17681" lon="5.90426">
        <ele>240</ele>
        <time>2022-07-24T19:27:23Z</time>
      </trkpt>
      <trkpt lat="47.17692" lon="5.9042">
        <ele>240</ele>
        <time>2022-07-24T19:27:26Z</time>
      </trkpt>
      <trkpt lat="47.17696" lon="5.90418">
        <ele>240</ele>
        <time>2022-07-24T19:27:27Z</time>
      </trkpt>
      <trkpt lat="47.177" lon="5.90416">
        <ele>240</ele>
        <time>2022-07-24T19:27:28Z</time>
      </trkpt>
      <trkpt lat="47.17703" lon="5.90415">
        <ele>240</ele>
        <time>2022-07-24T19:27:29Z</time>
      </trkpt>
      <trkpt lat="47.17707" lon="5.90414">
        <ele>240.2</ele>
        <time>2022-07-24T19:27:30Z</time>
      </trkpt>
      <trkpt lat="47.17711" lon="5.90413">
        <ele>240.2</ele>
        <time>2022-07-24T19:27:31Z</time>
      </trkpt>
      <trkpt lat="47.17715" lon="5.90413">
        <ele>240.4</ele>
        <time>2022-07-24T19:27:32Z</time>
      </trkpt>
      <trkpt lat="47.17719" lon="5.90412">
        <ele>240.6</ele>
        <time>2022-07-24T19:27:33Z</time>
      </trkpt>
      <trkpt lat="47.17739" lon="5.90405">
        <ele>240.6</ele>
        <time>2022-07-24T19:27:38Z</time>
      </trkpt>
      <trkpt lat="47.17743" lon="5.90403">
        <ele>240.6</ele>
        <time>2022-07-24T19:27:39Z</time>
      </trkpt>
      <trkpt lat="47.17755" lon="5.90394">
        <ele>240.6</ele>
        <time>2022-07-24T19:27:42Z</time>
      </trkpt>
      <trkpt lat="47.17764" lon="5.90383">
        <ele>240.4</ele>
        <time>2022-07-24T19:27:45Z</time>
      </trkpt>
      <trkpt lat="47.17767" lon="5.90379">
        <ele>240.2</ele>
        <time>2022-07-24T19:27:46Z</time>
      </trkpt>
      <trkpt lat="47.1777" lon="5.90376">
        <ele>240.2</ele>
        <time>2022-07-24T19:27:47Z</time>
      </trkpt>
      <trkpt lat="47.17772" lon="5.90373">
        <ele>240.2</ele>
        <time>2022-07-24T19:27:48Z</time>
      </trkpt>
      <trkpt lat="47.17774" lon="5.90369">
        <ele>240.2</ele>
        <time>2022-07-24T19:27:49Z</time>
      </trkpt>
      <trkpt lat="47.17779" lon="5.90362">
        <ele>240</ele>
        <time>2022-07-24T19:27:51Z</time>
      </trkpt>
      <trkpt lat="47.17782" lon="5.90358">
        <ele>240</ele>
        <time>2022-07-24T19:27:52Z</time>
      </trkpt>
      <trkpt lat="47.17784" lon="5.90354">
        <ele>240.2</ele>
        <time>2022-07-24T19:27:53Z</time>
      </trkpt>
      <trkpt lat="47.17787" lon="5.90351">
        <ele>240</ele>
        <time>2022-07-24T19:27:54Z</time>
      </trkpt>
      <trkpt lat="47.17789" lon="5.90348">
        <ele>240</ele>
        <time>2022-07-24T19:27:55Z</time>
      </trkpt>
      <trkpt lat="47.17792" lon="5.90345">
        <ele>240</ele>
        <time>2022-07-24T19:27:56Z</time>
      </trkpt>
      <trkpt lat="47.17794" lon="5.90342">
        <ele>240.2</ele>
        <time>2022-07-24T19:27:57Z</time>
      </trkpt>
      <trkpt lat="47.17797" lon="5.9034">
        <ele>240.2</ele>
        <time>2022-07-24T19:27:58Z</time>
      </trkpt>
      <trkpt lat="47.17815" lon="5.90326">
        <ele>240.2</ele>
        <time>2022-07-24T19:28:04Z</time>
      </trkpt>
      <trkpt lat="47.17838" lon="5.90308">
        <ele>240</ele>
        <time>2022-07-24T19:28:11Z</time>
      </trkpt>
      <trkpt lat="47.17841" lon="5.90306">
        <ele>240</ele>
        <time>2022-07-24T19:28:12Z</time>
      </trkpt>
      <trkpt lat="47.17843" lon="5.90305">
        <ele>240</ele>
        <time>2022-07-24T19:28:13Z</time>
      </trkpt>
      <trkpt lat="47.17844" lon="5.90303">
        <ele>240</ele>
        <time>2022-07-24T19:28:14Z</time>
      </trkpt>
      <trkpt lat="47.17846" lon="5.90303">
        <ele>240</ele>
        <time>2022-07-24T19:28:15Z</time>
      </trkpt>
      <trkpt lat="47.17847" lon="5.90302">
        <ele>240.2</ele>
        <time>2022-07-24T19:28:16Z</time>
      </trkpt>
      <trkpt lat="47.17848" lon="5.90301">
        <ele>240.2</ele>
        <time>2022-07-24T19:28:17Z</time>
        <extensions>
          <visugpx:TrkExtension xmlns:visugpx="https://www.visugpx.com/editgpx/">
            <visugpx:node>5</visugpx:node>
            </visugpx:TrkExtension>
        </extensions>
      </trkpt>
    </trkseg>
  </trk>
</gpx>